<?xml version="1.0" encoding="UTF-8" standalone="no" ?>
<gpx xmlns="http://www.topografix.com/GPX/1/1" xmlns:xsi="http://www.w3.org/2001/XMLSchema-instance" xsi:schemaLocation="http://www.topografix.com/GPX/1/1 http://www.topografix.com/GPX/1/1/gpx.xsd" version="1.1" creator="VisuGPX - https://www.visugpx.com">
  <metadata>
    <name>Tour de L'ile de ré</name>
    <desc><![CDATA[Oubli de mettre sity trail au départ -
Une petite montée au phrase pour se dégourdir les jambes !]]></desc>
  </metadata>
  <trk>
    <name><![CDATA[SityTrail - ilevde re]]></name>
    <trkseg>
      <trkpt lat="46.17329" lon="-1.23474">
        <time>2023-07-16T06:52:31.035+00:00</time>
      </trkpt>
      <trkpt lat="46.17329" lon="-1.23474">
        <time>2023-07-16T06:52:31.035+00:00</time>
      </trkpt>
      <trkpt lat="46.17328" lon="-1.23472">
        <time>2023-07-16T06:52:32.930+00:00</time>
      </trkpt>
      <trkpt lat="46.17326" lon="-1.23491">
        <time>2023-07-16T06:52:36.937+00:00</time>
      </trkpt>
      <trkpt lat="46.17313" lon="-1.23541">
        <time>2023-07-16T06:52:41.069+00:00</time>
      </trkpt>
      <trkpt lat="46.17306" lon="-1.23565">
        <time>2023-07-16T06:52:45.078+00:00</time>
      </trkpt>
      <trkpt lat="46.173" lon="-1.23588">
        <time>2023-07-16T06:52:49.100+00:00</time>
      </trkpt>
      <trkpt lat="46.17296" lon="-1.2361">
        <time>2023-07-16T06:52:53.167+00:00</time>
      </trkpt>
      <trkpt lat="46.17289" lon="-1.23634">
        <time>2023-07-16T06:52:57.712+00:00</time>
      </trkpt>
      <trkpt lat="46.17281" lon="-1.23661">
        <time>2023-07-16T06:53:02.975+00:00</time>
      </trkpt>
      <trkpt lat="46.17274" lon="-1.23682">
        <time>2023-07-16T06:53:07.043+00:00</time>
      </trkpt>
      <trkpt lat="46.17267" lon="-1.2371">
        <time>2023-07-16T06:53:12.085+00:00</time>
      </trkpt>
      <trkpt lat="46.17261" lon="-1.23731">
        <time>2023-07-16T06:53:16.080+00:00</time>
      </trkpt>
      <trkpt lat="46.17254" lon="-1.23753">
        <time>2023-07-16T06:53:20.324+00:00</time>
      </trkpt>
      <trkpt lat="46.17246" lon="-1.23776">
        <time>2023-07-16T06:53:24.510+00:00</time>
      </trkpt>
      <trkpt lat="46.1724" lon="-1.23799">
        <time>2023-07-16T06:53:29.086+00:00</time>
      </trkpt>
      <trkpt lat="46.17231" lon="-1.23825">
        <time>2023-07-16T06:53:33.590+00:00</time>
      </trkpt>
      <trkpt lat="46.17223" lon="-1.23851">
        <time>2023-07-16T06:53:38.748+00:00</time>
      </trkpt>
      <trkpt lat="46.17216" lon="-1.23877">
        <time>2023-07-16T06:53:43.894+00:00</time>
      </trkpt>
      <trkpt lat="46.17207" lon="-1.23903">
        <time>2023-07-16T06:53:49.087+00:00</time>
      </trkpt>
      <trkpt lat="46.17198" lon="-1.23927">
        <time>2023-07-16T06:53:53.586+00:00</time>
      </trkpt>
      <trkpt lat="46.17191" lon="-1.2395">
        <time>2023-07-16T06:53:58.373+00:00</time>
      </trkpt>
      <trkpt lat="46.17184" lon="-1.23974">
        <time>2023-07-16T06:54:02.903+00:00</time>
      </trkpt>
      <trkpt lat="46.17178" lon="-1.23994">
        <time>2023-07-16T06:54:07.070+00:00</time>
      </trkpt>
      <trkpt lat="46.17171" lon="-1.24014">
        <time>2023-07-16T06:54:11.590+00:00</time>
      </trkpt>
      <trkpt lat="46.17164" lon="-1.24034">
        <time>2023-07-16T06:54:16.167+00:00</time>
      </trkpt>
      <trkpt lat="46.17157" lon="-1.24054">
        <time>2023-07-16T06:54:20.714+00:00</time>
      </trkpt>
      <trkpt lat="46.17151" lon="-1.24074">
        <time>2023-07-16T06:54:24.782+00:00</time>
      </trkpt>
      <trkpt lat="46.17143" lon="-1.24093">
        <time>2023-07-16T06:54:28.730+00:00</time>
      </trkpt>
      <trkpt lat="46.17133" lon="-1.24118">
        <time>2023-07-16T06:54:33.992+00:00</time>
      </trkpt>
      <trkpt lat="46.17125" lon="-1.2414">
        <time>2023-07-16T06:54:37.581+00:00</time>
      </trkpt>
      <trkpt lat="46.17115" lon="-1.24167">
        <time>2023-07-16T06:54:42.708+00:00</time>
      </trkpt>
      <trkpt lat="46.17106" lon="-1.2419">
        <time>2023-07-16T06:54:46.753+00:00</time>
      </trkpt>
      <trkpt lat="46.17096" lon="-1.2422">
        <time>2023-07-16T06:54:51.933+00:00</time>
      </trkpt>
      <trkpt lat="46.17086" lon="-1.24241">
        <time>2023-07-16T06:54:56.001+00:00</time>
      </trkpt>
      <trkpt lat="46.17075" lon="-1.2427">
        <time>2023-07-16T06:55:01.127+00:00</time>
      </trkpt>
      <trkpt lat="46.17064" lon="-1.243">
        <time>2023-07-16T06:55:06.072+00:00</time>
      </trkpt>
      <trkpt lat="46.17053" lon="-1.24329">
        <time>2023-07-16T06:55:11.088+00:00</time>
      </trkpt>
      <trkpt lat="46.17044" lon="-1.24352">
        <time>2023-07-16T06:55:15.089+00:00</time>
      </trkpt>
      <trkpt lat="46.17033" lon="-1.24379">
        <time>2023-07-16T06:55:20.066+00:00</time>
      </trkpt>
      <trkpt lat="46.17025" lon="-1.24399">
        <time>2023-07-16T06:55:24.072+00:00</time>
      </trkpt>
      <trkpt lat="46.17015" lon="-1.24425">
        <time>2023-07-16T06:55:29.077+00:00</time>
      </trkpt>
      <trkpt lat="46.17006" lon="-1.24446">
        <time>2023-07-16T06:55:33.623+00:00</time>
      </trkpt>
      <trkpt lat="46.16996" lon="-1.2447">
        <time>2023-07-16T06:55:37.570+00:00</time>
      </trkpt>
      <trkpt lat="46.16986" lon="-1.24497">
        <time>2023-07-16T06:55:42.836+00:00</time>
      </trkpt>
      <trkpt lat="46.16977" lon="-1.24518">
        <time>2023-07-16T06:55:46.665+00:00</time>
      </trkpt>
      <trkpt lat="46.16968" lon="-1.24538">
        <time>2023-07-16T06:55:50.732+00:00</time>
      </trkpt>
      <trkpt lat="46.16958" lon="-1.24561">
        <time>2023-07-16T06:55:55.337+00:00</time>
      </trkpt>
      <trkpt lat="46.16948" lon="-1.24584">
        <time>2023-07-16T06:55:59.821+00:00</time>
      </trkpt>
      <trkpt lat="46.16936" lon="-1.24611">
        <time>2023-07-16T06:56:05.084+00:00</time>
      </trkpt>
      <trkpt lat="46.16925" lon="-1.24636">
        <time>2023-07-16T06:56:09.867+00:00</time>
      </trkpt>
      <trkpt lat="46.16915" lon="-1.24658">
        <time>2023-07-16T06:56:14.053+00:00</time>
      </trkpt>
      <trkpt lat="46.16906" lon="-1.24678">
        <time>2023-07-16T06:56:17.641+00:00</time>
      </trkpt>
      <trkpt lat="46.16893" lon="-1.24706">
        <time>2023-07-16T06:56:23.033+00:00</time>
      </trkpt>
      <trkpt lat="46.16881" lon="-1.24732">
        <time>2023-07-16T06:56:27.816+00:00</time>
      </trkpt>
      <trkpt lat="46.1687" lon="-1.24757">
        <time>2023-07-16T06:56:32.480+00:00</time>
      </trkpt>
      <trkpt lat="46.1686" lon="-1.24779">
        <time>2023-07-16T06:56:36.673+00:00</time>
      </trkpt>
      <trkpt lat="46.16847" lon="-1.24806">
        <time>2023-07-16T06:56:42.054+00:00</time>
      </trkpt>
      <trkpt lat="46.16835" lon="-1.24831">
        <time>2023-07-16T06:56:46.598+00:00</time>
      </trkpt>
      <trkpt lat="46.16823" lon="-1.24855">
        <time>2023-07-16T06:56:51.859+00:00</time>
      </trkpt>
      <trkpt lat="46.16812" lon="-1.24881">
        <time>2023-07-16T06:56:56.521+00:00</time>
      </trkpt>
      <trkpt lat="46.16801" lon="-1.24904">
        <time>2023-07-16T06:57:01.091+00:00</time>
      </trkpt>
      <trkpt lat="46.1679" lon="-1.24927">
        <time>2023-07-16T06:57:05.601+00:00</time>
      </trkpt>
      <trkpt lat="46.16776" lon="-1.24953">
        <time>2023-07-16T06:57:10.097+00:00</time>
      </trkpt>
      <trkpt lat="46.16762" lon="-1.2498">
        <time>2023-07-16T06:57:15.093+00:00</time>
      </trkpt>
      <trkpt lat="46.16747" lon="-1.25009">
        <time>2023-07-16T06:57:20.080+00:00</time>
      </trkpt>
      <trkpt lat="46.16732" lon="-1.25038">
        <time>2023-07-16T06:57:25.072+00:00</time>
      </trkpt>
      <trkpt lat="46.16719" lon="-1.25061">
        <time>2023-07-16T06:57:29.094+00:00</time>
      </trkpt>
      <trkpt lat="46.16704" lon="-1.25091">
        <time>2023-07-16T06:57:34.088+00:00</time>
      </trkpt>
      <trkpt lat="46.16691" lon="-1.25115">
        <time>2023-07-16T06:57:38.087+00:00</time>
      </trkpt>
      <trkpt lat="46.16676" lon="-1.25143">
        <time>2023-07-16T06:57:43.090+00:00</time>
      </trkpt>
      <trkpt lat="46.16659" lon="-1.25173">
        <time>2023-07-16T06:57:48.069+00:00</time>
      </trkpt>
      <trkpt lat="46.16646" lon="-1.25197">
        <time>2023-07-16T06:57:52.108+00:00</time>
      </trkpt>
      <trkpt lat="46.16629" lon="-1.25226">
        <time>2023-07-16T06:57:57.087+00:00</time>
      </trkpt>
      <trkpt lat="46.16616" lon="-1.2525">
        <time>2023-07-16T06:58:01.098+00:00</time>
      </trkpt>
      <trkpt lat="46.166" lon="-1.25278">
        <ele>5</ele>
        <time>2023-07-16T06:58:06.061+00:00</time>
      </trkpt>
      <trkpt lat="46.16587" lon="-1.25301">
        <ele>5</ele>
        <time>2023-07-16T06:58:10.075+00:00</time>
      </trkpt>
      <trkpt lat="46.1657" lon="-1.25331">
        <ele>2</ele>
        <time>2023-07-16T06:58:15.097+00:00</time>
      </trkpt>
      <trkpt lat="46.16553" lon="-1.2536">
        <ele>2</ele>
        <time>2023-07-16T06:58:20.084+00:00</time>
      </trkpt>
      <trkpt lat="46.16539" lon="-1.25384">
        <ele>4</ele>
        <time>2023-07-16T06:58:24.090+00:00</time>
      </trkpt>
      <trkpt lat="46.16521" lon="-1.25414">
        <ele>4</ele>
        <time>2023-07-16T06:58:29.091+00:00</time>
      </trkpt>
      <trkpt lat="46.16502" lon="-1.25445">
        <ele>5</ele>
        <time>2023-07-16T06:58:34.090+00:00</time>
      </trkpt>
      <trkpt lat="46.16487" lon="-1.25468">
        <ele>4</ele>
        <time>2023-07-16T06:58:38.113+00:00</time>
      </trkpt>
      <trkpt lat="46.16469" lon="-1.25499">
        <ele>6</ele>
        <time>2023-07-16T06:58:43.081+00:00</time>
      </trkpt>
      <trkpt lat="46.16453" lon="-1.25523">
        <ele>6</ele>
        <time>2023-07-16T06:58:47.105+00:00</time>
      </trkpt>
      <trkpt lat="46.16434" lon="-1.25553">
        <ele>6</ele>
        <time>2023-07-16T06:58:52.071+00:00</time>
      </trkpt>
      <trkpt lat="46.16419" lon="-1.25576">
        <ele>7</ele>
        <time>2023-07-16T06:58:56.099+00:00</time>
      </trkpt>
      <trkpt lat="46.16403" lon="-1.25601">
        <ele>5</ele>
        <time>2023-07-16T06:59:01.082+00:00</time>
      </trkpt>
      <trkpt lat="46.1639" lon="-1.25622">
        <ele>7</ele>
        <time>2023-07-16T06:59:05.089+00:00</time>
      </trkpt>
      <trkpt lat="46.16373" lon="-1.25649">
        <ele>5</ele>
        <time>2023-07-16T06:59:10.088+00:00</time>
      </trkpt>
      <trkpt lat="46.16355" lon="-1.25672">
        <ele>3</ele>
        <time>2023-07-16T06:59:15.074+00:00</time>
      </trkpt>
      <trkpt lat="46.16339" lon="-1.25691">
        <ele>1</ele>
        <time>2023-07-16T06:59:19.078+00:00</time>
      </trkpt>
      <trkpt lat="46.16323" lon="-1.25719">
        <ele>3</ele>
        <time>2023-07-16T06:59:24.069+00:00</time>
      </trkpt>
      <trkpt lat="46.16316" lon="-1.25748">
        <ele>4</ele>
        <time>2023-07-16T06:59:28.095+00:00</time>
      </trkpt>
      <trkpt lat="46.16303" lon="-1.25782">
        <ele>5</ele>
        <time>2023-07-16T06:59:33.095+00:00</time>
      </trkpt>
      <trkpt lat="46.16293" lon="-1.25811">
        <ele>6</ele>
        <time>2023-07-16T06:59:37.106+00:00</time>
      </trkpt>
      <trkpt lat="46.16284" lon="-1.25832">
        <ele>6</ele>
        <time>2023-07-16T06:59:42.090+00:00</time>
      </trkpt>
      <trkpt lat="46.16274" lon="-1.25847">
        <ele>6</ele>
        <time>2023-07-16T06:59:46.870+00:00</time>
      </trkpt>
      <trkpt lat="46.16268" lon="-1.25859">
        <ele>5</ele>
        <time>2023-07-16T06:59:51.053+00:00</time>
      </trkpt>
      <trkpt lat="46.16261" lon="-1.25871">
        <ele>7</ele>
        <time>2023-07-16T06:59:55.238+00:00</time>
      </trkpt>
      <trkpt lat="46.16255" lon="-1.25891">
        <ele>7</ele>
        <time>2023-07-16T06:59:59.405+00:00</time>
      </trkpt>
      <trkpt lat="46.16248" lon="-1.25908">
        <ele>5</ele>
        <time>2023-07-16T07:00:04.070+00:00</time>
      </trkpt>
      <trkpt lat="46.16241" lon="-1.25926">
        <ele>5</ele>
        <time>2023-07-16T07:00:08.257+00:00</time>
      </trkpt>
      <trkpt lat="46.16234" lon="-1.25947">
        <ele>5</ele>
        <time>2023-07-16T07:00:12.805+00:00</time>
      </trkpt>
      <trkpt lat="46.16224" lon="-1.25975">
        <ele>5</ele>
        <time>2023-07-16T07:00:17.470+00:00</time>
      </trkpt>
      <trkpt lat="46.16213" lon="-1.26002">
        <ele>4</ele>
        <time>2023-07-16T07:00:22.817+00:00</time>
      </trkpt>
      <trkpt lat="46.16205" lon="-1.26021">
        <ele>5</ele>
        <time>2023-07-16T07:00:27.019+00:00</time>
      </trkpt>
      <trkpt lat="46.16197" lon="-1.26037">
        <ele>5</ele>
        <time>2023-07-16T07:00:31.084+00:00</time>
      </trkpt>
      <trkpt lat="46.16184" lon="-1.26053">
        <ele>4</ele>
        <time>2023-07-16T07:00:35.870+00:00</time>
      </trkpt>
      <trkpt lat="46.16174" lon="-1.26065">
        <ele>5</ele>
        <time>2023-07-16T07:00:40.061+00:00</time>
      </trkpt>
      <trkpt lat="46.16164" lon="-1.26077">
        <ele>5</ele>
        <time>2023-07-16T07:00:44.248+00:00</time>
      </trkpt>
      <trkpt lat="46.16155" lon="-1.26087">
        <ele>5</ele>
        <time>2023-07-16T07:00:48.435+00:00</time>
      </trkpt>
      <trkpt lat="46.16144" lon="-1.261">
        <ele>6</ele>
        <time>2023-07-16T07:00:52.621+00:00</time>
      </trkpt>
      <trkpt lat="46.16141" lon="-1.26119">
        <ele>6</ele>
        <time>2023-07-16T07:00:57.248+00:00</time>
      </trkpt>
      <trkpt lat="46.16128" lon="-1.26136">
        <ele>5</ele>
        <time>2023-07-16T07:01:02.033+00:00</time>
      </trkpt>
      <trkpt lat="46.16119" lon="-1.26155">
        <ele>4</ele>
        <time>2023-07-16T07:01:06.201+00:00</time>
      </trkpt>
      <trkpt lat="46.16111" lon="-1.26177">
        <ele>4</ele>
        <time>2023-07-16T07:01:10.628+00:00</time>
      </trkpt>
      <trkpt lat="46.16102" lon="-1.26202">
        <ele>4</ele>
        <time>2023-07-16T07:01:15.773+00:00</time>
      </trkpt>
      <trkpt lat="46.16094" lon="-1.26219">
        <ele>3</ele>
        <time>2023-07-16T07:01:19.839+00:00</time>
      </trkpt>
      <trkpt lat="46.16086" lon="-1.26242">
        <ele>2</ele>
        <time>2023-07-16T07:01:24.503+00:00</time>
      </trkpt>
      <trkpt lat="46.16078" lon="-1.26262">
        <ele>2</ele>
        <time>2023-07-16T07:01:29.032+00:00</time>
      </trkpt>
      <trkpt lat="46.1607" lon="-1.26278">
        <ele>2</ele>
        <time>2023-07-16T07:01:33.072+00:00</time>
      </trkpt>
      <trkpt lat="46.16062" lon="-1.263">
        <ele>3</ele>
        <time>2023-07-16T07:02:43.809+00:00</time>
      </trkpt>
      <trkpt lat="46.16062" lon="-1.263">
        <ele>3</ele>
        <time>2023-07-16T07:02:47.829+00:00</time>
      </trkpt>
      <trkpt lat="46.16061" lon="-1.26302">
        <ele>3</ele>
        <time>2023-07-16T07:02:52.024+00:00</time>
      </trkpt>
      <trkpt lat="46.16059" lon="-1.26302">
        <ele>3</ele>
        <time>2023-07-16T07:02:56.814+00:00</time>
      </trkpt>
      <trkpt lat="46.16052" lon="-1.26311">
        <ele>3</ele>
        <time>2023-07-16T07:03:00.886+00:00</time>
      </trkpt>
      <trkpt lat="46.16044" lon="-1.26324">
        <ele>4</ele>
        <time>2023-07-16T07:03:05.635+00:00</time>
      </trkpt>
      <trkpt lat="46.16035" lon="-1.26342">
        <ele>4</ele>
        <time>2023-07-16T07:03:10.313+00:00</time>
      </trkpt>
      <trkpt lat="46.16026" lon="-1.2636">
        <ele>4</ele>
        <time>2023-07-16T07:03:14.853+00:00</time>
      </trkpt>
      <trkpt lat="46.16027" lon="-1.26382">
        <ele>4</ele>
        <time>2023-07-16T07:03:19.401+00:00</time>
      </trkpt>
      <trkpt lat="46.16022" lon="-1.26405">
        <ele>5</ele>
        <time>2023-07-16T07:03:23.952+00:00</time>
      </trkpt>
      <trkpt lat="46.16013" lon="-1.26424">
        <ele>5</ele>
        <time>2023-07-16T07:03:28.621+00:00</time>
      </trkpt>
      <trkpt lat="46.16007" lon="-1.26444">
        <ele>6</ele>
        <time>2023-07-16T07:03:32.809+00:00</time>
      </trkpt>
      <trkpt lat="46.16" lon="-1.26465">
        <ele>6</ele>
        <time>2023-07-16T07:03:37.313+00:00</time>
      </trkpt>
      <trkpt lat="46.15994" lon="-1.26485">
        <ele>6</ele>
        <time>2023-07-16T07:03:41.746+00:00</time>
      </trkpt>
      <trkpt lat="46.15989" lon="-1.26504">
        <ele>5</ele>
        <time>2023-07-16T07:03:45.574+00:00</time>
      </trkpt>
      <trkpt lat="46.15984" lon="-1.26528">
        <ele>6</ele>
        <time>2023-07-16T07:03:50.241+00:00</time>
      </trkpt>
      <trkpt lat="46.15985" lon="-1.26549">
        <ele>6</ele>
        <time>2023-07-16T07:03:54.969+00:00</time>
      </trkpt>
      <trkpt lat="46.15986" lon="-1.26562">
        <ele>6</ele>
        <time>2023-07-16T07:03:58.855+00:00</time>
      </trkpt>
      <trkpt lat="46.15988" lon="-1.26578">
        <ele>6</ele>
        <time>2023-07-16T07:04:04.071+00:00</time>
      </trkpt>
      <trkpt lat="46.15995" lon="-1.26595">
        <ele>6</ele>
        <time>2023-07-16T07:04:08.665+00:00</time>
      </trkpt>
      <trkpt lat="46.15994" lon="-1.26596">
        <ele>6</ele>
        <time>2023-07-16T07:04:12.612+00:00</time>
      </trkpt>
      <trkpt lat="46.15994" lon="-1.26596">
        <ele>6</ele>
        <time>2023-07-16T07:04:17.737+00:00</time>
      </trkpt>
      <trkpt lat="46.15995" lon="-1.26596">
        <ele>6</ele>
        <time>2023-07-16T07:04:22.760+00:00</time>
      </trkpt>
      <trkpt lat="46.15996" lon="-1.26598">
        <ele>5</ele>
        <time>2023-07-16T07:04:27.863+00:00</time>
      </trkpt>
      <trkpt lat="46.16001" lon="-1.26623">
        <ele>5</ele>
        <time>2023-07-16T07:04:32.624+00:00</time>
      </trkpt>
      <trkpt lat="46.16003" lon="-1.26643">
        <ele>3</ele>
        <time>2023-07-16T07:04:37.746+00:00</time>
      </trkpt>
      <trkpt lat="46.15998" lon="-1.26662">
        <ele>2</ele>
        <time>2023-07-16T07:04:41.605+00:00</time>
      </trkpt>
      <trkpt lat="46.15994" lon="-1.26686">
        <ele>1</ele>
        <time>2023-07-16T07:04:46.949+00:00</time>
      </trkpt>
      <trkpt lat="46.15991" lon="-1.26706">
        <ele>1</ele>
        <time>2023-07-16T07:04:51.191+00:00</time>
      </trkpt>
      <trkpt lat="46.15987" lon="-1.2673">
        <ele>2</ele>
        <time>2023-07-16T07:04:55.693+00:00</time>
      </trkpt>
      <trkpt lat="46.15985" lon="-1.26755">
        <ele>5</ele>
        <time>2023-07-16T07:05:00.296+00:00</time>
      </trkpt>
      <trkpt lat="46.15983" lon="-1.26777">
        <ele>5</ele>
        <time>2023-07-16T07:05:04.299+00:00</time>
      </trkpt>
      <trkpt lat="46.1598" lon="-1.26798">
        <ele>5</ele>
        <time>2023-07-16T07:05:08.401+00:00</time>
      </trkpt>
      <trkpt lat="46.15978" lon="-1.26821">
        <ele>4.8</ele>
        <time>2023-07-16T07:05:12.840+00:00</time>
      </trkpt>
      <trkpt lat="46.15978" lon="-1.2684">
        <ele>4.7</ele>
        <time>2023-07-16T07:05:17.516+00:00</time>
      </trkpt>
      <trkpt lat="46.15977" lon="-1.2686">
        <ele>4.7</ele>
        <time>2023-07-16T07:05:21.643+00:00</time>
      </trkpt>
      <trkpt lat="46.15975" lon="-1.2688">
        <ele>4.8</ele>
        <time>2023-07-16T07:05:26.041+00:00</time>
      </trkpt>
      <trkpt lat="46.15974" lon="-1.26903">
        <ele>4.8</ele>
        <time>2023-07-16T07:05:30.264+00:00</time>
      </trkpt>
      <trkpt lat="46.15973" lon="-1.26924">
        <ele>4.7</ele>
        <time>2023-07-16T07:05:34.664+00:00</time>
      </trkpt>
      <trkpt lat="46.15972" lon="-1.26944">
        <ele>4</ele>
        <time>2023-07-16T07:05:38.783+00:00</time>
      </trkpt>
      <trkpt lat="46.15969" lon="-1.26966">
        <ele>4.2</ele>
        <time>2023-07-16T07:05:43.052+00:00</time>
      </trkpt>
      <trkpt lat="46.15965" lon="-1.26982">
        <ele>4.5</ele>
        <time>2023-07-16T07:05:47.385+00:00</time>
      </trkpt>
      <trkpt lat="46.15967" lon="-1.26986">
        <ele>4.4</ele>
        <time>2023-07-16T07:05:51.627+00:00</time>
      </trkpt>
      <trkpt lat="46.15966" lon="-1.26988">
        <ele>4.5</ele>
        <time>2023-07-16T07:05:56.637+00:00</time>
      </trkpt>
      <trkpt lat="46.15962" lon="-1.27001">
        <ele>4.7</ele>
        <time>2023-07-16T07:06:01.649+00:00</time>
      </trkpt>
      <trkpt lat="46.15962" lon="-1.27023">
        <ele>4.7</ele>
        <time>2023-07-16T07:06:05.754+00:00</time>
      </trkpt>
      <trkpt lat="46.15959" lon="-1.27043">
        <ele>4.9</ele>
        <time>2023-07-16T07:06:10.257+00:00</time>
      </trkpt>
      <trkpt lat="46.15959" lon="-1.27061">
        <ele>4.9</ele>
        <time>2023-07-16T07:06:14.759+00:00</time>
      </trkpt>
      <trkpt lat="46.1596" lon="-1.27074">
        <ele>4.9</ele>
        <time>2023-07-16T07:06:19.763+00:00</time>
      </trkpt>
      <trkpt lat="46.1596" lon="-1.27088">
        <ele>4.9</ele>
        <time>2023-07-16T07:06:24.305+00:00</time>
      </trkpt>
      <trkpt lat="46.15961" lon="-1.27103">
        <ele>4.8</ele>
        <time>2023-07-16T07:06:28.867+00:00</time>
      </trkpt>
      <trkpt lat="46.15962" lon="-1.27122">
        <ele>4.8</ele>
        <time>2023-07-16T07:06:33.470+00:00</time>
      </trkpt>
      <trkpt lat="46.15963" lon="-1.27144">
        <ele>4.7</ele>
        <time>2023-07-16T07:06:37.972+00:00</time>
      </trkpt>
      <trkpt lat="46.15962" lon="-1.27163">
        <ele>4.8</ele>
        <time>2023-07-16T07:06:42.133+00:00</time>
      </trkpt>
      <trkpt lat="46.15963" lon="-1.27186">
        <ele>1</ele>
        <time>2023-07-16T07:06:46.234+00:00</time>
      </trkpt>
      <trkpt lat="46.15963" lon="-1.27208">
        <ele>1</ele>
        <time>2023-07-16T07:06:50.956+00:00</time>
      </trkpt>
      <trkpt lat="46.15963" lon="-1.2722">
        <ele>1</ele>
        <time>2023-07-16T07:06:55.958+00:00</time>
      </trkpt>
      <trkpt lat="46.15962" lon="-1.2722">
        <ele>1</ele>
        <time>2023-07-16T07:07:00.964+00:00</time>
      </trkpt>
      <trkpt lat="46.15963" lon="-1.27223">
        <ele>1</ele>
        <time>2023-07-16T07:07:04.969+00:00</time>
      </trkpt>
      <trkpt lat="46.15965" lon="-1.27234">
        <ele>1</ele>
        <time>2023-07-16T07:07:09.975+00:00</time>
      </trkpt>
      <trkpt lat="46.15967" lon="-1.27255">
        <ele>2</ele>
        <time>2023-07-16T07:07:13.978+00:00</time>
      </trkpt>
      <trkpt lat="46.15969" lon="-1.27273">
        <ele>4</ele>
        <time>2023-07-16T07:07:17.979+00:00</time>
      </trkpt>
      <trkpt lat="46.15973" lon="-1.27293">
        <ele>6</ele>
        <time>2023-07-16T07:07:23.022+00:00</time>
      </trkpt>
      <trkpt lat="46.15976" lon="-1.27313">
        <ele>6</ele>
        <time>2023-07-16T07:07:27.025+00:00</time>
      </trkpt>
      <trkpt lat="46.15979" lon="-1.2733">
        <ele>7</ele>
        <time>2023-07-16T07:07:31.029+00:00</time>
      </trkpt>
      <trkpt lat="46.15983" lon="-1.2735">
        <ele>5</ele>
        <time>2023-07-16T07:07:36.034+00:00</time>
      </trkpt>
      <trkpt lat="46.15986" lon="-1.27367">
        <ele>2</ele>
        <time>2023-07-16T07:07:40.038+00:00</time>
      </trkpt>
      <trkpt lat="46.15992" lon="-1.27391">
        <ele>1</ele>
        <time>2023-07-16T07:07:45.051+00:00</time>
      </trkpt>
      <trkpt lat="46.15998" lon="-1.27406">
        <ele>1</ele>
        <time>2023-07-16T07:07:49.649+00:00</time>
      </trkpt>
      <trkpt lat="46.16006" lon="-1.27423">
        <ele>1</ele>
        <time>2023-07-16T07:07:54.655+00:00</time>
      </trkpt>
      <trkpt lat="46.16014" lon="-1.27441">
        <ele>1</ele>
        <time>2023-07-16T07:07:59.238+00:00</time>
      </trkpt>
      <trkpt lat="46.16022" lon="-1.27458">
        <ele>1</ele>
        <time>2023-07-16T07:08:03.875+00:00</time>
      </trkpt>
      <trkpt lat="46.16023" lon="-1.27478">
        <ele>1</ele>
        <time>2023-07-16T07:08:09.074+00:00</time>
      </trkpt>
      <trkpt lat="46.16024" lon="-1.27492">
        <ele>1</ele>
        <time>2023-07-16T07:08:13.825+00:00</time>
      </trkpt>
      <trkpt lat="46.16028" lon="-1.2749">
        <ele>1</ele>
        <time>2023-07-16T07:08:19.080+00:00</time>
      </trkpt>
      <trkpt lat="46.1603" lon="-1.27486">
        <ele>1</ele>
        <time>2023-07-16T07:08:23.580+00:00</time>
      </trkpt>
      <trkpt lat="46.1603" lon="-1.27483">
        <ele>1</ele>
        <time>2023-07-16T07:08:30.653+00:00</time>
      </trkpt>
      <trkpt lat="46.16029" lon="-1.27481">
        <ele>1</ele>
        <time>2023-07-16T07:08:34.670+00:00</time>
      </trkpt>
      <trkpt lat="46.1603" lon="-1.27479">
        <ele>1</ele>
        <time>2023-07-16T07:08:49.324+00:00</time>
      </trkpt>
      <trkpt lat="46.16031" lon="-1.2748">
        <ele>1</ele>
        <time>2023-07-16T07:08:53.841+00:00</time>
      </trkpt>
      <trkpt lat="46.16029" lon="-1.27485">
        <ele>1</ele>
        <time>2023-07-16T07:08:57.856+00:00</time>
      </trkpt>
      <trkpt lat="46.16027" lon="-1.27489">
        <ele>1</ele>
        <time>2023-07-16T07:09:01.866+00:00</time>
      </trkpt>
      <trkpt lat="46.16027" lon="-1.27494">
        <ele>1</ele>
        <time>2023-07-16T07:09:06.870+00:00</time>
      </trkpt>
      <trkpt lat="46.1603" lon="-1.27495">
        <ele>1</ele>
        <time>2023-07-16T07:10:00.235+00:00</time>
      </trkpt>
      <trkpt lat="46.16037" lon="-1.275">
        <ele>1</ele>
        <time>2023-07-16T07:10:04.244+00:00</time>
      </trkpt>
      <trkpt lat="46.16045" lon="-1.27514">
        <ele>1</ele>
        <time>2023-07-16T07:10:08.252+00:00</time>
      </trkpt>
      <trkpt lat="46.16051" lon="-1.27531">
        <ele>1</ele>
        <time>2023-07-16T07:10:12.761+00:00</time>
      </trkpt>
      <trkpt lat="46.16057" lon="-1.27548">
        <ele>1</ele>
        <time>2023-07-16T07:10:17.770+00:00</time>
      </trkpt>
      <trkpt lat="46.16064" lon="-1.27563">
        <ele>1</ele>
        <time>2023-07-16T07:10:22.780+00:00</time>
      </trkpt>
      <trkpt lat="46.16071" lon="-1.2758">
        <ele>1</ele>
        <time>2023-07-16T07:10:27.791+00:00</time>
      </trkpt>
      <trkpt lat="46.1608" lon="-1.27598">
        <ele>2</ele>
        <time>2023-07-16T07:10:32.801+00:00</time>
      </trkpt>
      <trkpt lat="46.16087" lon="-1.27616">
        <ele>2</ele>
        <time>2023-07-16T07:10:37.809+00:00</time>
      </trkpt>
      <trkpt lat="46.1609" lon="-1.27632">
        <ele>4</ele>
        <time>2023-07-16T07:10:41.817+00:00</time>
      </trkpt>
      <trkpt lat="46.16097" lon="-1.27649">
        <ele>4</ele>
        <time>2023-07-16T07:10:46.826+00:00</time>
      </trkpt>
      <trkpt lat="46.161" lon="-1.27659">
        <ele>4</ele>
        <time>2023-07-16T07:10:50.833+00:00</time>
      </trkpt>
      <trkpt lat="46.16106" lon="-1.27667">
        <ele>4</ele>
        <time>2023-07-16T07:10:55.843+00:00</time>
      </trkpt>
      <trkpt lat="46.16115" lon="-1.2768">
        <ele>4</ele>
        <time>2023-07-16T07:10:59.851+00:00</time>
      </trkpt>
      <trkpt lat="46.16124" lon="-1.27686">
        <ele>4</ele>
        <time>2023-07-16T07:11:03.858+00:00</time>
      </trkpt>
      <trkpt lat="46.1613" lon="-1.27685">
        <ele>2</ele>
        <time>2023-07-16T07:11:08.368+00:00</time>
      </trkpt>
      <trkpt lat="46.1614" lon="-1.27695">
        <ele>2</ele>
        <time>2023-07-16T07:11:12.876+00:00</time>
      </trkpt>
      <trkpt lat="46.16153" lon="-1.27703">
        <ele>1</ele>
        <time>2023-07-16T07:11:17.885+00:00</time>
      </trkpt>
      <trkpt lat="46.16164" lon="-1.27712">
        <ele>2</ele>
        <time>2023-07-16T07:11:21.893+00:00</time>
      </trkpt>
      <trkpt lat="46.16175" lon="-1.27721">
        <ele>2</ele>
        <time>2023-07-16T07:11:26.400+00:00</time>
      </trkpt>
      <trkpt lat="46.16186" lon="-1.27731">
        <ele>2</ele>
        <time>2023-07-16T07:11:30.909+00:00</time>
      </trkpt>
      <trkpt lat="46.16197" lon="-1.27739">
        <ele>3</ele>
        <time>2023-07-16T07:11:35.417+00:00</time>
      </trkpt>
      <trkpt lat="46.16206" lon="-1.2775">
        <ele>3</ele>
        <time>2023-07-16T07:11:39.925+00:00</time>
      </trkpt>
      <trkpt lat="46.16217" lon="-1.27764">
        <ele>1</ele>
        <time>2023-07-16T07:11:44.938+00:00</time>
      </trkpt>
      <trkpt lat="46.16225" lon="-1.27776">
        <ele>1</ele>
        <time>2023-07-16T07:11:49.056+00:00</time>
      </trkpt>
      <trkpt lat="46.16234" lon="-1.27788">
        <ele>1</ele>
        <time>2023-07-16T07:11:53.059+00:00</time>
      </trkpt>
      <trkpt lat="46.16244" lon="-1.278">
        <ele>1</ele>
        <time>2023-07-16T07:11:57.676+00:00</time>
      </trkpt>
      <trkpt lat="46.16254" lon="-1.27817">
        <ele>1</ele>
        <time>2023-07-16T07:12:02.892+00:00</time>
      </trkpt>
      <trkpt lat="46.16264" lon="-1.27829">
        <ele>3</ele>
        <time>2023-07-16T07:12:07.490+00:00</time>
      </trkpt>
      <trkpt lat="46.16273" lon="-1.27842">
        <ele>3</ele>
        <time>2023-07-16T07:12:12.069+00:00</time>
      </trkpt>
      <trkpt lat="46.16283" lon="-1.27855">
        <ele>4</ele>
        <time>2023-07-16T07:12:16.664+00:00</time>
      </trkpt>
      <trkpt lat="46.16291" lon="-1.27869">
        <ele>4</ele>
        <time>2023-07-16T07:12:21.458+00:00</time>
      </trkpt>
      <trkpt lat="46.16295" lon="-1.27885">
        <ele>1</ele>
        <time>2023-07-16T07:12:25.651+00:00</time>
      </trkpt>
      <trkpt lat="46.16299" lon="-1.27898">
        <ele>1</ele>
        <time>2023-07-16T07:12:29.605+00:00</time>
      </trkpt>
      <trkpt lat="46.16307" lon="-1.27912">
        <ele>2</ele>
        <time>2023-07-16T07:12:34.220+00:00</time>
      </trkpt>
      <trkpt lat="46.16313" lon="-1.27932">
        <ele>4</ele>
        <time>2023-07-16T07:12:38.741+00:00</time>
      </trkpt>
      <trkpt lat="46.16322" lon="-1.27946">
        <ele>2</ele>
        <time>2023-07-16T07:12:42.668+00:00</time>
      </trkpt>
      <trkpt lat="46.16331" lon="-1.27964">
        <ele>4</ele>
        <time>2023-07-16T07:12:48+00:00</time>
      </trkpt>
      <trkpt lat="46.16341" lon="-1.27979">
        <ele>4</ele>
        <time>2023-07-16T07:12:52.674+00:00</time>
      </trkpt>
      <trkpt lat="46.16348" lon="-1.27992">
        <ele>3</ele>
        <time>2023-07-16T07:12:56.869+00:00</time>
      </trkpt>
      <trkpt lat="46.16358" lon="-1.28008">
        <ele>3</ele>
        <time>2023-07-16T07:13:01.622+00:00</time>
      </trkpt>
      <trkpt lat="46.16368" lon="-1.28027">
        <ele>4</ele>
        <time>2023-07-16T07:13:07.013+00:00</time>
      </trkpt>
      <trkpt lat="46.16378" lon="-1.28044">
        <ele>2</ele>
        <time>2023-07-16T07:13:11.685+00:00</time>
      </trkpt>
      <trkpt lat="46.16388" lon="-1.28064">
        <ele>2</ele>
        <time>2023-07-16T07:13:17.074+00:00</time>
      </trkpt>
      <trkpt lat="46.164" lon="-1.28083">
        <ele>2</ele>
        <time>2023-07-16T07:13:22.052+00:00</time>
      </trkpt>
      <trkpt lat="46.16413" lon="-1.28098">
        <ele>3.6</ele>
        <time>2023-07-16T07:13:27.058+00:00</time>
      </trkpt>
      <trkpt lat="46.1642" lon="-1.28106">
        <ele>3.5</ele>
        <time>2023-07-16T07:13:30.653+00:00</time>
      </trkpt>
      <trkpt lat="46.16429" lon="-1.28115">
        <ele>3.3</ele>
        <time>2023-07-16T07:13:36.023+00:00</time>
      </trkpt>
      <trkpt lat="46.16437" lon="-1.28125">
        <ele>-1</ele>
        <time>2023-07-16T07:13:40.812+00:00</time>
      </trkpt>
      <trkpt lat="46.16446" lon="-1.28133">
        <ele>-1</ele>
        <time>2023-07-16T07:13:44.724+00:00</time>
      </trkpt>
      <trkpt lat="46.16455" lon="-1.28145">
        <ele>-1</ele>
        <time>2023-07-16T07:13:49.275+00:00</time>
      </trkpt>
      <trkpt lat="46.16464" lon="-1.28161">
        <ele>2</ele>
        <time>2023-07-16T07:13:54.064+00:00</time>
      </trkpt>
      <trkpt lat="46.16474" lon="-1.28173">
        <ele>2</ele>
        <time>2023-07-16T07:13:58.855+00:00</time>
      </trkpt>
      <trkpt lat="46.16486" lon="-1.28177">
        <ele>2</ele>
        <time>2023-07-16T07:14:03.046+00:00</time>
      </trkpt>
      <trkpt lat="46.16501" lon="-1.2818">
        <ele>2</ele>
        <time>2023-07-16T07:14:07.837+00:00</time>
      </trkpt>
      <trkpt lat="46.16516" lon="-1.28182">
        <ele>5</ele>
        <time>2023-07-16T07:14:13.082+00:00</time>
      </trkpt>
      <trkpt lat="46.16529" lon="-1.28182">
        <ele>5</ele>
        <time>2023-07-16T07:14:17.099+00:00</time>
      </trkpt>
      <trkpt lat="46.16545" lon="-1.2818">
        <ele>1</ele>
        <time>2023-07-16T07:14:22.095+00:00</time>
      </trkpt>
      <trkpt lat="46.1656" lon="-1.28177">
        <ele>1</ele>
        <time>2023-07-16T07:14:27.089+00:00</time>
      </trkpt>
      <trkpt lat="46.16576" lon="-1.28177">
        <ele>1</ele>
        <time>2023-07-16T07:14:32.069+00:00</time>
      </trkpt>
      <trkpt lat="46.16589" lon="-1.2818">
        <ele>1</ele>
        <time>2023-07-16T07:14:36.068+00:00</time>
      </trkpt>
      <trkpt lat="46.16605" lon="-1.28187">
        <ele>3</ele>
        <time>2023-07-16T07:14:41.091+00:00</time>
      </trkpt>
      <trkpt lat="46.1662" lon="-1.28196">
        <ele>3</ele>
        <time>2023-07-16T07:14:46.059+00:00</time>
      </trkpt>
      <trkpt lat="46.16632" lon="-1.28205">
        <ele>1</ele>
        <time>2023-07-16T07:14:50.072+00:00</time>
      </trkpt>
      <trkpt lat="46.16644" lon="-1.28215">
        <ele>2</ele>
        <time>2023-07-16T07:14:54.072+00:00</time>
      </trkpt>
      <trkpt lat="46.16659" lon="-1.28227">
        <ele>3.4</ele>
        <time>2023-07-16T07:14:59.083+00:00</time>
      </trkpt>
      <trkpt lat="46.16673" lon="-1.2824">
        <ele>1</ele>
        <time>2023-07-16T07:15:04.063+00:00</time>
      </trkpt>
      <trkpt lat="46.16686" lon="-1.28249">
        <ele>4</ele>
        <time>2023-07-16T07:15:08.082+00:00</time>
      </trkpt>
      <trkpt lat="46.16699" lon="-1.28261">
        <ele>4</ele>
        <time>2023-07-16T07:15:13.087+00:00</time>
      </trkpt>
      <trkpt lat="46.16714" lon="-1.28273">
        <ele>1</ele>
        <time>2023-07-16T07:15:18.088+00:00</time>
      </trkpt>
      <trkpt lat="46.16728" lon="-1.28283">
        <ele>1</ele>
        <time>2023-07-16T07:15:22.826+00:00</time>
      </trkpt>
      <trkpt lat="46.16741" lon="-1.28292">
        <ele>1</ele>
        <time>2023-07-16T07:15:27.015+00:00</time>
      </trkpt>
      <trkpt lat="46.16755" lon="-1.28299">
        <ele>4</ele>
        <time>2023-07-16T07:15:31.085+00:00</time>
      </trkpt>
      <trkpt lat="46.16771" lon="-1.28307">
        <ele>2</ele>
        <time>2023-07-16T07:15:35.633+00:00</time>
      </trkpt>
      <trkpt lat="46.16784" lon="-1.28313">
        <ele>2</ele>
        <time>2023-07-16T07:15:39.822+00:00</time>
      </trkpt>
      <trkpt lat="46.16799" lon="-1.28316">
        <ele>1</ele>
        <time>2023-07-16T07:15:44.609+00:00</time>
      </trkpt>
      <trkpt lat="46.16813" lon="-1.28318">
        <ele>1</ele>
        <time>2023-07-16T07:15:48.679+00:00</time>
      </trkpt>
      <trkpt lat="46.16825" lon="-1.28315">
        <ele>1</ele>
        <time>2023-07-16T07:15:52.871+00:00</time>
      </trkpt>
      <trkpt lat="46.16835" lon="-1.28314">
        <ele>1</ele>
        <time>2023-07-16T07:15:57.062+00:00</time>
      </trkpt>
      <trkpt lat="46.16838" lon="-1.2832">
        <ele>2</ele>
        <time>2023-07-16T07:16:01.850+00:00</time>
      </trkpt>
      <trkpt lat="46.16839" lon="-1.2833">
        <ele>2</ele>
        <time>2023-07-16T07:16:06.038+00:00</time>
      </trkpt>
      <trkpt lat="46.16833" lon="-1.28348">
        <ele>4</ele>
        <time>2023-07-16T07:16:11.087+00:00</time>
      </trkpt>
      <trkpt lat="46.16825" lon="-1.28364">
        <ele>4</ele>
        <time>2023-07-16T07:16:16.079+00:00</time>
      </trkpt>
      <trkpt lat="46.16817" lon="-1.28379">
        <ele>6</ele>
        <time>2023-07-16T07:16:20.092+00:00</time>
      </trkpt>
      <trkpt lat="46.16807" lon="-1.28397">
        <ele>6</ele>
        <time>2023-07-16T07:16:25.071+00:00</time>
      </trkpt>
      <trkpt lat="46.168" lon="-1.28411">
        <ele>6</ele>
        <time>2023-07-16T07:16:28.662+00:00</time>
      </trkpt>
      <trkpt lat="46.16791" lon="-1.28429">
        <ele>7</ele>
        <time>2023-07-16T07:16:33.927+00:00</time>
      </trkpt>
      <trkpt lat="46.1679" lon="-1.28445">
        <ele>7</ele>
        <time>2023-07-16T07:16:38.429+00:00</time>
      </trkpt>
      <trkpt lat="46.16798" lon="-1.2846">
        <ele>6</ele>
        <time>2023-07-16T07:16:42.424+00:00</time>
      </trkpt>
      <trkpt lat="46.16809" lon="-1.28475">
        <ele>6</ele>
        <time>2023-07-16T07:16:47.210+00:00</time>
      </trkpt>
      <trkpt lat="46.16818" lon="-1.28489">
        <ele>7</ele>
        <time>2023-07-16T07:16:51.278+00:00</time>
      </trkpt>
      <trkpt lat="46.16829" lon="-1.28504">
        <ele>5</ele>
        <time>2023-07-16T07:16:55.944+00:00</time>
      </trkpt>
      <trkpt lat="46.16836" lon="-1.28518">
        <ele>5</ele>
        <time>2023-07-16T07:17:00.012+00:00</time>
      </trkpt>
      <trkpt lat="46.16841" lon="-1.28535">
        <ele>5</ele>
        <time>2023-07-16T07:17:03.840+00:00</time>
      </trkpt>
      <trkpt lat="46.16847" lon="-1.28554">
        <ele>6</ele>
        <time>2023-07-16T07:17:08.408+00:00</time>
      </trkpt>
      <trkpt lat="46.16854" lon="-1.28572">
        <ele>6</ele>
        <time>2023-07-16T07:17:12.333+00:00</time>
      </trkpt>
      <trkpt lat="46.16861" lon="-1.2859">
        <ele>6</ele>
        <time>2023-07-16T07:17:16.313+00:00</time>
      </trkpt>
      <trkpt lat="46.16868" lon="-1.28608">
        <ele>6</ele>
        <time>2023-07-16T07:17:20.467+00:00</time>
      </trkpt>
      <trkpt lat="46.16874" lon="-1.28626">
        <ele>7</ele>
        <time>2023-07-16T07:17:25.012+00:00</time>
      </trkpt>
      <trkpt lat="46.16879" lon="-1.28643">
        <ele>5</ele>
        <time>2023-07-16T07:17:29.080+00:00</time>
      </trkpt>
      <trkpt lat="46.16885" lon="-1.28664">
        <ele>5</ele>
        <time>2023-07-16T07:17:33.267+00:00</time>
      </trkpt>
      <trkpt lat="46.16888" lon="-1.28688">
        <ele>5</ele>
        <time>2023-07-16T07:17:38.053+00:00</time>
      </trkpt>
      <trkpt lat="46.16888" lon="-1.28702">
        <ele>5</ele>
        <time>2023-07-16T07:17:41.643+00:00</time>
      </trkpt>
      <trkpt lat="46.16887" lon="-1.28722">
        <ele>6</ele>
        <time>2023-07-16T07:17:45.829+00:00</time>
      </trkpt>
      <trkpt lat="46.16889" lon="-1.28745">
        <ele>6</ele>
        <time>2023-07-16T07:17:50.493+00:00</time>
      </trkpt>
      <trkpt lat="46.1689" lon="-1.28764">
        <ele>6</ele>
        <time>2023-07-16T07:17:54.919+00:00</time>
      </trkpt>
      <trkpt lat="46.16891" lon="-1.28784">
        <ele>6</ele>
        <time>2023-07-16T07:17:59.469+00:00</time>
      </trkpt>
      <trkpt lat="46.16903" lon="-1.28793">
        <ele>6</ele>
        <time>2023-07-16T07:18:04.010+00:00</time>
      </trkpt>
      <trkpt lat="46.1692" lon="-1.28797">
        <ele>6</ele>
        <time>2023-07-16T07:18:08.608+00:00</time>
      </trkpt>
      <trkpt lat="46.16926" lon="-1.28798">
        <ele>6</ele>
        <time>2023-07-16T07:18:12.634+00:00</time>
      </trkpt>
      <trkpt lat="46.16927" lon="-1.28799">
        <ele>6</ele>
        <time>2023-07-16T07:18:16.806+00:00</time>
      </trkpt>
      <trkpt lat="46.16932" lon="-1.28795">
        <ele>5</ele>
        <time>2023-07-16T07:18:22.043+00:00</time>
      </trkpt>
      <trkpt lat="46.16945" lon="-1.2879">
        <ele>5</ele>
        <time>2023-07-16T07:18:26.017+00:00</time>
      </trkpt>
      <trkpt lat="46.16961" lon="-1.28785">
        <ele>3</ele>
        <time>2023-07-16T07:18:30.594+00:00</time>
      </trkpt>
      <trkpt lat="46.16976" lon="-1.2878">
        <ele>3</ele>
        <time>2023-07-16T07:18:34.626+00:00</time>
      </trkpt>
      <trkpt lat="46.16992" lon="-1.28776">
        <ele>4</ele>
        <time>2023-07-16T07:18:39.313+00:00</time>
      </trkpt>
      <trkpt lat="46.17007" lon="-1.28771">
        <ele>4</ele>
        <time>2023-07-16T07:18:44.053+00:00</time>
      </trkpt>
      <trkpt lat="46.1702" lon="-1.28771">
        <ele>5</ele>
        <time>2023-07-16T07:18:47.908+00:00</time>
      </trkpt>
      <trkpt lat="46.17031" lon="-1.2878">
        <ele>5</ele>
        <time>2023-07-16T07:18:53.089+00:00</time>
      </trkpt>
      <trkpt lat="46.17033" lon="-1.28792">
        <ele>5</ele>
        <time>2023-07-16T07:18:57.092+00:00</time>
      </trkpt>
      <trkpt lat="46.17035" lon="-1.288">
        <ele>5</ele>
        <time>2023-07-16T07:19:01.659+00:00</time>
      </trkpt>
      <trkpt lat="46.17036" lon="-1.28798">
        <ele>5</ele>
        <time>2023-07-16T07:19:39.451+00:00</time>
      </trkpt>
      <trkpt lat="46.17037" lon="-1.28816">
        <ele>5</ele>
        <time>2023-07-16T07:19:43.638+00:00</time>
      </trkpt>
      <trkpt lat="46.1704" lon="-1.28838">
        <ele>6</ele>
        <time>2023-07-16T07:19:48.184+00:00</time>
      </trkpt>
      <trkpt lat="46.17042" lon="-1.28861">
        <ele>6</ele>
        <time>2023-07-16T07:19:52.251+00:00</time>
      </trkpt>
      <trkpt lat="46.17044" lon="-1.28884">
        <ele>5</ele>
        <time>2023-07-16T07:19:56.916+00:00</time>
      </trkpt>
      <trkpt lat="46.17047" lon="-1.28906">
        <ele>5</ele>
        <time>2023-07-16T07:20:01.464+00:00</time>
      </trkpt>
      <trkpt lat="46.17051" lon="-1.28925">
        <ele>5</ele>
        <time>2023-07-16T07:20:05.567+00:00</time>
      </trkpt>
      <trkpt lat="46.17055" lon="-1.28947">
        <ele>5</ele>
        <time>2023-07-16T07:20:09.895+00:00</time>
      </trkpt>
      <trkpt lat="46.1706" lon="-1.28968">
        <ele>6</ele>
        <time>2023-07-16T07:20:13.872+00:00</time>
      </trkpt>
      <trkpt lat="46.17066" lon="-1.28989">
        <ele>6</ele>
        <time>2023-07-16T07:20:18.039+00:00</time>
      </trkpt>
      <trkpt lat="46.17071" lon="-1.29011">
        <ele>6</ele>
        <time>2023-07-16T07:20:21.892+00:00</time>
      </trkpt>
      <trkpt lat="46.17076" lon="-1.29037">
        <ele>6</ele>
        <time>2023-07-16T07:20:26.441+00:00</time>
      </trkpt>
      <trkpt lat="46.17082" lon="-1.2906">
        <ele>5</ele>
        <time>2023-07-16T07:20:30.313+00:00</time>
      </trkpt>
      <trkpt lat="46.17088" lon="-1.29084">
        <ele>4</ele>
        <time>2023-07-16T07:20:34.823+00:00</time>
      </trkpt>
      <trkpt lat="46.17091" lon="-1.29113">
        <ele>4</ele>
        <time>2023-07-16T07:20:39.613+00:00</time>
      </trkpt>
      <trkpt lat="46.17097" lon="-1.29135">
        <ele>4</ele>
        <time>2023-07-16T07:20:43.563+00:00</time>
      </trkpt>
      <trkpt lat="46.17106" lon="-1.29161">
        <ele>6</ele>
        <time>2023-07-16T07:20:48.232+00:00</time>
      </trkpt>
      <trkpt lat="46.17113" lon="-1.29192">
        <ele>6</ele>
        <time>2023-07-16T07:20:53.068+00:00</time>
      </trkpt>
      <trkpt lat="46.17123" lon="-1.29224">
        <ele>5</ele>
        <time>2023-07-16T07:20:58.046+00:00</time>
      </trkpt>
      <trkpt lat="46.1713" lon="-1.29247">
        <ele>5</ele>
        <time>2023-07-16T07:21:02.078+00:00</time>
      </trkpt>
      <trkpt lat="46.17138" lon="-1.29274">
        <ele>4</ele>
        <time>2023-07-16T07:21:06.571+00:00</time>
      </trkpt>
      <trkpt lat="46.17149" lon="-1.29301">
        <ele>4</ele>
        <time>2023-07-16T07:21:11.219+00:00</time>
      </trkpt>
      <trkpt lat="46.17159" lon="-1.29323">
        <ele>4</ele>
        <time>2023-07-16T07:21:16.008+00:00</time>
      </trkpt>
      <trkpt lat="46.17165" lon="-1.29343">
        <ele>4</ele>
        <time>2023-07-16T07:21:20.058+00:00</time>
      </trkpt>
      <trkpt lat="46.17173" lon="-1.29365">
        <ele>4</ele>
        <time>2023-07-16T07:21:24.225+00:00</time>
      </trkpt>
      <trkpt lat="46.17181" lon="-1.29388">
        <ele>6</ele>
        <time>2023-07-16T07:21:28.771+00:00</time>
      </trkpt>
      <trkpt lat="46.1719" lon="-1.29408">
        <ele>8</ele>
        <time>2023-07-16T07:21:32.837+00:00</time>
      </trkpt>
      <trkpt lat="46.17198" lon="-1.29428">
        <ele>8</ele>
        <time>2023-07-16T07:21:37.024+00:00</time>
      </trkpt>
      <trkpt lat="46.17205" lon="-1.29448">
        <ele>9</ele>
        <time>2023-07-16T07:21:41.211+00:00</time>
      </trkpt>
      <trkpt lat="46.17209" lon="-1.29466">
        <ele>10</ele>
        <time>2023-07-16T07:21:45.398+00:00</time>
      </trkpt>
      <trkpt lat="46.17213" lon="-1.2948">
        <ele>10</ele>
        <time>2023-07-16T07:21:50.065+00:00</time>
      </trkpt>
      <trkpt lat="46.17217" lon="-1.295">
        <ele>10</ele>
        <time>2023-07-16T07:21:54.611+00:00</time>
      </trkpt>
      <trkpt lat="46.17225" lon="-1.29529">
        <ele>8</ele>
        <time>2023-07-16T07:21:59.809+00:00</time>
      </trkpt>
      <trkpt lat="46.17232" lon="-1.29548">
        <ele>8</ele>
        <time>2023-07-16T07:22:03.819+00:00</time>
      </trkpt>
      <trkpt lat="46.1724" lon="-1.29569">
        <ele>7</ele>
        <time>2023-07-16T07:22:08.004+00:00</time>
      </trkpt>
      <trkpt lat="46.17249" lon="-1.29588">
        <ele>8</ele>
        <time>2023-07-16T07:22:12.669+00:00</time>
      </trkpt>
      <trkpt lat="46.17258" lon="-1.29609">
        <ele>7</ele>
        <time>2023-07-16T07:22:18.008+00:00</time>
      </trkpt>
      <trkpt lat="46.17266" lon="-1.29623">
        <ele>8</ele>
        <time>2023-07-16T07:22:21.999+00:00</time>
      </trkpt>
      <trkpt lat="46.17276" lon="-1.29641">
        <ele>8</ele>
        <time>2023-07-16T07:22:26.544+00:00</time>
      </trkpt>
      <trkpt lat="46.17285" lon="-1.29659">
        <ele>9</ele>
        <time>2023-07-16T07:22:31.087+00:00</time>
      </trkpt>
      <trkpt lat="46.17295" lon="-1.29681">
        <ele>10</ele>
        <time>2023-07-16T07:22:35.632+00:00</time>
      </trkpt>
      <trkpt lat="46.17304" lon="-1.29699">
        <ele>10</ele>
        <time>2023-07-16T07:22:39.817+00:00</time>
      </trkpt>
      <trkpt lat="46.17314" lon="-1.29713">
        <ele>11</ele>
        <time>2023-07-16T07:22:44.241+00:00</time>
      </trkpt>
      <trkpt lat="46.17322" lon="-1.2973">
        <ele>12</ele>
        <time>2023-07-16T07:22:48.425+00:00</time>
      </trkpt>
      <trkpt lat="46.17334" lon="-1.29748">
        <ele>13</ele>
        <time>2023-07-16T07:22:53.207+00:00</time>
      </trkpt>
      <trkpt lat="46.17344" lon="-1.29765">
        <ele>14</ele>
        <time>2023-07-16T07:22:57.391+00:00</time>
      </trkpt>
      <trkpt lat="46.17355" lon="-1.29778">
        <ele>13</ele>
        <time>2023-07-16T07:23:02.054+00:00</time>
      </trkpt>
      <trkpt lat="46.17365" lon="-1.29792">
        <ele>14</ele>
        <time>2023-07-16T07:23:06.238+00:00</time>
      </trkpt>
      <trkpt lat="46.17377" lon="-1.29805">
        <ele>11</ele>
        <time>2023-07-16T07:23:10.424+00:00</time>
      </trkpt>
      <trkpt lat="46.17389" lon="-1.29819">
        <ele>11</ele>
        <time>2023-07-16T07:23:14.609+00:00</time>
      </trkpt>
      <trkpt lat="46.17401" lon="-1.29833">
        <ele>12</ele>
        <time>2023-07-16T07:23:19.271+00:00</time>
      </trkpt>
      <trkpt lat="46.17413" lon="-1.29847">
        <ele>12</ele>
        <time>2023-07-16T07:23:23.460+00:00</time>
      </trkpt>
      <trkpt lat="46.17425" lon="-1.2986">
        <ele>12</ele>
        <time>2023-07-16T07:23:28.244+00:00</time>
      </trkpt>
      <trkpt lat="46.17435" lon="-1.29869">
        <ele>14</ele>
        <time>2023-07-16T07:23:32.788+00:00</time>
      </trkpt>
      <trkpt lat="46.17445" lon="-1.29877">
        <ele>14</ele>
        <time>2023-07-16T07:23:36.854+00:00</time>
      </trkpt>
      <trkpt lat="46.17456" lon="-1.29887">
        <ele>14</ele>
        <time>2023-07-16T07:23:41.041+00:00</time>
      </trkpt>
      <trkpt lat="46.17468" lon="-1.29904">
        <ele>14</ele>
        <time>2023-07-16T07:23:45.226+00:00</time>
      </trkpt>
      <trkpt lat="46.17481" lon="-1.29919">
        <ele>14</ele>
        <time>2023-07-16T07:23:49.292+00:00</time>
      </trkpt>
      <trkpt lat="46.17493" lon="-1.29934">
        <ele>13</ele>
        <time>2023-07-16T07:23:53.457+00:00</time>
      </trkpt>
      <trkpt lat="46.17506" lon="-1.29948">
        <ele>13</ele>
        <time>2023-07-16T07:23:57.641+00:00</time>
      </trkpt>
      <trkpt lat="46.17522" lon="-1.2997">
        <ele>12</ele>
        <time>2023-07-16T07:24:02.422+00:00</time>
      </trkpt>
      <trkpt lat="46.17537" lon="-1.29984">
        <ele>12</ele>
        <time>2023-07-16T07:24:06.607+00:00</time>
      </trkpt>
      <trkpt lat="46.1755" lon="-1.29997">
        <ele>11</ele>
        <time>2023-07-16T07:24:11.392+00:00</time>
      </trkpt>
      <trkpt lat="46.17565" lon="-1.30013">
        <ele>11</ele>
        <time>2023-07-16T07:24:15.459+00:00</time>
      </trkpt>
      <trkpt lat="46.17579" lon="-1.30028">
        <ele>12</ele>
        <time>2023-07-16T07:24:20.208+00:00</time>
      </trkpt>
      <trkpt lat="46.17593" lon="-1.30043">
        <ele>12</ele>
        <time>2023-07-16T07:24:24.791+00:00</time>
      </trkpt>
      <trkpt lat="46.17608" lon="-1.30062">
        <ele>14</ele>
        <time>2023-07-16T07:24:28.979+00:00</time>
      </trkpt>
      <trkpt lat="46.17618" lon="-1.30077">
        <ele>14</ele>
        <time>2023-07-16T07:24:33.167+00:00</time>
      </trkpt>
      <trkpt lat="46.1763" lon="-1.3009">
        <ele>15</ele>
        <time>2023-07-16T07:24:37.833+00:00</time>
      </trkpt>
      <trkpt lat="46.17643" lon="-1.30104">
        <ele>16</ele>
        <time>2023-07-16T07:24:43.099+00:00</time>
      </trkpt>
      <trkpt lat="46.17655" lon="-1.30122">
        <ele>15</ele>
        <time>2023-07-16T07:24:47.645+00:00</time>
      </trkpt>
      <trkpt lat="46.17666" lon="-1.30132">
        <ele>15</ele>
        <time>2023-07-16T07:24:51.592+00:00</time>
      </trkpt>
      <trkpt lat="46.17678" lon="-1.30144">
        <ele>15</ele>
        <time>2023-07-16T07:24:55.660+00:00</time>
      </trkpt>
      <trkpt lat="46.1769" lon="-1.30156">
        <ele>14</ele>
        <time>2023-07-16T07:25:00.205+00:00</time>
      </trkpt>
      <trkpt lat="46.17702" lon="-1.30169">
        <ele>14</ele>
        <time>2023-07-16T07:25:04.869+00:00</time>
      </trkpt>
      <trkpt lat="46.17712" lon="-1.30184">
        <ele>15</ele>
        <time>2023-07-16T07:25:09.415+00:00</time>
      </trkpt>
      <trkpt lat="46.17721" lon="-1.30197">
        <ele>15</ele>
        <time>2023-07-16T07:25:13.601+00:00</time>
      </trkpt>
      <trkpt lat="46.17727" lon="-1.30213">
        <ele>14</ele>
        <time>2023-07-16T07:25:18.260+00:00</time>
      </trkpt>
      <trkpt lat="46.17736" lon="-1.30231">
        <ele>14</ele>
        <time>2023-07-16T07:25:23.005+00:00</time>
      </trkpt>
      <trkpt lat="46.17743" lon="-1.30242">
        <ele>12</ele>
        <time>2023-07-16T07:25:27.001+00:00</time>
      </trkpt>
      <trkpt lat="46.17757" lon="-1.30268">
        <ele>9</ele>
        <time>2023-07-16T07:25:31.785+00:00</time>
      </trkpt>
      <trkpt lat="46.17767" lon="-1.30294">
        <ele>9</ele>
        <time>2023-07-16T07:25:35.853+00:00</time>
      </trkpt>
      <trkpt lat="46.17797" lon="-1.30347">
        <ele>10</ele>
        <time>2023-07-16T07:25:44.586+00:00</time>
      </trkpt>
      <trkpt lat="46.1781" lon="-1.30366">
        <ele>10</ele>
        <time>2023-07-16T07:25:48.773+00:00</time>
      </trkpt>
      <trkpt lat="46.17821" lon="-1.30382">
        <ele>11</ele>
        <time>2023-07-16T07:25:52.841+00:00</time>
      </trkpt>
      <trkpt lat="46.17833" lon="-1.304">
        <ele>11</ele>
        <time>2023-07-16T07:25:57.026+00:00</time>
      </trkpt>
      <trkpt lat="46.17846" lon="-1.30423">
        <ele>11</ele>
        <time>2023-07-16T07:26:02.047+00:00</time>
      </trkpt>
      <trkpt lat="46.17859" lon="-1.30441">
        <ele>12</ele>
        <time>2023-07-16T07:26:06.591+00:00</time>
      </trkpt>
      <trkpt lat="46.17873" lon="-1.3046">
        <ele>12</ele>
        <time>2023-07-16T07:26:11.256+00:00</time>
      </trkpt>
      <trkpt lat="46.17887" lon="-1.30477">
        <ele>14</ele>
        <time>2023-07-16T07:26:15.803+00:00</time>
      </trkpt>
      <trkpt lat="46.17902" lon="-1.30496">
        <ele>13</ele>
        <time>2023-07-16T07:26:20.586+00:00</time>
      </trkpt>
      <trkpt lat="46.17914" lon="-1.30512">
        <ele>13</ele>
        <time>2023-07-16T07:26:24.768+00:00</time>
      </trkpt>
      <trkpt lat="46.17927" lon="-1.30527">
        <ele>12</ele>
        <time>2023-07-16T07:26:28.834+00:00</time>
      </trkpt>
      <trkpt lat="46.17943" lon="-1.30552">
        <ele>12</ele>
        <time>2023-07-16T07:26:34.056+00:00</time>
      </trkpt>
      <trkpt lat="46.17956" lon="-1.30572">
        <ele>11</ele>
        <time>2023-07-16T07:26:38.098+00:00</time>
      </trkpt>
      <trkpt lat="46.17974" lon="-1.30596">
        <ele>11</ele>
        <time>2023-07-16T07:26:43.096+00:00</time>
      </trkpt>
      <trkpt lat="46.17991" lon="-1.30618">
        <ele>11</ele>
        <time>2023-07-16T07:26:48.104+00:00</time>
      </trkpt>
      <trkpt lat="46.1801" lon="-1.30639">
        <ele>10</ele>
        <time>2023-07-16T07:26:53.092+00:00</time>
      </trkpt>
      <trkpt lat="46.18028" lon="-1.30659">
        <ele>10</ele>
        <time>2023-07-16T07:26:58.060+00:00</time>
      </trkpt>
      <trkpt lat="46.18046" lon="-1.3068">
        <ele>11</ele>
        <time>2023-07-16T07:27:03.068+00:00</time>
      </trkpt>
      <trkpt lat="46.1806" lon="-1.30698">
        <ele>12</ele>
        <time>2023-07-16T07:27:07.084+00:00</time>
      </trkpt>
      <trkpt lat="46.18071" lon="-1.30714">
        <ele>13</ele>
        <time>2023-07-16T07:27:10.643+00:00</time>
      </trkpt>
      <trkpt lat="46.18084" lon="-1.30736">
        <ele>13</ele>
        <time>2023-07-16T07:27:15.184+00:00</time>
      </trkpt>
      <trkpt lat="46.18095" lon="-1.30758">
        <ele>13</ele>
        <time>2023-07-16T07:27:19.823+00:00</time>
      </trkpt>
      <trkpt lat="46.18104" lon="-1.30776">
        <ele>14</ele>
        <time>2023-07-16T07:27:23.645+00:00</time>
      </trkpt>
      <trkpt lat="46.18114" lon="-1.30795">
        <ele>15</ele>
        <time>2023-07-16T07:27:27.827+00:00</time>
      </trkpt>
      <trkpt lat="46.18124" lon="-1.30819">
        <ele>15</ele>
        <time>2023-07-16T07:27:32.485+00:00</time>
      </trkpt>
      <trkpt lat="46.18133" lon="-1.30837">
        <ele>15</ele>
        <time>2023-07-16T07:27:36.545+00:00</time>
      </trkpt>
      <trkpt lat="46.18143" lon="-1.30856">
        <ele>16</ele>
        <time>2023-07-16T07:27:40.965+00:00</time>
      </trkpt>
      <trkpt lat="46.18154" lon="-1.30879">
        <ele>15</ele>
        <time>2023-07-16T07:27:45.626+00:00</time>
      </trkpt>
      <trkpt lat="46.18164" lon="-1.30898">
        <ele>15</ele>
        <time>2023-07-16T07:27:50.078+00:00</time>
      </trkpt>
      <trkpt lat="46.18173" lon="-1.30917">
        <ele>15</ele>
        <time>2023-07-16T07:27:54.587+00:00</time>
      </trkpt>
      <trkpt lat="46.18183" lon="-1.30934">
        <ele>15</ele>
        <time>2023-07-16T07:27:58.651+00:00</time>
      </trkpt>
      <trkpt lat="46.18195" lon="-1.30953">
        <ele>15</ele>
        <time>2023-07-16T07:28:03.311+00:00</time>
      </trkpt>
      <trkpt lat="46.18204" lon="-1.30971">
        <ele>15</ele>
        <time>2023-07-16T07:28:07.253+00:00</time>
      </trkpt>
      <trkpt lat="46.18218" lon="-1.3099">
        <ele>15</ele>
        <time>2023-07-16T07:28:11.985+00:00</time>
      </trkpt>
      <trkpt lat="46.18232" lon="-1.31009">
        <ele>15</ele>
        <time>2023-07-16T07:28:16.453+00:00</time>
      </trkpt>
      <trkpt lat="46.18241" lon="-1.31025">
        <ele>13</ele>
        <time>2023-07-16T07:28:20.634+00:00</time>
      </trkpt>
      <trkpt lat="46.1825" lon="-1.31036">
        <ele>13</ele>
        <time>2023-07-16T07:28:25.174+00:00</time>
      </trkpt>
      <trkpt lat="46.18262" lon="-1.31026">
        <ele>13</ele>
        <time>2023-07-16T07:28:29.833+00:00</time>
      </trkpt>
      <trkpt lat="46.18275" lon="-1.31024">
        <ele>12</ele>
        <time>2023-07-16T07:28:33.894+00:00</time>
      </trkpt>
      <trkpt lat="46.18289" lon="-1.31008">
        <ele>14</ele>
        <time>2023-07-16T07:28:37.835+00:00</time>
      </trkpt>
      <trkpt lat="46.18306" lon="-1.30988">
        <ele>13</ele>
        <time>2023-07-16T07:28:43.050+00:00</time>
      </trkpt>
      <trkpt lat="46.1832" lon="-1.30976">
        <ele>14</ele>
        <time>2023-07-16T07:28:47.080+00:00</time>
      </trkpt>
      <trkpt lat="46.18338" lon="-1.30966">
        <ele>14</ele>
        <time>2023-07-16T07:28:52.074+00:00</time>
      </trkpt>
      <trkpt lat="46.18353" lon="-1.30962">
        <ele>13</ele>
        <time>2023-07-16T07:28:56.078+00:00</time>
      </trkpt>
      <trkpt lat="46.18375" lon="-1.30955">
        <ele>13</ele>
        <time>2023-07-16T07:29:01.075+00:00</time>
      </trkpt>
      <trkpt lat="46.18396" lon="-1.3095">
        <ele>12</ele>
        <time>2023-07-16T07:29:06.105+00:00</time>
      </trkpt>
      <trkpt lat="46.18419" lon="-1.30944">
        <ele>12</ele>
        <time>2023-07-16T07:29:11.071+00:00</time>
      </trkpt>
      <trkpt lat="46.18438" lon="-1.30941">
        <ele>13</ele>
        <time>2023-07-16T07:29:15.093+00:00</time>
      </trkpt>
      <trkpt lat="46.18456" lon="-1.30936">
        <ele>13</ele>
        <time>2023-07-16T07:29:20.076+00:00</time>
      </trkpt>
      <trkpt lat="46.18468" lon="-1.30927">
        <ele>11</ele>
        <time>2023-07-16T07:29:25.036+00:00</time>
      </trkpt>
      <trkpt lat="46.18472" lon="-1.30929">
        <ele>11</ele>
        <time>2023-07-16T07:29:29.817+00:00</time>
      </trkpt>
      <trkpt lat="46.18479" lon="-1.30931">
        <ele>11</ele>
        <time>2023-07-16T07:29:34.836+00:00</time>
      </trkpt>
      <trkpt lat="46.18493" lon="-1.30929">
        <ele>9</ele>
        <time>2023-07-16T07:29:39.019+00:00</time>
      </trkpt>
      <trkpt lat="46.18505" lon="-1.30924">
        <ele>9</ele>
        <time>2023-07-16T07:29:43.680+00:00</time>
      </trkpt>
      <trkpt lat="46.1851" lon="-1.3092">
        <ele>9</ele>
        <time>2023-07-16T07:29:47.742+00:00</time>
      </trkpt>
      <trkpt lat="46.18517" lon="-1.30918">
        <ele>7</ele>
        <time>2023-07-16T07:29:52.839+00:00</time>
      </trkpt>
      <trkpt lat="46.18518" lon="-1.30939">
        <ele>7</ele>
        <time>2023-07-16T07:29:57.311+00:00</time>
      </trkpt>
      <trkpt lat="46.18521" lon="-1.30966">
        <ele>7</ele>
        <time>2023-07-16T07:30:02.037+00:00</time>
      </trkpt>
      <trkpt lat="46.18521" lon="-1.30997">
        <ele>7</ele>
        <time>2023-07-16T07:30:07.090+00:00</time>
      </trkpt>
      <trkpt lat="46.18522" lon="-1.31021">
        <ele>8</ele>
        <time>2023-07-16T07:30:11.092+00:00</time>
      </trkpt>
      <trkpt lat="46.18523" lon="-1.3105">
        <ele>8</ele>
        <time>2023-07-16T07:30:15.883+00:00</time>
      </trkpt>
      <trkpt lat="46.18524" lon="-1.31078">
        <ele>8</ele>
        <time>2023-07-16T07:30:19.851+00:00</time>
      </trkpt>
      <trkpt lat="46.18524" lon="-1.31108">
        <ele>9</ele>
        <time>2023-07-16T07:30:24.987+00:00</time>
      </trkpt>
      <trkpt lat="46.18525" lon="-1.31134">
        <ele>9</ele>
        <time>2023-07-16T07:30:29.077+00:00</time>
      </trkpt>
      <trkpt lat="46.18525" lon="-1.31159">
        <ele>9</ele>
        <time>2023-07-16T07:30:33.069+00:00</time>
      </trkpt>
      <trkpt lat="46.18528" lon="-1.31189">
        <ele>9</ele>
        <time>2023-07-16T07:30:38.080+00:00</time>
      </trkpt>
      <trkpt lat="46.18529" lon="-1.31216">
        <ele>10</ele>
        <time>2023-07-16T07:30:42.543+00:00</time>
      </trkpt>
      <trkpt lat="46.18529" lon="-1.31242">
        <ele>10</ele>
        <time>2023-07-16T07:30:46.603+00:00</time>
      </trkpt>
      <trkpt lat="46.18528" lon="-1.31269">
        <ele>9</ele>
        <time>2023-07-16T07:30:50.782+00:00</time>
      </trkpt>
      <trkpt lat="46.18525" lon="-1.313">
        <ele>9</ele>
        <time>2023-07-16T07:30:55.915+00:00</time>
      </trkpt>
      <trkpt lat="46.18524" lon="-1.31324">
        <ele>9</ele>
        <time>2023-07-16T07:31:00.093+00:00</time>
      </trkpt>
      <trkpt lat="46.18523" lon="-1.31352">
        <ele>9</ele>
        <time>2023-07-16T07:31:04.630+00:00</time>
      </trkpt>
      <trkpt lat="46.18521" lon="-1.31373">
        <ele>9</ele>
        <time>2023-07-16T07:31:08.689+00:00</time>
      </trkpt>
      <trkpt lat="46.18519" lon="-1.31393">
        <ele>9</ele>
        <time>2023-07-16T07:31:13.226+00:00</time>
      </trkpt>
      <trkpt lat="46.18517" lon="-1.31414">
        <ele>8</ele>
        <time>2023-07-16T07:31:17.816+00:00</time>
      </trkpt>
      <trkpt lat="46.18515" lon="-1.31436">
        <ele>6</ele>
        <time>2023-07-16T07:31:21.965+00:00</time>
      </trkpt>
      <trkpt lat="46.18512" lon="-1.3146">
        <ele>7</ele>
        <time>2023-07-16T07:31:26.612+00:00</time>
      </trkpt>
      <trkpt lat="46.1851" lon="-1.31482">
        <ele>7</ele>
        <time>2023-07-16T07:31:30.774+00:00</time>
      </trkpt>
      <trkpt lat="46.18507" lon="-1.31506">
        <ele>8</ele>
        <time>2023-07-16T07:31:34.835+00:00</time>
      </trkpt>
      <trkpt lat="46.18505" lon="-1.3153">
        <ele>9</ele>
        <time>2023-07-16T07:31:38.897+00:00</time>
      </trkpt>
      <trkpt lat="46.18501" lon="-1.3156">
        <ele>9</ele>
        <time>2023-07-16T07:31:43.914+00:00</time>
      </trkpt>
      <trkpt lat="46.18498" lon="-1.31584">
        <ele>10</ele>
        <time>2023-07-16T07:31:48.488+00:00</time>
      </trkpt>
      <trkpt lat="46.18496" lon="-1.31607">
        <ele>10</ele>
        <time>2023-07-16T07:31:53.096+00:00</time>
      </trkpt>
      <trkpt lat="46.18494" lon="-1.31626">
        <ele>10</ele>
        <time>2023-07-16T07:31:57.090+00:00</time>
      </trkpt>
      <trkpt lat="46.18493" lon="-1.31651">
        <ele>10</ele>
        <time>2023-07-16T07:32:01.828+00:00</time>
      </trkpt>
      <trkpt lat="46.18492" lon="-1.31673">
        <ele>10</ele>
        <time>2023-07-16T07:32:05.888+00:00</time>
      </trkpt>
      <trkpt lat="46.18494" lon="-1.31702">
        <ele>10</ele>
        <time>2023-07-16T07:32:10.905+00:00</time>
      </trkpt>
      <trkpt lat="46.18496" lon="-1.31731">
        <ele>9</ele>
        <time>2023-07-16T07:32:15.562+00:00</time>
      </trkpt>
      <trkpt lat="46.18503" lon="-1.31755">
        <ele>8</ele>
        <time>2023-07-16T07:32:20.220+00:00</time>
      </trkpt>
      <trkpt lat="46.18511" lon="-1.31774">
        <ele>8</ele>
        <time>2023-07-16T07:32:24.870+00:00</time>
      </trkpt>
      <trkpt lat="46.18519" lon="-1.31794">
        <ele>8</ele>
        <time>2023-07-16T07:32:30.006+00:00</time>
      </trkpt>
      <trkpt lat="46.18526" lon="-1.31809">
        <ele>8</ele>
        <time>2023-07-16T07:32:33.590+00:00</time>
      </trkpt>
      <trkpt lat="46.18532" lon="-1.31829">
        <ele>8</ele>
        <time>2023-07-16T07:32:37.652+00:00</time>
      </trkpt>
      <trkpt lat="46.18538" lon="-1.31848">
        <ele>7</ele>
        <time>2023-07-16T07:32:42.649+00:00</time>
      </trkpt>
      <trkpt lat="46.18541" lon="-1.31854">
        <ele>7</ele>
        <time>2023-07-16T07:32:46.712+00:00</time>
      </trkpt>
      <trkpt lat="46.18546" lon="-1.31869">
        <ele>6</ele>
        <time>2023-07-16T07:32:51.848+00:00</time>
      </trkpt>
      <trkpt lat="46.18544" lon="-1.31889">
        <ele>6</ele>
        <time>2023-07-16T07:32:56.865+00:00</time>
      </trkpt>
      <trkpt lat="46.18535" lon="-1.319">
        <ele>7</ele>
        <time>2023-07-16T07:33:01.398+00:00</time>
      </trkpt>
      <trkpt lat="46.18528" lon="-1.31909">
        <ele>6</ele>
        <time>2023-07-16T07:33:05.941+00:00</time>
      </trkpt>
      <trkpt lat="46.18517" lon="-1.31922">
        <ele>6</ele>
        <time>2023-07-16T07:33:11.102+00:00</time>
      </trkpt>
      <trkpt lat="46.18508" lon="-1.31929">
        <ele>6</ele>
        <time>2023-07-16T07:33:15.104+00:00</time>
      </trkpt>
      <trkpt lat="46.18495" lon="-1.31935">
        <ele>5</ele>
        <time>2023-07-16T07:33:19.795+00:00</time>
      </trkpt>
      <trkpt lat="46.18483" lon="-1.31936">
        <ele>6</ele>
        <time>2023-07-16T07:33:24.103+00:00</time>
      </trkpt>
      <trkpt lat="46.18468" lon="-1.3193">
        <ele>7</ele>
        <time>2023-07-16T07:33:28.512+00:00</time>
      </trkpt>
      <trkpt lat="46.18457" lon="-1.31925">
        <ele>8</ele>
        <time>2023-07-16T07:33:32.930+00:00</time>
      </trkpt>
      <trkpt lat="46.18447" lon="-1.31917">
        <ele>8</ele>
        <time>2023-07-16T07:33:37.945+00:00</time>
      </trkpt>
      <trkpt lat="46.18436" lon="-1.31914">
        <ele>8</ele>
        <time>2023-07-16T07:33:42.601+00:00</time>
      </trkpt>
      <trkpt lat="46.18421" lon="-1.31912">
        <ele>10</ele>
        <time>2023-07-16T07:33:47.856+00:00</time>
      </trkpt>
      <trkpt lat="46.18413" lon="-1.3191">
        <ele>10</ele>
        <time>2023-07-16T07:33:51.797+00:00</time>
      </trkpt>
      <trkpt lat="46.18402" lon="-1.3191">
        <ele>10</ele>
        <time>2023-07-16T07:33:55.975+00:00</time>
      </trkpt>
      <trkpt lat="46.18402" lon="-1.31909">
        <ele>10</ele>
        <time>2023-07-16T07:34:01.106+00:00</time>
      </trkpt>
      <trkpt lat="46.18403" lon="-1.3191">
        <ele>10</ele>
        <time>2023-07-16T07:34:05.642+00:00</time>
      </trkpt>
      <trkpt lat="46.1841" lon="-1.31911">
        <ele>10</ele>
        <time>2023-07-16T07:34:09.583+00:00</time>
      </trkpt>
      <trkpt lat="46.18424" lon="-1.31911">
        <ele>10</ele>
        <time>2023-07-16T07:34:14.836+00:00</time>
      </trkpt>
      <trkpt lat="46.18438" lon="-1.31911">
        <ele>8</ele>
        <time>2023-07-16T07:34:18.776+00:00</time>
      </trkpt>
      <trkpt lat="46.18451" lon="-1.31915">
        <ele>8</ele>
        <time>2023-07-16T07:34:23.909+00:00</time>
      </trkpt>
      <trkpt lat="46.18461" lon="-1.31921">
        <ele>7</ele>
        <time>2023-07-16T07:34:27.969+00:00</time>
      </trkpt>
      <trkpt lat="46.18472" lon="-1.31929">
        <ele>7</ele>
        <time>2023-07-16T07:34:31.908+00:00</time>
      </trkpt>
      <trkpt lat="46.18486" lon="-1.31933">
        <ele>6</ele>
        <time>2023-07-16T07:34:37.115+00:00</time>
      </trkpt>
      <trkpt lat="46.18499" lon="-1.31928">
        <ele>6</ele>
        <time>2023-07-16T07:34:41.199+00:00</time>
      </trkpt>
      <trkpt lat="46.18512" lon="-1.31921">
        <ele>6</ele>
        <time>2023-07-16T07:34:45.260+00:00</time>
      </trkpt>
      <trkpt lat="46.18524" lon="-1.31911">
        <ele>6</ele>
        <time>2023-07-16T07:34:49.797+00:00</time>
      </trkpt>
      <trkpt lat="46.18534" lon="-1.31899">
        <ele>7</ele>
        <time>2023-07-16T07:34:53.855+00:00</time>
      </trkpt>
      <trkpt lat="46.18543" lon="-1.3189">
        <ele>6</ele>
        <time>2023-07-16T07:34:58.870+00:00</time>
      </trkpt>
      <trkpt lat="46.18551" lon="-1.31895">
        <ele>6</ele>
        <time>2023-07-16T07:35:04.089+00:00</time>
      </trkpt>
      <trkpt lat="46.18564" lon="-1.31913">
        <ele>6</ele>
        <time>2023-07-16T07:35:09.136+00:00</time>
      </trkpt>
      <trkpt lat="46.18579" lon="-1.31933">
        <ele>4</ele>
        <time>2023-07-16T07:35:14.071+00:00</time>
      </trkpt>
      <trkpt lat="46.18593" lon="-1.31944">
        <ele>4</ele>
        <time>2023-07-16T07:35:18.089+00:00</time>
      </trkpt>
      <trkpt lat="46.18608" lon="-1.31958">
        <ele>4</ele>
        <time>2023-07-16T07:35:23.069+00:00</time>
      </trkpt>
      <trkpt lat="46.18618" lon="-1.31975">
        <ele>4</ele>
        <time>2023-07-16T07:35:27.108+00:00</time>
      </trkpt>
      <trkpt lat="46.18627" lon="-1.31995">
        <ele>2</ele>
        <time>2023-07-16T07:35:32.069+00:00</time>
      </trkpt>
      <trkpt lat="46.18633" lon="-1.3202">
        <ele>3</ele>
        <time>2023-07-16T07:35:37.075+00:00</time>
      </trkpt>
      <trkpt lat="46.18637" lon="-1.32039">
        <ele>3</ele>
        <time>2023-07-16T07:35:41.096+00:00</time>
      </trkpt>
      <trkpt lat="46.18641" lon="-1.32065">
        <ele>3</ele>
        <time>2023-07-16T07:35:45.975+00:00</time>
      </trkpt>
      <trkpt lat="46.18642" lon="-1.32088">
        <ele>4</ele>
        <time>2023-07-16T07:35:49.939+00:00</time>
      </trkpt>
      <trkpt lat="46.18644" lon="-1.3211">
        <ele>4</ele>
        <time>2023-07-16T07:35:53.999+00:00</time>
      </trkpt>
      <trkpt lat="46.18647" lon="-1.3213">
        <ele>3</ele>
        <time>2023-07-16T07:35:58.084+00:00</time>
      </trkpt>
      <trkpt lat="46.1865" lon="-1.32151">
        <ele>3</ele>
        <time>2023-07-16T07:36:02.595+00:00</time>
      </trkpt>
      <trkpt lat="46.18654" lon="-1.32171">
        <ele>3</ele>
        <time>2023-07-16T07:36:07.250+00:00</time>
      </trkpt>
      <trkpt lat="46.1866" lon="-1.32196">
        <ele>4</ele>
        <time>2023-07-16T07:36:11.308+00:00</time>
      </trkpt>
      <trkpt lat="46.18668" lon="-1.32222">
        <ele>4</ele>
        <time>2023-07-16T07:36:15.964+00:00</time>
      </trkpt>
      <trkpt lat="46.18678" lon="-1.32248">
        <ele>4</ele>
        <time>2023-07-16T07:36:21.035+00:00</time>
      </trkpt>
      <trkpt lat="46.18684" lon="-1.32265">
        <ele>4</ele>
        <time>2023-07-16T07:36:24.919+00:00</time>
      </trkpt>
      <trkpt lat="46.18693" lon="-1.32287">
        <ele>4</ele>
        <time>2023-07-16T07:36:29.697+00:00</time>
      </trkpt>
      <trkpt lat="46.18702" lon="-1.32308">
        <ele>4</ele>
        <time>2023-07-16T07:36:34.116+00:00</time>
      </trkpt>
      <trkpt lat="46.18709" lon="-1.3233">
        <ele>3</ele>
        <time>2023-07-16T07:36:38.652+00:00</time>
      </trkpt>
      <trkpt lat="46.18715" lon="-1.3235">
        <ele>2</ele>
        <time>2023-07-16T07:36:43.170+00:00</time>
      </trkpt>
      <trkpt lat="46.18722" lon="-1.32365">
        <ele>2</ele>
        <time>2023-07-16T07:36:47.754+00:00</time>
      </trkpt>
      <trkpt lat="46.18732" lon="-1.32364">
        <ele>2</ele>
        <time>2023-07-16T07:36:51.660+00:00</time>
      </trkpt>
      <trkpt lat="46.18737" lon="-1.32366">
        <ele>1</ele>
        <time>2023-07-16T07:36:56.195+00:00</time>
      </trkpt>
      <trkpt lat="46.18738" lon="-1.3237">
        <ele>1</ele>
        <time>2023-07-16T07:37:00.613+00:00</time>
      </trkpt>
      <trkpt lat="46.18735" lon="-1.32368">
        <ele>2</ele>
        <time>2023-07-16T07:39:09.626+00:00</time>
      </trkpt>
      <trkpt lat="46.18735" lon="-1.32362">
        <ele>2</ele>
        <time>2023-07-16T07:39:14.775+00:00</time>
      </trkpt>
      <trkpt lat="46.18735" lon="-1.32359">
        <ele>2</ele>
        <time>2023-07-16T07:39:18.927+00:00</time>
      </trkpt>
      <trkpt lat="46.18735" lon="-1.32357">
        <ele>2</ele>
        <time>2023-07-16T07:39:23.005+00:00</time>
      </trkpt>
      <trkpt lat="46.18735" lon="-1.3235">
        <ele>2</ele>
        <time>2023-07-16T07:39:27.622+00:00</time>
      </trkpt>
      <trkpt lat="46.18736" lon="-1.32354">
        <ele>2</ele>
        <time>2023-07-16T07:39:47.583+00:00</time>
      </trkpt>
      <trkpt lat="46.18736" lon="-1.32362">
        <ele>1</ele>
        <time>2023-07-16T07:39:51.655+00:00</time>
      </trkpt>
      <trkpt lat="46.18733" lon="-1.32368">
        <ele>2</ele>
        <time>2023-07-16T07:39:56.206+00:00</time>
      </trkpt>
      <trkpt lat="46.1873" lon="-1.32373">
        <ele>2</ele>
        <time>2023-07-16T07:40:00.313+00:00</time>
      </trkpt>
      <trkpt lat="46.18729" lon="-1.32378">
        <ele>2</ele>
        <time>2023-07-16T07:40:04.792+00:00</time>
      </trkpt>
      <trkpt lat="46.1873" lon="-1.32384">
        <ele>2</ele>
        <time>2023-07-16T07:40:08.781+00:00</time>
      </trkpt>
      <trkpt lat="46.18729" lon="-1.32388">
        <ele>2</ele>
        <time>2023-07-16T07:40:13.928+00:00</time>
      </trkpt>
      <trkpt lat="46.18725" lon="-1.32386">
        <ele>2</ele>
        <time>2023-07-16T07:40:17.998+00:00</time>
      </trkpt>
      <trkpt lat="46.1872" lon="-1.32386">
        <ele>2</ele>
        <time>2023-07-16T07:40:22.631+00:00</time>
      </trkpt>
      <trkpt lat="46.18715" lon="-1.32387">
        <ele>2</ele>
        <time>2023-07-16T07:40:26.871+00:00</time>
      </trkpt>
      <trkpt lat="46.18715" lon="-1.32389">
        <ele>2</ele>
        <time>2023-07-16T07:40:31.378+00:00</time>
      </trkpt>
      <trkpt lat="46.18715" lon="-1.3239">
        <ele>2</ele>
        <time>2023-07-16T07:40:35.780+00:00</time>
      </trkpt>
      <trkpt lat="46.1871" lon="-1.32396">
        <ele>2</ele>
        <time>2023-07-16T07:40:39.600+00:00</time>
      </trkpt>
      <trkpt lat="46.18707" lon="-1.32403">
        <ele>4</ele>
        <time>2023-07-16T07:40:44.713+00:00</time>
      </trkpt>
      <trkpt lat="46.18702" lon="-1.32406">
        <ele>4</ele>
        <time>2023-07-16T07:40:49.243+00:00</time>
      </trkpt>
      <trkpt lat="46.18696" lon="-1.32404">
        <ele>4</ele>
        <time>2023-07-16T07:40:53.795+00:00</time>
      </trkpt>
      <trkpt lat="46.18692" lon="-1.32407">
        <ele>4</ele>
        <time>2023-07-16T07:40:57.830+00:00</time>
      </trkpt>
      <trkpt lat="46.18687" lon="-1.32409">
        <ele>4</ele>
        <time>2023-07-16T07:41:02.429+00:00</time>
      </trkpt>
      <trkpt lat="46.18681" lon="-1.32412">
        <ele>4</ele>
        <time>2023-07-16T07:41:06.367+00:00</time>
      </trkpt>
      <trkpt lat="46.18676" lon="-1.32415">
        <ele>5</ele>
        <time>2023-07-16T07:41:10.914+00:00</time>
      </trkpt>
      <trkpt lat="46.18673" lon="-1.32418">
        <ele>5</ele>
        <time>2023-07-16T07:41:14.983+00:00</time>
      </trkpt>
      <trkpt lat="46.1867" lon="-1.32423">
        <ele>5</ele>
        <time>2023-07-16T07:41:19.570+00:00</time>
      </trkpt>
      <trkpt lat="46.18671" lon="-1.3243">
        <ele>5</ele>
        <time>2023-07-16T07:41:24.037+00:00</time>
      </trkpt>
      <trkpt lat="46.18671" lon="-1.32436">
        <ele>5</ele>
        <time>2023-07-16T07:41:28.717+00:00</time>
      </trkpt>
      <trkpt lat="46.18672" lon="-1.32439">
        <ele>5</ele>
        <time>2023-07-16T07:41:33.223+00:00</time>
      </trkpt>
      <trkpt lat="46.18675" lon="-1.32443">
        <ele>5</ele>
        <time>2023-07-16T07:41:37.829+00:00</time>
      </trkpt>
      <trkpt lat="46.1868" lon="-1.32452">
        <ele>5</ele>
        <time>2023-07-16T07:41:42.336+00:00</time>
      </trkpt>
      <trkpt lat="46.18683" lon="-1.32461">
        <ele>5</ele>
        <time>2023-07-16T07:41:46.842+00:00</time>
      </trkpt>
      <trkpt lat="46.18685" lon="-1.32469">
        <ele>5</ele>
        <time>2023-07-16T07:41:51.347+00:00</time>
      </trkpt>
      <trkpt lat="46.18688" lon="-1.32476">
        <ele>5</ele>
        <time>2023-07-16T07:41:55.851+00:00</time>
      </trkpt>
      <trkpt lat="46.18689" lon="-1.32482">
        <ele>5</ele>
        <time>2023-07-16T07:41:59.954+00:00</time>
      </trkpt>
      <trkpt lat="46.18691" lon="-1.32483">
        <ele>5</ele>
        <time>2023-07-16T07:42:03.960+00:00</time>
      </trkpt>
      <trkpt lat="46.18693" lon="-1.32483">
        <ele>5</ele>
        <time>2023-07-16T07:42:07.968+00:00</time>
      </trkpt>
      <trkpt lat="46.18697" lon="-1.32492">
        <ele>5</ele>
        <time>2023-07-16T07:42:12.493+00:00</time>
      </trkpt>
      <trkpt lat="46.18698" lon="-1.32501">
        <ele>5</ele>
        <time>2023-07-16T07:42:16.600+00:00</time>
      </trkpt>
      <trkpt lat="46.18699" lon="-1.32508">
        <ele>5</ele>
        <time>2023-07-16T07:42:20.622+00:00</time>
      </trkpt>
      <trkpt lat="46.18701" lon="-1.32514">
        <ele>5</ele>
        <time>2023-07-16T07:42:24.726+00:00</time>
      </trkpt>
      <trkpt lat="46.18702" lon="-1.32521">
        <ele>5</ele>
        <time>2023-07-16T07:42:28.729+00:00</time>
      </trkpt>
      <trkpt lat="46.18703" lon="-1.32528">
        <ele>5</ele>
        <time>2023-07-16T07:42:33.392+00:00</time>
      </trkpt>
      <trkpt lat="46.18706" lon="-1.32536">
        <ele>5</ele>
        <time>2023-07-16T07:42:38.057+00:00</time>
      </trkpt>
      <trkpt lat="46.18709" lon="-1.32542">
        <ele>4</ele>
        <time>2023-07-16T07:42:42.310+00:00</time>
      </trkpt>
      <trkpt lat="46.18712" lon="-1.32549">
        <ele>4</ele>
        <time>2023-07-16T07:42:46.577+00:00</time>
      </trkpt>
      <trkpt lat="46.18715" lon="-1.32557">
        <ele>4</ele>
        <time>2023-07-16T07:42:59.269+00:00</time>
      </trkpt>
      <trkpt lat="46.18715" lon="-1.32563">
        <ele>4</ele>
        <time>2023-07-16T07:43:03.776+00:00</time>
      </trkpt>
      <trkpt lat="46.18715" lon="-1.32569">
        <ele>4</ele>
        <time>2023-07-16T07:43:08.282+00:00</time>
      </trkpt>
      <trkpt lat="46.18717" lon="-1.32575">
        <ele>4</ele>
        <time>2023-07-16T07:43:12.289+00:00</time>
      </trkpt>
      <trkpt lat="46.18718" lon="-1.32581">
        <ele>4</ele>
        <time>2023-07-16T07:43:16.794+00:00</time>
      </trkpt>
      <trkpt lat="46.1872" lon="-1.32587">
        <ele>4</ele>
        <time>2023-07-16T07:43:20.799+00:00</time>
      </trkpt>
      <trkpt lat="46.18721" lon="-1.32594">
        <ele>4</ele>
        <time>2023-07-16T07:43:25.305+00:00</time>
      </trkpt>
      <trkpt lat="46.18724" lon="-1.32596">
        <ele>4</ele>
        <time>2023-07-16T07:43:29.314+00:00</time>
      </trkpt>
      <trkpt lat="46.18726" lon="-1.32601">
        <ele>5</ele>
        <time>2023-07-16T07:43:33.322+00:00</time>
      </trkpt>
      <trkpt lat="46.18729" lon="-1.32609">
        <ele>5</ele>
        <time>2023-07-16T07:43:37.829+00:00</time>
      </trkpt>
      <trkpt lat="46.18731" lon="-1.32616">
        <ele>5</ele>
        <time>2023-07-16T07:43:41.836+00:00</time>
      </trkpt>
      <trkpt lat="46.18733" lon="-1.32624">
        <ele>5</ele>
        <time>2023-07-16T07:43:46.342+00:00</time>
      </trkpt>
      <trkpt lat="46.18735" lon="-1.32631">
        <ele>5</ele>
        <time>2023-07-16T07:43:50.850+00:00</time>
      </trkpt>
      <trkpt lat="46.18737" lon="-1.32637">
        <ele>6</ele>
        <time>2023-07-16T07:43:54.858+00:00</time>
      </trkpt>
      <trkpt lat="46.18739" lon="-1.32643">
        <ele>6</ele>
        <time>2023-07-16T07:43:59.866+00:00</time>
      </trkpt>
      <trkpt lat="46.18741" lon="-1.32649">
        <ele>6</ele>
        <time>2023-07-16T07:44:04.398+00:00</time>
      </trkpt>
      <trkpt lat="46.18743" lon="-1.32656">
        <ele>6</ele>
        <time>2023-07-16T07:44:08.906+00:00</time>
      </trkpt>
      <trkpt lat="46.18744" lon="-1.32663">
        <ele>6</ele>
        <time>2023-07-16T07:44:13.472+00:00</time>
      </trkpt>
      <trkpt lat="46.18745" lon="-1.32662">
        <ele>6</ele>
        <time>2023-07-16T07:44:17.398+00:00</time>
      </trkpt>
      <trkpt lat="46.18748" lon="-1.32662">
        <ele>6</ele>
        <time>2023-07-16T07:44:21.460+00:00</time>
      </trkpt>
      <trkpt lat="46.18753" lon="-1.3266">
        <ele>6</ele>
        <time>2023-07-16T07:44:25.970+00:00</time>
      </trkpt>
      <trkpt lat="46.18752" lon="-1.32655">
        <ele>6</ele>
        <time>2023-07-16T07:44:29.981+00:00</time>
      </trkpt>
      <trkpt lat="46.18752" lon="-1.32639">
        <ele>6</ele>
        <time>2023-07-16T07:44:33.993+00:00</time>
      </trkpt>
      <trkpt lat="46.18753" lon="-1.32635">
        <ele>6</ele>
        <time>2023-07-16T07:44:39.005+00:00</time>
      </trkpt>
      <trkpt lat="46.18761" lon="-1.32638">
        <ele>6</ele>
        <time>2023-07-16T07:44:43.518+00:00</time>
      </trkpt>
      <trkpt lat="46.18769" lon="-1.32643">
        <ele>6</ele>
        <time>2023-07-16T07:44:47.529+00:00</time>
      </trkpt>
      <trkpt lat="46.18771" lon="-1.32647">
        <ele>6</ele>
        <time>2023-07-16T07:44:52.040+00:00</time>
      </trkpt>
      <trkpt lat="46.18772" lon="-1.3265">
        <ele>6</ele>
        <time>2023-07-16T07:44:56.150+00:00</time>
      </trkpt>
      <trkpt lat="46.18773" lon="-1.32655">
        <ele>6</ele>
        <time>2023-07-16T07:45:00.659+00:00</time>
      </trkpt>
      <trkpt lat="46.18775" lon="-1.32659">
        <ele>6</ele>
        <time>2023-07-16T07:45:05.166+00:00</time>
      </trkpt>
      <trkpt lat="46.18775" lon="-1.32663">
        <ele>6</ele>
        <time>2023-07-16T07:45:09.673+00:00</time>
      </trkpt>
      <trkpt lat="46.18775" lon="-1.32664">
        <ele>6</ele>
        <time>2023-07-16T07:45:14.687+00:00</time>
      </trkpt>
      <trkpt lat="46.18777" lon="-1.32657">
        <ele>6</ele>
        <time>2023-07-16T07:45:19.700+00:00</time>
      </trkpt>
      <trkpt lat="46.1878" lon="-1.32651">
        <ele>6</ele>
        <time>2023-07-16T07:45:24.214+00:00</time>
      </trkpt>
      <trkpt lat="46.18783" lon="-1.32642">
        <ele>6</ele>
        <time>2023-07-16T07:45:59.915+00:00</time>
      </trkpt>
      <trkpt lat="46.18783" lon="-1.32641">
        <ele>6</ele>
        <time>2023-07-16T07:46:04.926+00:00</time>
      </trkpt>
      <trkpt lat="46.18783" lon="-1.32641">
        <ele>6</ele>
        <time>2023-07-16T07:46:09.438+00:00</time>
      </trkpt>
      <trkpt lat="46.18783" lon="-1.3264">
        <ele>6</ele>
        <time>2023-07-16T07:46:13.450+00:00</time>
      </trkpt>
      <trkpt lat="46.18784" lon="-1.32639">
        <ele>6</ele>
        <time>2023-07-16T07:46:17.466+00:00</time>
      </trkpt>
      <trkpt lat="46.18789" lon="-1.32634">
        <ele>6</ele>
        <time>2023-07-16T07:46:26.092+00:00</time>
      </trkpt>
      <trkpt lat="46.18792" lon="-1.32631">
        <ele>6</ele>
        <time>2023-07-16T07:46:30.603+00:00</time>
      </trkpt>
      <trkpt lat="46.18793" lon="-1.32631">
        <ele>6</ele>
        <time>2023-07-16T07:46:35.116+00:00</time>
      </trkpt>
      <trkpt lat="46.18794" lon="-1.32633">
        <ele>6</ele>
        <time>2023-07-16T07:46:39.627+00:00</time>
      </trkpt>
      <trkpt lat="46.18795" lon="-1.32632">
        <ele>6</ele>
        <time>2023-07-16T07:46:43.640+00:00</time>
      </trkpt>
      <trkpt lat="46.18799" lon="-1.3263">
        <ele>6</ele>
        <time>2023-07-16T07:46:52.164+00:00</time>
      </trkpt>
      <trkpt lat="46.18801" lon="-1.32631">
        <ele>6</ele>
        <time>2023-07-16T07:46:56.674+00:00</time>
      </trkpt>
      <trkpt lat="46.18803" lon="-1.32631">
        <ele>6</ele>
        <time>2023-07-16T07:47:00.684+00:00</time>
      </trkpt>
      <trkpt lat="46.18804" lon="-1.3263">
        <ele>6</ele>
        <time>2023-07-16T07:47:05.196+00:00</time>
      </trkpt>
      <trkpt lat="46.18808" lon="-1.32628">
        <ele>6</ele>
        <time>2023-07-16T07:47:09.807+00:00</time>
      </trkpt>
      <trkpt lat="46.18809" lon="-1.32624">
        <ele>6</ele>
        <time>2023-07-16T07:47:13.817+00:00</time>
      </trkpt>
      <trkpt lat="46.18811" lon="-1.32618">
        <ele>6</ele>
        <time>2023-07-16T07:47:18.927+00:00</time>
      </trkpt>
      <trkpt lat="46.18815" lon="-1.32619">
        <ele>6</ele>
        <time>2023-07-16T07:47:23.068+00:00</time>
      </trkpt>
      <trkpt lat="46.18817" lon="-1.32613">
        <ele>6</ele>
        <time>2023-07-16T07:47:27.349+00:00</time>
      </trkpt>
      <trkpt lat="46.18824" lon="-1.3261">
        <ele>6</ele>
        <time>2023-07-16T07:47:31.853+00:00</time>
      </trkpt>
      <trkpt lat="46.18828" lon="-1.32606">
        <ele>6</ele>
        <time>2023-07-16T07:47:36.355+00:00</time>
      </trkpt>
      <trkpt lat="46.18834" lon="-1.32602">
        <ele>6</ele>
        <time>2023-07-16T07:47:40.655+00:00</time>
      </trkpt>
      <trkpt lat="46.18839" lon="-1.32601">
        <ele>6</ele>
        <time>2023-07-16T07:47:44.936+00:00</time>
      </trkpt>
      <trkpt lat="46.18844" lon="-1.32596">
        <ele>7</ele>
        <time>2023-07-16T07:47:49.237+00:00</time>
      </trkpt>
      <trkpt lat="46.18849" lon="-1.32591">
        <ele>6</ele>
        <time>2023-07-16T07:47:53.978+00:00</time>
      </trkpt>
      <trkpt lat="46.18854" lon="-1.32587">
        <ele>6</ele>
        <time>2023-07-16T07:47:58.198+00:00</time>
      </trkpt>
      <trkpt lat="46.18859" lon="-1.32584">
        <ele>6</ele>
        <time>2023-07-16T07:48:02.817+00:00</time>
      </trkpt>
      <trkpt lat="46.18871" lon="-1.32576">
        <ele>6</ele>
        <time>2023-07-16T07:48:23.597+00:00</time>
      </trkpt>
      <trkpt lat="46.18871" lon="-1.32575">
        <ele>6</ele>
        <time>2023-07-16T07:48:28.607+00:00</time>
      </trkpt>
      <trkpt lat="46.18871" lon="-1.32574">
        <ele>6</ele>
        <time>2023-07-16T07:48:32.616+00:00</time>
      </trkpt>
      <trkpt lat="46.18868" lon="-1.3257">
        <ele>6</ele>
        <time>2023-07-16T07:48:37.128+00:00</time>
      </trkpt>
      <trkpt lat="46.18863" lon="-1.32564">
        <ele>6</ele>
        <time>2023-07-16T07:48:41.136+00:00</time>
      </trkpt>
      <trkpt lat="46.18859" lon="-1.32555">
        <ele>6</ele>
        <time>2023-07-16T07:48:45.845+00:00</time>
      </trkpt>
      <trkpt lat="46.18856" lon="-1.32548">
        <ele>6</ele>
        <time>2023-07-16T07:48:49.852+00:00</time>
      </trkpt>
      <trkpt lat="46.18855" lon="-1.32541">
        <ele>5</ele>
        <time>2023-07-16T07:48:53.959+00:00</time>
      </trkpt>
      <trkpt lat="46.18858" lon="-1.32536">
        <ele>5</ele>
        <time>2023-07-16T07:48:58.471+00:00</time>
      </trkpt>
      <trkpt lat="46.1886" lon="-1.32533">
        <ele>5</ele>
        <time>2023-07-16T07:49:02.985+00:00</time>
      </trkpt>
      <trkpt lat="46.1886" lon="-1.32533">
        <ele>5</ele>
        <time>2023-07-16T07:49:07.592+00:00</time>
      </trkpt>
      <trkpt lat="46.18867" lon="-1.3253">
        <ele>5</ele>
        <time>2023-07-16T07:49:11.608+00:00</time>
      </trkpt>
      <trkpt lat="46.18873" lon="-1.32527">
        <ele>5</ele>
        <time>2023-07-16T07:49:16.118+00:00</time>
      </trkpt>
      <trkpt lat="46.18878" lon="-1.32522">
        <ele>3</ele>
        <time>2023-07-16T07:49:20.727+00:00</time>
      </trkpt>
      <trkpt lat="46.18884" lon="-1.3252">
        <ele>3</ele>
        <time>2023-07-16T07:49:25.236+00:00</time>
      </trkpt>
      <trkpt lat="46.18888" lon="-1.32518">
        <ele>3</ele>
        <time>2023-07-16T07:49:29.745+00:00</time>
      </trkpt>
      <trkpt lat="46.18893" lon="-1.32517">
        <ele>3</ele>
        <time>2023-07-16T07:49:33.756+00:00</time>
      </trkpt>
      <trkpt lat="46.18894" lon="-1.32516">
        <ele>3</ele>
        <time>2023-07-16T07:49:38.268+00:00</time>
      </trkpt>
      <trkpt lat="46.18893" lon="-1.32518">
        <ele>3</ele>
        <time>2023-07-16T07:49:42.783+00:00</time>
      </trkpt>
      <trkpt lat="46.18893" lon="-1.32518">
        <ele>3</ele>
        <time>2023-07-16T07:49:47.300+00:00</time>
      </trkpt>
      <trkpt lat="46.1889" lon="-1.32516">
        <ele>3</ele>
        <time>2023-07-16T07:49:51.829+00:00</time>
      </trkpt>
      <trkpt lat="46.18887" lon="-1.32507">
        <ele>2</ele>
        <time>2023-07-16T07:49:55.928+00:00</time>
      </trkpt>
      <trkpt lat="46.18883" lon="-1.32498">
        <ele>2</ele>
        <time>2023-07-16T07:49:59.954+00:00</time>
      </trkpt>
      <trkpt lat="46.1888" lon="-1.32491">
        <ele>2</ele>
        <time>2023-07-16T07:50:04.581+00:00</time>
      </trkpt>
      <trkpt lat="46.18877" lon="-1.32486">
        <ele>3.9</ele>
        <time>2023-07-16T07:50:08.593+00:00</time>
      </trkpt>
      <trkpt lat="46.18875" lon="-1.3248">
        <ele>3</ele>
        <time>2023-07-16T07:50:13.607+00:00</time>
      </trkpt>
      <trkpt lat="46.18875" lon="-1.32474">
        <ele>3</ele>
        <time>2023-07-16T07:50:17.621+00:00</time>
      </trkpt>
      <trkpt lat="46.18873" lon="-1.32469">
        <ele>3</ele>
        <time>2023-07-16T07:50:21.628+00:00</time>
      </trkpt>
      <trkpt lat="46.1887" lon="-1.32462">
        <ele>3</ele>
        <time>2023-07-16T07:50:26.691+00:00</time>
      </trkpt>
      <trkpt lat="46.18868" lon="-1.32459">
        <ele>3</ele>
        <time>2023-07-16T07:50:31.731+00:00</time>
      </trkpt>
      <trkpt lat="46.18866" lon="-1.32456">
        <ele>2</ele>
        <time>2023-07-16T07:50:36.293+00:00</time>
      </trkpt>
      <trkpt lat="46.18864" lon="-1.3245">
        <ele>2</ele>
        <time>2023-07-16T07:50:40.296+00:00</time>
      </trkpt>
      <trkpt lat="46.18861" lon="-1.32444">
        <ele>2</ele>
        <time>2023-07-16T07:50:44.517+00:00</time>
      </trkpt>
      <trkpt lat="46.18858" lon="-1.32439">
        <ele>2</ele>
        <time>2023-07-16T07:50:48.976+00:00</time>
      </trkpt>
      <trkpt lat="46.1885" lon="-1.32435">
        <ele>2</ele>
        <time>2023-07-16T07:50:57.479+00:00</time>
      </trkpt>
      <trkpt lat="46.1885" lon="-1.32438">
        <ele>2</ele>
        <time>2023-07-16T07:51:01.600+00:00</time>
      </trkpt>
      <trkpt lat="46.1885" lon="-1.3244">
        <ele>2</ele>
        <time>2023-07-16T07:51:06.598+00:00</time>
      </trkpt>
      <trkpt lat="46.18848" lon="-1.32443">
        <ele>2</ele>
        <time>2023-07-16T07:51:11.196+00:00</time>
      </trkpt>
      <trkpt lat="46.18845" lon="-1.32445">
        <ele>5</ele>
        <time>2023-07-16T07:51:15.927+00:00</time>
      </trkpt>
      <trkpt lat="46.18846" lon="-1.32441">
        <ele>5</ele>
        <time>2023-07-16T08:16:31.008+00:00</time>
      </trkpt>
      <trkpt lat="46.18847" lon="-1.32439">
        <ele>5</ele>
        <time>2023-07-16T08:16:34.905+00:00</time>
      </trkpt>
      <trkpt lat="46.18852" lon="-1.32433">
        <ele>2</ele>
        <time>2023-07-16T08:16:39.581+00:00</time>
      </trkpt>
      <trkpt lat="46.18851" lon="-1.32425">
        <ele>4.8</ele>
        <time>2023-07-16T08:16:43.597+00:00</time>
      </trkpt>
      <trkpt lat="46.1885" lon="-1.32419">
        <ele>5</ele>
        <time>2023-07-16T08:16:47.795+00:00</time>
      </trkpt>
      <trkpt lat="46.1885" lon="-1.32415">
        <ele>4.8</ele>
        <time>2023-07-16T08:16:50.837+00:00</time>
      </trkpt>
      <trkpt lat="46.18852" lon="-1.32407">
        <ele>3.8</ele>
        <time>2023-07-16T08:16:57.863+00:00</time>
      </trkpt>
      <trkpt lat="46.1885" lon="-1.32404">
        <ele>3.6</ele>
        <time>2023-07-16T08:17:02.398+00:00</time>
      </trkpt>
      <trkpt lat="46.18842" lon="-1.32401">
        <ele>3.5</ele>
        <time>2023-07-16T08:17:07.012+00:00</time>
      </trkpt>
      <trkpt lat="46.18841" lon="-1.324">
        <ele>3.4</ele>
        <time>2023-07-16T08:17:11.535+00:00</time>
      </trkpt>
      <trkpt lat="46.18839" lon="-1.32399">
        <ele>3.5</ele>
        <time>2023-07-16T08:17:15.544+00:00</time>
      </trkpt>
      <trkpt lat="46.18835" lon="-1.32402">
        <ele>3.9</ele>
        <time>2023-07-16T08:17:20.049+00:00</time>
      </trkpt>
      <trkpt lat="46.18829" lon="-1.32404">
        <ele>4</ele>
        <time>2023-07-16T08:17:24.556+00:00</time>
      </trkpt>
      <trkpt lat="46.18824" lon="-1.32406">
        <ele>4</ele>
        <time>2023-07-16T08:17:29.067+00:00</time>
      </trkpt>
      <trkpt lat="46.1882" lon="-1.32408">
        <ele>4</ele>
        <time>2023-07-16T08:17:33.577+00:00</time>
      </trkpt>
      <trkpt lat="46.18816" lon="-1.32409">
        <ele>3</ele>
        <time>2023-07-16T08:17:37.584+00:00</time>
      </trkpt>
      <trkpt lat="46.18815" lon="-1.32409">
        <ele>3</ele>
        <time>2023-07-16T08:17:42.092+00:00</time>
      </trkpt>
      <trkpt lat="46.1881" lon="-1.32409">
        <ele>3</ele>
        <time>2023-07-16T08:17:46.604+00:00</time>
      </trkpt>
      <trkpt lat="46.18803" lon="-1.32409">
        <ele>3</ele>
        <time>2023-07-16T08:17:51.621+00:00</time>
      </trkpt>
      <trkpt lat="46.18798" lon="-1.32413">
        <ele>3</ele>
        <time>2023-07-16T08:17:56.634+00:00</time>
      </trkpt>
      <trkpt lat="46.18792" lon="-1.32416">
        <ele>3</ele>
        <time>2023-07-16T08:18:01.138+00:00</time>
      </trkpt>
      <trkpt lat="46.18787" lon="-1.32419">
        <ele>1</ele>
        <time>2023-07-16T08:18:05.439+00:00</time>
      </trkpt>
      <trkpt lat="46.18784" lon="-1.32421">
        <ele>1</ele>
        <time>2023-07-16T08:18:10.019+00:00</time>
      </trkpt>
      <trkpt lat="46.18778" lon="-1.32424">
        <ele>1</ele>
        <time>2023-07-16T08:18:14.398+00:00</time>
      </trkpt>
      <trkpt lat="46.18774" lon="-1.32429">
        <ele>1</ele>
        <time>2023-07-16T08:18:18.809+00:00</time>
      </trkpt>
      <trkpt lat="46.18769" lon="-1.32432">
        <ele>3</ele>
        <time>2023-07-16T08:18:23.229+00:00</time>
      </trkpt>
      <trkpt lat="46.18763" lon="-1.32433">
        <ele>3</ele>
        <time>2023-07-16T08:18:27.727+00:00</time>
      </trkpt>
      <trkpt lat="46.18758" lon="-1.32436">
        <ele>3</ele>
        <time>2023-07-16T08:18:32.070+00:00</time>
      </trkpt>
      <trkpt lat="46.18752" lon="-1.32436">
        <ele>3</ele>
        <time>2023-07-16T08:18:37.103+00:00</time>
      </trkpt>
      <trkpt lat="46.18748" lon="-1.32438">
        <ele>3</ele>
        <time>2023-07-16T08:18:41.087+00:00</time>
      </trkpt>
      <trkpt lat="46.18744" lon="-1.3244">
        <ele>3</ele>
        <time>2023-07-16T08:18:45.632+00:00</time>
      </trkpt>
      <trkpt lat="46.1874" lon="-1.3244">
        <ele>3</ele>
        <time>2023-07-16T08:18:49.653+00:00</time>
      </trkpt>
      <trkpt lat="46.18736" lon="-1.32435">
        <ele>3</ele>
        <time>2023-07-16T08:18:54.327+00:00</time>
      </trkpt>
      <trkpt lat="46.18734" lon="-1.3243">
        <ele>3</ele>
        <time>2023-07-16T08:18:58.695+00:00</time>
      </trkpt>
      <trkpt lat="46.18732" lon="-1.32422">
        <ele>3</ele>
        <time>2023-07-16T08:19:03.061+00:00</time>
      </trkpt>
      <trkpt lat="46.1873" lon="-1.32415">
        <ele>3</ele>
        <time>2023-07-16T08:19:07.436+00:00</time>
      </trkpt>
      <trkpt lat="46.18727" lon="-1.32408">
        <ele>3</ele>
        <time>2023-07-16T08:19:12.079+00:00</time>
      </trkpt>
      <trkpt lat="46.18725" lon="-1.324">
        <ele>2</ele>
        <time>2023-07-16T08:19:16.643+00:00</time>
      </trkpt>
      <trkpt lat="46.18724" lon="-1.32393">
        <ele>2</ele>
        <time>2023-07-16T08:19:21.197+00:00</time>
      </trkpt>
      <trkpt lat="46.18724" lon="-1.32383">
        <ele>2</ele>
        <time>2023-07-16T08:19:25.614+00:00</time>
      </trkpt>
      <trkpt lat="46.18727" lon="-1.32374">
        <ele>2</ele>
        <time>2023-07-16T08:19:29.526+00:00</time>
      </trkpt>
      <trkpt lat="46.18729" lon="-1.3237">
        <ele>2</ele>
        <time>2023-07-16T08:20:51.882+00:00</time>
      </trkpt>
      <trkpt lat="46.18719" lon="-1.32368">
        <ele>2</ele>
        <time>2023-07-16T08:20:56.914+00:00</time>
      </trkpt>
      <trkpt lat="46.18714" lon="-1.32354">
        <ele>2</ele>
        <time>2023-07-16T08:21:00.969+00:00</time>
      </trkpt>
      <trkpt lat="46.1871" lon="-1.3234">
        <ele>3</ele>
        <time>2023-07-16T08:21:04.903+00:00</time>
      </trkpt>
      <trkpt lat="46.18704" lon="-1.32322">
        <ele>4</ele>
        <time>2023-07-16T08:21:10.013+00:00</time>
      </trkpt>
      <trkpt lat="46.187" lon="-1.32306">
        <ele>4</ele>
        <time>2023-07-16T08:21:15.088+00:00</time>
      </trkpt>
      <trkpt lat="46.18692" lon="-1.32292">
        <ele>4</ele>
        <time>2023-07-16T08:21:19.893+00:00</time>
      </trkpt>
      <trkpt lat="46.18687" lon="-1.32278">
        <ele>4</ele>
        <time>2023-07-16T08:21:23.906+00:00</time>
      </trkpt>
      <trkpt lat="46.18681" lon="-1.32265">
        <ele>4</ele>
        <time>2023-07-16T08:21:28.459+00:00</time>
      </trkpt>
      <trkpt lat="46.18674" lon="-1.32248">
        <ele>4</ele>
        <time>2023-07-16T08:21:33.080+00:00</time>
      </trkpt>
      <trkpt lat="46.18669" lon="-1.32233">
        <ele>4</ele>
        <time>2023-07-16T08:21:37.188+00:00</time>
      </trkpt>
      <trkpt lat="46.18663" lon="-1.32215">
        <ele>4</ele>
        <time>2023-07-16T08:21:41.980+00:00</time>
      </trkpt>
      <trkpt lat="46.18658" lon="-1.32199">
        <ele>4</ele>
        <time>2023-07-16T08:21:46.652+00:00</time>
      </trkpt>
      <trkpt lat="46.1865" lon="-1.32185">
        <ele>4</ele>
        <time>2023-07-16T08:21:50.606+00:00</time>
      </trkpt>
      <trkpt lat="46.18648" lon="-1.32169">
        <ele>4</ele>
        <time>2023-07-16T08:21:55.397+00:00</time>
      </trkpt>
      <trkpt lat="46.18645" lon="-1.32142">
        <ele>3</ele>
        <time>2023-07-16T08:21:59.588+00:00</time>
      </trkpt>
      <trkpt lat="46.18643" lon="-1.32115">
        <ele>4</ele>
        <time>2023-07-16T08:22:04.858+00:00</time>
      </trkpt>
      <trkpt lat="46.18641" lon="-1.32089">
        <ele>4</ele>
        <time>2023-07-16T08:22:09.398+00:00</time>
      </trkpt>
      <trkpt lat="46.18638" lon="-1.32067">
        <ele>3</ele>
        <time>2023-07-16T08:22:13.601+00:00</time>
      </trkpt>
      <trkpt lat="46.18634" lon="-1.3204">
        <ele>3</ele>
        <time>2023-07-16T08:22:18.990+00:00</time>
      </trkpt>
      <trkpt lat="46.1863" lon="-1.32015">
        <ele>3</ele>
        <time>2023-07-16T08:22:23.472+00:00</time>
      </trkpt>
      <trkpt lat="46.18622" lon="-1.31989">
        <ele>3</ele>
        <time>2023-07-16T08:22:27.969+00:00</time>
      </trkpt>
      <trkpt lat="46.18608" lon="-1.31967">
        <ele>4</ele>
        <time>2023-07-16T08:22:33.086+00:00</time>
      </trkpt>
      <trkpt lat="46.18596" lon="-1.31956">
        <ele>4</ele>
        <time>2023-07-16T08:22:37.527+00:00</time>
      </trkpt>
      <trkpt lat="46.18581" lon="-1.31942">
        <ele>4</ele>
        <time>2023-07-16T08:22:41.598+00:00</time>
      </trkpt>
      <trkpt lat="46.18565" lon="-1.31928">
        <ele>6</ele>
        <time>2023-07-16T08:22:46.386+00:00</time>
      </trkpt>
      <trkpt lat="46.18553" lon="-1.31909">
        <ele>6</ele>
        <time>2023-07-16T08:22:50.934+00:00</time>
      </trkpt>
      <trkpt lat="46.18547" lon="-1.31896">
        <ele>6</ele>
        <time>2023-07-16T08:22:55.004+00:00</time>
      </trkpt>
      <trkpt lat="46.1854" lon="-1.31882">
        <ele>7</ele>
        <time>2023-07-16T08:22:59.615+00:00</time>
      </trkpt>
      <trkpt lat="46.18533" lon="-1.31859">
        <ele>7</ele>
        <time>2023-07-16T08:23:03.575+00:00</time>
      </trkpt>
      <trkpt lat="46.18527" lon="-1.31835">
        <ele>8</ele>
        <time>2023-07-16T08:23:08.084+00:00</time>
      </trkpt>
      <trkpt lat="46.18522" lon="-1.31821">
        <ele>8</ele>
        <time>2023-07-16T08:23:12.086+00:00</time>
      </trkpt>
      <trkpt lat="46.18516" lon="-1.31805">
        <ele>8</ele>
        <time>2023-07-16T08:23:17.095+00:00</time>
      </trkpt>
      <trkpt lat="46.18512" lon="-1.31794">
        <ele>8</ele>
        <time>2023-07-16T08:23:21.636+00:00</time>
      </trkpt>
      <trkpt lat="46.18502" lon="-1.31772">
        <ele>8</ele>
        <time>2023-07-16T08:23:26.103+00:00</time>
      </trkpt>
      <trkpt lat="46.18496" lon="-1.31742">
        <ele>8</ele>
        <time>2023-07-16T08:23:30.652+00:00</time>
      </trkpt>
      <trkpt lat="46.18492" lon="-1.31715">
        <ele>9</ele>
        <time>2023-07-16T08:23:35.200+00:00</time>
      </trkpt>
      <trkpt lat="46.18489" lon="-1.3169">
        <ele>10</ele>
        <time>2023-07-16T08:23:39.936+00:00</time>
      </trkpt>
      <trkpt lat="46.18488" lon="-1.31666">
        <ele>10</ele>
        <time>2023-07-16T08:23:43.940+00:00</time>
      </trkpt>
      <trkpt lat="46.18489" lon="-1.31638">
        <ele>10</ele>
        <time>2023-07-16T08:23:48.608+00:00</time>
      </trkpt>
      <trkpt lat="46.18492" lon="-1.31607">
        <ele>10</ele>
        <time>2023-07-16T08:23:53.755+00:00</time>
      </trkpt>
      <trkpt lat="46.18497" lon="-1.31574">
        <ele>10</ele>
        <time>2023-07-16T08:23:59.092+00:00</time>
      </trkpt>
      <trkpt lat="46.18501" lon="-1.31541">
        <ele>9</ele>
        <time>2023-07-16T08:24:04.088+00:00</time>
      </trkpt>
      <trkpt lat="46.18504" lon="-1.31507">
        <ele>8</ele>
        <time>2023-07-16T08:24:09.065+00:00</time>
      </trkpt>
      <trkpt lat="46.18507" lon="-1.31483">
        <ele>7</ele>
        <time>2023-07-16T08:24:13.074+00:00</time>
      </trkpt>
      <trkpt lat="46.18511" lon="-1.31447">
        <ele>7</ele>
        <time>2023-07-16T08:24:18.083+00:00</time>
      </trkpt>
      <trkpt lat="46.18514" lon="-1.31419">
        <ele>8</ele>
        <time>2023-07-16T08:24:22.103+00:00</time>
      </trkpt>
      <trkpt lat="46.18518" lon="-1.31391">
        <ele>9</ele>
        <time>2023-07-16T08:24:27.055+00:00</time>
      </trkpt>
      <trkpt lat="46.18521" lon="-1.31354">
        <ele>9</ele>
        <time>2023-07-16T08:24:32.083+00:00</time>
      </trkpt>
      <trkpt lat="46.18522" lon="-1.3132">
        <ele>9</ele>
        <time>2023-07-16T08:24:37.086+00:00</time>
      </trkpt>
      <trkpt lat="46.18523" lon="-1.31284">
        <ele>9</ele>
        <time>2023-07-16T08:24:42.079+00:00</time>
      </trkpt>
      <trkpt lat="46.18523" lon="-1.31248">
        <ele>10</ele>
        <time>2023-07-16T08:24:47.096+00:00</time>
      </trkpt>
      <trkpt lat="46.18524" lon="-1.31216">
        <ele>10</ele>
        <time>2023-07-16T08:24:52.084+00:00</time>
      </trkpt>
      <trkpt lat="46.18526" lon="-1.31192">
        <ele>9</ele>
        <time>2023-07-16T08:24:56.081+00:00</time>
      </trkpt>
      <trkpt lat="46.18526" lon="-1.31159">
        <ele>9</ele>
        <time>2023-07-16T08:25:01.091+00:00</time>
      </trkpt>
      <trkpt lat="46.18524" lon="-1.31128">
        <ele>9</ele>
        <time>2023-07-16T08:25:05.607+00:00</time>
      </trkpt>
      <trkpt lat="46.18523" lon="-1.31097">
        <ele>8</ele>
        <time>2023-07-16T08:25:10.288+00:00</time>
      </trkpt>
      <trkpt lat="46.18522" lon="-1.31063">
        <ele>8</ele>
        <time>2023-07-16T08:25:15.058+00:00</time>
      </trkpt>
      <trkpt lat="46.1852" lon="-1.31038">
        <ele>8</ele>
        <time>2023-07-16T08:25:19.106+00:00</time>
      </trkpt>
      <trkpt lat="46.18521" lon="-1.31015">
        <ele>8</ele>
        <time>2023-07-16T08:25:23.690+00:00</time>
      </trkpt>
      <trkpt lat="46.18517" lon="-1.30984">
        <ele>7</ele>
        <time>2023-07-16T08:25:28.771+00:00</time>
      </trkpt>
      <trkpt lat="46.18515" lon="-1.30954">
        <ele>7</ele>
        <time>2023-07-16T08:25:33.949+00:00</time>
      </trkpt>
      <trkpt lat="46.18511" lon="-1.30933">
        <ele>9</ele>
        <time>2023-07-16T08:25:37.866+00:00</time>
      </trkpt>
      <trkpt lat="46.18505" lon="-1.30926">
        <ele>9</ele>
        <time>2023-07-16T08:25:42.602+00:00</time>
      </trkpt>
      <trkpt lat="46.18492" lon="-1.30933">
        <ele>9</ele>
        <time>2023-07-16T08:25:47.730+00:00</time>
      </trkpt>
      <trkpt lat="46.18507" lon="-1.30925">
        <ele>9</ele>
        <time>2023-07-16T08:26:22.123+00:00</time>
      </trkpt>
      <trkpt lat="46.18511" lon="-1.3092">
        <ele>9</ele>
        <time>2023-07-16T08:26:26.630+00:00</time>
      </trkpt>
      <trkpt lat="46.18516" lon="-1.30926">
        <ele>7</ele>
        <time>2023-07-16T08:26:30.638+00:00</time>
      </trkpt>
      <trkpt lat="46.18517" lon="-1.30951">
        <ele>7</ele>
        <time>2023-07-16T08:26:35.049+00:00</time>
      </trkpt>
      <trkpt lat="46.18518" lon="-1.30976">
        <ele>7</ele>
        <time>2023-07-16T08:26:39.579+00:00</time>
      </trkpt>
      <trkpt lat="46.18522" lon="-1.31001">
        <ele>7</ele>
        <time>2023-07-16T08:26:44.585+00:00</time>
      </trkpt>
      <trkpt lat="46.18522" lon="-1.31029">
        <ele>8</ele>
        <time>2023-07-16T08:26:48.590+00:00</time>
      </trkpt>
      <trkpt lat="46.18526" lon="-1.31058">
        <ele>8</ele>
        <time>2023-07-16T08:26:53.699+00:00</time>
      </trkpt>
      <trkpt lat="46.18524" lon="-1.31088">
        <ele>8</ele>
        <time>2023-07-16T08:26:59.075+00:00</time>
      </trkpt>
      <trkpt lat="46.18524" lon="-1.31121">
        <ele>9</ele>
        <time>2023-07-16T08:27:04.047+00:00</time>
      </trkpt>
      <trkpt lat="46.18523" lon="-1.3115">
        <ele>9</ele>
        <time>2023-07-16T08:27:08.055+00:00</time>
      </trkpt>
      <trkpt lat="46.18524" lon="-1.31183">
        <ele>9</ele>
        <time>2023-07-16T08:27:13.051+00:00</time>
      </trkpt>
      <trkpt lat="46.18522" lon="-1.31209">
        <ele>10</ele>
        <time>2023-07-16T08:27:18.044+00:00</time>
      </trkpt>
      <trkpt lat="46.18521" lon="-1.3124">
        <ele>10</ele>
        <time>2023-07-16T08:27:23.058+00:00</time>
      </trkpt>
      <trkpt lat="46.18521" lon="-1.3127">
        <ele>9</ele>
        <time>2023-07-16T08:27:28.063+00:00</time>
      </trkpt>
      <trkpt lat="46.18519" lon="-1.31307">
        <ele>9</ele>
        <time>2023-07-16T08:27:33.044+00:00</time>
      </trkpt>
      <trkpt lat="46.18519" lon="-1.31336">
        <ele>9</ele>
        <time>2023-07-16T08:27:37.047+00:00</time>
      </trkpt>
      <trkpt lat="46.1852" lon="-1.31362">
        <ele>9</ele>
        <time>2023-07-16T08:27:41.054+00:00</time>
      </trkpt>
      <trkpt lat="46.18517" lon="-1.31398">
        <ele>9</ele>
        <time>2023-07-16T08:27:45.878+00:00</time>
      </trkpt>
      <trkpt lat="46.18515" lon="-1.31435">
        <ele>6</ele>
        <time>2023-07-16T08:27:50.064+00:00</time>
      </trkpt>
      <trkpt lat="46.18511" lon="-1.31464">
        <ele>7</ele>
        <time>2023-07-16T08:27:54.106+00:00</time>
      </trkpt>
      <trkpt lat="46.18508" lon="-1.31498">
        <ele>8</ele>
        <time>2023-07-16T08:27:59.059+00:00</time>
      </trkpt>
      <trkpt lat="46.18505" lon="-1.31525">
        <ele>9</ele>
        <time>2023-07-16T08:28:03.094+00:00</time>
      </trkpt>
      <trkpt lat="46.18501" lon="-1.3156">
        <ele>9</ele>
        <time>2023-07-16T08:28:08.068+00:00</time>
      </trkpt>
      <trkpt lat="46.18497" lon="-1.31592">
        <ele>10</ele>
        <time>2023-07-16T08:28:13.093+00:00</time>
      </trkpt>
      <trkpt lat="46.18493" lon="-1.31619">
        <ele>10</ele>
        <time>2023-07-16T08:28:18.094+00:00</time>
      </trkpt>
      <trkpt lat="46.18491" lon="-1.31641">
        <ele>10</ele>
        <time>2023-07-16T08:28:22.088+00:00</time>
      </trkpt>
      <trkpt lat="46.18492" lon="-1.31664">
        <ele>10</ele>
        <time>2023-07-16T08:28:26.091+00:00</time>
      </trkpt>
      <trkpt lat="46.18494" lon="-1.31699">
        <ele>10</ele>
        <time>2023-07-16T08:28:31.088+00:00</time>
      </trkpt>
      <trkpt lat="46.18497" lon="-1.31725">
        <ele>9</ele>
        <time>2023-07-16T08:28:35.198+00:00</time>
      </trkpt>
      <trkpt lat="46.18503" lon="-1.31752">
        <ele>8</ele>
        <time>2023-07-16T08:28:39.631+00:00</time>
      </trkpt>
      <trkpt lat="46.18514" lon="-1.31781">
        <ele>8</ele>
        <time>2023-07-16T08:28:45.021+00:00</time>
      </trkpt>
      <trkpt lat="46.1852" lon="-1.31799">
        <ele>8</ele>
        <time>2023-07-16T08:28:49.096+00:00</time>
      </trkpt>
      <trkpt lat="46.18529" lon="-1.31821">
        <ele>8</ele>
        <time>2023-07-16T08:28:53.648+00:00</time>
      </trkpt>
      <trkpt lat="46.18536" lon="-1.31846">
        <ele>8</ele>
        <time>2023-07-16T08:28:58.274+00:00</time>
      </trkpt>
      <trkpt lat="46.18542" lon="-1.31868">
        <ele>6</ele>
        <time>2023-07-16T08:29:02.830+00:00</time>
      </trkpt>
      <trkpt lat="46.18547" lon="-1.31885">
        <ele>6</ele>
        <time>2023-07-16T08:29:07.021+00:00</time>
      </trkpt>
      <trkpt lat="46.18558" lon="-1.31909">
        <ele>6</ele>
        <time>2023-07-16T08:29:11.693+00:00</time>
      </trkpt>
      <trkpt lat="46.18572" lon="-1.31928">
        <ele>4</ele>
        <time>2023-07-16T08:29:16.081+00:00</time>
      </trkpt>
      <trkpt lat="46.18591" lon="-1.31944">
        <ele>4</ele>
        <time>2023-07-16T08:29:21.088+00:00</time>
      </trkpt>
      <trkpt lat="46.18605" lon="-1.31956">
        <ele>4</ele>
        <time>2023-07-16T08:29:24.631+00:00</time>
      </trkpt>
      <trkpt lat="46.18621" lon="-1.31977">
        <ele>4</ele>
        <time>2023-07-16T08:29:29.096+00:00</time>
      </trkpt>
      <trkpt lat="46.18631" lon="-1.32007">
        <ele>2</ele>
        <time>2023-07-16T08:29:34.102+00:00</time>
      </trkpt>
      <trkpt lat="46.18637" lon="-1.32041">
        <ele>3</ele>
        <time>2023-07-16T08:29:39.083+00:00</time>
      </trkpt>
      <trkpt lat="46.1864" lon="-1.32068">
        <ele>3</ele>
        <time>2023-07-16T08:29:43.108+00:00</time>
      </trkpt>
      <trkpt lat="46.18643" lon="-1.32097">
        <ele>4</ele>
        <time>2023-07-16T08:29:48.081+00:00</time>
      </trkpt>
      <trkpt lat="46.18645" lon="-1.3212">
        <ele>4</ele>
        <time>2023-07-16T08:29:52.648+00:00</time>
      </trkpt>
      <trkpt lat="46.18646" lon="-1.32145">
        <ele>3</ele>
        <time>2023-07-16T08:29:56.598+00:00</time>
      </trkpt>
      <trkpt lat="46.18649" lon="-1.32163">
        <ele>4</ele>
        <time>2023-07-16T08:30:01.220+00:00</time>
      </trkpt>
      <trkpt lat="46.18656" lon="-1.32186">
        <ele>4</ele>
        <time>2023-07-16T08:30:05.198+00:00</time>
      </trkpt>
      <trkpt lat="46.18665" lon="-1.32213">
        <ele>4</ele>
        <time>2023-07-16T08:30:09.868+00:00</time>
      </trkpt>
      <trkpt lat="46.18674" lon="-1.32237">
        <ele>4</ele>
        <time>2023-07-16T08:30:14.539+00:00</time>
      </trkpt>
      <trkpt lat="46.18682" lon="-1.32256">
        <ele>4</ele>
        <time>2023-07-16T08:30:19.042+00:00</time>
      </trkpt>
      <trkpt lat="46.18688" lon="-1.3227">
        <ele>4</ele>
        <time>2023-07-16T08:30:23.639+00:00</time>
      </trkpt>
      <trkpt lat="46.18697" lon="-1.32292">
        <ele>4</ele>
        <time>2023-07-16T08:30:28.786+00:00</time>
      </trkpt>
      <trkpt lat="46.18701" lon="-1.32307">
        <ele>4</ele>
        <time>2023-07-16T08:30:32.857+00:00</time>
      </trkpt>
      <trkpt lat="46.18708" lon="-1.32327">
        <ele>4</ele>
        <time>2023-07-16T08:30:37.644+00:00</time>
      </trkpt>
      <trkpt lat="46.18713" lon="-1.3234">
        <ele>3</ele>
        <time>2023-07-16T08:30:41.833+00:00</time>
      </trkpt>
      <trkpt lat="46.18715" lon="-1.32352">
        <ele>2</ele>
        <time>2023-07-16T08:30:46.022+00:00</time>
      </trkpt>
      <trkpt lat="46.1872" lon="-1.32366">
        <ele>2</ele>
        <time>2023-07-16T08:30:50.090+00:00</time>
      </trkpt>
      <trkpt lat="46.18722" lon="-1.3238">
        <ele>2</ele>
        <time>2023-07-16T08:30:54.876+00:00</time>
      </trkpt>
      <trkpt lat="46.18727" lon="-1.32391">
        <ele>2</ele>
        <time>2023-07-16T08:30:59.665+00:00</time>
      </trkpt>
      <trkpt lat="46.18729" lon="-1.32401">
        <ele>2</ele>
        <time>2023-07-16T08:31:03.853+00:00</time>
      </trkpt>
      <trkpt lat="46.18733" lon="-1.3241">
        <ele>3</ele>
        <time>2023-07-16T08:31:08.640+00:00</time>
      </trkpt>
      <trkpt lat="46.18734" lon="-1.3242">
        <ele>3</ele>
        <time>2023-07-16T08:31:13.428+00:00</time>
      </trkpt>
      <trkpt lat="46.18736" lon="-1.32429">
        <ele>3</ele>
        <time>2023-07-16T08:31:17.617+00:00</time>
      </trkpt>
      <trkpt lat="46.18739" lon="-1.32435">
        <ele>3</ele>
        <time>2023-07-16T08:31:23.099+00:00</time>
      </trkpt>
      <trkpt lat="46.18747" lon="-1.3243">
        <ele>1</ele>
        <time>2023-07-16T08:31:28.088+00:00</time>
      </trkpt>
      <trkpt lat="46.18758" lon="-1.32426">
        <ele>1</ele>
        <time>2023-07-16T08:31:32.819+00:00</time>
      </trkpt>
      <trkpt lat="46.18767" lon="-1.3242">
        <ele>1</ele>
        <time>2023-07-16T08:31:36.887+00:00</time>
      </trkpt>
      <trkpt lat="46.18778" lon="-1.32414">
        <ele>1</ele>
        <time>2023-07-16T08:31:41.075+00:00</time>
      </trkpt>
      <trkpt lat="46.18789" lon="-1.32411">
        <ele>1</ele>
        <time>2023-07-16T08:31:45.862+00:00</time>
      </trkpt>
      <trkpt lat="46.18796" lon="-1.32415">
        <ele>3</ele>
        <time>2023-07-16T08:31:51.108+00:00</time>
      </trkpt>
      <trkpt lat="46.18804" lon="-1.32419">
        <ele>3</ele>
        <time>2023-07-16T08:31:55.096+00:00</time>
      </trkpt>
      <trkpt lat="46.18813" lon="-1.32433">
        <ele>4</ele>
        <time>2023-07-16T08:31:59.624+00:00</time>
      </trkpt>
      <trkpt lat="46.18819" lon="-1.32448">
        <ele>4</ele>
        <time>2023-07-16T08:32:03.814+00:00</time>
      </trkpt>
      <trkpt lat="46.18826" lon="-1.32464">
        <ele>6</ele>
        <time>2023-07-16T08:32:09.082+00:00</time>
      </trkpt>
      <trkpt lat="46.18832" lon="-1.32475">
        <ele>6</ele>
        <time>2023-07-16T08:32:13.868+00:00</time>
      </trkpt>
      <trkpt lat="46.18839" lon="-1.32486">
        <ele>6</ele>
        <time>2023-07-16T08:32:18.056+00:00</time>
      </trkpt>
      <trkpt lat="46.18842" lon="-1.32494">
        <ele>6</ele>
        <time>2023-07-16T08:32:21.647+00:00</time>
      </trkpt>
      <trkpt lat="46.18842" lon="-1.32497">
        <ele>6</ele>
        <time>2023-07-16T08:32:26.311+00:00</time>
      </trkpt>
      <trkpt lat="46.1884" lon="-1.32499">
        <ele>6</ele>
        <time>2023-07-16T08:32:30.871+00:00</time>
      </trkpt>
      <trkpt lat="46.18854" lon="-1.32516">
        <ele>5</ele>
        <time>2023-07-16T08:32:35.662+00:00</time>
      </trkpt>
      <trkpt lat="46.18863" lon="-1.32535">
        <ele>5</ele>
        <time>2023-07-16T08:32:41.052+00:00</time>
      </trkpt>
      <trkpt lat="46.18871" lon="-1.32553">
        <ele>6</ele>
        <time>2023-07-16T08:32:45.602+00:00</time>
      </trkpt>
      <trkpt lat="46.1888" lon="-1.32571">
        <ele>5</ele>
        <time>2023-07-16T08:32:50.871+00:00</time>
      </trkpt>
      <trkpt lat="46.18886" lon="-1.32586">
        <ele>5</ele>
        <time>2023-07-16T08:32:54.463+00:00</time>
      </trkpt>
      <trkpt lat="46.18893" lon="-1.32604">
        <ele>6</ele>
        <time>2023-07-16T08:32:58.654+00:00</time>
      </trkpt>
      <trkpt lat="46.18903" lon="-1.32621">
        <ele>6</ele>
        <time>2023-07-16T08:33:02.667+00:00</time>
      </trkpt>
      <trkpt lat="46.18915" lon="-1.3264">
        <ele>4</ele>
        <time>2023-07-16T08:33:07.322+00:00</time>
      </trkpt>
      <trkpt lat="46.18924" lon="-1.32658">
        <ele>4</ele>
        <time>2023-07-16T08:33:12.024+00:00</time>
      </trkpt>
      <trkpt lat="46.18932" lon="-1.32674">
        <ele>1</ele>
        <time>2023-07-16T08:33:16.564+00:00</time>
      </trkpt>
      <trkpt lat="46.18943" lon="-1.32688">
        <ele>2</ele>
        <time>2023-07-16T08:33:20.636+00:00</time>
      </trkpt>
      <trkpt lat="46.18955" lon="-1.32704">
        <ele>2</ele>
        <time>2023-07-16T08:33:24.770+00:00</time>
      </trkpt>
      <trkpt lat="46.18967" lon="-1.32725">
        <ele>1</ele>
        <time>2023-07-16T08:33:30.043+00:00</time>
      </trkpt>
      <trkpt lat="46.18977" lon="-1.32744">
        <ele>3</ele>
        <time>2023-07-16T08:33:34.835+00:00</time>
      </trkpt>
      <trkpt lat="46.18991" lon="-1.32766">
        <ele>3</ele>
        <time>2023-07-16T08:33:40.046+00:00</time>
      </trkpt>
      <trkpt lat="46.19006" lon="-1.32785">
        <ele>3</ele>
        <time>2023-07-16T08:33:44.837+00:00</time>
      </trkpt>
      <trkpt lat="46.19018" lon="-1.32808">
        <ele>1</ele>
        <time>2023-07-16T08:33:49.628+00:00</time>
      </trkpt>
      <trkpt lat="46.19028" lon="-1.32826">
        <ele>2</ele>
        <time>2023-07-16T08:33:53.822+00:00</time>
      </trkpt>
      <trkpt lat="46.19037" lon="-1.32841">
        <ele>2</ele>
        <time>2023-07-16T08:33:58.013+00:00</time>
      </trkpt>
      <trkpt lat="46.19049" lon="-1.32857">
        <ele>2</ele>
        <time>2023-07-16T08:34:02.685+00:00</time>
      </trkpt>
      <trkpt lat="46.19056" lon="-1.3287">
        <ele>2</ele>
        <time>2023-07-16T08:34:06.878+00:00</time>
      </trkpt>
      <trkpt lat="46.19066" lon="-1.32883">
        <ele>4</ele>
        <time>2023-07-16T08:34:11.012+00:00</time>
      </trkpt>
      <trkpt lat="46.19079" lon="-1.32902">
        <ele>1</ele>
        <time>2023-07-16T08:34:15.684+00:00</time>
      </trkpt>
      <trkpt lat="46.19095" lon="-1.32925">
        <ele>2</ele>
        <time>2023-07-16T08:34:21.094+00:00</time>
      </trkpt>
      <trkpt lat="46.19107" lon="-1.32946">
        <ele>4</ele>
        <time>2023-07-16T08:34:26.082+00:00</time>
      </trkpt>
      <trkpt lat="46.19114" lon="-1.32964">
        <ele>1</ele>
        <time>2023-07-16T08:34:31.075+00:00</time>
      </trkpt>
      <trkpt lat="46.19121" lon="-1.3298">
        <ele>1</ele>
        <time>2023-07-16T08:34:35.275+00:00</time>
      </trkpt>
      <trkpt lat="46.19115" lon="-1.32998">
        <ele>4</ele>
        <time>2023-07-16T08:34:40.070+00:00</time>
      </trkpt>
      <trkpt lat="46.19108" lon="-1.33014">
        <ele>3.6</ele>
        <time>2023-07-16T08:34:44.704+00:00</time>
      </trkpt>
      <trkpt lat="46.19106" lon="-1.33017">
        <ele>1</ele>
        <time>2023-07-16T08:34:50.071+00:00</time>
      </trkpt>
      <trkpt lat="46.19098" lon="-1.33026">
        <ele>1</ele>
        <time>2023-07-16T08:34:55.082+00:00</time>
      </trkpt>
      <trkpt lat="46.19093" lon="-1.33043">
        <ele>1</ele>
        <time>2023-07-16T08:34:59.664+00:00</time>
      </trkpt>
      <trkpt lat="46.19088" lon="-1.3306">
        <ele>1</ele>
        <time>2023-07-16T08:35:05.056+00:00</time>
      </trkpt>
      <trkpt lat="46.19087" lon="-1.3307">
        <ele>1</ele>
        <time>2023-07-16T08:35:09.221+00:00</time>
      </trkpt>
      <trkpt lat="46.19082" lon="-1.33084">
        <ele>1</ele>
        <time>2023-07-16T08:35:13.801+00:00</time>
      </trkpt>
      <trkpt lat="46.19079" lon="-1.33102">
        <ele>2</ele>
        <time>2023-07-16T08:35:18.833+00:00</time>
      </trkpt>
      <trkpt lat="46.19075" lon="-1.3312">
        <ele>2</ele>
        <time>2023-07-16T08:35:23.025+00:00</time>
      </trkpt>
      <trkpt lat="46.19072" lon="-1.33142">
        <ele>2</ele>
        <time>2023-07-16T08:35:27.815+00:00</time>
      </trkpt>
      <trkpt lat="46.19072" lon="-1.33166">
        <ele>3</ele>
        <time>2023-07-16T08:35:33.084+00:00</time>
      </trkpt>
      <trkpt lat="46.19074" lon="-1.33192">
        <ele>3</ele>
        <time>2023-07-16T08:35:37.799+00:00</time>
      </trkpt>
      <trkpt lat="46.19081" lon="-1.33214">
        <ele>3</ele>
        <time>2023-07-16T08:35:41.826+00:00</time>
      </trkpt>
      <trkpt lat="46.19089" lon="-1.33237">
        <ele>3</ele>
        <time>2023-07-16T08:35:47.057+00:00</time>
      </trkpt>
      <trkpt lat="46.19091" lon="-1.33257">
        <ele>3</ele>
        <time>2023-07-16T08:35:51.046+00:00</time>
      </trkpt>
      <trkpt lat="46.19091" lon="-1.33276">
        <ele>3</ele>
        <time>2023-07-16T08:35:54.637+00:00</time>
      </trkpt>
      <trkpt lat="46.19088" lon="-1.33299">
        <ele>3</ele>
        <time>2023-07-16T08:35:59.249+00:00</time>
      </trkpt>
      <trkpt lat="46.19085" lon="-1.3332">
        <ele>2</ele>
        <time>2023-07-16T08:36:03.801+00:00</time>
      </trkpt>
      <trkpt lat="46.1908" lon="-1.33341">
        <ele>2</ele>
        <time>2023-07-16T08:36:08.834+00:00</time>
      </trkpt>
      <trkpt lat="46.19082" lon="-1.3334">
        <ele>2</ele>
        <time>2023-07-16T08:36:13.029+00:00</time>
      </trkpt>
      <trkpt lat="46.1908" lon="-1.33338">
        <ele>2</ele>
        <time>2023-07-16T08:36:17.822+00:00</time>
      </trkpt>
      <trkpt lat="46.1908" lon="-1.33338">
        <ele>2</ele>
        <time>2023-07-16T08:36:23.093+00:00</time>
      </trkpt>
      <trkpt lat="46.19084" lon="-1.33338">
        <ele>2</ele>
        <time>2023-07-16T08:36:27.828+00:00</time>
      </trkpt>
      <trkpt lat="46.19093" lon="-1.33355">
        <ele>3</ele>
        <time>2023-07-16T08:36:31.983+00:00</time>
      </trkpt>
      <trkpt lat="46.19094" lon="-1.33373">
        <ele>3</ele>
        <time>2023-07-16T08:36:36.055+00:00</time>
      </trkpt>
      <trkpt lat="46.19101" lon="-1.33391">
        <ele>2</ele>
        <time>2023-07-16T08:36:40.608+00:00</time>
      </trkpt>
      <trkpt lat="46.19103" lon="-1.33396">
        <ele>2</ele>
        <time>2023-07-16T08:36:45.880+00:00</time>
      </trkpt>
      <trkpt lat="46.19103" lon="-1.33396">
        <ele>2</ele>
        <time>2023-07-16T08:36:50.672+00:00</time>
      </trkpt>
      <trkpt lat="46.19108" lon="-1.33409">
        <ele>3</ele>
        <time>2023-07-16T08:36:54.626+00:00</time>
      </trkpt>
      <trkpt lat="46.19118" lon="-1.33425">
        <ele>3</ele>
        <time>2023-07-16T08:36:59.261+00:00</time>
      </trkpt>
      <trkpt lat="46.19128" lon="-1.33449">
        <ele>3</ele>
        <time>2023-07-16T08:37:04.050+00:00</time>
      </trkpt>
      <trkpt lat="46.19136" lon="-1.33472">
        <ele>3</ele>
        <time>2023-07-16T08:37:08.243+00:00</time>
      </trkpt>
      <trkpt lat="46.19146" lon="-1.33496">
        <ele>3</ele>
        <time>2023-07-16T08:37:13.035+00:00</time>
      </trkpt>
      <trkpt lat="46.19152" lon="-1.33519">
        <ele>3</ele>
        <time>2023-07-16T08:37:17.087+00:00</time>
      </trkpt>
      <trkpt lat="46.19157" lon="-1.33544">
        <ele>1</ele>
        <time>2023-07-16T08:37:21.659+00:00</time>
      </trkpt>
      <trkpt lat="46.19163" lon="-1.33563">
        <ele>1</ele>
        <time>2023-07-16T08:37:25.613+00:00</time>
      </trkpt>
      <trkpt lat="46.19173" lon="-1.33573">
        <ele>1</ele>
        <time>2023-07-16T08:37:29.805+00:00</time>
      </trkpt>
      <trkpt lat="46.19171" lon="-1.33576">
        <ele>1</ele>
        <time>2023-07-16T08:37:34.476+00:00</time>
      </trkpt>
      <trkpt lat="46.19176" lon="-1.33592">
        <ele>1</ele>
        <time>2023-07-16T08:37:39.146+00:00</time>
      </trkpt>
      <trkpt lat="46.19175" lon="-1.33612">
        <ele>2</ele>
        <time>2023-07-16T08:37:43.218+00:00</time>
      </trkpt>
      <trkpt lat="46.19181" lon="-1.33637">
        <ele>2</ele>
        <time>2023-07-16T08:37:48.008+00:00</time>
      </trkpt>
      <trkpt lat="46.19186" lon="-1.33661">
        <ele>2</ele>
        <time>2023-07-16T08:37:52.677+00:00</time>
      </trkpt>
      <trkpt lat="46.19192" lon="-1.33683">
        <ele>2</ele>
        <time>2023-07-16T08:37:56.868+00:00</time>
      </trkpt>
      <trkpt lat="46.19198" lon="-1.3371">
        <ele>2</ele>
        <time>2023-07-16T08:38:01.657+00:00</time>
      </trkpt>
      <trkpt lat="46.19202" lon="-1.33735">
        <ele>2</ele>
        <time>2023-07-16T08:38:05.850+00:00</time>
      </trkpt>
      <trkpt lat="46.19208" lon="-1.33758">
        <ele>3</ele>
        <time>2023-07-16T08:38:10.648+00:00</time>
      </trkpt>
      <trkpt lat="46.19208" lon="-1.33765">
        <ele>4</ele>
        <time>2023-07-16T08:38:14.790+00:00</time>
      </trkpt>
      <trkpt lat="46.1921" lon="-1.33771">
        <ele>4</ele>
        <time>2023-07-16T08:38:18.893+00:00</time>
      </trkpt>
      <trkpt lat="46.19211" lon="-1.3377">
        <ele>4</ele>
        <time>2023-07-16T08:38:22.615+00:00</time>
      </trkpt>
      <trkpt lat="46.19211" lon="-1.33773">
        <ele>4</ele>
        <time>2023-07-16T08:38:27.211+00:00</time>
      </trkpt>
      <trkpt lat="46.19213" lon="-1.33781">
        <ele>4</ele>
        <time>2023-07-16T08:38:31.599+00:00</time>
      </trkpt>
      <trkpt lat="46.19215" lon="-1.33785">
        <ele>4</ele>
        <time>2023-07-16T08:38:36.034+00:00</time>
      </trkpt>
      <trkpt lat="46.19216" lon="-1.3379">
        <ele>4</ele>
        <time>2023-07-16T08:38:40.037+00:00</time>
      </trkpt>
      <trkpt lat="46.19217" lon="-1.33792">
        <ele>4</ele>
        <time>2023-07-16T08:38:44.231+00:00</time>
      </trkpt>
      <trkpt lat="46.19216" lon="-1.33801">
        <ele>4</ele>
        <time>2023-07-16T08:38:48.311+00:00</time>
      </trkpt>
      <trkpt lat="46.1922" lon="-1.33813">
        <ele>4</ele>
        <time>2023-07-16T08:38:52.820+00:00</time>
      </trkpt>
      <trkpt lat="46.19225" lon="-1.33833">
        <ele>4</ele>
        <time>2023-07-16T08:38:56.849+00:00</time>
      </trkpt>
      <trkpt lat="46.19232" lon="-1.33858">
        <ele>5</ele>
        <time>2023-07-16T08:39:01.042+00:00</time>
      </trkpt>
      <trkpt lat="46.19238" lon="-1.33888">
        <ele>5</ele>
        <time>2023-07-16T08:39:05.595+00:00</time>
      </trkpt>
      <trkpt lat="46.19244" lon="-1.33917">
        <ele>4</ele>
        <time>2023-07-16T08:39:10.626+00:00</time>
      </trkpt>
      <trkpt lat="46.19251" lon="-1.33941">
        <ele>4</ele>
        <time>2023-07-16T08:39:15.085+00:00</time>
      </trkpt>
      <trkpt lat="46.19255" lon="-1.33967">
        <ele>3</ele>
        <time>2023-07-16T08:39:19.252+00:00</time>
      </trkpt>
      <trkpt lat="46.19261" lon="-1.3399">
        <ele>4</ele>
        <time>2023-07-16T08:39:23.245+00:00</time>
      </trkpt>
      <trkpt lat="46.19267" lon="-1.34019">
        <ele>5</ele>
        <time>2023-07-16T08:39:27.918+00:00</time>
      </trkpt>
      <trkpt lat="46.19273" lon="-1.34046">
        <ele>5</ele>
        <time>2023-07-16T08:39:32.471+00:00</time>
      </trkpt>
      <trkpt lat="46.19278" lon="-1.34071">
        <ele>6</ele>
        <time>2023-07-16T08:39:36.665+00:00</time>
      </trkpt>
      <trkpt lat="46.19285" lon="-1.34095">
        <ele>6</ele>
        <time>2023-07-16T08:39:41.217+00:00</time>
      </trkpt>
      <trkpt lat="46.1929" lon="-1.3412">
        <ele>6</ele>
        <time>2023-07-16T08:39:45.888+00:00</time>
      </trkpt>
      <trkpt lat="46.19297" lon="-1.34141">
        <ele>8</ele>
        <time>2023-07-16T08:39:50.081+00:00</time>
      </trkpt>
      <trkpt lat="46.19299" lon="-1.34159">
        <ele>9</ele>
        <time>2023-07-16T08:39:54.274+00:00</time>
      </trkpt>
      <trkpt lat="46.19306" lon="-1.34185">
        <ele>9</ele>
        <time>2023-07-16T08:39:59.065+00:00</time>
      </trkpt>
      <trkpt lat="46.19311" lon="-1.34209">
        <ele>9</ele>
        <time>2023-07-16T08:40:03.080+00:00</time>
      </trkpt>
      <trkpt lat="46.19318" lon="-1.34241">
        <ele>8</ele>
        <time>2023-07-16T08:40:08.080+00:00</time>
      </trkpt>
      <trkpt lat="46.19323" lon="-1.34268">
        <ele>9</ele>
        <time>2023-07-16T08:40:12.603+00:00</time>
      </trkpt>
      <trkpt lat="46.19329" lon="-1.3429">
        <ele>9</ele>
        <time>2023-07-16T08:40:16.795+00:00</time>
      </trkpt>
      <trkpt lat="46.19336" lon="-1.34314">
        <ele>9</ele>
        <time>2023-07-16T08:40:21.087+00:00</time>
      </trkpt>
      <trkpt lat="46.19343" lon="-1.3434">
        <ele>10</ele>
        <time>2023-07-16T08:40:26.081+00:00</time>
      </trkpt>
      <trkpt lat="46.19349" lon="-1.34361">
        <ele>10</ele>
        <time>2023-07-16T08:40:30.315+00:00</time>
      </trkpt>
      <trkpt lat="46.19357" lon="-1.34387">
        <ele>10</ele>
        <time>2023-07-16T08:40:35.063+00:00</time>
      </trkpt>
      <trkpt lat="46.19365" lon="-1.34412">
        <ele>9</ele>
        <time>2023-07-16T08:40:39.614+00:00</time>
      </trkpt>
      <trkpt lat="46.19373" lon="-1.34441">
        <ele>8</ele>
        <time>2023-07-16T08:40:45.003+00:00</time>
      </trkpt>
      <trkpt lat="46.19379" lon="-1.34469">
        <ele>9</ele>
        <time>2023-07-16T08:40:49.599+00:00</time>
      </trkpt>
      <trkpt lat="46.19386" lon="-1.34492">
        <ele>8</ele>
        <time>2023-07-16T08:40:53.629+00:00</time>
      </trkpt>
      <trkpt lat="46.19392" lon="-1.34513">
        <ele>8</ele>
        <time>2023-07-16T08:40:57.822+00:00</time>
      </trkpt>
      <trkpt lat="46.19399" lon="-1.34539">
        <ele>9</ele>
        <time>2023-07-16T08:41:02.494+00:00</time>
      </trkpt>
      <trkpt lat="46.19405" lon="-1.34565">
        <ele>9</ele>
        <time>2023-07-16T08:41:06.686+00:00</time>
      </trkpt>
      <trkpt lat="46.1941" lon="-1.34587">
        <ele>9</ele>
        <time>2023-07-16T08:41:10.821+00:00</time>
      </trkpt>
      <trkpt lat="46.19417" lon="-1.34615">
        <ele>9</ele>
        <time>2023-07-16T08:41:15.612+00:00</time>
      </trkpt>
      <trkpt lat="46.19421" lon="-1.34637">
        <ele>10</ele>
        <time>2023-07-16T08:41:19.804+00:00</time>
      </trkpt>
      <trkpt lat="46.19426" lon="-1.34659">
        <ele>10</ele>
        <time>2023-07-16T08:41:23.995+00:00</time>
      </trkpt>
      <trkpt lat="46.19431" lon="-1.34683">
        <ele>10</ele>
        <time>2023-07-16T08:41:28.047+00:00</time>
      </trkpt>
      <trkpt lat="46.19437" lon="-1.3471">
        <ele>10</ele>
        <time>2023-07-16T08:41:32.838+00:00</time>
      </trkpt>
      <trkpt lat="46.19448" lon="-1.3474">
        <ele>11</ele>
        <time>2023-07-16T08:41:38.080+00:00</time>
      </trkpt>
      <trkpt lat="46.19461" lon="-1.34768">
        <ele>11</ele>
        <time>2023-07-16T08:41:43.080+00:00</time>
      </trkpt>
      <trkpt lat="46.19475" lon="-1.34791">
        <ele>11</ele>
        <time>2023-07-16T08:41:48.071+00:00</time>
      </trkpt>
      <trkpt lat="46.19488" lon="-1.34813">
        <ele>12</ele>
        <time>2023-07-16T08:41:52.666+00:00</time>
      </trkpt>
      <trkpt lat="46.19503" lon="-1.34838">
        <ele>12</ele>
        <time>2023-07-16T08:41:58.055+00:00</time>
      </trkpt>
      <trkpt lat="46.19516" lon="-1.3486">
        <ele>12</ele>
        <time>2023-07-16T08:42:02.857+00:00</time>
      </trkpt>
      <trkpt lat="46.19527" lon="-1.3488">
        <ele>12</ele>
        <time>2023-07-16T08:42:07.032+00:00</time>
      </trkpt>
      <trkpt lat="46.1954" lon="-1.349">
        <ele>12</ele>
        <time>2023-07-16T08:42:11.582+00:00</time>
      </trkpt>
      <trkpt lat="46.19553" lon="-1.34919">
        <ele>11</ele>
        <time>2023-07-16T08:42:16.131+00:00</time>
      </trkpt>
      <trkpt lat="46.19567" lon="-1.34941">
        <ele>11</ele>
        <time>2023-07-16T08:42:20.682+00:00</time>
      </trkpt>
      <trkpt lat="46.19578" lon="-1.34961">
        <ele>12</ele>
        <time>2023-07-16T08:42:24.872+00:00</time>
      </trkpt>
      <trkpt lat="46.19593" lon="-1.34985">
        <ele>12</ele>
        <time>2023-07-16T08:42:30.140+00:00</time>
      </trkpt>
      <trkpt lat="46.19607" lon="-1.35007">
        <ele>12</ele>
        <time>2023-07-16T08:42:34.688+00:00</time>
      </trkpt>
      <trkpt lat="46.19629" lon="-1.35051">
        <ele>11</ele>
        <time>2023-07-16T08:42:43.696+00:00</time>
      </trkpt>
      <trkpt lat="46.19643" lon="-1.35075">
        <ele>11</ele>
        <time>2023-07-16T08:42:49.079+00:00</time>
      </trkpt>
      <trkpt lat="46.19654" lon="-1.35099">
        <ele>10</ele>
        <time>2023-07-16T08:42:53.628+00:00</time>
      </trkpt>
      <trkpt lat="46.19666" lon="-1.35129">
        <ele>10</ele>
        <time>2023-07-16T08:42:59.014+00:00</time>
      </trkpt>
      <trkpt lat="46.19675" lon="-1.3515">
        <ele>10</ele>
        <time>2023-07-16T08:43:03.024+00:00</time>
      </trkpt>
      <trkpt lat="46.19687" lon="-1.35174">
        <ele>11</ele>
        <time>2023-07-16T08:43:07.632+00:00</time>
      </trkpt>
      <trkpt lat="46.19696" lon="-1.35194">
        <ele>12</ele>
        <time>2023-07-16T08:43:11.820+00:00</time>
      </trkpt>
      <trkpt lat="46.19708" lon="-1.35219">
        <ele>12</ele>
        <time>2023-07-16T08:43:17.067+00:00</time>
      </trkpt>
      <trkpt lat="46.19716" lon="-1.35238">
        <ele>12</ele>
        <time>2023-07-16T08:43:20.657+00:00</time>
      </trkpt>
      <trkpt lat="46.19727" lon="-1.35266">
        <ele>11</ele>
        <time>2023-07-16T08:43:26.071+00:00</time>
      </trkpt>
      <trkpt lat="46.19737" lon="-1.35285">
        <ele>11</ele>
        <time>2023-07-16T08:43:29.632+00:00</time>
      </trkpt>
      <trkpt lat="46.19746" lon="-1.35304">
        <ele>10</ele>
        <time>2023-07-16T08:43:34.311+00:00</time>
      </trkpt>
      <trkpt lat="46.19757" lon="-1.35322">
        <ele>10</ele>
        <time>2023-07-16T08:43:39.068+00:00</time>
      </trkpt>
      <trkpt lat="46.19763" lon="-1.35337">
        <ele>10</ele>
        <time>2023-07-16T08:43:42.660+00:00</time>
      </trkpt>
      <trkpt lat="46.19772" lon="-1.3536">
        <ele>10</ele>
        <time>2023-07-16T08:43:48.028+00:00</time>
      </trkpt>
      <trkpt lat="46.19779" lon="-1.3538">
        <ele>10</ele>
        <time>2023-07-16T08:43:52.638+00:00</time>
      </trkpt>
      <trkpt lat="46.19787" lon="-1.35398">
        <ele>10</ele>
        <time>2023-07-16T08:43:57.168+00:00</time>
      </trkpt>
      <trkpt lat="46.19802" lon="-1.35427">
        <ele>10</ele>
        <time>2023-07-16T08:44:01.838+00:00</time>
      </trkpt>
      <trkpt lat="46.19811" lon="-1.35444">
        <ele>10</ele>
        <time>2023-07-16T08:44:06.029+00:00</time>
      </trkpt>
      <trkpt lat="46.19813" lon="-1.35447">
        <ele>10</ele>
        <time>2023-07-16T08:44:10.089+00:00</time>
      </trkpt>
      <trkpt lat="46.19814" lon="-1.35449">
        <ele>10</ele>
        <time>2023-07-16T08:44:14.294+00:00</time>
      </trkpt>
      <trkpt lat="46.19819" lon="-1.35465">
        <ele>11</ele>
        <time>2023-07-16T08:44:18.839+00:00</time>
      </trkpt>
      <trkpt lat="46.1982" lon="-1.35485">
        <ele>11</ele>
        <time>2023-07-16T08:44:23.030+00:00</time>
      </trkpt>
      <trkpt lat="46.1983" lon="-1.35545">
        <ele>11</ele>
        <time>2023-07-16T08:44:59.826+00:00</time>
      </trkpt>
      <trkpt lat="46.1983" lon="-1.35547">
        <ele>11</ele>
        <time>2023-07-16T08:45:04.238+00:00</time>
      </trkpt>
      <trkpt lat="46.19834" lon="-1.35556">
        <ele>11</ele>
        <time>2023-07-16T08:45:09.008+00:00</time>
      </trkpt>
      <trkpt lat="46.1984" lon="-1.35585">
        <ele>11</ele>
        <time>2023-07-16T08:45:14.090+00:00</time>
      </trkpt>
      <trkpt lat="46.19849" lon="-1.35611">
        <ele>11</ele>
        <time>2023-07-16T08:45:19.029+00:00</time>
      </trkpt>
      <trkpt lat="46.19853" lon="-1.35628">
        <ele>11</ele>
        <time>2023-07-16T08:45:22.621+00:00</time>
      </trkpt>
      <trkpt lat="46.19857" lon="-1.35653">
        <ele>11</ele>
        <time>2023-07-16T08:45:27.870+00:00</time>
      </trkpt>
      <trkpt lat="46.19862" lon="-1.35672">
        <ele>11</ele>
        <time>2023-07-16T08:45:32.060+00:00</time>
      </trkpt>
      <trkpt lat="46.19866" lon="-1.35692">
        <ele>10</ele>
        <time>2023-07-16T08:45:36.011+00:00</time>
      </trkpt>
      <trkpt lat="46.19873" lon="-1.35716">
        <ele>10</ele>
        <time>2023-07-16T08:45:40.678+00:00</time>
      </trkpt>
      <trkpt lat="46.19878" lon="-1.35739">
        <ele>11</ele>
        <time>2023-07-16T08:45:45.225+00:00</time>
      </trkpt>
      <trkpt lat="46.19885" lon="-1.35763">
        <ele>11</ele>
        <time>2023-07-16T08:45:50.011+00:00</time>
      </trkpt>
      <trkpt lat="46.19891" lon="-1.35784">
        <ele>10</ele>
        <time>2023-07-16T08:45:54.106+00:00</time>
      </trkpt>
      <trkpt lat="46.19897" lon="-1.35809">
        <ele>10</ele>
        <time>2023-07-16T08:45:58.871+00:00</time>
      </trkpt>
      <trkpt lat="46.19901" lon="-1.35829">
        <ele>10</ele>
        <time>2023-07-16T08:46:03.059+00:00</time>
      </trkpt>
      <trkpt lat="46.19905" lon="-1.35851">
        <ele>11</ele>
        <time>2023-07-16T08:46:07.810+00:00</time>
      </trkpt>
      <trkpt lat="46.19912" lon="-1.35869">
        <ele>11</ele>
        <time>2023-07-16T08:46:12.480+00:00</time>
      </trkpt>
      <trkpt lat="46.19942" lon="-1.3592">
        <ele>10</ele>
        <time>2023-07-16T08:46:46.811+00:00</time>
      </trkpt>
      <trkpt lat="46.19942" lon="-1.35921">
        <ele>10</ele>
        <time>2023-07-16T08:46:52.079+00:00</time>
      </trkpt>
      <trkpt lat="46.19952" lon="-1.35937">
        <ele>9</ele>
        <time>2023-07-16T08:46:56.869+00:00</time>
      </trkpt>
      <trkpt lat="46.19961" lon="-1.35953">
        <ele>9</ele>
        <time>2023-07-16T08:47:01.059+00:00</time>
      </trkpt>
      <trkpt lat="46.19968" lon="-1.35966">
        <ele>8</ele>
        <time>2023-07-16T08:47:05.787+00:00</time>
      </trkpt>
      <trkpt lat="46.19982" lon="-1.35981">
        <ele>8</ele>
        <time>2023-07-16T08:47:36.300+00:00</time>
      </trkpt>
      <trkpt lat="46.19981" lon="-1.35994">
        <ele>7</ele>
        <time>2023-07-16T08:47:40.304+00:00</time>
      </trkpt>
      <trkpt lat="46.19981" lon="-1.36013">
        <ele>7</ele>
        <time>2023-07-16T08:47:44.307+00:00</time>
      </trkpt>
      <trkpt lat="46.1998" lon="-1.36035">
        <ele>7</ele>
        <time>2023-07-16T08:47:48.810+00:00</time>
      </trkpt>
      <trkpt lat="46.19981" lon="-1.36055">
        <ele>8</ele>
        <time>2023-07-16T08:47:53.313+00:00</time>
      </trkpt>
      <trkpt lat="46.19983" lon="-1.3607">
        <ele>9</ele>
        <time>2023-07-16T08:47:57.335+00:00</time>
      </trkpt>
      <trkpt lat="46.19984" lon="-1.36088">
        <ele>9</ele>
        <time>2023-07-16T08:48:01.837+00:00</time>
      </trkpt>
      <trkpt lat="46.19985" lon="-1.36096">
        <ele>9</ele>
        <time>2023-07-16T08:48:06.341+00:00</time>
      </trkpt>
      <trkpt lat="46.19996" lon="-1.36108">
        <ele>8</ele>
        <time>2023-07-16T08:48:10.852+00:00</time>
      </trkpt>
      <trkpt lat="46.20014" lon="-1.36124">
        <ele>8</ele>
        <time>2023-07-16T08:48:31.879+00:00</time>
      </trkpt>
      <trkpt lat="46.20014" lon="-1.36124">
        <ele>8</ele>
        <time>2023-07-16T08:48:36.392+00:00</time>
      </trkpt>
      <trkpt lat="46.20014" lon="-1.36125">
        <ele>8</ele>
        <time>2023-07-16T08:48:40.901+00:00</time>
      </trkpt>
      <trkpt lat="46.20026" lon="-1.36137">
        <ele>9</ele>
        <time>2023-07-16T08:48:45.409+00:00</time>
      </trkpt>
      <trkpt lat="46.20034" lon="-1.36149">
        <ele>9</ele>
        <time>2023-07-16T08:48:49.414+00:00</time>
      </trkpt>
      <trkpt lat="46.20043" lon="-1.36163">
        <ele>10</ele>
        <time>2023-07-16T08:48:53.922+00:00</time>
      </trkpt>
      <trkpt lat="46.20054" lon="-1.36178">
        <ele>10</ele>
        <time>2023-07-16T08:48:58.429+00:00</time>
      </trkpt>
      <trkpt lat="46.20065" lon="-1.36191">
        <ele>11</ele>
        <time>2023-07-16T08:49:02.535+00:00</time>
      </trkpt>
      <trkpt lat="46.20076" lon="-1.36203">
        <ele>10</ele>
        <time>2023-07-16T08:49:06.541+00:00</time>
      </trkpt>
      <trkpt lat="46.2008" lon="-1.3621">
        <ele>10</ele>
        <time>2023-07-16T08:49:11.046+00:00</time>
      </trkpt>
      <trkpt lat="46.20082" lon="-1.36209">
        <ele>10</ele>
        <time>2023-07-16T08:49:15.453+00:00</time>
      </trkpt>
      <trkpt lat="46.20092" lon="-1.36221">
        <ele>10</ele>
        <time>2023-07-16T08:49:19.960+00:00</time>
      </trkpt>
      <trkpt lat="46.20109" lon="-1.36225">
        <ele>9</ele>
        <time>2023-07-16T08:49:23.966+00:00</time>
      </trkpt>
      <trkpt lat="46.20128" lon="-1.36226">
        <ele>9</ele>
        <time>2023-07-16T08:49:28.471+00:00</time>
      </trkpt>
      <trkpt lat="46.20147" lon="-1.36229">
        <ele>9</ele>
        <time>2023-07-16T08:49:32.976+00:00</time>
      </trkpt>
      <trkpt lat="46.20168" lon="-1.36227">
        <ele>7</ele>
        <time>2023-07-16T08:49:37.483+00:00</time>
      </trkpt>
      <trkpt lat="46.20188" lon="-1.3623">
        <ele>7</ele>
        <time>2023-07-16T08:49:41.989+00:00</time>
      </trkpt>
      <trkpt lat="46.20208" lon="-1.3623">
        <ele>7</ele>
        <time>2023-07-16T08:49:46.495+00:00</time>
      </trkpt>
      <trkpt lat="46.20226" lon="-1.36231">
        <ele>7</ele>
        <time>2023-07-16T08:49:50.500+00:00</time>
      </trkpt>
      <trkpt lat="46.20244" lon="-1.3623">
        <ele>7</ele>
        <time>2023-07-16T08:49:55.006+00:00</time>
      </trkpt>
      <trkpt lat="46.20258" lon="-1.36233">
        <ele>7</ele>
        <time>2023-07-16T08:49:59.013+00:00</time>
      </trkpt>
      <trkpt lat="46.2027" lon="-1.36236">
        <ele>8</ele>
        <time>2023-07-16T08:50:03.019+00:00</time>
      </trkpt>
      <trkpt lat="46.20286" lon="-1.36241">
        <ele>8</ele>
        <time>2023-07-16T08:50:07.525+00:00</time>
      </trkpt>
      <trkpt lat="46.203" lon="-1.3625">
        <ele>9</ele>
        <time>2023-07-16T08:50:12.048+00:00</time>
      </trkpt>
      <trkpt lat="46.20316" lon="-1.36257">
        <ele>9</ele>
        <time>2023-07-16T08:50:16.237+00:00</time>
      </trkpt>
      <trkpt lat="46.20331" lon="-1.36268">
        <ele>8</ele>
        <time>2023-07-16T08:50:20.244+00:00</time>
      </trkpt>
      <trkpt lat="46.20347" lon="-1.36274">
        <ele>8</ele>
        <time>2023-07-16T08:50:24.750+00:00</time>
      </trkpt>
      <trkpt lat="46.20365" lon="-1.36278">
        <ele>8</ele>
        <time>2023-07-16T08:50:29.757+00:00</time>
      </trkpt>
      <trkpt lat="46.20379" lon="-1.36279">
        <ele>8</ele>
        <time>2023-07-16T08:50:33.771+00:00</time>
      </trkpt>
      <trkpt lat="46.20392" lon="-1.36279">
        <ele>8</ele>
        <time>2023-07-16T08:50:37.775+00:00</time>
      </trkpt>
      <trkpt lat="46.2041" lon="-1.36281">
        <ele>8</ele>
        <time>2023-07-16T08:50:42.782+00:00</time>
      </trkpt>
      <trkpt lat="46.20424" lon="-1.36283">
        <ele>8</ele>
        <time>2023-07-16T08:50:46.787+00:00</time>
      </trkpt>
      <trkpt lat="46.20437" lon="-1.36283">
        <ele>8</ele>
        <time>2023-07-16T08:50:50.949+00:00</time>
      </trkpt>
      <trkpt lat="46.20453" lon="-1.36284">
        <ele>8</ele>
        <time>2023-07-16T08:50:55.369+00:00</time>
      </trkpt>
      <trkpt lat="46.2047" lon="-1.36285">
        <ele>8</ele>
        <time>2023-07-16T08:51:00.028+00:00</time>
      </trkpt>
      <trkpt lat="46.20491" lon="-1.36285">
        <ele>6</ele>
        <time>2023-07-16T08:51:05.029+00:00</time>
      </trkpt>
      <trkpt lat="46.20505" lon="-1.36283">
        <ele>6</ele>
        <time>2023-07-16T08:51:08.750+00:00</time>
      </trkpt>
      <trkpt lat="46.20519" lon="-1.36282">
        <ele>5</ele>
        <time>2023-07-16T08:51:13.169+00:00</time>
      </trkpt>
      <trkpt lat="46.20535" lon="-1.36283">
        <ele>5</ele>
        <time>2023-07-16T08:51:17.891+00:00</time>
      </trkpt>
      <trkpt lat="46.20552" lon="-1.36283">
        <ele>5</ele>
        <time>2023-07-16T08:51:22.429+00:00</time>
      </trkpt>
      <trkpt lat="46.20564" lon="-1.36278">
        <ele>5</ele>
        <time>2023-07-16T08:51:26.889+00:00</time>
      </trkpt>
      <trkpt lat="46.2057" lon="-1.36275">
        <ele>5</ele>
        <time>2023-07-16T08:51:31.548+00:00</time>
      </trkpt>
      <trkpt lat="46.20574" lon="-1.36276">
        <ele>5</ele>
        <time>2023-07-16T08:51:35.588+00:00</time>
      </trkpt>
      <trkpt lat="46.20575" lon="-1.36276">
        <ele>5</ele>
        <time>2023-07-16T08:51:40.072+00:00</time>
      </trkpt>
      <trkpt lat="46.20582" lon="-1.36277">
        <ele>5</ele>
        <time>2023-07-16T08:51:44.146+00:00</time>
      </trkpt>
      <trkpt lat="46.2059" lon="-1.36283">
        <ele>5</ele>
        <time>2023-07-16T08:51:48.685+00:00</time>
      </trkpt>
      <trkpt lat="46.20594" lon="-1.36295">
        <ele>4</ele>
        <time>2023-07-16T08:51:52.882+00:00</time>
      </trkpt>
      <trkpt lat="46.20593" lon="-1.36308">
        <ele>4</ele>
        <time>2023-07-16T08:51:58.080+00:00</time>
      </trkpt>
      <trkpt lat="46.20596" lon="-1.36313">
        <ele>4</ele>
        <time>2023-07-16T08:52:02.616+00:00</time>
      </trkpt>
      <trkpt lat="46.20597" lon="-1.36313">
        <ele>4</ele>
        <time>2023-07-16T08:52:06.609+00:00</time>
      </trkpt>
      <trkpt lat="46.20597" lon="-1.36316">
        <ele>4</ele>
        <time>2023-07-16T08:52:11.307+00:00</time>
      </trkpt>
      <trkpt lat="46.20593" lon="-1.3632">
        <ele>4</ele>
        <time>2023-07-16T08:52:15.839+00:00</time>
      </trkpt>
      <trkpt lat="46.20585" lon="-1.36328">
        <ele>4</ele>
        <time>2023-07-16T08:52:20.023+00:00</time>
      </trkpt>
      <trkpt lat="46.20581" lon="-1.3634">
        <ele>4</ele>
        <time>2023-07-16T08:52:24.084+00:00</time>
      </trkpt>
      <trkpt lat="46.20576" lon="-1.36349">
        <ele>5</ele>
        <time>2023-07-16T08:52:28.852+00:00</time>
      </trkpt>
      <trkpt lat="46.20574" lon="-1.36355">
        <ele>5</ele>
        <time>2023-07-16T08:52:33.625+00:00</time>
      </trkpt>
      <trkpt lat="46.20574" lon="-1.36358">
        <ele>5</ele>
        <time>2023-07-16T08:52:37.818+00:00</time>
      </trkpt>
      <trkpt lat="46.20572" lon="-1.3636">
        <ele>5</ele>
        <time>2023-07-16T08:52:41.713+00:00</time>
      </trkpt>
      <trkpt lat="46.2057" lon="-1.36362">
        <ele>5</ele>
        <time>2023-07-16T08:52:46.830+00:00</time>
      </trkpt>
      <trkpt lat="46.20568" lon="-1.36365">
        <ele>4</ele>
        <time>2023-07-16T08:52:50.789+00:00</time>
      </trkpt>
      <trkpt lat="46.20568" lon="-1.36378">
        <ele>4</ele>
        <time>2023-07-16T08:52:55.206+00:00</time>
      </trkpt>
      <trkpt lat="46.20567" lon="-1.36393">
        <ele>4</ele>
        <time>2023-07-16T08:52:59.881+00:00</time>
      </trkpt>
      <trkpt lat="46.20567" lon="-1.36414">
        <ele>4</ele>
        <time>2023-07-16T08:53:04.557+00:00</time>
      </trkpt>
      <trkpt lat="46.20566" lon="-1.36434">
        <ele>4</ele>
        <time>2023-07-16T08:53:08.632+00:00</time>
      </trkpt>
      <trkpt lat="46.20565" lon="-1.36453">
        <ele>4</ele>
        <time>2023-07-16T08:53:12.826+00:00</time>
      </trkpt>
      <trkpt lat="46.20564" lon="-1.36472">
        <ele>5</ele>
        <time>2023-07-16T08:53:17.600+00:00</time>
      </trkpt>
      <trkpt lat="46.20563" lon="-1.36482">
        <ele>5</ele>
        <time>2023-07-16T08:53:21.615+00:00</time>
      </trkpt>
      <trkpt lat="46.20564" lon="-1.36493">
        <ele>6</ele>
        <time>2023-07-16T08:53:26.410+00:00</time>
      </trkpt>
      <trkpt lat="46.20563" lon="-1.36498">
        <ele>6</ele>
        <time>2023-07-16T08:53:30.605+00:00</time>
      </trkpt>
      <trkpt lat="46.20567" lon="-1.365">
        <ele>6</ele>
        <time>2023-07-16T08:54:19.534+00:00</time>
      </trkpt>
      <trkpt lat="46.20562" lon="-1.36507">
        <ele>6</ele>
        <time>2023-07-16T08:54:23.589+00:00</time>
      </trkpt>
      <trkpt lat="46.20559" lon="-1.36516">
        <ele>6</ele>
        <time>2023-07-16T08:54:27.603+00:00</time>
      </trkpt>
      <trkpt lat="46.20559" lon="-1.36523">
        <ele>6</ele>
        <time>2023-07-16T08:54:32.118+00:00</time>
      </trkpt>
      <trkpt lat="46.20557" lon="-1.36522">
        <ele>6</ele>
        <time>2023-07-16T08:54:36.634+00:00</time>
      </trkpt>
      <trkpt lat="46.20558" lon="-1.36521">
        <ele>6</ele>
        <time>2023-07-16T08:54:40.650+00:00</time>
      </trkpt>
      <trkpt lat="46.20558" lon="-1.36524">
        <ele>6</ele>
        <time>2023-07-16T08:54:45.161+00:00</time>
      </trkpt>
      <trkpt lat="46.20554" lon="-1.36528">
        <ele>6</ele>
        <time>2023-07-16T08:54:49.724+00:00</time>
      </trkpt>
      <trkpt lat="46.20549" lon="-1.36527">
        <ele>6</ele>
        <time>2023-07-16T08:54:54.946+00:00</time>
      </trkpt>
      <trkpt lat="46.20559" lon="-1.36524">
        <ele>6</ele>
        <time>2023-07-16T08:55:59.980+00:00</time>
      </trkpt>
      <trkpt lat="46.20559" lon="-1.36529">
        <ele>6</ele>
        <time>2023-07-16T08:56:03.994+00:00</time>
      </trkpt>
      <trkpt lat="46.20561" lon="-1.36536">
        <ele>6</ele>
        <time>2023-07-16T08:56:08.511+00:00</time>
      </trkpt>
      <trkpt lat="46.20564" lon="-1.36535">
        <ele>6</ele>
        <time>2023-07-16T08:56:13.030+00:00</time>
      </trkpt>
      <trkpt lat="46.20565" lon="-1.36534">
        <ele>6</ele>
        <time>2023-07-16T08:56:16.646+00:00</time>
      </trkpt>
      <trkpt lat="46.2056" lon="-1.36531">
        <ele>6</ele>
        <time>2023-07-16T08:56:25.777+00:00</time>
      </trkpt>
      <trkpt lat="46.20557" lon="-1.36528">
        <ele>6</ele>
        <time>2023-07-16T08:56:30.795+00:00</time>
      </trkpt>
      <trkpt lat="46.20556" lon="-1.36526">
        <ele>6</ele>
        <time>2023-07-16T08:56:35.812+00:00</time>
      </trkpt>
      <trkpt lat="46.20556" lon="-1.36524">
        <ele>6</ele>
        <time>2023-07-16T08:56:39.832+00:00</time>
      </trkpt>
      <trkpt lat="46.20556" lon="-1.36522">
        <ele>6</ele>
        <time>2023-07-16T08:56:44.843+00:00</time>
      </trkpt>
      <trkpt lat="46.20556" lon="-1.36521">
        <ele>6</ele>
        <time>2023-07-16T08:58:11.087+00:00</time>
      </trkpt>
      <trkpt lat="46.20556" lon="-1.36521">
        <ele>6</ele>
        <time>2023-07-16T08:58:16.061+00:00</time>
      </trkpt>
      <trkpt lat="46.20558" lon="-1.36522">
        <ele>6</ele>
        <time>2023-07-16T08:58:19.760+00:00</time>
      </trkpt>
      <trkpt lat="46.20559" lon="-1.36535">
        <ele>6</ele>
        <time>2023-07-16T08:58:24.079+00:00</time>
      </trkpt>
      <trkpt lat="46.20558" lon="-1.36548">
        <ele>5</ele>
        <time>2023-07-16T08:58:28.258+00:00</time>
      </trkpt>
      <trkpt lat="46.20557" lon="-1.36564">
        <ele>5</ele>
        <time>2023-07-16T08:58:32.694+00:00</time>
      </trkpt>
      <trkpt lat="46.20556" lon="-1.36582">
        <ele>4</ele>
        <time>2023-07-16T08:58:37.250+00:00</time>
      </trkpt>
      <trkpt lat="46.20555" lon="-1.36597">
        <ele>4</ele>
        <time>2023-07-16T08:58:41.803+00:00</time>
      </trkpt>
      <trkpt lat="46.20554" lon="-1.36613">
        <ele>2</ele>
        <time>2023-07-16T08:58:46.298+00:00</time>
      </trkpt>
      <trkpt lat="46.20553" lon="-1.36624">
        <ele>2</ele>
        <time>2023-07-16T08:58:50.252+00:00</time>
      </trkpt>
      <trkpt lat="46.20553" lon="-1.36633">
        <ele>2</ele>
        <time>2023-07-16T08:58:54.446+00:00</time>
      </trkpt>
      <trkpt lat="46.2055" lon="-1.36642">
        <ele>2</ele>
        <time>2023-07-16T08:58:58.600+00:00</time>
      </trkpt>
      <trkpt lat="46.20542" lon="-1.36644">
        <ele>2</ele>
        <time>2023-07-16T08:59:03.237+00:00</time>
      </trkpt>
      <trkpt lat="46.20534" lon="-1.36648">
        <ele>4</ele>
        <time>2023-07-16T08:59:21.959+00:00</time>
      </trkpt>
      <trkpt lat="46.20533" lon="-1.36649">
        <ele>4</ele>
        <time>2023-07-16T08:59:26.972+00:00</time>
      </trkpt>
      <trkpt lat="46.20529" lon="-1.36652">
        <ele>4</ele>
        <time>2023-07-16T08:59:31.555+00:00</time>
      </trkpt>
      <trkpt lat="46.20518" lon="-1.36656">
        <ele>3</ele>
        <time>2023-07-16T08:59:35.588+00:00</time>
      </trkpt>
      <trkpt lat="46.20513" lon="-1.36662">
        <ele>5</ele>
        <time>2023-07-16T08:59:40.095+00:00</time>
      </trkpt>
      <trkpt lat="46.20509" lon="-1.36671">
        <ele>5</ele>
        <time>2023-07-16T08:59:44.215+00:00</time>
      </trkpt>
      <trkpt lat="46.20507" lon="-1.36679">
        <ele>5</ele>
        <time>2023-07-16T08:59:48.311+00:00</time>
      </trkpt>
      <trkpt lat="46.20505" lon="-1.36687">
        <ele>4</ele>
        <time>2023-07-16T08:59:52.318+00:00</time>
      </trkpt>
      <trkpt lat="46.20502" lon="-1.36693">
        <ele>4</ele>
        <time>2023-07-16T08:59:56.824+00:00</time>
      </trkpt>
      <trkpt lat="46.20499" lon="-1.36706">
        <ele>4</ele>
        <time>2023-07-16T09:00:00.831+00:00</time>
      </trkpt>
      <trkpt lat="46.20496" lon="-1.36717">
        <ele>2</ele>
        <time>2023-07-16T09:00:05.340+00:00</time>
      </trkpt>
      <trkpt lat="46.20492" lon="-1.36723">
        <ele>2</ele>
        <time>2023-07-16T09:00:09.346+00:00</time>
      </trkpt>
      <trkpt lat="46.2049" lon="-1.36732">
        <ele>2</ele>
        <time>2023-07-16T09:00:13.853+00:00</time>
      </trkpt>
      <trkpt lat="46.20489" lon="-1.36739">
        <ele>1</ele>
        <time>2023-07-16T09:00:18.361+00:00</time>
      </trkpt>
      <trkpt lat="46.20496" lon="-1.36747">
        <ele>1</ele>
        <time>2023-07-16T09:00:22.367+00:00</time>
      </trkpt>
      <trkpt lat="46.20503" lon="-1.36752">
        <ele>1</ele>
        <time>2023-07-16T09:00:26.875+00:00</time>
      </trkpt>
      <trkpt lat="46.20511" lon="-1.36757">
        <ele>1</ele>
        <time>2023-07-16T09:00:31.382+00:00</time>
      </trkpt>
      <trkpt lat="46.20517" lon="-1.36758">
        <ele>1</ele>
        <time>2023-07-16T09:00:35.993+00:00</time>
      </trkpt>
      <trkpt lat="46.2052" lon="-1.36769">
        <ele>2</ele>
        <time>2023-07-16T09:00:40.104+00:00</time>
      </trkpt>
      <trkpt lat="46.20521" lon="-1.36782">
        <ele>2</ele>
        <time>2023-07-16T09:00:44.113+00:00</time>
      </trkpt>
      <trkpt lat="46.20515" lon="-1.36799">
        <ele>2</ele>
        <time>2023-07-16T09:00:48.624+00:00</time>
      </trkpt>
      <trkpt lat="46.2051" lon="-1.36813">
        <ele>2</ele>
        <time>2023-07-16T09:00:53.234+00:00</time>
      </trkpt>
      <trkpt lat="46.20511" lon="-1.3683">
        <ele>2</ele>
        <time>2023-07-16T09:00:57.844+00:00</time>
      </trkpt>
      <trkpt lat="46.20516" lon="-1.36843">
        <ele>1</ele>
        <time>2023-07-16T09:01:01.852+00:00</time>
      </trkpt>
      <trkpt lat="46.20521" lon="-1.36856">
        <ele>1</ele>
        <time>2023-07-16T09:01:06.361+00:00</time>
      </trkpt>
      <trkpt lat="46.2053" lon="-1.36869">
        <ele>1</ele>
        <time>2023-07-16T09:01:28.890+00:00</time>
      </trkpt>
      <trkpt lat="46.20529" lon="-1.36873">
        <ele>1</ele>
        <time>2023-07-16T09:01:33.085+00:00</time>
      </trkpt>
      <trkpt lat="46.2053" lon="-1.36874">
        <ele>1</ele>
        <time>2023-07-16T09:01:38.054+00:00</time>
      </trkpt>
      <trkpt lat="46.20534" lon="-1.36868">
        <ele>1</ele>
        <time>2023-07-16T09:01:42.076+00:00</time>
      </trkpt>
      <trkpt lat="46.20541" lon="-1.3686">
        <ele>1</ele>
        <time>2023-07-16T09:01:46.098+00:00</time>
      </trkpt>
      <trkpt lat="46.2055" lon="-1.36853">
        <ele>1</ele>
        <time>2023-07-16T09:01:51.067+00:00</time>
      </trkpt>
      <trkpt lat="46.2056" lon="-1.36844">
        <ele>2</ele>
        <time>2023-07-16T09:01:54.881+00:00</time>
      </trkpt>
      <trkpt lat="46.2057" lon="-1.36834">
        <ele>1</ele>
        <time>2023-07-16T09:02:00.034+00:00</time>
      </trkpt>
      <trkpt lat="46.20581" lon="-1.36826">
        <ele>1</ele>
        <time>2023-07-16T09:02:04.469+00:00</time>
      </trkpt>
      <trkpt lat="46.20589" lon="-1.36819">
        <ele>3</ele>
        <time>2023-07-16T09:02:09.097+00:00</time>
      </trkpt>
      <trkpt lat="46.20597" lon="-1.36811">
        <ele>3</ele>
        <time>2023-07-16T09:02:13.220+00:00</time>
      </trkpt>
      <trkpt lat="46.20604" lon="-1.36804">
        <ele>2</ele>
        <time>2023-07-16T09:02:17.714+00:00</time>
      </trkpt>
      <trkpt lat="46.20604" lon="-1.36804">
        <ele>2</ele>
        <time>2023-07-16T09:02:21.788+00:00</time>
      </trkpt>
      <trkpt lat="46.20608" lon="-1.36805">
        <ele>2</ele>
        <time>2023-07-16T09:02:41.916+00:00</time>
      </trkpt>
      <trkpt lat="46.20611" lon="-1.36803">
        <ele>2</ele>
        <time>2023-07-16T09:02:45.927+00:00</time>
      </trkpt>
      <trkpt lat="46.2061" lon="-1.36799">
        <ele>2</ele>
        <time>2023-07-16T09:02:50.962+00:00</time>
      </trkpt>
      <trkpt lat="46.20612" lon="-1.36799">
        <ele>2</ele>
        <time>2023-07-16T09:02:55.578+00:00</time>
      </trkpt>
      <trkpt lat="46.20619" lon="-1.36785">
        <ele>3</ele>
        <time>2023-07-16T09:02:59.686+00:00</time>
      </trkpt>
      <trkpt lat="46.20624" lon="-1.36768">
        <ele>3</ele>
        <time>2023-07-16T09:03:04.196+00:00</time>
      </trkpt>
      <trkpt lat="46.20627" lon="-1.36757">
        <ele>2</ele>
        <time>2023-07-16T09:03:08.722+00:00</time>
      </trkpt>
      <trkpt lat="46.20631" lon="-1.36754">
        <ele>2</ele>
        <time>2023-07-16T09:03:13.832+00:00</time>
      </trkpt>
      <trkpt lat="46.20635" lon="-1.36755">
        <ele>2</ele>
        <time>2023-07-16T09:03:18.339+00:00</time>
      </trkpt>
      <trkpt lat="46.20637" lon="-1.36753">
        <ele>2</ele>
        <time>2023-07-16T09:03:27.356+00:00</time>
      </trkpt>
      <trkpt lat="46.20639" lon="-1.36751">
        <ele>2</ele>
        <time>2023-07-16T09:03:31.867+00:00</time>
      </trkpt>
      <trkpt lat="46.20643" lon="-1.36749">
        <ele>2</ele>
        <time>2023-07-16T09:03:36.377+00:00</time>
      </trkpt>
      <trkpt lat="46.20643" lon="-1.36747">
        <ele>2</ele>
        <time>2023-07-16T09:03:40.418+00:00</time>
      </trkpt>
      <trkpt lat="46.20651" lon="-1.36743">
        <ele>2</ele>
        <time>2023-07-16T09:03:44.930+00:00</time>
      </trkpt>
      <trkpt lat="46.20656" lon="-1.36742">
        <ele>2</ele>
        <time>2023-07-16T09:03:49.040+00:00</time>
      </trkpt>
      <trkpt lat="46.2066" lon="-1.36743">
        <ele>2</ele>
        <time>2023-07-16T09:03:53.050+00:00</time>
      </trkpt>
      <trkpt lat="46.20663" lon="-1.36744">
        <ele>2</ele>
        <time>2023-07-16T09:03:57.578+00:00</time>
      </trkpt>
      <trkpt lat="46.20665" lon="-1.36746">
        <ele>2</ele>
        <time>2023-07-16T09:04:01.589+00:00</time>
      </trkpt>
      <trkpt lat="46.20665" lon="-1.36738">
        <ele>2</ele>
        <time>2023-07-16T09:04:38.707+00:00</time>
      </trkpt>
      <trkpt lat="46.20665" lon="-1.36737">
        <ele>2</ele>
        <time>2023-07-16T09:04:42.712+00:00</time>
      </trkpt>
      <trkpt lat="46.20665" lon="-1.36735">
        <ele>3</ele>
        <time>2023-07-16T09:04:46.716+00:00</time>
      </trkpt>
      <trkpt lat="46.20665" lon="-1.36732">
        <ele>3</ele>
        <time>2023-07-16T09:04:51.081+00:00</time>
      </trkpt>
      <trkpt lat="46.20665" lon="-1.36731">
        <ele>3</ele>
        <time>2023-07-16T09:04:55.615+00:00</time>
      </trkpt>
      <trkpt lat="46.20664" lon="-1.36729">
        <ele>3</ele>
        <time>2023-07-16T09:05:17.599+00:00</time>
      </trkpt>
      <trkpt lat="46.20664" lon="-1.36732">
        <ele>3</ele>
        <time>2023-07-16T09:05:22.580+00:00</time>
      </trkpt>
      <trkpt lat="46.20665" lon="-1.36736">
        <ele>2</ele>
        <time>2023-07-16T09:05:26.821+00:00</time>
      </trkpt>
      <trkpt lat="46.20667" lon="-1.36741">
        <ele>2</ele>
        <time>2023-07-16T09:05:31.279+00:00</time>
      </trkpt>
      <trkpt lat="46.20667" lon="-1.36744">
        <ele>2</ele>
        <time>2023-07-16T09:05:35.897+00:00</time>
      </trkpt>
      <trkpt lat="46.20672" lon="-1.36744">
        <ele>2</ele>
        <time>2023-07-16T09:06:43.090+00:00</time>
      </trkpt>
      <trkpt lat="46.20673" lon="-1.36743">
        <ele>2</ele>
        <time>2023-07-16T09:06:48.090+00:00</time>
      </trkpt>
      <trkpt lat="46.20673" lon="-1.36744">
        <ele>2</ele>
        <time>2023-07-16T09:06:53.026+00:00</time>
      </trkpt>
      <trkpt lat="46.20679" lon="-1.36748">
        <ele>2</ele>
        <time>2023-07-16T09:06:57.102+00:00</time>
      </trkpt>
      <trkpt lat="46.20688" lon="-1.36757">
        <ele>2</ele>
        <time>2023-07-16T09:07:00.638+00:00</time>
      </trkpt>
      <trkpt lat="46.20698" lon="-1.36757">
        <ele>2</ele>
        <time>2023-07-16T09:07:04.833+00:00</time>
      </trkpt>
      <trkpt lat="46.20704" lon="-1.36756">
        <ele>2</ele>
        <time>2023-07-16T09:07:09.027+00:00</time>
      </trkpt>
      <trkpt lat="46.20706" lon="-1.36756">
        <ele>2</ele>
        <time>2023-07-16T09:07:13.222+00:00</time>
      </trkpt>
      <trkpt lat="46.20706" lon="-1.36756">
        <ele>2</ele>
        <time>2023-07-16T09:07:18.015+00:00</time>
      </trkpt>
      <trkpt lat="46.20707" lon="-1.36757">
        <ele>2</ele>
        <time>2023-07-16T09:07:22.583+00:00</time>
      </trkpt>
      <trkpt lat="46.20708" lon="-1.36758">
        <ele>2</ele>
        <time>2023-07-16T09:07:27.697+00:00</time>
      </trkpt>
      <trkpt lat="46.20707" lon="-1.3676">
        <ele>2</ele>
        <time>2023-07-16T09:07:31.704+00:00</time>
      </trkpt>
      <trkpt lat="46.20694" lon="-1.36757">
        <ele>2</ele>
        <time>2023-07-16T09:07:36.709+00:00</time>
      </trkpt>
      <trkpt lat="46.20691" lon="-1.3675">
        <ele>2</ele>
        <time>2023-07-16T09:07:40.710+00:00</time>
      </trkpt>
      <trkpt lat="46.20683" lon="-1.36754">
        <ele>2</ele>
        <time>2023-07-16T09:08:32.050+00:00</time>
      </trkpt>
      <trkpt lat="46.20683" lon="-1.36754">
        <ele>2</ele>
        <time>2023-07-16T09:08:37.084+00:00</time>
      </trkpt>
      <trkpt lat="46.20683" lon="-1.36752">
        <ele>2</ele>
        <time>2023-07-16T09:08:42.084+00:00</time>
      </trkpt>
      <trkpt lat="46.20682" lon="-1.36751">
        <ele>2</ele>
        <time>2023-07-16T09:08:46.079+00:00</time>
      </trkpt>
      <trkpt lat="46.20681" lon="-1.36751">
        <ele>2</ele>
        <time>2023-07-16T09:08:49.977+00:00</time>
      </trkpt>
      <trkpt lat="46.20685" lon="-1.36737">
        <ele>2</ele>
        <time>2023-07-16T09:08:55.017+00:00</time>
      </trkpt>
      <trkpt lat="46.20691" lon="-1.3673">
        <ele>3</ele>
        <time>2023-07-16T09:08:59.067+00:00</time>
      </trkpt>
      <trkpt lat="46.20696" lon="-1.36724">
        <ele>3</ele>
        <time>2023-07-16T09:09:03.256+00:00</time>
      </trkpt>
      <trkpt lat="46.20704" lon="-1.36721">
        <ele>3</ele>
        <time>2023-07-16T09:09:07.917+00:00</time>
      </trkpt>
      <trkpt lat="46.20713" lon="-1.36716">
        <ele>1</ele>
        <time>2023-07-16T09:09:12.996+00:00</time>
      </trkpt>
      <trkpt lat="46.20718" lon="-1.36715">
        <ele>1</ele>
        <time>2023-07-16T09:09:16.915+00:00</time>
      </trkpt>
      <trkpt lat="46.20722" lon="-1.36715">
        <ele>1</ele>
        <time>2023-07-16T09:09:20.872+00:00</time>
      </trkpt>
      <trkpt lat="46.20725" lon="-1.36714">
        <ele>1</ele>
        <time>2023-07-16T09:09:25.307+00:00</time>
      </trkpt>
      <trkpt lat="46.20726" lon="-1.36714">
        <ele>1</ele>
        <time>2023-07-16T09:09:29.870+00:00</time>
      </trkpt>
      <trkpt lat="46.20726" lon="-1.36713">
        <ele>1</ele>
        <time>2023-07-16T09:09:33.828+00:00</time>
      </trkpt>
      <trkpt lat="46.20728" lon="-1.36712">
        <ele>1</ele>
        <time>2023-07-16T09:09:38.318+00:00</time>
      </trkpt>
      <trkpt lat="46.20733" lon="-1.36716">
        <ele>1</ele>
        <time>2023-07-16T09:09:42.607+00:00</time>
      </trkpt>
      <trkpt lat="46.20741" lon="-1.3671">
        <ele>1</ele>
        <time>2023-07-16T09:09:47.617+00:00</time>
      </trkpt>
      <trkpt lat="46.20741" lon="-1.36711">
        <ele>1</ele>
        <time>2023-07-16T09:10:04.720+00:00</time>
      </trkpt>
      <trkpt lat="46.20739" lon="-1.36711">
        <ele>1</ele>
        <time>2023-07-16T09:10:10.062+00:00</time>
      </trkpt>
      <trkpt lat="46.20735" lon="-1.36714">
        <ele>1</ele>
        <time>2023-07-16T09:10:14.257+00:00</time>
      </trkpt>
      <trkpt lat="46.20731" lon="-1.36716">
        <ele>1</ele>
        <time>2023-07-16T09:10:18.270+00:00</time>
      </trkpt>
      <trkpt lat="46.20729" lon="-1.36716">
        <ele>1</ele>
        <time>2023-07-16T09:10:22.782+00:00</time>
      </trkpt>
      <trkpt lat="46.20729" lon="-1.36712">
        <ele>1</ele>
        <time>2023-07-16T09:10:40.837+00:00</time>
      </trkpt>
      <trkpt lat="46.20726" lon="-1.36712">
        <ele>1</ele>
        <time>2023-07-16T09:10:45.352+00:00</time>
      </trkpt>
      <trkpt lat="46.2072" lon="-1.36718">
        <ele>1</ele>
        <time>2023-07-16T09:10:49.867+00:00</time>
      </trkpt>
      <trkpt lat="46.20714" lon="-1.3672">
        <ele>1</ele>
        <time>2023-07-16T09:10:54.883+00:00</time>
      </trkpt>
      <trkpt lat="46.20708" lon="-1.3672">
        <ele>3</ele>
        <time>2023-07-16T09:10:59.900+00:00</time>
      </trkpt>
      <trkpt lat="46.20705" lon="-1.36724">
        <ele>3</ele>
        <time>2023-07-16T09:11:04.044+00:00</time>
      </trkpt>
      <trkpt lat="46.20701" lon="-1.36727">
        <ele>3</ele>
        <time>2023-07-16T09:11:09.058+00:00</time>
      </trkpt>
      <trkpt lat="46.20697" lon="-1.36735">
        <ele>3</ele>
        <time>2023-07-16T09:11:14.047+00:00</time>
      </trkpt>
      <trkpt lat="46.20693" lon="-1.36742">
        <ele>2</ele>
        <time>2023-07-16T09:11:19.058+00:00</time>
      </trkpt>
      <trkpt lat="46.20685" lon="-1.36745">
        <ele>2</ele>
        <time>2023-07-16T09:11:28.854+00:00</time>
      </trkpt>
      <trkpt lat="46.20685" lon="-1.36746">
        <ele>2</ele>
        <time>2023-07-16T09:11:33.055+00:00</time>
      </trkpt>
      <trkpt lat="46.20682" lon="-1.36744">
        <ele>2</ele>
        <time>2023-07-16T09:11:38.058+00:00</time>
      </trkpt>
      <trkpt lat="46.20679" lon="-1.36745">
        <ele>2</ele>
        <time>2023-07-16T09:11:43.057+00:00</time>
      </trkpt>
      <trkpt lat="46.20676" lon="-1.36749">
        <ele>2</ele>
        <time>2023-07-16T09:11:48.069+00:00</time>
      </trkpt>
      <trkpt lat="46.20674" lon="-1.36749">
        <ele>2</ele>
        <time>2023-07-16T09:11:53.070+00:00</time>
      </trkpt>
      <trkpt lat="46.20674" lon="-1.36753">
        <ele>2</ele>
        <time>2023-07-16T09:11:57.849+00:00</time>
      </trkpt>
      <trkpt lat="46.20683" lon="-1.3676">
        <ele>2</ele>
        <time>2023-07-16T09:12:02.053+00:00</time>
      </trkpt>
      <trkpt lat="46.20692" lon="-1.36765">
        <ele>2</ele>
        <time>2023-07-16T09:12:06.277+00:00</time>
      </trkpt>
      <trkpt lat="46.20695" lon="-1.36777">
        <ele>2</ele>
        <time>2023-07-16T09:12:10.787+00:00</time>
      </trkpt>
      <trkpt lat="46.20699" lon="-1.36789">
        <ele>2</ele>
        <time>2023-07-16T09:12:14.794+00:00</time>
      </trkpt>
      <trkpt lat="46.20701" lon="-1.36805">
        <ele>2</ele>
        <time>2023-07-16T09:12:19.298+00:00</time>
      </trkpt>
      <trkpt lat="46.20695" lon="-1.36817">
        <ele>2</ele>
        <time>2023-07-16T09:12:23.842+00:00</time>
      </trkpt>
      <trkpt lat="46.20687" lon="-1.3682">
        <ele>1</ele>
        <time>2023-07-16T09:12:38.066+00:00</time>
      </trkpt>
      <trkpt lat="46.20687" lon="-1.36821">
        <ele>1</ele>
        <time>2023-07-16T09:12:42.170+00:00</time>
      </trkpt>
      <trkpt lat="46.20692" lon="-1.36814">
        <ele>2</ele>
        <time>2023-07-16T09:12:46.469+00:00</time>
      </trkpt>
      <trkpt lat="46.20697" lon="-1.36811">
        <ele>2</ele>
        <time>2023-07-16T09:12:50.610+00:00</time>
      </trkpt>
      <trkpt lat="46.20697" lon="-1.36809">
        <ele>2</ele>
        <time>2023-07-16T09:12:55.011+00:00</time>
      </trkpt>
      <trkpt lat="46.20697" lon="-1.36808">
        <ele>2</ele>
        <time>2023-07-16T09:12:59.370+00:00</time>
      </trkpt>
      <trkpt lat="46.20696" lon="-1.36818">
        <ele>2</ele>
        <time>2023-07-16T09:13:03.630+00:00</time>
      </trkpt>
      <trkpt lat="46.20686" lon="-1.36825">
        <ele>1</ele>
        <time>2023-07-16T09:13:07.606+00:00</time>
      </trkpt>
      <trkpt lat="46.20676" lon="-1.36833">
        <ele>1</ele>
        <time>2023-07-16T09:13:12.626+00:00</time>
      </trkpt>
      <trkpt lat="46.20667" lon="-1.36842">
        <ele>1</ele>
        <time>2023-07-16T09:13:17.184+00:00</time>
      </trkpt>
      <trkpt lat="46.20658" lon="-1.36851">
        <ele>1</ele>
        <time>2023-07-16T09:13:21.241+00:00</time>
      </trkpt>
      <trkpt lat="46.20648" lon="-1.36858">
        <ele>1</ele>
        <time>2023-07-16T09:13:25.819+00:00</time>
      </trkpt>
      <trkpt lat="46.20638" lon="-1.36866">
        <ele>1</ele>
        <time>2023-07-16T09:13:29.774+00:00</time>
      </trkpt>
      <trkpt lat="46.20628" lon="-1.36872">
        <ele>1</ele>
        <time>2023-07-16T09:13:34.431+00:00</time>
      </trkpt>
      <trkpt lat="46.2062" lon="-1.36881">
        <ele>1</ele>
        <time>2023-07-16T09:13:38.933+00:00</time>
      </trkpt>
      <trkpt lat="46.20614" lon="-1.36886">
        <ele>1</ele>
        <time>2023-07-16T09:13:43.085+00:00</time>
      </trkpt>
      <trkpt lat="46.2061" lon="-1.3689">
        <ele>1</ele>
        <time>2023-07-16T09:13:47.880+00:00</time>
      </trkpt>
      <trkpt lat="46.20609" lon="-1.3689">
        <ele>1</ele>
        <time>2023-07-16T09:13:52.587+00:00</time>
      </trkpt>
      <trkpt lat="46.2061" lon="-1.36886">
        <ele>1</ele>
        <time>2023-07-16T09:13:57.602+00:00</time>
      </trkpt>
      <trkpt lat="46.20609" lon="-1.36884">
        <ele>1</ele>
        <time>2023-07-16T09:14:02.615+00:00</time>
      </trkpt>
      <trkpt lat="46.20604" lon="-1.36891">
        <ele>1</ele>
        <time>2023-07-16T09:14:06.624+00:00</time>
      </trkpt>
      <trkpt lat="46.20602" lon="-1.36904">
        <ele>2</ele>
        <time>2023-07-16T09:14:11.135+00:00</time>
      </trkpt>
      <trkpt lat="46.206" lon="-1.36915">
        <ele>2</ele>
        <time>2023-07-16T09:14:15.662+00:00</time>
      </trkpt>
      <trkpt lat="46.20598" lon="-1.36928">
        <ele>2</ele>
        <time>2023-07-16T09:14:19.671+00:00</time>
      </trkpt>
      <trkpt lat="46.20597" lon="-1.36947">
        <ele>3</ele>
        <time>2023-07-16T09:14:24.681+00:00</time>
      </trkpt>
      <trkpt lat="46.20595" lon="-1.36958">
        <ele>2</ele>
        <time>2023-07-16T09:14:29.692+00:00</time>
      </trkpt>
      <trkpt lat="46.20594" lon="-1.36965">
        <ele>2</ele>
        <time>2023-07-16T09:14:34.703+00:00</time>
      </trkpt>
      <trkpt lat="46.20594" lon="-1.36965">
        <ele>2</ele>
        <time>2023-07-16T09:14:38.712+00:00</time>
      </trkpt>
      <trkpt lat="46.20593" lon="-1.36976">
        <ele>2</ele>
        <time>2023-07-16T09:14:43.051+00:00</time>
      </trkpt>
      <trkpt lat="46.2059" lon="-1.3699">
        <ele>2</ele>
        <time>2023-07-16T09:14:47.054+00:00</time>
      </trkpt>
      <trkpt lat="46.2059" lon="-1.37008">
        <ele>2</ele>
        <time>2023-07-16T09:14:52.050+00:00</time>
      </trkpt>
      <trkpt lat="46.20591" lon="-1.37023">
        <ele>3</ele>
        <time>2023-07-16T09:14:56.045+00:00</time>
      </trkpt>
      <trkpt lat="46.20591" lon="-1.37041">
        <ele>3</ele>
        <time>2023-07-16T09:15:01.057+00:00</time>
      </trkpt>
      <trkpt lat="46.20591" lon="-1.37062">
        <ele>3</ele>
        <time>2023-07-16T09:15:06.041+00:00</time>
      </trkpt>
      <trkpt lat="46.20589" lon="-1.3708">
        <ele>2</ele>
        <time>2023-07-16T09:15:10.058+00:00</time>
      </trkpt>
      <trkpt lat="46.20585" lon="-1.37103">
        <ele>1</ele>
        <time>2023-07-16T09:15:15.052+00:00</time>
      </trkpt>
      <trkpt lat="46.20583" lon="-1.37122">
        <ele>1</ele>
        <time>2023-07-16T09:15:19.057+00:00</time>
      </trkpt>
      <trkpt lat="46.2058" lon="-1.37146">
        <ele>6.4</ele>
        <time>2023-07-16T09:15:24.052+00:00</time>
      </trkpt>
      <trkpt lat="46.20577" lon="-1.37164">
        <ele>5.4</ele>
        <time>2023-07-16T09:15:28.069+00:00</time>
      </trkpt>
      <trkpt lat="46.20572" lon="-1.37186">
        <ele>5.8</ele>
        <time>2023-07-16T09:15:32.400+00:00</time>
      </trkpt>
      <trkpt lat="46.20567" lon="-1.37208">
        <ele>5</ele>
        <time>2023-07-16T09:15:36.910+00:00</time>
      </trkpt>
      <trkpt lat="46.20563" lon="-1.3723">
        <ele>6</ele>
        <time>2023-07-16T09:15:41.921+00:00</time>
      </trkpt>
      <trkpt lat="46.20561" lon="-1.37239">
        <ele>8</ele>
        <time>2023-07-16T09:15:46.548+00:00</time>
      </trkpt>
      <trkpt lat="46.20563" lon="-1.3724">
        <ele>8</ele>
        <time>2023-07-16T09:15:50.758+00:00</time>
      </trkpt>
      <trkpt lat="46.20567" lon="-1.3724">
        <ele>8</ele>
        <time>2023-07-16T09:15:54.765+00:00</time>
      </trkpt>
      <trkpt lat="46.20571" lon="-1.37241">
        <ele>4.5</ele>
        <time>2023-07-16T09:15:58.769+00:00</time>
      </trkpt>
      <trkpt lat="46.2057" lon="-1.37248">
        <ele>4.1</ele>
        <time>2023-07-16T09:17:11.098+00:00</time>
      </trkpt>
      <trkpt lat="46.2057" lon="-1.37248">
        <ele>4.1</ele>
        <time>2023-07-16T09:17:16.090+00:00</time>
      </trkpt>
      <trkpt lat="46.20568" lon="-1.37247">
        <ele>8</ele>
        <time>2023-07-16T09:17:20.074+00:00</time>
      </trkpt>
      <trkpt lat="46.20563" lon="-1.3724">
        <ele>8</ele>
        <time>2023-07-16T09:17:25.098+00:00</time>
      </trkpt>
      <trkpt lat="46.2056" lon="-1.37236">
        <ele>8</ele>
        <time>2023-07-16T09:17:29.088+00:00</time>
      </trkpt>
      <trkpt lat="46.20559" lon="-1.37236">
        <ele>6</ele>
        <time>2023-07-16T09:17:34.078+00:00</time>
      </trkpt>
      <trkpt lat="46.20558" lon="-1.37236">
        <ele>8</ele>
        <time>2023-07-16T09:17:39.094+00:00</time>
      </trkpt>
      <trkpt lat="46.20558" lon="-1.37237">
        <ele>8</ele>
        <time>2023-07-16T09:17:44.071+00:00</time>
      </trkpt>
      <trkpt lat="46.20555" lon="-1.37239">
        <ele>8</ele>
        <time>2023-07-16T09:17:49.076+00:00</time>
      </trkpt>
      <trkpt lat="46.20549" lon="-1.37256">
        <ele>8</ele>
        <time>2023-07-16T09:17:54.051+00:00</time>
      </trkpt>
      <trkpt lat="46.2054" lon="-1.37271">
        <ele>8</ele>
        <time>2023-07-16T09:17:58.070+00:00</time>
      </trkpt>
      <trkpt lat="46.20528" lon="-1.37284">
        <ele>8</ele>
        <time>2023-07-16T09:18:03.079+00:00</time>
      </trkpt>
      <trkpt lat="46.20514" lon="-1.37295">
        <ele>7</ele>
        <time>2023-07-16T09:18:08.059+00:00</time>
      </trkpt>
      <trkpt lat="46.205" lon="-1.373">
        <ele>7</ele>
        <time>2023-07-16T09:18:12.071+00:00</time>
      </trkpt>
      <trkpt lat="46.20483" lon="-1.37302">
        <ele>7</ele>
        <time>2023-07-16T09:18:17.063+00:00</time>
      </trkpt>
      <trkpt lat="46.20466" lon="-1.37304">
        <ele>7</ele>
        <time>2023-07-16T09:18:21.064+00:00</time>
      </trkpt>
      <trkpt lat="46.20452" lon="-1.37303">
        <ele>7</ele>
        <time>2023-07-16T09:18:25.073+00:00</time>
      </trkpt>
      <trkpt lat="46.20433" lon="-1.37303">
        <ele>7</ele>
        <time>2023-07-16T09:18:29.858+00:00</time>
      </trkpt>
      <trkpt lat="46.20415" lon="-1.37303">
        <ele>8</ele>
        <time>2023-07-16T09:18:34.277+00:00</time>
      </trkpt>
      <trkpt lat="46.20396" lon="-1.37304">
        <ele>11</ele>
        <time>2023-07-16T09:18:38.657+00:00</time>
      </trkpt>
      <trkpt lat="46.2038" lon="-1.37305">
        <ele>11</ele>
        <time>2023-07-16T09:18:42.397+00:00</time>
      </trkpt>
      <trkpt lat="46.20363" lon="-1.37309">
        <ele>13</ele>
        <time>2023-07-16T09:18:46.899+00:00</time>
      </trkpt>
      <trkpt lat="46.20341" lon="-1.37313">
        <ele>13</ele>
        <time>2023-07-16T09:18:52.042+00:00</time>
      </trkpt>
      <trkpt lat="46.20321" lon="-1.37316">
        <ele>13</ele>
        <time>2023-07-16T09:18:56.583+00:00</time>
      </trkpt>
      <trkpt lat="46.203" lon="-1.37315">
        <ele>13</ele>
        <time>2023-07-16T09:19:01.076+00:00</time>
      </trkpt>
      <trkpt lat="46.2028" lon="-1.37315">
        <ele>12</ele>
        <time>2023-07-16T09:19:05.603+00:00</time>
      </trkpt>
      <trkpt lat="46.20263" lon="-1.37315">
        <ele>11</ele>
        <time>2023-07-16T09:19:10.165+00:00</time>
      </trkpt>
      <trkpt lat="46.20244" lon="-1.37316">
        <ele>11</ele>
        <time>2023-07-16T09:19:14.447+00:00</time>
      </trkpt>
      <trkpt lat="46.20231" lon="-1.37321">
        <ele>9</ele>
        <time>2023-07-16T09:19:18.584+00:00</time>
      </trkpt>
      <trkpt lat="46.20222" lon="-1.37334">
        <ele>9</ele>
        <time>2023-07-16T09:19:23.382+00:00</time>
      </trkpt>
      <trkpt lat="46.20211" lon="-1.37344">
        <ele>9</ele>
        <time>2023-07-16T09:19:27.263+00:00</time>
      </trkpt>
      <trkpt lat="46.20202" lon="-1.37353">
        <ele>9</ele>
        <time>2023-07-16T09:19:31.199+00:00</time>
      </trkpt>
      <trkpt lat="46.20192" lon="-1.37366">
        <ele>9</ele>
        <time>2023-07-16T09:19:35.877+00:00</time>
      </trkpt>
      <trkpt lat="46.20183" lon="-1.37378">
        <ele>9</ele>
        <time>2023-07-16T09:19:40.377+00:00</time>
      </trkpt>
      <trkpt lat="46.20171" lon="-1.37392">
        <ele>10</ele>
        <time>2023-07-16T09:19:44.816+00:00</time>
      </trkpt>
      <trkpt lat="46.20163" lon="-1.37402">
        <ele>10</ele>
        <time>2023-07-16T09:19:48.814+00:00</time>
      </trkpt>
      <trkpt lat="46.20152" lon="-1.37416">
        <ele>10</ele>
        <time>2023-07-16T09:19:53.932+00:00</time>
      </trkpt>
      <trkpt lat="46.20146" lon="-1.3743">
        <ele>10</ele>
        <time>2023-07-16T09:19:58.450+00:00</time>
      </trkpt>
      <trkpt lat="46.20141" lon="-1.37443">
        <ele>10</ele>
        <time>2023-07-16T09:20:02.648+00:00</time>
      </trkpt>
      <trkpt lat="46.20137" lon="-1.37456">
        <ele>10</ele>
        <time>2023-07-16T09:20:06.844+00:00</time>
      </trkpt>
      <trkpt lat="46.20132" lon="-1.37473">
        <ele>9</ele>
        <time>2023-07-16T09:20:11.622+00:00</time>
      </trkpt>
      <trkpt lat="46.20129" lon="-1.37489">
        <ele>8</ele>
        <time>2023-07-16T09:20:16.419+00:00</time>
      </trkpt>
      <trkpt lat="46.20124" lon="-1.37506">
        <ele>8</ele>
        <time>2023-07-16T09:20:20.615+00:00</time>
      </trkpt>
      <trkpt lat="46.20128" lon="-1.37524">
        <ele>7</ele>
        <time>2023-07-16T09:20:26.011+00:00</time>
      </trkpt>
      <trkpt lat="46.20132" lon="-1.37536">
        <ele>7</ele>
        <time>2023-07-16T09:20:29.608+00:00</time>
      </trkpt>
      <trkpt lat="46.20139" lon="-1.37542">
        <ele>8</ele>
        <time>2023-07-16T09:20:34.226+00:00</time>
      </trkpt>
      <trkpt lat="46.20154" lon="-1.37547">
        <ele>7</ele>
        <time>2023-07-16T09:20:38.805+00:00</time>
      </trkpt>
      <trkpt lat="46.20174" lon="-1.3755">
        <ele>7</ele>
        <time>2023-07-16T09:20:44.043+00:00</time>
      </trkpt>
      <trkpt lat="46.20194" lon="-1.37552">
        <ele>7</ele>
        <time>2023-07-16T09:20:48.820+00:00</time>
      </trkpt>
      <trkpt lat="46.20212" lon="-1.37553">
        <ele>7</ele>
        <time>2023-07-16T09:20:53.617+00:00</time>
      </trkpt>
      <trkpt lat="46.20227" lon="-1.37554">
        <ele>7</ele>
        <time>2023-07-16T09:20:58.099+00:00</time>
      </trkpt>
      <trkpt lat="46.20251" lon="-1.37555">
        <ele>7</ele>
        <time>2023-07-16T09:21:03.079+00:00</time>
      </trkpt>
      <trkpt lat="46.20269" lon="-1.37557">
        <ele>8</ele>
        <time>2023-07-16T09:21:07.116+00:00</time>
      </trkpt>
      <trkpt lat="46.20287" lon="-1.37559">
        <ele>8</ele>
        <time>2023-07-16T09:21:11.080+00:00</time>
      </trkpt>
      <trkpt lat="46.20309" lon="-1.37564">
        <ele>9</ele>
        <time>2023-07-16T09:21:16.072+00:00</time>
      </trkpt>
      <trkpt lat="46.20327" lon="-1.37571">
        <ele>10</ele>
        <time>2023-07-16T09:21:20.091+00:00</time>
      </trkpt>
      <trkpt lat="46.20344" lon="-1.37576">
        <ele>10</ele>
        <time>2023-07-16T09:21:24.102+00:00</time>
      </trkpt>
      <trkpt lat="46.20364" lon="-1.37582">
        <ele>9</ele>
        <time>2023-07-16T09:21:29.082+00:00</time>
      </trkpt>
      <trkpt lat="46.20384" lon="-1.37593">
        <ele>8</ele>
        <time>2023-07-16T09:21:34.085+00:00</time>
      </trkpt>
      <trkpt lat="46.20402" lon="-1.37609">
        <ele>6</ele>
        <time>2023-07-16T09:21:39.095+00:00</time>
      </trkpt>
      <trkpt lat="46.20417" lon="-1.37624">
        <ele>6</ele>
        <time>2023-07-16T09:21:43.673+00:00</time>
      </trkpt>
      <trkpt lat="46.20433" lon="-1.37641">
        <ele>7</ele>
        <time>2023-07-16T09:21:48.331+00:00</time>
      </trkpt>
      <trkpt lat="46.20446" lon="-1.37655">
        <ele>7</ele>
        <time>2023-07-16T09:21:52.230+00:00</time>
      </trkpt>
      <trkpt lat="46.20452" lon="-1.37677">
        <ele>7</ele>
        <time>2023-07-16T09:21:56.733+00:00</time>
      </trkpt>
      <trkpt lat="46.20453" lon="-1.37702">
        <ele>7</ele>
        <time>2023-07-16T09:22:00.646+00:00</time>
      </trkpt>
      <trkpt lat="46.20455" lon="-1.37734">
        <ele>7</ele>
        <time>2023-07-16T09:22:05.800+00:00</time>
      </trkpt>
      <trkpt lat="46.20458" lon="-1.37764">
        <ele>7</ele>
        <time>2023-07-16T09:22:11.073+00:00</time>
      </trkpt>
      <trkpt lat="46.20459" lon="-1.37784">
        <ele>7</ele>
        <time>2023-07-16T09:22:14.667+00:00</time>
      </trkpt>
      <trkpt lat="46.20456" lon="-1.37816">
        <ele>8</ele>
        <time>2023-07-16T09:22:20.056+00:00</time>
      </trkpt>
      <trkpt lat="46.20453" lon="-1.37843">
        <ele>8</ele>
        <time>2023-07-16T09:22:24.080+00:00</time>
      </trkpt>
      <trkpt lat="46.2045" lon="-1.37873">
        <ele>9</ele>
        <time>2023-07-16T09:22:28.898+00:00</time>
      </trkpt>
      <trkpt lat="46.20447" lon="-1.37902">
        <ele>8</ele>
        <time>2023-07-16T09:22:33.692+00:00</time>
      </trkpt>
      <trkpt lat="46.20449" lon="-1.37936">
        <ele>7</ele>
        <time>2023-07-16T09:22:39.104+00:00</time>
      </trkpt>
      <trkpt lat="46.20454" lon="-1.37968">
        <ele>6</ele>
        <time>2023-07-16T09:22:44.076+00:00</time>
      </trkpt>
      <trkpt lat="46.20458" lon="-1.37993">
        <ele>6</ele>
        <time>2023-07-16T09:22:48.099+00:00</time>
      </trkpt>
      <trkpt lat="46.20461" lon="-1.38019">
        <ele>4</ele>
        <time>2023-07-16T09:22:52.577+00:00</time>
      </trkpt>
      <trkpt lat="46.20463" lon="-1.38049">
        <ele>3</ele>
        <time>2023-07-16T09:22:57.098+00:00</time>
      </trkpt>
      <trkpt lat="46.20463" lon="-1.38085">
        <ele>3</ele>
        <time>2023-07-16T09:23:02.083+00:00</time>
      </trkpt>
      <trkpt lat="46.20462" lon="-1.3811">
        <ele>3</ele>
        <time>2023-07-16T09:23:06.607+00:00</time>
      </trkpt>
      <trkpt lat="46.2046" lon="-1.38127">
        <ele>3</ele>
        <time>2023-07-16T09:23:11.915+00:00</time>
      </trkpt>
      <trkpt lat="46.20457" lon="-1.38141">
        <ele>3</ele>
        <time>2023-07-16T09:23:16.076+00:00</time>
      </trkpt>
      <trkpt lat="46.20458" lon="-1.38166">
        <ele>3</ele>
        <time>2023-07-16T09:23:20.869+00:00</time>
      </trkpt>
      <trkpt lat="46.2046" lon="-1.38196">
        <ele>1</ele>
        <time>2023-07-16T09:23:26.081+00:00</time>
      </trkpt>
      <trkpt lat="46.2046" lon="-1.38222">
        <ele>1</ele>
        <time>2023-07-16T09:23:30.595+00:00</time>
      </trkpt>
      <trkpt lat="46.20461" lon="-1.3824">
        <ele>1</ele>
        <time>2023-07-16T09:23:34.609+00:00</time>
      </trkpt>
      <trkpt lat="46.20464" lon="-1.38265">
        <ele>1</ele>
        <time>2023-07-16T09:23:38.803+00:00</time>
      </trkpt>
      <trkpt lat="46.20466" lon="-1.38297">
        <ele>2</ele>
        <time>2023-07-16T09:23:44.110+00:00</time>
      </trkpt>
      <trkpt lat="46.20463" lon="-1.38322">
        <ele>2</ele>
        <time>2023-07-16T09:23:47.630+00:00</time>
      </trkpt>
      <trkpt lat="46.20458" lon="-1.38347">
        <ele>4</ele>
        <time>2023-07-16T09:23:52.263+00:00</time>
      </trkpt>
      <trkpt lat="46.20453" lon="-1.3837">
        <ele>3</ele>
        <time>2023-07-16T09:23:56.457+00:00</time>
      </trkpt>
      <trkpt lat="46.20449" lon="-1.38397">
        <ele>2</ele>
        <time>2023-07-16T09:24:01.077+00:00</time>
      </trkpt>
      <trkpt lat="46.20443" lon="-1.38431">
        <ele>1</ele>
        <time>2023-07-16T09:24:06.080+00:00</time>
      </trkpt>
      <trkpt lat="46.20438" lon="-1.38464">
        <ele>1</ele>
        <time>2023-07-16T09:24:11.104+00:00</time>
      </trkpt>
      <trkpt lat="46.20434" lon="-1.38497">
        <ele>1</ele>
        <time>2023-07-16T09:24:16.088+00:00</time>
      </trkpt>
      <trkpt lat="46.20431" lon="-1.38523">
        <ele>1</ele>
        <time>2023-07-16T09:24:20.081+00:00</time>
      </trkpt>
      <trkpt lat="46.20426" lon="-1.3855">
        <ele>1</ele>
        <time>2023-07-16T09:24:25.070+00:00</time>
      </trkpt>
      <trkpt lat="46.20423" lon="-1.38574">
        <ele>1</ele>
        <time>2023-07-16T09:24:29.078+00:00</time>
      </trkpt>
      <trkpt lat="46.2042" lon="-1.38601">
        <ele>1</ele>
        <time>2023-07-16T09:24:33.085+00:00</time>
      </trkpt>
      <trkpt lat="46.20416" lon="-1.38634">
        <ele>1</ele>
        <time>2023-07-16T09:24:38.096+00:00</time>
      </trkpt>
      <trkpt lat="46.20413" lon="-1.38655">
        <ele>1</ele>
        <time>2023-07-16T09:24:42.082+00:00</time>
      </trkpt>
      <trkpt lat="46.2041" lon="-1.38665">
        <ele>1</ele>
        <time>2023-07-16T09:24:46.329+00:00</time>
      </trkpt>
      <trkpt lat="46.20403" lon="-1.38666">
        <ele>1</ele>
        <time>2023-07-16T09:24:50.891+00:00</time>
      </trkpt>
      <trkpt lat="46.20391" lon="-1.38662">
        <ele>3</ele>
        <time>2023-07-16T09:24:55.562+00:00</time>
      </trkpt>
      <trkpt lat="46.20378" lon="-1.3866">
        <ele>3</ele>
        <time>2023-07-16T09:25:00.234+00:00</time>
      </trkpt>
      <trkpt lat="46.20368" lon="-1.3866">
        <ele>4</ele>
        <time>2023-07-16T09:25:04.786+00:00</time>
      </trkpt>
      <trkpt lat="46.20364" lon="-1.38668">
        <ele>4</ele>
        <time>2023-07-16T09:25:09.150+00:00</time>
      </trkpt>
      <trkpt lat="46.20363" lon="-1.3869">
        <ele>4</ele>
        <time>2023-07-16T09:25:13.871+00:00</time>
      </trkpt>
      <trkpt lat="46.20361" lon="-1.38721">
        <ele>4</ele>
        <time>2023-07-16T09:25:19.044+00:00</time>
      </trkpt>
      <trkpt lat="46.20362" lon="-1.38746">
        <ele>4</ele>
        <time>2023-07-16T09:25:23.597+00:00</time>
      </trkpt>
      <trkpt lat="46.2036" lon="-1.38772">
        <ele>5</ele>
        <time>2023-07-16T09:25:28.271+00:00</time>
      </trkpt>
      <trkpt lat="46.20357" lon="-1.38798">
        <ele>6</ele>
        <time>2023-07-16T09:25:32.702+00:00</time>
      </trkpt>
      <trkpt lat="46.20356" lon="-1.3882">
        <ele>5</ele>
        <time>2023-07-16T09:25:36.776+00:00</time>
      </trkpt>
      <trkpt lat="46.20357" lon="-1.38844">
        <ele>5</ele>
        <time>2023-07-16T09:25:42.048+00:00</time>
      </trkpt>
      <trkpt lat="46.20358" lon="-1.38858">
        <ele>5</ele>
        <time>2023-07-16T09:25:45.642+00:00</time>
      </trkpt>
      <trkpt lat="46.20366" lon="-1.3886">
        <ele>5</ele>
        <time>2023-07-16T09:25:50.792+00:00</time>
      </trkpt>
      <trkpt lat="46.20382" lon="-1.38859">
        <ele>3</ele>
        <time>2023-07-16T09:25:56.063+00:00</time>
      </trkpt>
      <trkpt lat="46.20391" lon="-1.38864">
        <ele>3</ele>
        <time>2023-07-16T09:26:00.739+00:00</time>
      </trkpt>
      <trkpt lat="46.20391" lon="-1.38883">
        <ele>2</ele>
        <time>2023-07-16T09:26:04.868+00:00</time>
      </trkpt>
      <trkpt lat="46.20384" lon="-1.38909">
        <ele>2</ele>
        <time>2023-07-16T09:26:09.461+00:00</time>
      </trkpt>
      <trkpt lat="46.20378" lon="-1.38932">
        <ele>2</ele>
        <time>2023-07-16T09:26:13.490+00:00</time>
      </trkpt>
      <trkpt lat="46.20374" lon="-1.38956">
        <ele>4</ele>
        <time>2023-07-16T09:26:17.681+00:00</time>
      </trkpt>
      <trkpt lat="46.20369" lon="-1.38977">
        <ele>3</ele>
        <time>2023-07-16T09:26:23.069+00:00</time>
      </trkpt>
      <trkpt lat="46.20366" lon="-1.38992">
        <ele>3</ele>
        <time>2023-07-16T09:26:27.858+00:00</time>
      </trkpt>
      <trkpt lat="46.20363" lon="-1.39021">
        <ele>2</ele>
        <time>2023-07-16T09:26:32.848+00:00</time>
      </trkpt>
      <trkpt lat="46.20361" lon="-1.39047">
        <ele>5.3</ele>
        <time>2023-07-16T09:26:37.329+00:00</time>
      </trkpt>
      <trkpt lat="46.20357" lon="-1.39076">
        <ele>4.5</ele>
        <time>2023-07-16T09:26:41.831+00:00</time>
      </trkpt>
      <trkpt lat="46.20355" lon="-1.39101">
        <ele>3.9</ele>
        <time>2023-07-16T09:26:45.845+00:00</time>
      </trkpt>
      <trkpt lat="46.2035" lon="-1.39135">
        <ele>3.6</ele>
        <time>2023-07-16T09:26:51.076+00:00</time>
      </trkpt>
      <trkpt lat="46.20348" lon="-1.39164">
        <ele>3.5</ele>
        <time>2023-07-16T09:26:55.647+00:00</time>
      </trkpt>
      <trkpt lat="46.20343" lon="-1.39194">
        <ele>3</ele>
        <time>2023-07-16T09:27:00.798+00:00</time>
      </trkpt>
      <trkpt lat="46.20342" lon="-1.39214">
        <ele>3</ele>
        <time>2023-07-16T09:27:04.870+00:00</time>
      </trkpt>
      <trkpt lat="46.2034" lon="-1.39231">
        <ele>3</ele>
        <time>2023-07-16T09:27:09.542+00:00</time>
      </trkpt>
      <trkpt lat="46.20331" lon="-1.39232">
        <ele>3</ele>
        <time>2023-07-16T09:27:14.093+00:00</time>
      </trkpt>
      <trkpt lat="46.20314" lon="-1.39231">
        <ele>5</ele>
        <time>2023-07-16T09:27:18.644+00:00</time>
      </trkpt>
      <trkpt lat="46.20306" lon="-1.39236">
        <ele>5</ele>
        <time>2023-07-16T09:27:23.433+00:00</time>
      </trkpt>
      <trkpt lat="46.20305" lon="-1.39252">
        <ele>5</ele>
        <time>2023-07-16T09:27:28.043+00:00</time>
      </trkpt>
      <trkpt lat="46.20303" lon="-1.39272">
        <ele>5</ele>
        <time>2023-07-16T09:27:32.658+00:00</time>
      </trkpt>
      <trkpt lat="46.203" lon="-1.39288">
        <ele>5</ele>
        <time>2023-07-16T09:27:36.863+00:00</time>
      </trkpt>
      <trkpt lat="46.203" lon="-1.39305">
        <ele>4</ele>
        <time>2023-07-16T09:27:40.975+00:00</time>
      </trkpt>
      <trkpt lat="46.203" lon="-1.39328">
        <ele>3</ele>
        <time>2023-07-16T09:27:45.486+00:00</time>
      </trkpt>
      <trkpt lat="46.20296" lon="-1.39354">
        <ele>3</ele>
        <time>2023-07-16T09:27:49.492+00:00</time>
      </trkpt>
      <trkpt lat="46.20292" lon="-1.39371">
        <ele>3</ele>
        <time>2023-07-16T09:27:54.001+00:00</time>
      </trkpt>
      <trkpt lat="46.20299" lon="-1.39428">
        <ele>3</ele>
        <time>2023-07-16T09:28:13.028+00:00</time>
      </trkpt>
      <trkpt lat="46.20311" lon="-1.39432">
        <ele>2</ele>
        <time>2023-07-16T09:28:17.133+00:00</time>
      </trkpt>
      <trkpt lat="46.20321" lon="-1.39436">
        <ele>1</ele>
        <time>2023-07-16T09:28:21.639+00:00</time>
      </trkpt>
      <trkpt lat="46.20323" lon="-1.39459">
        <ele>1</ele>
        <time>2023-07-16T09:28:26.055+00:00</time>
      </trkpt>
      <trkpt lat="46.20324" lon="-1.39483">
        <ele>1</ele>
        <time>2023-07-16T09:28:30.092+00:00</time>
      </trkpt>
      <trkpt lat="46.20324" lon="-1.39509">
        <ele>1</ele>
        <time>2023-07-16T09:28:34.598+00:00</time>
      </trkpt>
      <trkpt lat="46.20327" lon="-1.39534">
        <ele>3.2</ele>
        <time>2023-07-16T09:28:38.704+00:00</time>
      </trkpt>
      <trkpt lat="46.20329" lon="-1.39559">
        <ele>2</ele>
        <time>2023-07-16T09:28:42.709+00:00</time>
      </trkpt>
      <trkpt lat="46.2033" lon="-1.39585">
        <ele>2</ele>
        <time>2023-07-16T09:28:47.214+00:00</time>
      </trkpt>
      <trkpt lat="46.20334" lon="-1.39613">
        <ele>3</ele>
        <time>2023-07-16T09:28:51.558+00:00</time>
      </trkpt>
      <trkpt lat="46.20336" lon="-1.3964">
        <ele>2</ele>
        <time>2023-07-16T09:28:56.163+00:00</time>
      </trkpt>
      <trkpt lat="46.20336" lon="-1.39672">
        <ele>2</ele>
        <time>2023-07-16T09:29:01.054+00:00</time>
      </trkpt>
      <trkpt lat="46.20339" lon="-1.39706">
        <ele>2</ele>
        <time>2023-07-16T09:29:06.050+00:00</time>
      </trkpt>
      <trkpt lat="46.20344" lon="-1.39735">
        <ele>1</ele>
        <time>2023-07-16T09:29:10.570+00:00</time>
      </trkpt>
      <trkpt lat="46.20343" lon="-1.39759">
        <ele>1</ele>
        <time>2023-07-16T09:29:15.087+00:00</time>
      </trkpt>
      <trkpt lat="46.2034" lon="-1.39786">
        <ele>1</ele>
        <time>2023-07-16T09:29:19.680+00:00</time>
      </trkpt>
      <trkpt lat="46.20335" lon="-1.39811">
        <ele>1</ele>
        <time>2023-07-16T09:29:23.684+00:00</time>
      </trkpt>
      <trkpt lat="46.2033" lon="-1.39838">
        <ele>1</ele>
        <time>2023-07-16T09:29:28.043+00:00</time>
      </trkpt>
      <trkpt lat="46.20327" lon="-1.39857">
        <ele>2</ele>
        <time>2023-07-16T09:29:31.644+00:00</time>
      </trkpt>
      <trkpt lat="46.20326" lon="-1.39884">
        <ele>2</ele>
        <time>2023-07-16T09:29:36.149+00:00</time>
      </trkpt>
      <trkpt lat="46.20321" lon="-1.3991">
        <ele>1</ele>
        <time>2023-07-16T09:29:40.796+00:00</time>
      </trkpt>
      <trkpt lat="46.2032" lon="-1.39936">
        <ele>1</ele>
        <time>2023-07-16T09:29:45.573+00:00</time>
      </trkpt>
      <trkpt lat="46.20319" lon="-1.3996">
        <ele>1</ele>
        <time>2023-07-16T09:29:50.242+00:00</time>
      </trkpt>
      <trkpt lat="46.20319" lon="-1.39982">
        <ele>3</ele>
        <time>2023-07-16T09:29:54.345+00:00</time>
      </trkpt>
      <trkpt lat="46.20319" lon="-1.40006">
        <ele>3</ele>
        <time>2023-07-16T09:29:59+00:00</time>
      </trkpt>
      <trkpt lat="46.20314" lon="-1.40055">
        <ele>3.1</ele>
        <time>2023-07-16T09:30:21.053+00:00</time>
      </trkpt>
      <trkpt lat="46.20312" lon="-1.40065">
        <ele>3.3</ele>
        <time>2023-07-16T09:30:25.242+00:00</time>
      </trkpt>
      <trkpt lat="46.20309" lon="-1.40087">
        <ele>1</ele>
        <time>2023-07-16T09:30:30.037+00:00</time>
      </trkpt>
      <trkpt lat="46.20308" lon="-1.40106">
        <ele>1</ele>
        <time>2023-07-16T09:30:34.213+00:00</time>
      </trkpt>
      <trkpt lat="46.20305" lon="-1.40132">
        <ele>2</ele>
        <time>2023-07-16T09:30:39.030+00:00</time>
      </trkpt>
      <trkpt lat="46.20301" lon="-1.40152">
        <ele>2</ele>
        <time>2023-07-16T09:30:42.981+00:00</time>
      </trkpt>
      <trkpt lat="46.20299" lon="-1.4018">
        <ele>1</ele>
        <time>2023-07-16T09:30:47.467+00:00</time>
      </trkpt>
      <trkpt lat="46.20298" lon="-1.40204">
        <ele>1</ele>
        <time>2023-07-16T09:30:51.448+00:00</time>
      </trkpt>
      <trkpt lat="46.20298" lon="-1.40229">
        <ele>1</ele>
        <time>2023-07-16T09:30:55.641+00:00</time>
      </trkpt>
      <trkpt lat="46.203" lon="-1.40255">
        <ele>1</ele>
        <time>2023-07-16T09:30:59.835+00:00</time>
      </trkpt>
      <trkpt lat="46.20301" lon="-1.40282">
        <ele>1</ele>
        <time>2023-07-16T09:31:04.082+00:00</time>
      </trkpt>
      <trkpt lat="46.20303" lon="-1.40309">
        <ele>1</ele>
        <time>2023-07-16T09:31:08.400+00:00</time>
      </trkpt>
      <trkpt lat="46.20303" lon="-1.40338">
        <ele>1</ele>
        <time>2023-07-16T09:31:13.072+00:00</time>
      </trkpt>
      <trkpt lat="46.203" lon="-1.4037">
        <ele>1</ele>
        <time>2023-07-16T09:31:18.086+00:00</time>
      </trkpt>
      <trkpt lat="46.20298" lon="-1.40404">
        <ele>2</ele>
        <time>2023-07-16T09:31:23.099+00:00</time>
      </trkpt>
      <trkpt lat="46.20295" lon="-1.40438">
        <ele>1</ele>
        <time>2023-07-16T09:31:28.089+00:00</time>
      </trkpt>
      <trkpt lat="46.20293" lon="-1.40472">
        <ele>1</ele>
        <time>2023-07-16T09:31:33.094+00:00</time>
      </trkpt>
      <trkpt lat="46.20295" lon="-1.40506">
        <ele>2</ele>
        <time>2023-07-16T09:31:38.084+00:00</time>
      </trkpt>
      <trkpt lat="46.20297" lon="-1.40534">
        <ele>3</ele>
        <time>2023-07-16T09:31:42.084+00:00</time>
      </trkpt>
      <trkpt lat="46.20301" lon="-1.40566">
        <ele>4</ele>
        <time>2023-07-16T09:31:47.084+00:00</time>
      </trkpt>
      <trkpt lat="46.20306" lon="-1.40595">
        <ele>3</ele>
        <time>2023-07-16T09:31:52.092+00:00</time>
      </trkpt>
      <trkpt lat="46.20311" lon="-1.40624">
        <ele>4</ele>
        <time>2023-07-16T09:31:56.866+00:00</time>
      </trkpt>
      <trkpt lat="46.20317" lon="-1.40652">
        <ele>4</ele>
        <time>2023-07-16T09:32:01.537+00:00</time>
      </trkpt>
      <trkpt lat="46.20319" lon="-1.40674">
        <ele>4</ele>
        <time>2023-07-16T09:32:05.489+00:00</time>
      </trkpt>
      <trkpt lat="46.20319" lon="-1.40696">
        <ele>4</ele>
        <time>2023-07-16T09:32:09.682+00:00</time>
      </trkpt>
      <trkpt lat="46.20317" lon="-1.40726">
        <ele>3</ele>
        <time>2023-07-16T09:32:15.071+00:00</time>
      </trkpt>
      <trkpt lat="46.20317" lon="-1.40755">
        <ele>1</ele>
        <time>2023-07-16T09:32:19.584+00:00</time>
      </trkpt>
      <trkpt lat="46.2032" lon="-1.40779">
        <ele>2</ele>
        <time>2023-07-16T09:32:23.758+00:00</time>
      </trkpt>
      <trkpt lat="46.20321" lon="-1.40809">
        <ele>-2</ele>
        <time>2023-07-16T09:32:28.913+00:00</time>
      </trkpt>
      <trkpt lat="46.20324" lon="-1.40833">
        <ele>-1</ele>
        <time>2023-07-16T09:32:32.980+00:00</time>
      </trkpt>
      <trkpt lat="46.20327" lon="-1.40859">
        <ele>-1</ele>
        <time>2023-07-16T09:32:37.172+00:00</time>
      </trkpt>
      <trkpt lat="46.20331" lon="-1.40884">
        <ele>-1</ele>
        <time>2023-07-16T09:32:41.963+00:00</time>
      </trkpt>
      <trkpt lat="46.20336" lon="-1.40904">
        <ele>-1</ele>
        <time>2023-07-16T09:32:45.915+00:00</time>
      </trkpt>
      <trkpt lat="46.20341" lon="-1.4093">
        <ele>-1</ele>
        <time>2023-07-16T09:32:50.465+00:00</time>
      </trkpt>
      <trkpt lat="46.20348" lon="-1.40956">
        <ele>1</ele>
        <time>2023-07-16T09:32:55.082+00:00</time>
      </trkpt>
      <trkpt lat="46.20354" lon="-1.40983">
        <ele>1</ele>
        <time>2023-07-16T09:32:59.562+00:00</time>
      </trkpt>
      <trkpt lat="46.2036" lon="-1.41005">
        <ele>1</ele>
        <time>2023-07-16T09:33:03.992+00:00</time>
      </trkpt>
      <trkpt lat="46.20367" lon="-1.41028">
        <ele>1</ele>
        <time>2023-07-16T09:33:08.514+00:00</time>
      </trkpt>
      <trkpt lat="46.20378" lon="-1.41049">
        <ele>1</ele>
        <time>2023-07-16T09:33:13.071+00:00</time>
      </trkpt>
      <trkpt lat="46.20385" lon="-1.4107">
        <ele>1</ele>
        <time>2023-07-16T09:33:17.071+00:00</time>
      </trkpt>
      <trkpt lat="46.2039" lon="-1.4109">
        <ele>1</ele>
        <time>2023-07-16T09:33:21.091+00:00</time>
      </trkpt>
      <trkpt lat="46.20398" lon="-1.41125">
        <ele>1</ele>
        <time>2023-07-16T09:33:26.096+00:00</time>
      </trkpt>
      <trkpt lat="46.20406" lon="-1.41158">
        <ele>1.8</ele>
        <time>2023-07-16T09:33:31.107+00:00</time>
      </trkpt>
      <trkpt lat="46.20415" lon="-1.41189">
        <ele>2.8</ele>
        <time>2023-07-16T09:33:36.072+00:00</time>
      </trkpt>
      <trkpt lat="46.20423" lon="-1.41215">
        <ele>2.3</ele>
        <time>2023-07-16T09:33:40.114+00:00</time>
      </trkpt>
      <trkpt lat="46.20432" lon="-1.41247">
        <ele>1.1</ele>
        <time>2023-07-16T09:33:45.079+00:00</time>
      </trkpt>
      <trkpt lat="46.2044" lon="-1.41272">
        <ele>1</ele>
        <time>2023-07-16T09:33:49.086+00:00</time>
      </trkpt>
      <trkpt lat="46.20446" lon="-1.41304">
        <ele>1</ele>
        <time>2023-07-16T09:33:54.081+00:00</time>
      </trkpt>
      <trkpt lat="46.20451" lon="-1.41334">
        <ele>1</ele>
        <time>2023-07-16T09:33:59.100+00:00</time>
      </trkpt>
      <trkpt lat="46.2045" lon="-1.41371">
        <ele>1</ele>
        <time>2023-07-16T09:34:04.084+00:00</time>
      </trkpt>
      <trkpt lat="46.20443" lon="-1.41395">
        <ele>1</ele>
        <time>2023-07-16T09:34:09.089+00:00</time>
      </trkpt>
      <trkpt lat="46.20436" lon="-1.41425">
        <ele>1</ele>
        <time>2023-07-16T09:34:14.086+00:00</time>
      </trkpt>
      <trkpt lat="46.20433" lon="-1.41461">
        <ele>2</ele>
        <time>2023-07-16T09:34:19.088+00:00</time>
      </trkpt>
      <trkpt lat="46.20436" lon="-1.41495">
        <ele>3</ele>
        <time>2023-07-16T09:34:24.067+00:00</time>
      </trkpt>
      <trkpt lat="46.20442" lon="-1.41529">
        <ele>2</ele>
        <time>2023-07-16T09:34:29.088+00:00</time>
      </trkpt>
      <trkpt lat="46.20449" lon="-1.41556">
        <ele>2.7</ele>
        <time>2023-07-16T09:34:34.090+00:00</time>
      </trkpt>
      <trkpt lat="46.20454" lon="-1.41583">
        <ele>1.7</ele>
        <time>2023-07-16T09:34:38.639+00:00</time>
      </trkpt>
      <trkpt lat="46.20448" lon="-1.41618">
        <ele>1</ele>
        <time>2023-07-16T09:34:44.092+00:00</time>
      </trkpt>
      <trkpt lat="46.20442" lon="-1.41652">
        <ele>1</ele>
        <time>2023-07-16T09:34:49.085+00:00</time>
      </trkpt>
      <trkpt lat="46.20436" lon="-1.41685">
        <ele>1</ele>
        <time>2023-07-16T09:34:54.093+00:00</time>
      </trkpt>
      <trkpt lat="46.20434" lon="-1.41719">
        <ele>1</ele>
        <time>2023-07-16T09:34:59.076+00:00</time>
      </trkpt>
      <trkpt lat="46.20433" lon="-1.41746">
        <ele>1</ele>
        <time>2023-07-16T09:35:03.067+00:00</time>
      </trkpt>
      <trkpt lat="46.20437" lon="-1.41782">
        <ele>1</ele>
        <time>2023-07-16T09:35:08.093+00:00</time>
      </trkpt>
      <trkpt lat="46.20442" lon="-1.4182">
        <ele>1</ele>
        <time>2023-07-16T09:35:13.104+00:00</time>
      </trkpt>
      <trkpt lat="46.20447" lon="-1.41853">
        <ele>1</ele>
        <time>2023-07-16T09:35:18.102+00:00</time>
      </trkpt>
      <trkpt lat="46.20452" lon="-1.41882">
        <ele>2.7</ele>
        <time>2023-07-16T09:35:23.099+00:00</time>
      </trkpt>
      <trkpt lat="46.20452" lon="-1.41903">
        <ele>2.9</ele>
        <time>2023-07-16T09:35:27.090+00:00</time>
      </trkpt>
      <trkpt lat="46.20451" lon="-1.41938">
        <ele>3.2</ele>
        <time>2023-07-16T09:35:32.073+00:00</time>
      </trkpt>
      <trkpt lat="46.2045" lon="-1.41964">
        <ele>-1</ele>
        <time>2023-07-16T09:35:36.077+00:00</time>
      </trkpt>
      <trkpt lat="46.20455" lon="-1.41988">
        <ele>-1</ele>
        <time>2023-07-16T09:35:40.768+00:00</time>
      </trkpt>
      <trkpt lat="46.20454" lon="-1.42018">
        <ele>2.1</ele>
        <time>2023-07-16T09:35:45.100+00:00</time>
      </trkpt>
      <trkpt lat="46.20455" lon="-1.42043">
        <ele>2.3</ele>
        <time>2023-07-16T09:35:49.218+00:00</time>
      </trkpt>
      <trkpt lat="46.20453" lon="-1.42072">
        <ele>2.4</ele>
        <time>2023-07-16T09:35:54.082+00:00</time>
      </trkpt>
      <trkpt lat="46.20452" lon="-1.42099">
        <ele>2.4</ele>
        <time>2023-07-16T09:35:58.073+00:00</time>
      </trkpt>
      <trkpt lat="46.20453" lon="-1.42134">
        <ele>3</ele>
        <time>2023-07-16T09:36:03.075+00:00</time>
      </trkpt>
      <trkpt lat="46.20455" lon="-1.42164">
        <ele>2.3</ele>
        <time>2023-07-16T09:36:08.066+00:00</time>
      </trkpt>
      <trkpt lat="46.20457" lon="-1.42184">
        <ele>1</ele>
        <time>2023-07-16T09:36:12.074+00:00</time>
      </trkpt>
      <trkpt lat="46.2046" lon="-1.42201">
        <ele>-1</ele>
        <time>2023-07-16T09:36:16.171+00:00</time>
      </trkpt>
      <trkpt lat="46.20462" lon="-1.42215">
        <ele>-1</ele>
        <time>2023-07-16T09:36:20.270+00:00</time>
      </trkpt>
      <trkpt lat="46.20463" lon="-1.42227">
        <ele>-1</ele>
        <time>2023-07-16T09:36:24.937+00:00</time>
      </trkpt>
      <trkpt lat="46.20464" lon="-1.42234">
        <ele>-1</ele>
        <time>2023-07-16T09:36:28.887+00:00</time>
      </trkpt>
      <trkpt lat="46.20467" lon="-1.42238">
        <ele>2.7</ele>
        <time>2023-07-16T09:36:33.076+00:00</time>
      </trkpt>
      <trkpt lat="46.20468" lon="-1.4226">
        <ele>3</ele>
        <time>2023-07-16T09:36:37.263+00:00</time>
      </trkpt>
      <trkpt lat="46.20473" lon="-1.42294">
        <ele>3.6</ele>
        <time>2023-07-16T09:36:42.072+00:00</time>
      </trkpt>
      <trkpt lat="46.20475" lon="-1.4232">
        <ele>-1</ele>
        <time>2023-07-16T09:36:46.112+00:00</time>
      </trkpt>
      <trkpt lat="46.20479" lon="-1.42353">
        <ele>3.3</ele>
        <time>2023-07-16T09:36:51.109+00:00</time>
      </trkpt>
      <trkpt lat="46.20482" lon="-1.42377">
        <ele>3.1</ele>
        <time>2023-07-16T09:36:55.112+00:00</time>
      </trkpt>
      <trkpt lat="46.20486" lon="-1.42407">
        <ele>1</ele>
        <time>2023-07-16T09:37:00.073+00:00</time>
      </trkpt>
      <trkpt lat="46.20486" lon="-1.42431">
        <ele>3.2</ele>
        <time>2023-07-16T09:37:04.263+00:00</time>
      </trkpt>
      <trkpt lat="46.20491" lon="-1.42453">
        <ele>-1</ele>
        <time>2023-07-16T09:37:08.334+00:00</time>
      </trkpt>
      <trkpt lat="46.20496" lon="-1.42471">
        <ele>-1</ele>
        <time>2023-07-16T09:37:12.883+00:00</time>
      </trkpt>
      <trkpt lat="46.20497" lon="-1.42485">
        <ele>-1</ele>
        <time>2023-07-16T09:37:17.070+00:00</time>
      </trkpt>
      <trkpt lat="46.20491" lon="-1.42512">
        <ele>-2</ele>
        <time>2023-07-16T09:37:21.241+00:00</time>
      </trkpt>
      <trkpt lat="46.20487" lon="-1.42538">
        <ele>-3</ele>
        <time>2023-07-16T09:37:25.910+00:00</time>
      </trkpt>
      <trkpt lat="46.20482" lon="-1.42559">
        <ele>-1</ele>
        <time>2023-07-16T09:37:30.458+00:00</time>
      </trkpt>
      <trkpt lat="46.20476" lon="-1.42578">
        <ele>3</ele>
        <time>2023-07-16T09:37:34.526+00:00</time>
      </trkpt>
      <trkpt lat="46.2048" lon="-1.42595">
        <ele>3.4</ele>
        <time>2023-07-16T09:37:39.031+00:00</time>
      </trkpt>
      <trkpt lat="46.20485" lon="-1.42613">
        <ele>1</ele>
        <time>2023-07-16T09:37:42.905+00:00</time>
      </trkpt>
      <trkpt lat="46.20492" lon="-1.4263">
        <ele>1</ele>
        <time>2023-07-16T09:37:46.853+00:00</time>
      </trkpt>
      <trkpt lat="46.20498" lon="-1.4264">
        <ele>1</ele>
        <time>2023-07-16T09:37:52.095+00:00</time>
      </trkpt>
      <trkpt lat="46.20486" lon="-1.42648">
        <ele>1</ele>
        <time>2023-07-16T09:37:56.663+00:00</time>
      </trkpt>
      <trkpt lat="46.2047" lon="-1.42667">
        <ele>3.9</ele>
        <time>2023-07-16T09:38:33.255+00:00</time>
      </trkpt>
      <trkpt lat="46.20471" lon="-1.42668">
        <ele>3.9</ele>
        <time>2023-07-16T09:38:37.923+00:00</time>
      </trkpt>
      <trkpt lat="46.20472" lon="-1.42668">
        <ele>3.9</ele>
        <time>2023-07-16T09:38:41.874+00:00</time>
      </trkpt>
      <trkpt lat="46.20472" lon="-1.42669">
        <ele>3.9</ele>
        <time>2023-07-16T09:38:46.063+00:00</time>
      </trkpt>
      <trkpt lat="46.2047" lon="-1.4267">
        <ele>3.8</ele>
        <time>2023-07-16T09:38:50.491+00:00</time>
      </trkpt>
      <trkpt lat="46.20466" lon="-1.42664">
        <ele>3.7</ele>
        <time>2023-07-16T09:39:52.049+00:00</time>
      </trkpt>
      <trkpt lat="46.20467" lon="-1.4266">
        <ele>3.6</ele>
        <time>2023-07-16T09:39:57.049+00:00</time>
      </trkpt>
      <trkpt lat="46.20469" lon="-1.4266">
        <ele>3.6</ele>
        <time>2023-07-16T09:40:01.066+00:00</time>
      </trkpt>
      <trkpt lat="46.20469" lon="-1.42659">
        <ele>3.6</ele>
        <time>2023-07-16T09:40:06.042+00:00</time>
      </trkpt>
      <trkpt lat="46.20472" lon="-1.42659">
        <ele>3.7</ele>
        <time>2023-07-16T09:40:10.050+00:00</time>
      </trkpt>
      <trkpt lat="46.20482" lon="-1.42656">
        <ele>3.7</ele>
        <time>2023-07-16T09:40:14.059+00:00</time>
      </trkpt>
      <trkpt lat="46.2049" lon="-1.42651">
        <ele>1</ele>
        <time>2023-07-16T09:40:19.047+00:00</time>
      </trkpt>
      <trkpt lat="46.20499" lon="-1.42648">
        <ele>1</ele>
        <time>2023-07-16T09:40:23.048+00:00</time>
      </trkpt>
      <trkpt lat="46.20506" lon="-1.42641">
        <ele>1</ele>
        <time>2023-07-16T09:40:27.055+00:00</time>
      </trkpt>
      <trkpt lat="46.20517" lon="-1.4264">
        <ele>1</ele>
        <time>2023-07-16T09:40:31.601+00:00</time>
      </trkpt>
      <trkpt lat="46.20531" lon="-1.42652">
        <ele>1</ele>
        <time>2023-07-16T09:40:36.615+00:00</time>
      </trkpt>
      <trkpt lat="46.20539" lon="-1.42665">
        <ele>1</ele>
        <time>2023-07-16T09:40:41.126+00:00</time>
      </trkpt>
      <trkpt lat="46.2055" lon="-1.42678">
        <ele>1</ele>
        <time>2023-07-16T09:40:45.636+00:00</time>
      </trkpt>
      <trkpt lat="46.20563" lon="-1.42691">
        <ele>1</ele>
        <time>2023-07-16T09:40:50.662+00:00</time>
      </trkpt>
      <trkpt lat="46.20571" lon="-1.42697">
        <ele>2.5</ele>
        <time>2023-07-16T09:40:55.171+00:00</time>
      </trkpt>
      <trkpt lat="46.20582" lon="-1.42706">
        <ele>2.4</ele>
        <time>2023-07-16T09:40:59.180+00:00</time>
      </trkpt>
      <trkpt lat="46.20592" lon="-1.42722">
        <ele>3.3</ele>
        <time>2023-07-16T09:41:03.790+00:00</time>
      </trkpt>
      <trkpt lat="46.20592" lon="-1.42751">
        <ele>3.6</ele>
        <time>2023-07-16T09:41:08.299+00:00</time>
      </trkpt>
      <trkpt lat="46.20588" lon="-1.42778">
        <ele>4</ele>
        <time>2023-07-16T09:41:12.809+00:00</time>
      </trkpt>
      <trkpt lat="46.20587" lon="-1.42798">
        <ele>4</ele>
        <time>2023-07-16T09:41:16.816+00:00</time>
      </trkpt>
      <trkpt lat="46.20585" lon="-1.42818">
        <ele>4</ele>
        <time>2023-07-16T09:41:21.325+00:00</time>
      </trkpt>
      <trkpt lat="46.20582" lon="-1.42835">
        <ele>4</ele>
        <time>2023-07-16T09:41:25.832+00:00</time>
      </trkpt>
      <trkpt lat="46.20576" lon="-1.42846">
        <ele>4</ele>
        <time>2023-07-16T09:41:29.842+00:00</time>
      </trkpt>
      <trkpt lat="46.20567" lon="-1.42852">
        <ele>1</ele>
        <time>2023-07-16T09:41:33.821+00:00</time>
      </trkpt>
      <trkpt lat="46.20557" lon="-1.42851">
        <ele>1</ele>
        <time>2023-07-16T09:41:38.345+00:00</time>
      </trkpt>
      <trkpt lat="46.20545" lon="-1.42855">
        <ele>1</ele>
        <time>2023-07-16T09:41:42.858+00:00</time>
      </trkpt>
      <trkpt lat="46.20532" lon="-1.42855">
        <ele>3</ele>
        <time>2023-07-16T09:41:46.914+00:00</time>
      </trkpt>
      <trkpt lat="46.20521" lon="-1.42856">
        <ele>2.8</ele>
        <time>2023-07-16T09:41:50.953+00:00</time>
      </trkpt>
      <trkpt lat="46.2051" lon="-1.42856">
        <ele>2.5</ele>
        <time>2023-07-16T09:41:54.830+00:00</time>
      </trkpt>
      <trkpt lat="46.20496" lon="-1.42849">
        <ele>2.3</ele>
        <time>2023-07-16T09:41:59.345+00:00</time>
      </trkpt>
      <trkpt lat="46.20489" lon="-1.42839">
        <ele>-1</ele>
        <time>2023-07-16T09:42:03.342+00:00</time>
      </trkpt>
      <trkpt lat="46.20482" lon="-1.42827">
        <ele>2.6</ele>
        <time>2023-07-16T09:42:07.345+00:00</time>
      </trkpt>
      <trkpt lat="46.20473" lon="-1.42814">
        <ele>-1</ele>
        <time>2023-07-16T09:42:11.912+00:00</time>
      </trkpt>
      <trkpt lat="46.20462" lon="-1.42802">
        <ele>-1</ele>
        <time>2023-07-16T09:42:16.487+00:00</time>
      </trkpt>
      <trkpt lat="46.20451" lon="-1.42798">
        <ele>2.6</ele>
        <time>2023-07-16T09:42:20.641+00:00</time>
      </trkpt>
      <trkpt lat="46.20436" lon="-1.42799">
        <ele>2.2</ele>
        <time>2023-07-16T09:42:25.096+00:00</time>
      </trkpt>
      <trkpt lat="46.20418" lon="-1.42797">
        <ele>2.3</ele>
        <time>2023-07-16T09:42:29.627+00:00</time>
      </trkpt>
      <trkpt lat="46.20395" lon="-1.42792">
        <ele>2.1</ele>
        <time>2023-07-16T09:42:34.897+00:00</time>
      </trkpt>
      <trkpt lat="46.20381" lon="-1.42792">
        <ele>1</ele>
        <time>2023-07-16T09:42:38.850+00:00</time>
      </trkpt>
      <trkpt lat="46.2037" lon="-1.42793">
        <ele>3.3</ele>
        <time>2023-07-16T09:42:42.922+00:00</time>
      </trkpt>
      <trkpt lat="46.20363" lon="-1.4281">
        <ele>3.7</ele>
        <time>2023-07-16T09:42:47.594+00:00</time>
      </trkpt>
      <trkpt lat="46.20358" lon="-1.42831">
        <ele>3.1</ele>
        <time>2023-07-16T09:42:52.745+00:00</time>
      </trkpt>
      <trkpt lat="46.20359" lon="-1.4285">
        <ele>2.9</ele>
        <time>2023-07-16T09:42:57.345+00:00</time>
      </trkpt>
      <trkpt lat="46.20377" lon="-1.42874">
        <ele>2.2</ele>
        <time>2023-07-16T09:43:02.079+00:00</time>
      </trkpt>
      <trkpt lat="46.20394" lon="-1.42892">
        <ele>1</ele>
        <time>2023-07-16T09:43:06.098+00:00</time>
      </trkpt>
      <trkpt lat="46.20409" lon="-1.42909">
        <ele>2.6</ele>
        <time>2023-07-16T09:43:10.897+00:00</time>
      </trkpt>
      <trkpt lat="46.20424" lon="-1.42924">
        <ele>2.6</ele>
        <time>2023-07-16T09:43:15.687+00:00</time>
      </trkpt>
      <trkpt lat="46.20437" lon="-1.42937">
        <ele>1</ele>
        <time>2023-07-16T09:43:19.877+00:00</time>
      </trkpt>
      <trkpt lat="46.20458" lon="-1.42957">
        <ele>1</ele>
        <time>2023-07-16T09:43:25.098+00:00</time>
      </trkpt>
      <trkpt lat="46.20474" lon="-1.42984">
        <ele>2</ele>
        <time>2023-07-16T09:43:30.101+00:00</time>
      </trkpt>
      <trkpt lat="46.20484" lon="-1.43007">
        <ele>2</ele>
        <time>2023-07-16T09:43:34.110+00:00</time>
      </trkpt>
      <trkpt lat="46.20497" lon="-1.43034">
        <ele>2</ele>
        <time>2023-07-16T09:43:39.079+00:00</time>
      </trkpt>
      <trkpt lat="46.20506" lon="-1.43061">
        <ele>2</ele>
        <time>2023-07-16T09:43:44.088+00:00</time>
      </trkpt>
      <trkpt lat="46.2051" lon="-1.43088">
        <ele>2</ele>
        <time>2023-07-16T09:43:48.113+00:00</time>
      </trkpt>
      <trkpt lat="46.20509" lon="-1.43121">
        <ele>2</ele>
        <time>2023-07-16T09:43:53.089+00:00</time>
      </trkpt>
      <trkpt lat="46.20505" lon="-1.43146">
        <ele>2</ele>
        <time>2023-07-16T09:43:57.506+00:00</time>
      </trkpt>
      <trkpt lat="46.20497" lon="-1.43166">
        <ele>3</ele>
        <time>2023-07-16T09:44:01.678+00:00</time>
      </trkpt>
      <trkpt lat="46.20489" lon="-1.43193">
        <ele>3</ele>
        <time>2023-07-16T09:44:06.441+00:00</time>
      </trkpt>
      <trkpt lat="46.20501" lon="-1.43217">
        <ele>3</ele>
        <time>2023-07-16T09:44:11.089+00:00</time>
      </trkpt>
      <trkpt lat="46.20514" lon="-1.43241">
        <ele>2</ele>
        <time>2023-07-16T09:44:15.107+00:00</time>
      </trkpt>
      <trkpt lat="46.20526" lon="-1.43273">
        <ele>2</ele>
        <time>2023-07-16T09:44:20.104+00:00</time>
      </trkpt>
      <trkpt lat="46.20538" lon="-1.43302">
        <ele>2</ele>
        <time>2023-07-16T09:44:25.088+00:00</time>
      </trkpt>
      <trkpt lat="46.20549" lon="-1.43333">
        <ele>2</ele>
        <time>2023-07-16T09:44:30.089+00:00</time>
      </trkpt>
      <trkpt lat="46.20559" lon="-1.43358">
        <ele>2</ele>
        <time>2023-07-16T09:44:34.097+00:00</time>
      </trkpt>
      <trkpt lat="46.2057" lon="-1.43387">
        <ele>2</ele>
        <time>2023-07-16T09:44:39.087+00:00</time>
      </trkpt>
      <trkpt lat="46.20581" lon="-1.43418">
        <ele>3</ele>
        <time>2023-07-16T09:44:44.072+00:00</time>
      </trkpt>
      <trkpt lat="46.20589" lon="-1.43443">
        <ele>3</ele>
        <time>2023-07-16T09:44:48.109+00:00</time>
      </trkpt>
      <trkpt lat="46.206" lon="-1.43474">
        <ele>3</ele>
        <time>2023-07-16T09:44:53.087+00:00</time>
      </trkpt>
      <trkpt lat="46.2061" lon="-1.43504">
        <ele>2</ele>
        <time>2023-07-16T09:44:58.097+00:00</time>
      </trkpt>
      <trkpt lat="46.20622" lon="-1.43534">
        <ele>1</ele>
        <time>2023-07-16T09:45:03.099+00:00</time>
      </trkpt>
      <trkpt lat="46.20634" lon="-1.43564">
        <ele>1</ele>
        <time>2023-07-16T09:45:08.100+00:00</time>
      </trkpt>
      <trkpt lat="46.20647" lon="-1.43593">
        <ele>1</ele>
        <time>2023-07-16T09:45:13.098+00:00</time>
      </trkpt>
      <trkpt lat="46.20658" lon="-1.43614">
        <ele>1</ele>
        <time>2023-07-16T09:45:17.098+00:00</time>
      </trkpt>
      <trkpt lat="46.20671" lon="-1.43645">
        <ele>2.7</ele>
        <time>2023-07-16T09:45:22.087+00:00</time>
      </trkpt>
      <trkpt lat="46.2068" lon="-1.43676">
        <ele>1</ele>
        <time>2023-07-16T09:45:27.066+00:00</time>
      </trkpt>
      <trkpt lat="46.20689" lon="-1.437">
        <ele>2</ele>
        <time>2023-07-16T09:45:31.093+00:00</time>
      </trkpt>
      <trkpt lat="46.20702" lon="-1.43727">
        <ele>2</ele>
        <time>2023-07-16T09:45:36.062+00:00</time>
      </trkpt>
      <trkpt lat="46.20714" lon="-1.43751">
        <ele>1</ele>
        <time>2023-07-16T09:45:40.091+00:00</time>
      </trkpt>
      <trkpt lat="46.20727" lon="-1.4378">
        <ele>1</ele>
        <time>2023-07-16T09:45:45.079+00:00</time>
      </trkpt>
      <trkpt lat="46.20736" lon="-1.43804">
        <ele>1</ele>
        <time>2023-07-16T09:45:49.109+00:00</time>
      </trkpt>
      <trkpt lat="46.20749" lon="-1.43833">
        <ele>1</ele>
        <time>2023-07-16T09:45:54.065+00:00</time>
      </trkpt>
      <trkpt lat="46.20759" lon="-1.43856">
        <ele>2</ele>
        <time>2023-07-16T09:45:58.101+00:00</time>
      </trkpt>
      <trkpt lat="46.20767" lon="-1.43876">
        <ele>2</ele>
        <time>2023-07-16T09:46:02.121+00:00</time>
      </trkpt>
      <trkpt lat="46.2078" lon="-1.43904">
        <ele>2</ele>
        <time>2023-07-16T09:46:07.099+00:00</time>
      </trkpt>
      <trkpt lat="46.20791" lon="-1.4393">
        <ele>2</ele>
        <time>2023-07-16T09:46:11.652+00:00</time>
      </trkpt>
      <trkpt lat="46.20804" lon="-1.43958">
        <ele>1</ele>
        <time>2023-07-16T09:46:17.083+00:00</time>
      </trkpt>
      <trkpt lat="46.20813" lon="-1.43979">
        <ele>1</ele>
        <time>2023-07-16T09:46:21.084+00:00</time>
      </trkpt>
      <trkpt lat="46.2082" lon="-1.43999">
        <ele>2</ele>
        <time>2023-07-16T09:46:24.627+00:00</time>
      </trkpt>
      <trkpt lat="46.20829" lon="-1.4402">
        <ele>1</ele>
        <time>2023-07-16T09:46:29.090+00:00</time>
      </trkpt>
      <trkpt lat="46.20837" lon="-1.44041">
        <ele>1</ele>
        <time>2023-07-16T09:46:33.244+00:00</time>
      </trkpt>
      <trkpt lat="46.20843" lon="-1.44059">
        <ele>2</ele>
        <time>2023-07-16T09:46:37.433+00:00</time>
      </trkpt>
      <trkpt lat="46.20849" lon="-1.4408">
        <ele>2</ele>
        <time>2023-07-16T09:46:42.101+00:00</time>
      </trkpt>
      <trkpt lat="46.20845" lon="-1.44099">
        <ele>2</ele>
        <time>2023-07-16T09:46:46.648+00:00</time>
      </trkpt>
      <trkpt lat="46.20831" lon="-1.44117">
        <ele>2</ele>
        <time>2023-07-16T09:46:51.072+00:00</time>
      </trkpt>
      <trkpt lat="46.20817" lon="-1.44134">
        <ele>2</ele>
        <time>2023-07-16T09:46:55.098+00:00</time>
      </trkpt>
      <trkpt lat="46.208" lon="-1.44157">
        <ele>1</ele>
        <time>2023-07-16T09:47:00.101+00:00</time>
      </trkpt>
      <trkpt lat="46.20787" lon="-1.44178">
        <ele>2.6</ele>
        <time>2023-07-16T09:47:04.112+00:00</time>
      </trkpt>
      <trkpt lat="46.20775" lon="-1.44203">
        <ele>1</ele>
        <time>2023-07-16T09:47:09.103+00:00</time>
      </trkpt>
      <trkpt lat="46.20762" lon="-1.44221">
        <ele>2</ele>
        <time>2023-07-16T09:47:13.751+00:00</time>
      </trkpt>
      <trkpt lat="46.20751" lon="-1.44242">
        <ele>2.7</ele>
        <time>2023-07-16T09:47:17.783+00:00</time>
      </trkpt>
      <trkpt lat="46.20742" lon="-1.44259">
        <ele>2.6</ele>
        <time>2023-07-16T09:47:21.855+00:00</time>
      </trkpt>
      <trkpt lat="46.2073" lon="-1.44277">
        <ele>1</ele>
        <time>2023-07-16T09:47:26.095+00:00</time>
      </trkpt>
      <trkpt lat="46.20715" lon="-1.44296">
        <ele>1</ele>
        <time>2023-07-16T09:47:30.124+00:00</time>
      </trkpt>
      <trkpt lat="46.20698" lon="-1.44315">
        <ele>1</ele>
        <time>2023-07-16T09:47:34.903+00:00</time>
      </trkpt>
      <trkpt lat="46.20679" lon="-1.44337">
        <ele>1</ele>
        <time>2023-07-16T09:47:40.103+00:00</time>
      </trkpt>
      <trkpt lat="46.20664" lon="-1.44354">
        <ele>1</ele>
        <time>2023-07-16T09:47:44.118+00:00</time>
      </trkpt>
      <trkpt lat="46.20648" lon="-1.44375">
        <ele>1</ele>
        <time>2023-07-16T09:47:49.095+00:00</time>
      </trkpt>
      <trkpt lat="46.20639" lon="-1.44393">
        <ele>1</ele>
        <time>2023-07-16T09:47:53.500+00:00</time>
      </trkpt>
      <trkpt lat="46.20633" lon="-1.44407">
        <ele>2</ele>
        <time>2023-07-16T09:47:58.048+00:00</time>
      </trkpt>
      <trkpt lat="46.20641" lon="-1.44418">
        <ele>2</ele>
        <time>2023-07-16T09:48:27.043+00:00</time>
      </trkpt>
      <trkpt lat="46.20648" lon="-1.44435">
        <ele>2</ele>
        <time>2023-07-16T09:48:31.056+00:00</time>
      </trkpt>
      <trkpt lat="46.20659" lon="-1.44466">
        <ele>2</ele>
        <time>2023-07-16T09:48:36.059+00:00</time>
      </trkpt>
      <trkpt lat="46.20669" lon="-1.44498">
        <ele>2</ele>
        <time>2023-07-16T09:48:41.054+00:00</time>
      </trkpt>
      <trkpt lat="46.20679" lon="-1.44531">
        <ele>1</ele>
        <time>2023-07-16T09:48:46.041+00:00</time>
      </trkpt>
      <trkpt lat="46.20688" lon="-1.44557">
        <ele>2</ele>
        <time>2023-07-16T09:48:50.062+00:00</time>
      </trkpt>
      <trkpt lat="46.20698" lon="-1.44588">
        <ele>1</ele>
        <time>2023-07-16T09:48:55.062+00:00</time>
      </trkpt>
      <trkpt lat="46.20707" lon="-1.44622">
        <ele>1</ele>
        <time>2023-07-16T09:49:00.057+00:00</time>
      </trkpt>
      <trkpt lat="46.20718" lon="-1.44653">
        <ele>1</ele>
        <time>2023-07-16T09:49:05.052+00:00</time>
      </trkpt>
      <trkpt lat="46.20728" lon="-1.44684">
        <ele>1</ele>
        <time>2023-07-16T09:49:10.049+00:00</time>
      </trkpt>
      <trkpt lat="46.20737" lon="-1.4471">
        <ele>2</ele>
        <time>2023-07-16T09:49:14.068+00:00</time>
      </trkpt>
      <trkpt lat="46.20748" lon="-1.44742">
        <ele>2</ele>
        <time>2023-07-16T09:49:19.065+00:00</time>
      </trkpt>
      <trkpt lat="46.20759" lon="-1.44773">
        <ele>2</ele>
        <time>2023-07-16T09:49:24.047+00:00</time>
      </trkpt>
      <trkpt lat="46.20769" lon="-1.44807">
        <ele>1</ele>
        <time>2023-07-16T09:49:29.049+00:00</time>
      </trkpt>
      <trkpt lat="46.20777" lon="-1.4483">
        <ele>2</ele>
        <time>2023-07-16T09:49:33.064+00:00</time>
      </trkpt>
      <trkpt lat="46.20785" lon="-1.44855">
        <ele>2</ele>
        <time>2023-07-16T09:49:37.057+00:00</time>
      </trkpt>
      <trkpt lat="46.20795" lon="-1.44888">
        <ele>3</ele>
        <time>2023-07-16T09:49:42.055+00:00</time>
      </trkpt>
      <trkpt lat="46.20804" lon="-1.44916">
        <ele>2</ele>
        <time>2023-07-16T09:49:46.062+00:00</time>
      </trkpt>
      <trkpt lat="46.20817" lon="-1.44956">
        <ele>2</ele>
        <time>2023-07-16T09:49:51.072+00:00</time>
      </trkpt>
      <trkpt lat="46.2083" lon="-1.44995">
        <ele>2</ele>
        <time>2023-07-16T09:49:56.061+00:00</time>
      </trkpt>
      <trkpt lat="46.2084" lon="-1.45025">
        <ele>2</ele>
        <time>2023-07-16T09:50:00.050+00:00</time>
      </trkpt>
      <trkpt lat="46.20852" lon="-1.45063">
        <ele>2.2</ele>
        <time>2023-07-16T09:50:05.058+00:00</time>
      </trkpt>
      <trkpt lat="46.2086" lon="-1.45089">
        <ele>2.8</ele>
        <time>2023-07-16T09:50:09.056+00:00</time>
      </trkpt>
      <trkpt lat="46.20871" lon="-1.45121">
        <ele>2.1</ele>
        <time>2023-07-16T09:50:14.061+00:00</time>
      </trkpt>
      <trkpt lat="46.20883" lon="-1.45157">
        <ele>2.8</ele>
        <time>2023-07-16T09:50:19.047+00:00</time>
      </trkpt>
      <trkpt lat="46.20894" lon="-1.45189">
        <ele>2.2</ele>
        <time>2023-07-16T09:50:23.062+00:00</time>
      </trkpt>
      <trkpt lat="46.20904" lon="-1.45219">
        <ele>1</ele>
        <time>2023-07-16T09:50:27.078+00:00</time>
      </trkpt>
      <trkpt lat="46.20919" lon="-1.45259">
        <ele>1</ele>
        <time>2023-07-16T09:50:32.081+00:00</time>
      </trkpt>
      <trkpt lat="46.20931" lon="-1.45293">
        <ele>1</ele>
        <time>2023-07-16T09:50:37.068+00:00</time>
      </trkpt>
      <trkpt lat="46.2094" lon="-1.45321">
        <ele>1</ele>
        <time>2023-07-16T09:50:41.066+00:00</time>
      </trkpt>
      <trkpt lat="46.20948" lon="-1.45345">
        <ele>1</ele>
        <time>2023-07-16T09:50:45.087+00:00</time>
      </trkpt>
      <trkpt lat="46.20956" lon="-1.45372">
        <ele>1</ele>
        <time>2023-07-16T09:50:50.075+00:00</time>
      </trkpt>
      <trkpt lat="46.20961" lon="-1.45394">
        <ele>2</ele>
        <time>2023-07-16T09:50:54.095+00:00</time>
      </trkpt>
      <trkpt lat="46.20966" lon="-1.45419">
        <ele>1</ele>
        <time>2023-07-16T09:50:58.634+00:00</time>
      </trkpt>
      <trkpt lat="46.20975" lon="-1.4544">
        <ele>1</ele>
        <time>2023-07-16T09:51:02.826+00:00</time>
      </trkpt>
      <trkpt lat="46.20985" lon="-1.45467">
        <ele>2</ele>
        <time>2023-07-16T09:51:07.618+00:00</time>
      </trkpt>
      <trkpt lat="46.20993" lon="-1.45495">
        <ele>3</ele>
        <time>2023-07-16T09:51:13.011+00:00</time>
      </trkpt>
      <trkpt lat="46.21001" lon="-1.45518">
        <ele>3</ele>
        <time>2023-07-16T09:51:17.063+00:00</time>
      </trkpt>
      <trkpt lat="46.21011" lon="-1.45547">
        <ele>1</ele>
        <time>2023-07-16T09:51:22.064+00:00</time>
      </trkpt>
      <trkpt lat="46.21018" lon="-1.45572">
        <ele>2.4</ele>
        <time>2023-07-16T09:51:26.072+00:00</time>
      </trkpt>
      <trkpt lat="46.21025" lon="-1.45594">
        <ele>2.9</ele>
        <time>2023-07-16T09:51:30.076+00:00</time>
      </trkpt>
      <trkpt lat="46.21034" lon="-1.45621">
        <ele>2.5</ele>
        <time>2023-07-16T09:51:35.044+00:00</time>
      </trkpt>
      <trkpt lat="46.21038" lon="-1.45648">
        <ele>1</ele>
        <time>2023-07-16T09:51:39.499+00:00</time>
      </trkpt>
      <trkpt lat="46.21044" lon="-1.45672">
        <ele>3</ele>
        <time>2023-07-16T09:51:43.573+00:00</time>
      </trkpt>
      <trkpt lat="46.21048" lon="-1.45697">
        <ele>2</ele>
        <time>2023-07-16T09:51:47.643+00:00</time>
      </trkpt>
      <trkpt lat="46.21052" lon="-1.45723">
        <ele>2</ele>
        <time>2023-07-16T09:51:52.080+00:00</time>
      </trkpt>
      <trkpt lat="46.21057" lon="-1.45749">
        <ele>2</ele>
        <time>2023-07-16T09:51:56.105+00:00</time>
      </trkpt>
      <trkpt lat="46.21064" lon="-1.45784">
        <ele>2</ele>
        <time>2023-07-16T09:52:01.097+00:00</time>
      </trkpt>
      <trkpt lat="46.2107" lon="-1.45818">
        <ele>1</ele>
        <time>2023-07-16T09:52:06.096+00:00</time>
      </trkpt>
      <trkpt lat="46.21077" lon="-1.45851">
        <ele>2</ele>
        <time>2023-07-16T09:52:11.107+00:00</time>
      </trkpt>
      <trkpt lat="46.21081" lon="-1.45885">
        <ele>-1</ele>
        <time>2023-07-16T09:52:16.082+00:00</time>
      </trkpt>
      <trkpt lat="46.21085" lon="-1.45911">
        <ele>-1</ele>
        <time>2023-07-16T09:52:20.092+00:00</time>
      </trkpt>
      <trkpt lat="46.21088" lon="-1.45939">
        <ele>1</ele>
        <time>2023-07-16T09:52:24.102+00:00</time>
      </trkpt>
      <trkpt lat="46.21093" lon="-1.45957">
        <ele>1</ele>
        <time>2023-07-16T09:52:29.107+00:00</time>
      </trkpt>
      <trkpt lat="46.21097" lon="-1.45966">
        <ele>1</ele>
        <time>2023-07-16T09:52:33.280+00:00</time>
      </trkpt>
      <trkpt lat="46.21101" lon="-1.45979">
        <ele>2.7</ele>
        <time>2023-07-16T09:52:37.828+00:00</time>
      </trkpt>
      <trkpt lat="46.21104" lon="-1.45995">
        <ele>1</ele>
        <time>2023-07-16T09:52:41.777+00:00</time>
      </trkpt>
      <trkpt lat="46.21107" lon="-1.46007">
        <ele>1</ele>
        <time>2023-07-16T09:52:46.089+00:00</time>
      </trkpt>
      <trkpt lat="46.21115" lon="-1.4602">
        <ele>1</ele>
        <time>2023-07-16T09:52:51.092+00:00</time>
      </trkpt>
      <trkpt lat="46.21121" lon="-1.46032">
        <ele>1</ele>
        <time>2023-07-16T09:52:55.104+00:00</time>
      </trkpt>
      <trkpt lat="46.21122" lon="-1.4606">
        <ele>3</ele>
        <time>2023-07-16T09:53:00.084+00:00</time>
      </trkpt>
      <trkpt lat="46.21121" lon="-1.46084">
        <ele>3</ele>
        <time>2023-07-16T09:53:03.678+00:00</time>
      </trkpt>
      <trkpt lat="46.21123" lon="-1.4612">
        <ele>-1</ele>
        <time>2023-07-16T09:53:09.082+00:00</time>
      </trkpt>
      <trkpt lat="46.21123" lon="-1.46155">
        <ele>1</ele>
        <time>2023-07-16T09:53:14.070+00:00</time>
      </trkpt>
      <trkpt lat="46.21118" lon="-1.46181">
        <ele>1</ele>
        <time>2023-07-16T09:53:18.071+00:00</time>
      </trkpt>
      <trkpt lat="46.21111" lon="-1.46212">
        <ele>2</ele>
        <time>2023-07-16T09:53:23.090+00:00</time>
      </trkpt>
      <trkpt lat="46.21106" lon="-1.46238">
        <ele>1</ele>
        <time>2023-07-16T09:53:27.098+00:00</time>
      </trkpt>
      <trkpt lat="46.211" lon="-1.46271">
        <ele>1</ele>
        <time>2023-07-16T09:53:32.096+00:00</time>
      </trkpt>
      <trkpt lat="46.21094" lon="-1.46299">
        <ele>1</ele>
        <time>2023-07-16T09:53:37.084+00:00</time>
      </trkpt>
      <trkpt lat="46.21089" lon="-1.46328">
        <ele>1</ele>
        <time>2023-07-16T09:53:42.070+00:00</time>
      </trkpt>
      <trkpt lat="46.21085" lon="-1.46352">
        <ele>1</ele>
        <time>2023-07-16T09:53:46.090+00:00</time>
      </trkpt>
      <trkpt lat="46.2108" lon="-1.46386">
        <ele>1</ele>
        <time>2023-07-16T09:53:51.098+00:00</time>
      </trkpt>
      <trkpt lat="46.21076" lon="-1.46415">
        <ele>1</ele>
        <time>2023-07-16T09:53:55.094+00:00</time>
      </trkpt>
      <trkpt lat="46.21073" lon="-1.46445">
        <ele>1</ele>
        <time>2023-07-16T09:54:00.055+00:00</time>
      </trkpt>
      <trkpt lat="46.2107" lon="-1.46476">
        <ele>2</ele>
        <time>2023-07-16T09:54:04.952+00:00</time>
      </trkpt>
      <trkpt lat="46.21069" lon="-1.46504">
        <ele>2</ele>
        <time>2023-07-16T09:54:09.079+00:00</time>
      </trkpt>
      <trkpt lat="46.21067" lon="-1.46537">
        <ele>2</ele>
        <time>2023-07-16T09:54:14.060+00:00</time>
      </trkpt>
      <trkpt lat="46.21064" lon="-1.46564">
        <ele>1</ele>
        <time>2023-07-16T09:54:18.068+00:00</time>
      </trkpt>
      <trkpt lat="46.21062" lon="-1.46592">
        <ele>1</ele>
        <time>2023-07-16T09:54:22.093+00:00</time>
      </trkpt>
      <trkpt lat="46.21059" lon="-1.46627">
        <ele>1</ele>
        <time>2023-07-16T09:54:27.082+00:00</time>
      </trkpt>
      <trkpt lat="46.21056" lon="-1.46662">
        <ele>1</ele>
        <time>2023-07-16T09:54:32.093+00:00</time>
      </trkpt>
      <trkpt lat="46.2105" lon="-1.46695">
        <ele>1</ele>
        <time>2023-07-16T09:54:37.079+00:00</time>
      </trkpt>
      <trkpt lat="46.21042" lon="-1.46722">
        <ele>2</ele>
        <time>2023-07-16T09:54:42.110+00:00</time>
      </trkpt>
      <trkpt lat="46.2103" lon="-1.46752">
        <ele>2</ele>
        <time>2023-07-16T09:54:47.105+00:00</time>
      </trkpt>
      <trkpt lat="46.21017" lon="-1.46773">
        <ele>2</ele>
        <time>2023-07-16T09:54:51.102+00:00</time>
      </trkpt>
      <trkpt lat="46.21004" lon="-1.468">
        <ele>1</ele>
        <time>2023-07-16T09:54:56.094+00:00</time>
      </trkpt>
      <trkpt lat="46.20996" lon="-1.46831">
        <ele>1</ele>
        <time>2023-07-16T09:55:01.100+00:00</time>
      </trkpt>
      <trkpt lat="46.20983" lon="-1.46848">
        <ele>2</ele>
        <time>2023-07-16T09:55:05.100+00:00</time>
      </trkpt>
      <trkpt lat="46.20966" lon="-1.46867">
        <ele>2</ele>
        <time>2023-07-16T09:55:10.109+00:00</time>
      </trkpt>
      <trkpt lat="46.20961" lon="-1.46874">
        <ele>2</ele>
        <time>2023-07-16T09:56:25.872+00:00</time>
      </trkpt>
      <trkpt lat="46.20941" lon="-1.46879">
        <ele>2</ele>
        <time>2023-07-16T09:56:30.660+00:00</time>
      </trkpt>
      <trkpt lat="46.20925" lon="-1.46895">
        <ele>1</ele>
        <time>2023-07-16T09:56:35.097+00:00</time>
      </trkpt>
      <trkpt lat="46.20908" lon="-1.46911">
        <ele>1</ele>
        <time>2023-07-16T09:56:39.116+00:00</time>
      </trkpt>
      <trkpt lat="46.20889" lon="-1.46925">
        <ele>1</ele>
        <time>2023-07-16T09:56:44.090+00:00</time>
      </trkpt>
      <trkpt lat="46.20871" lon="-1.46938">
        <ele>1</ele>
        <time>2023-07-16T09:56:48.089+00:00</time>
      </trkpt>
      <trkpt lat="46.2085" lon="-1.46954">
        <ele>1</ele>
        <time>2023-07-16T09:56:53.081+00:00</time>
      </trkpt>
      <trkpt lat="46.20833" lon="-1.46968">
        <ele>1</ele>
        <time>2023-07-16T09:56:57.110+00:00</time>
      </trkpt>
      <trkpt lat="46.20815" lon="-1.4698">
        <ele>1</ele>
        <time>2023-07-16T09:57:01.112+00:00</time>
      </trkpt>
      <trkpt lat="46.20794" lon="-1.46997">
        <ele>1</ele>
        <time>2023-07-16T09:57:06.094+00:00</time>
      </trkpt>
      <trkpt lat="46.20775" lon="-1.47015">
        <ele>1</ele>
        <time>2023-07-16T09:57:11.081+00:00</time>
      </trkpt>
      <trkpt lat="46.20759" lon="-1.47029">
        <ele>1</ele>
        <time>2023-07-16T09:57:15.105+00:00</time>
      </trkpt>
      <trkpt lat="46.20737" lon="-1.47045">
        <ele>1</ele>
        <time>2023-07-16T09:57:20.077+00:00</time>
      </trkpt>
      <trkpt lat="46.20721" lon="-1.47051">
        <ele>2.9</ele>
        <time>2023-07-16T09:57:24.069+00:00</time>
      </trkpt>
      <trkpt lat="46.20696" lon="-1.47054">
        <ele>-1</ele>
        <time>2023-07-16T09:57:29.090+00:00</time>
      </trkpt>
      <trkpt lat="46.20673" lon="-1.47063">
        <ele>2.9</ele>
        <time>2023-07-16T09:57:34.095+00:00</time>
      </trkpt>
      <trkpt lat="46.20656" lon="-1.4707">
        <ele>2.5</ele>
        <time>2023-07-16T09:57:38.088+00:00</time>
      </trkpt>
      <trkpt lat="46.2064" lon="-1.47082">
        <ele>1</ele>
        <time>2023-07-16T09:57:42.788+00:00</time>
      </trkpt>
      <trkpt lat="46.20621" lon="-1.47094">
        <ele>3</ele>
        <time>2023-07-16T09:57:47.452+00:00</time>
      </trkpt>
      <trkpt lat="46.20617" lon="-1.47104">
        <ele>3</ele>
        <time>2023-07-16T09:57:51.619+00:00</time>
      </trkpt>
      <trkpt lat="46.20606" lon="-1.47111">
        <ele>3</ele>
        <time>2023-07-16T09:57:56.860+00:00</time>
      </trkpt>
      <trkpt lat="46.20596" lon="-1.4712">
        <ele>4</ele>
        <time>2023-07-16T09:58:01.043+00:00</time>
      </trkpt>
      <trkpt lat="46.20591" lon="-1.47133">
        <ele>3</ele>
        <time>2023-07-16T09:58:05.825+00:00</time>
      </trkpt>
      <trkpt lat="46.20593" lon="-1.47141">
        <ele>3</ele>
        <time>2023-07-16T09:58:11.092+00:00</time>
      </trkpt>
      <trkpt lat="46.20593" lon="-1.47143">
        <ele>3</ele>
        <time>2023-07-16T09:58:15.625+00:00</time>
      </trkpt>
      <trkpt lat="46.20581" lon="-1.47171">
        <ele>3</ele>
        <time>2023-07-16T09:59:12.080+00:00</time>
      </trkpt>
      <trkpt lat="46.20581" lon="-1.47171">
        <ele>3</ele>
        <time>2023-07-16T09:59:16.084+00:00</time>
      </trkpt>
      <trkpt lat="46.20581" lon="-1.47172">
        <ele>3</ele>
        <time>2023-07-16T09:59:20.103+00:00</time>
      </trkpt>
      <trkpt lat="46.20581" lon="-1.47173">
        <ele>3</ele>
        <time>2023-07-16T09:59:25.109+00:00</time>
      </trkpt>
      <trkpt lat="46.2058" lon="-1.47173">
        <ele>3</ele>
        <time>2023-07-16T09:59:30.098+00:00</time>
      </trkpt>
      <trkpt lat="46.20584" lon="-1.47174">
        <ele>3</ele>
        <time>2023-07-16T10:00:48.096+00:00</time>
      </trkpt>
      <trkpt lat="46.20588" lon="-1.47181">
        <ele>3</ele>
        <time>2023-07-16T10:00:52.091+00:00</time>
      </trkpt>
      <trkpt lat="46.20591" lon="-1.47192">
        <ele>3</ele>
        <time>2023-07-16T10:00:56.583+00:00</time>
      </trkpt>
      <trkpt lat="46.20593" lon="-1.47208">
        <ele>3</ele>
        <time>2023-07-16T10:01:00.650+00:00</time>
      </trkpt>
      <trkpt lat="46.20603" lon="-1.47217">
        <ele>3</ele>
        <time>2023-07-16T10:01:06.031+00:00</time>
      </trkpt>
      <trkpt lat="46.20614" lon="-1.47224">
        <ele>3</ele>
        <time>2023-07-16T10:01:10.094+00:00</time>
      </trkpt>
      <trkpt lat="46.20628" lon="-1.47238">
        <ele>3</ele>
        <time>2023-07-16T10:01:14.281+00:00</time>
      </trkpt>
      <trkpt lat="46.20642" lon="-1.47261">
        <ele>3</ele>
        <time>2023-07-16T10:01:19.064+00:00</time>
      </trkpt>
      <trkpt lat="46.20656" lon="-1.47286">
        <ele>3</ele>
        <time>2023-07-16T10:01:23.848+00:00</time>
      </trkpt>
      <trkpt lat="46.20667" lon="-1.47298">
        <ele>3</ele>
        <time>2023-07-16T10:01:28.036+00:00</time>
      </trkpt>
      <trkpt lat="46.20678" lon="-1.47305">
        <ele>3</ele>
        <time>2023-07-16T10:01:32.085+00:00</time>
      </trkpt>
      <trkpt lat="46.2069" lon="-1.47321">
        <ele>2</ele>
        <time>2023-07-16T10:01:35.694+00:00</time>
      </trkpt>
      <trkpt lat="46.20704" lon="-1.47351">
        <ele>2</ele>
        <time>2023-07-16T10:01:40.838+00:00</time>
      </trkpt>
      <trkpt lat="46.20718" lon="-1.47375">
        <ele>2</ele>
        <time>2023-07-16T10:01:45.622+00:00</time>
      </trkpt>
      <trkpt lat="46.20709" lon="-1.47387">
        <ele>2</ele>
        <time>2023-07-16T10:01:49.685+00:00</time>
      </trkpt>
      <trkpt lat="46.20694" lon="-1.47396">
        <ele>2</ele>
        <time>2023-07-16T10:01:53.870+00:00</time>
      </trkpt>
      <trkpt lat="46.20675" lon="-1.47404">
        <ele>1</ele>
        <time>2023-07-16T10:01:58.654+00:00</time>
      </trkpt>
      <trkpt lat="46.20656" lon="-1.47409">
        <ele>1</ele>
        <time>2023-07-16T10:02:03.091+00:00</time>
      </trkpt>
      <trkpt lat="46.20637" lon="-1.47414">
        <ele>1</ele>
        <time>2023-07-16T10:02:07.099+00:00</time>
      </trkpt>
      <trkpt lat="46.2062" lon="-1.47418">
        <ele>1</ele>
        <time>2023-07-16T10:02:11.245+00:00</time>
      </trkpt>
      <trkpt lat="46.20602" lon="-1.47428">
        <ele>1</ele>
        <time>2023-07-16T10:02:15.428+00:00</time>
      </trkpt>
      <trkpt lat="46.20589" lon="-1.47434">
        <ele>2</ele>
        <time>2023-07-16T10:02:19.494+00:00</time>
      </trkpt>
      <trkpt lat="46.20572" lon="-1.47442">
        <ele>2</ele>
        <time>2023-07-16T10:02:23.678+00:00</time>
      </trkpt>
      <trkpt lat="46.20552" lon="-1.47461">
        <ele>1</ele>
        <time>2023-07-16T10:02:28.076+00:00</time>
      </trkpt>
      <trkpt lat="46.20541" lon="-1.4748">
        <ele>1</ele>
        <time>2023-07-16T10:02:31.847+00:00</time>
      </trkpt>
      <trkpt lat="46.20527" lon="-1.47511">
        <ele>2</ele>
        <time>2023-07-16T10:02:37.058+00:00</time>
      </trkpt>
      <trkpt lat="46.20515" lon="-1.47532">
        <ele>2.1</ele>
        <time>2023-07-16T10:02:41.074+00:00</time>
      </trkpt>
      <trkpt lat="46.20501" lon="-1.47559">
        <ele>1</ele>
        <time>2023-07-16T10:02:46.075+00:00</time>
      </trkpt>
      <trkpt lat="46.20492" lon="-1.47575">
        <ele>1</ele>
        <time>2023-07-16T10:02:50.086+00:00</time>
      </trkpt>
      <trkpt lat="46.20484" lon="-1.47586">
        <ele>3</ele>
        <time>2023-07-16T10:02:53.740+00:00</time>
      </trkpt>
      <trkpt lat="46.20471" lon="-1.47602">
        <ele>2</ele>
        <time>2023-07-16T10:02:58.878+00:00</time>
      </trkpt>
      <trkpt lat="46.20458" lon="-1.47625">
        <ele>2</ele>
        <time>2023-07-16T10:03:03.659+00:00</time>
      </trkpt>
      <trkpt lat="46.20448" lon="-1.47654">
        <ele>2</ele>
        <time>2023-07-16T10:03:08.068+00:00</time>
      </trkpt>
      <trkpt lat="46.2044" lon="-1.47687">
        <ele>3</ele>
        <time>2023-07-16T10:03:13.076+00:00</time>
      </trkpt>
      <trkpt lat="46.20432" lon="-1.4771">
        <ele>3</ele>
        <time>2023-07-16T10:03:17.194+00:00</time>
      </trkpt>
      <trkpt lat="46.20422" lon="-1.47739">
        <ele>4</ele>
        <time>2023-07-16T10:03:21.854+00:00</time>
      </trkpt>
      <trkpt lat="46.20417" lon="-1.47765">
        <ele>4</ele>
        <time>2023-07-16T10:03:26.037+00:00</time>
      </trkpt>
      <trkpt lat="46.20406" lon="-1.47798">
        <ele>3</ele>
        <time>2023-07-16T10:03:31.109+00:00</time>
      </trkpt>
      <trkpt lat="46.20396" lon="-1.47818">
        <ele>5</ele>
        <time>2023-07-16T10:03:35.114+00:00</time>
      </trkpt>
      <trkpt lat="46.20384" lon="-1.47847">
        <ele>4</ele>
        <time>2023-07-16T10:03:40.095+00:00</time>
      </trkpt>
      <trkpt lat="46.20375" lon="-1.47868">
        <ele>5</ele>
        <time>2023-07-16T10:03:44.244+00:00</time>
      </trkpt>
      <trkpt lat="46.20362" lon="-1.47901">
        <ele>4</ele>
        <time>2023-07-16T10:03:49.100+00:00</time>
      </trkpt>
      <trkpt lat="46.20349" lon="-1.47932">
        <ele>1</ele>
        <time>2023-07-16T10:03:54.097+00:00</time>
      </trkpt>
      <trkpt lat="46.20337" lon="-1.47961">
        <ele>2</ele>
        <time>2023-07-16T10:03:59.094+00:00</time>
      </trkpt>
      <trkpt lat="46.20327" lon="-1.47986">
        <ele>2</ele>
        <time>2023-07-16T10:04:03.107+00:00</time>
      </trkpt>
      <trkpt lat="46.20313" lon="-1.48016">
        <ele>4</ele>
        <time>2023-07-16T10:04:08.111+00:00</time>
      </trkpt>
      <trkpt lat="46.203" lon="-1.48045">
        <ele>3</ele>
        <time>2023-07-16T10:04:13.103+00:00</time>
      </trkpt>
      <trkpt lat="46.20288" lon="-1.48075">
        <ele>2</ele>
        <time>2023-07-16T10:04:18.078+00:00</time>
      </trkpt>
      <trkpt lat="46.20278" lon="-1.48097">
        <ele>2</ele>
        <time>2023-07-16T10:04:22.849+00:00</time>
      </trkpt>
      <trkpt lat="46.20268" lon="-1.48123">
        <ele>2</ele>
        <time>2023-07-16T10:04:26.843+00:00</time>
      </trkpt>
      <trkpt lat="46.20257" lon="-1.4815">
        <ele>2</ele>
        <time>2023-07-16T10:04:31.114+00:00</time>
      </trkpt>
      <trkpt lat="46.20249" lon="-1.48184">
        <ele>2</ele>
        <time>2023-07-16T10:04:36.090+00:00</time>
      </trkpt>
      <trkpt lat="46.20244" lon="-1.48217">
        <ele>2</ele>
        <time>2023-07-16T10:04:41.097+00:00</time>
      </trkpt>
      <trkpt lat="46.20239" lon="-1.48247">
        <ele>2</ele>
        <time>2023-07-16T10:04:46.110+00:00</time>
      </trkpt>
      <trkpt lat="46.20237" lon="-1.48267">
        <ele>2</ele>
        <time>2023-07-16T10:04:50.956+00:00</time>
      </trkpt>
      <trkpt lat="46.20232" lon="-1.48293">
        <ele>2</ele>
        <time>2023-07-16T10:04:54.900+00:00</time>
      </trkpt>
      <trkpt lat="46.20227" lon="-1.48318">
        <ele>2</ele>
        <time>2023-07-16T10:05:00.079+00:00</time>
      </trkpt>
      <trkpt lat="46.20225" lon="-1.48347">
        <ele>2</ele>
        <time>2023-07-16T10:05:05.094+00:00</time>
      </trkpt>
      <trkpt lat="46.20218" lon="-1.48384">
        <ele>1</ele>
        <time>2023-07-16T10:05:10.106+00:00</time>
      </trkpt>
      <trkpt lat="46.20213" lon="-1.48411">
        <ele>1</ele>
        <time>2023-07-16T10:05:14.107+00:00</time>
      </trkpt>
      <trkpt lat="46.20206" lon="-1.48446">
        <ele>4</ele>
        <time>2023-07-16T10:05:19.091+00:00</time>
      </trkpt>
      <trkpt lat="46.202" lon="-1.4848">
        <ele>4</ele>
        <time>2023-07-16T10:05:24.087+00:00</time>
      </trkpt>
      <trkpt lat="46.20194" lon="-1.48513">
        <ele>3</ele>
        <time>2023-07-16T10:05:29.101+00:00</time>
      </trkpt>
      <trkpt lat="46.20187" lon="-1.48541">
        <ele>3</ele>
        <time>2023-07-16T10:05:34.091+00:00</time>
      </trkpt>
      <trkpt lat="46.20177" lon="-1.48572">
        <ele>4</ele>
        <time>2023-07-16T10:05:39.077+00:00</time>
      </trkpt>
      <trkpt lat="46.2017" lon="-1.48591">
        <ele>4</ele>
        <time>2023-07-16T10:05:43.003+00:00</time>
      </trkpt>
      <trkpt lat="46.20163" lon="-1.48609">
        <ele>3</ele>
        <time>2023-07-16T10:05:47.115+00:00</time>
      </trkpt>
      <trkpt lat="46.20153" lon="-1.4863">
        <ele>3</ele>
        <time>2023-07-16T10:05:51.818+00:00</time>
      </trkpt>
      <trkpt lat="46.20141" lon="-1.48649">
        <ele>2</ele>
        <time>2023-07-16T10:05:55.800+00:00</time>
      </trkpt>
      <trkpt lat="46.20131" lon="-1.4867">
        <ele>2</ele>
        <time>2023-07-16T10:06:00.435+00:00</time>
      </trkpt>
      <trkpt lat="46.20121" lon="-1.48689">
        <ele>4</ele>
        <time>2023-07-16T10:06:05.005+00:00</time>
      </trkpt>
      <trkpt lat="46.20115" lon="-1.48712">
        <ele>4</ele>
        <time>2023-07-16T10:06:09.788+00:00</time>
      </trkpt>
      <trkpt lat="46.2011" lon="-1.48731">
        <ele>4</ele>
        <time>2023-07-16T10:06:13.852+00:00</time>
      </trkpt>
      <trkpt lat="46.20108" lon="-1.48749">
        <ele>4</ele>
        <time>2023-07-16T10:06:17.916+00:00</time>
      </trkpt>
      <trkpt lat="46.20107" lon="-1.48776">
        <ele>3</ele>
        <time>2023-07-16T10:06:22.458+00:00</time>
      </trkpt>
      <trkpt lat="46.20112" lon="-1.488">
        <ele>1</ele>
        <time>2023-07-16T10:06:26.643+00:00</time>
      </trkpt>
      <trkpt lat="46.20116" lon="-1.48824">
        <ele>1</ele>
        <time>2023-07-16T10:06:31.101+00:00</time>
      </trkpt>
      <trkpt lat="46.20122" lon="-1.4885">
        <ele>1</ele>
        <time>2023-07-16T10:06:35.609+00:00</time>
      </trkpt>
      <trkpt lat="46.20126" lon="-1.48874">
        <ele>1.2</ele>
        <time>2023-07-16T10:06:40.868+00:00</time>
      </trkpt>
      <trkpt lat="46.20133" lon="-1.48895">
        <ele>1.2</ele>
        <time>2023-07-16T10:06:45.051+00:00</time>
      </trkpt>
      <trkpt lat="46.20139" lon="-1.48924">
        <ele>-1</ele>
        <time>2023-07-16T10:06:49.811+00:00</time>
      </trkpt>
      <trkpt lat="46.20145" lon="-1.48947">
        <ele>-1</ele>
        <time>2023-07-16T10:06:53.874+00:00</time>
      </trkpt>
      <trkpt lat="46.20153" lon="-1.48973">
        <ele>-1</ele>
        <time>2023-07-16T10:06:58.654+00:00</time>
      </trkpt>
      <trkpt lat="46.20159" lon="-1.48995">
        <ele>-1</ele>
        <time>2023-07-16T10:07:02.836+00:00</time>
      </trkpt>
      <trkpt lat="46.20167" lon="-1.49024">
        <ele>-1</ele>
        <time>2023-07-16T10:07:08.119+00:00</time>
      </trkpt>
      <trkpt lat="46.20175" lon="-1.4905">
        <ele>-2</ele>
        <time>2023-07-16T10:07:12.874+00:00</time>
      </trkpt>
      <trkpt lat="46.20181" lon="-1.49073">
        <ele>-2</ele>
        <time>2023-07-16T10:07:17.056+00:00</time>
      </trkpt>
      <trkpt lat="46.20187" lon="-1.49094">
        <ele>-2</ele>
        <time>2023-07-16T10:07:21.104+00:00</time>
      </trkpt>
      <trkpt lat="46.20193" lon="-1.49116">
        <ele>-1</ele>
        <time>2023-07-16T10:07:25.099+00:00</time>
      </trkpt>
      <trkpt lat="46.202" lon="-1.49142">
        <ele>1.7</ele>
        <time>2023-07-16T10:07:30.108+00:00</time>
      </trkpt>
      <trkpt lat="46.20208" lon="-1.49171">
        <ele>1</ele>
        <time>2023-07-16T10:07:35.106+00:00</time>
      </trkpt>
      <trkpt lat="46.20216" lon="-1.49199">
        <ele>-1</ele>
        <time>2023-07-16T10:07:40.091+00:00</time>
      </trkpt>
      <trkpt lat="46.20221" lon="-1.49223">
        <ele>-1</ele>
        <time>2023-07-16T10:07:44.269+00:00</time>
      </trkpt>
      <trkpt lat="46.20222" lon="-1.49253">
        <ele>-1</ele>
        <time>2023-07-16T10:07:49.115+00:00</time>
      </trkpt>
      <trkpt lat="46.20218" lon="-1.49286">
        <ele>1.9</ele>
        <time>2023-07-16T10:07:54.070+00:00</time>
      </trkpt>
      <trkpt lat="46.20215" lon="-1.4931">
        <ele>2</ele>
        <time>2023-07-16T10:07:58.106+00:00</time>
      </trkpt>
      <trkpt lat="46.2021" lon="-1.49343">
        <ele>1.4</ele>
        <time>2023-07-16T10:08:03.110+00:00</time>
      </trkpt>
      <trkpt lat="46.20208" lon="-1.49377">
        <ele>-1</ele>
        <time>2023-07-16T10:08:08.113+00:00</time>
      </trkpt>
      <trkpt lat="46.20214" lon="-1.49411">
        <ele>-1</ele>
        <time>2023-07-16T10:08:13.072+00:00</time>
      </trkpt>
      <trkpt lat="46.20223" lon="-1.49435">
        <ele>-1</ele>
        <time>2023-07-16T10:08:17.094+00:00</time>
      </trkpt>
      <trkpt lat="46.20235" lon="-1.49464">
        <ele>1.7</ele>
        <time>2023-07-16T10:08:22.070+00:00</time>
      </trkpt>
      <trkpt lat="46.20243" lon="-1.49487">
        <ele>1</ele>
        <time>2023-07-16T10:08:26.081+00:00</time>
      </trkpt>
      <trkpt lat="46.20251" lon="-1.49512">
        <ele>1</ele>
        <time>2023-07-16T10:08:30.093+00:00</time>
      </trkpt>
      <trkpt lat="46.2026" lon="-1.49538">
        <ele>1</ele>
        <time>2023-07-16T10:08:34.107+00:00</time>
      </trkpt>
      <trkpt lat="46.20273" lon="-1.49569">
        <ele>1</ele>
        <time>2023-07-16T10:08:39.085+00:00</time>
      </trkpt>
      <trkpt lat="46.20281" lon="-1.49592">
        <ele>1</ele>
        <time>2023-07-16T10:08:43.116+00:00</time>
      </trkpt>
      <trkpt lat="46.20294" lon="-1.49621">
        <ele>1</ele>
        <time>2023-07-16T10:08:48.114+00:00</time>
      </trkpt>
      <trkpt lat="46.20305" lon="-1.49648">
        <ele>1</ele>
        <time>2023-07-16T10:08:53.101+00:00</time>
      </trkpt>
      <trkpt lat="46.20317" lon="-1.49674">
        <ele>1</ele>
        <time>2023-07-16T10:08:58.094+00:00</time>
      </trkpt>
      <trkpt lat="46.20332" lon="-1.497">
        <ele>-1</ele>
        <time>2023-07-16T10:09:03.113+00:00</time>
      </trkpt>
      <trkpt lat="46.20348" lon="-1.49725">
        <ele>-1</ele>
        <time>2023-07-16T10:09:08.096+00:00</time>
      </trkpt>
      <trkpt lat="46.20362" lon="-1.49744">
        <ele>-1</ele>
        <time>2023-07-16T10:09:12.127+00:00</time>
      </trkpt>
      <trkpt lat="46.20378" lon="-1.4977">
        <ele>-1</ele>
        <time>2023-07-16T10:09:17.112+00:00</time>
      </trkpt>
      <trkpt lat="46.2039" lon="-1.49792">
        <ele>-2</ele>
        <time>2023-07-16T10:09:21.099+00:00</time>
      </trkpt>
      <trkpt lat="46.20398" lon="-1.49825">
        <ele>-2</ele>
        <time>2023-07-16T10:09:26.099+00:00</time>
      </trkpt>
      <trkpt lat="46.20403" lon="-1.49851">
        <ele>-2</ele>
        <time>2023-07-16T10:09:30.110+00:00</time>
      </trkpt>
      <trkpt lat="46.20406" lon="-1.49879">
        <ele>-2</ele>
        <time>2023-07-16T10:09:34.128+00:00</time>
      </trkpt>
      <trkpt lat="46.20409" lon="-1.49913">
        <ele>-1</ele>
        <time>2023-07-16T10:09:39.089+00:00</time>
      </trkpt>
      <trkpt lat="46.20409" lon="-1.49946">
        <ele>-1</ele>
        <time>2023-07-16T10:09:44.096+00:00</time>
      </trkpt>
      <trkpt lat="46.20405" lon="-1.49972">
        <ele>-2</ele>
        <time>2023-07-16T10:09:48.123+00:00</time>
      </trkpt>
      <trkpt lat="46.204" lon="-1.50005">
        <ele>-3</ele>
        <time>2023-07-16T10:09:53.121+00:00</time>
      </trkpt>
      <trkpt lat="46.20399" lon="-1.50039">
        <ele>-3</ele>
        <time>2023-07-16T10:09:58.099+00:00</time>
      </trkpt>
      <trkpt lat="46.20398" lon="-1.50073">
        <ele>-1</ele>
        <time>2023-07-16T10:10:03.094+00:00</time>
      </trkpt>
      <trkpt lat="46.20398" lon="-1.50104">
        <ele>-1</ele>
        <time>2023-07-16T10:10:08.120+00:00</time>
      </trkpt>
      <trkpt lat="46.20398" lon="-1.50129">
        <ele>-1</ele>
        <time>2023-07-16T10:10:12.106+00:00</time>
      </trkpt>
      <trkpt lat="46.20397" lon="-1.5016">
        <ele>-2</ele>
        <time>2023-07-16T10:10:17.126+00:00</time>
      </trkpt>
      <trkpt lat="46.20399" lon="-1.50196">
        <ele>-1</ele>
        <time>2023-07-16T10:10:22.120+00:00</time>
      </trkpt>
      <trkpt lat="46.20404" lon="-1.5022">
        <ele>1.4</ele>
        <time>2023-07-16T10:10:27.102+00:00</time>
      </trkpt>
      <trkpt lat="46.20411" lon="-1.50253">
        <ele>2</ele>
        <time>2023-07-16T10:10:32.106+00:00</time>
      </trkpt>
      <trkpt lat="46.20419" lon="-1.50284">
        <ele>-1</ele>
        <time>2023-07-16T10:10:37.079+00:00</time>
      </trkpt>
      <trkpt lat="46.20428" lon="-1.50307">
        <ele>-2</ele>
        <time>2023-07-16T10:10:41.115+00:00</time>
      </trkpt>
      <trkpt lat="46.20436" lon="-1.50323">
        <ele>-1</ele>
        <time>2023-07-16T10:10:46.106+00:00</time>
      </trkpt>
      <trkpt lat="46.20443" lon="-1.5033">
        <ele>-1</ele>
        <time>2023-07-16T10:10:51.088+00:00</time>
      </trkpt>
      <trkpt lat="46.20446" lon="-1.5034">
        <ele>-1</ele>
        <time>2023-07-16T10:12:19.754+00:00</time>
      </trkpt>
      <trkpt lat="46.20449" lon="-1.5035">
        <ele>-1</ele>
        <time>2023-07-16T10:12:23.863+00:00</time>
      </trkpt>
      <trkpt lat="46.20463" lon="-1.50369">
        <ele>-1</ele>
        <time>2023-07-16T10:12:28.873+00:00</time>
      </trkpt>
      <trkpt lat="46.20474" lon="-1.50383">
        <ele>-1</ele>
        <time>2023-07-16T10:12:33.063+00:00</time>
      </trkpt>
      <trkpt lat="46.20487" lon="-1.50397">
        <ele>-1</ele>
        <time>2023-07-16T10:12:37.612+00:00</time>
      </trkpt>
      <trkpt lat="46.20498" lon="-1.50412">
        <ele>2.6</ele>
        <time>2023-07-16T10:12:42.096+00:00</time>
      </trkpt>
      <trkpt lat="46.20508" lon="-1.50433">
        <ele>1</ele>
        <time>2023-07-16T10:12:47.093+00:00</time>
      </trkpt>
      <trkpt lat="46.2052" lon="-1.50453">
        <ele>1</ele>
        <time>2023-07-16T10:12:52.092+00:00</time>
      </trkpt>
      <trkpt lat="46.20532" lon="-1.50471">
        <ele>1</ele>
        <time>2023-07-16T10:12:57.100+00:00</time>
      </trkpt>
      <trkpt lat="46.20544" lon="-1.50482">
        <ele>1</ele>
        <time>2023-07-16T10:13:01.102+00:00</time>
      </trkpt>
      <trkpt lat="46.20558" lon="-1.5049">
        <ele>1</ele>
        <time>2023-07-16T10:13:05.678+00:00</time>
      </trkpt>
      <trkpt lat="46.20576" lon="-1.50504">
        <ele>1</ele>
        <time>2023-07-16T10:13:10.466+00:00</time>
      </trkpt>
      <trkpt lat="46.20593" lon="-1.50512">
        <ele>1</ele>
        <time>2023-07-16T10:13:15.093+00:00</time>
      </trkpt>
      <trkpt lat="46.20607" lon="-1.5052">
        <ele>1</ele>
        <time>2023-07-16T10:13:19.064+00:00</time>
      </trkpt>
      <trkpt lat="46.20622" lon="-1.50531">
        <ele>1</ele>
        <time>2023-07-16T10:13:23.612+00:00</time>
      </trkpt>
      <trkpt lat="46.20638" lon="-1.5054">
        <ele>1</ele>
        <time>2023-07-16T10:13:28.280+00:00</time>
      </trkpt>
      <trkpt lat="46.20651" lon="-1.50548">
        <ele>1</ele>
        <time>2023-07-16T10:13:32.469+00:00</time>
      </trkpt>
      <trkpt lat="46.20664" lon="-1.5056">
        <ele>1</ele>
        <time>2023-07-16T10:13:36.539+00:00</time>
      </trkpt>
      <trkpt lat="46.20678" lon="-1.50577">
        <ele>1</ele>
        <time>2023-07-16T10:13:41.088+00:00</time>
      </trkpt>
      <trkpt lat="46.2069" lon="-1.506">
        <ele>1</ele>
        <time>2023-07-16T10:13:45.838+00:00</time>
      </trkpt>
      <trkpt lat="46.20696" lon="-1.50629">
        <ele>1</ele>
        <time>2023-07-16T10:13:50.983+00:00</time>
      </trkpt>
      <trkpt lat="46.20701" lon="-1.50651">
        <ele>1</ele>
        <time>2023-07-16T10:13:54.912+00:00</time>
      </trkpt>
      <trkpt lat="46.20704" lon="-1.50679">
        <ele>1</ele>
        <time>2023-07-16T10:13:59.578+00:00</time>
      </trkpt>
      <trkpt lat="46.20707" lon="-1.50701">
        <ele>1</ele>
        <time>2023-07-16T10:14:03.646+00:00</time>
      </trkpt>
      <trkpt lat="46.2071" lon="-1.5072">
        <ele>2.9</ele>
        <time>2023-07-16T10:14:08.099+00:00</time>
      </trkpt>
      <trkpt lat="46.20715" lon="-1.50736">
        <ele>3</ele>
        <time>2023-07-16T10:14:12.242+00:00</time>
      </trkpt>
      <trkpt lat="46.20713" lon="-1.50758">
        <ele>3</ele>
        <time>2023-07-16T10:14:16.788+00:00</time>
      </trkpt>
      <trkpt lat="46.20715" lon="-1.50777">
        <ele>3</ele>
        <time>2023-07-16T10:14:21.336+00:00</time>
      </trkpt>
      <trkpt lat="46.20723" lon="-1.50797">
        <ele>3</ele>
        <time>2023-07-16T10:14:25.880+00:00</time>
      </trkpt>
      <trkpt lat="46.20732" lon="-1.50815">
        <ele>2.8</ele>
        <time>2023-07-16T10:14:29.829+00:00</time>
      </trkpt>
      <trkpt lat="46.20742" lon="-1.50836">
        <ele>1</ele>
        <time>2023-07-16T10:14:34.499+00:00</time>
      </trkpt>
      <trkpt lat="46.20755" lon="-1.50854">
        <ele>1</ele>
        <time>2023-07-16T10:14:38.679+00:00</time>
      </trkpt>
      <trkpt lat="46.2077" lon="-1.50874">
        <ele>2</ele>
        <time>2023-07-16T10:14:44.063+00:00</time>
      </trkpt>
      <trkpt lat="46.20787" lon="-1.50893">
        <ele>2</ele>
        <time>2023-07-16T10:14:48.727+00:00</time>
      </trkpt>
      <trkpt lat="46.20803" lon="-1.50912">
        <ele>2</ele>
        <time>2023-07-16T10:14:54.091+00:00</time>
      </trkpt>
      <trkpt lat="46.20815" lon="-1.50927">
        <ele>2</ele>
        <time>2023-07-16T10:14:58.888+00:00</time>
      </trkpt>
      <trkpt lat="46.2083" lon="-1.50947">
        <ele>1</ele>
        <time>2023-07-16T10:15:03.875+00:00</time>
      </trkpt>
      <trkpt lat="46.20842" lon="-1.50965">
        <ele>2.5</ele>
        <time>2023-07-16T10:15:08.346+00:00</time>
      </trkpt>
      <trkpt lat="46.20855" lon="-1.50984">
        <ele>2</ele>
        <time>2023-07-16T10:15:12.891+00:00</time>
      </trkpt>
      <trkpt lat="46.20868" lon="-1.51004">
        <ele>2</ele>
        <time>2023-07-16T10:15:17.674+00:00</time>
      </trkpt>
      <trkpt lat="46.20878" lon="-1.51023">
        <ele>2</ele>
        <time>2023-07-16T10:15:22.219+00:00</time>
      </trkpt>
      <trkpt lat="46.20885" lon="-1.51048">
        <ele>2</ele>
        <time>2023-07-16T10:15:27.088+00:00</time>
      </trkpt>
      <trkpt lat="46.20888" lon="-1.5107">
        <ele>1</ele>
        <time>2023-07-16T10:15:31.112+00:00</time>
      </trkpt>
      <trkpt lat="46.20898" lon="-1.51093">
        <ele>1</ele>
        <time>2023-07-16T10:15:36.076+00:00</time>
      </trkpt>
      <trkpt lat="46.20906" lon="-1.51106">
        <ele>1</ele>
        <time>2023-07-16T10:15:40.098+00:00</time>
      </trkpt>
      <trkpt lat="46.20911" lon="-1.51111">
        <ele>1</ele>
        <time>2023-07-16T10:15:44.089+00:00</time>
      </trkpt>
      <trkpt lat="46.20914" lon="-1.51113">
        <ele>1</ele>
        <time>2023-07-16T10:15:49.084+00:00</time>
      </trkpt>
      <trkpt lat="46.20922" lon="-1.51125">
        <ele>1</ele>
        <time>2023-07-16T10:15:53.095+00:00</time>
      </trkpt>
      <trkpt lat="46.20927" lon="-1.51136">
        <ele>1</ele>
        <time>2023-07-16T10:15:58.093+00:00</time>
      </trkpt>
      <trkpt lat="46.20934" lon="-1.51146">
        <ele>1</ele>
        <time>2023-07-16T10:16:02.087+00:00</time>
      </trkpt>
      <trkpt lat="46.20943" lon="-1.51161">
        <ele>1</ele>
        <time>2023-07-16T10:16:07.083+00:00</time>
      </trkpt>
      <trkpt lat="46.20952" lon="-1.51172">
        <ele>1</ele>
        <time>2023-07-16T10:16:11.096+00:00</time>
      </trkpt>
      <trkpt lat="46.20961" lon="-1.51189">
        <ele>2</ele>
        <time>2023-07-16T10:16:16.091+00:00</time>
      </trkpt>
      <trkpt lat="46.20968" lon="-1.512">
        <ele>2</ele>
        <time>2023-07-16T10:16:20.087+00:00</time>
      </trkpt>
      <trkpt lat="46.20976" lon="-1.51208">
        <ele>2</ele>
        <time>2023-07-16T10:16:25.105+00:00</time>
      </trkpt>
      <trkpt lat="46.20987" lon="-1.51218">
        <ele>1</ele>
        <time>2023-07-16T10:16:29.095+00:00</time>
      </trkpt>
      <trkpt lat="46.21002" lon="-1.51226">
        <ele>1</ele>
        <time>2023-07-16T10:16:34.088+00:00</time>
      </trkpt>
      <trkpt lat="46.21016" lon="-1.51231">
        <ele>2.2</ele>
        <time>2023-07-16T10:16:39.082+00:00</time>
      </trkpt>
      <trkpt lat="46.21027" lon="-1.51231">
        <ele>1.6</ele>
        <time>2023-07-16T10:16:44.076+00:00</time>
      </trkpt>
      <trkpt lat="46.2104" lon="-1.51222">
        <ele>1.8</ele>
        <time>2023-07-16T10:16:48.098+00:00</time>
      </trkpt>
      <trkpt lat="46.21053" lon="-1.51212">
        <ele>2.5</ele>
        <time>2023-07-16T10:16:53.072+00:00</time>
      </trkpt>
      <trkpt lat="46.21059" lon="-1.51211">
        <ele>2.7</ele>
        <time>2023-07-16T10:16:57.088+00:00</time>
      </trkpt>
      <trkpt lat="46.21067" lon="-1.51216">
        <ele>3.1</ele>
        <time>2023-07-16T10:17:01.090+00:00</time>
      </trkpt>
      <trkpt lat="46.21075" lon="-1.51229">
        <ele>3.5</ele>
        <time>2023-07-16T10:17:06.093+00:00</time>
      </trkpt>
      <trkpt lat="46.21076" lon="-1.5124">
        <ele>3.3</ele>
        <time>2023-07-16T10:17:11.107+00:00</time>
      </trkpt>
      <trkpt lat="46.21085" lon="-1.51286">
        <ele>1</ele>
        <time>2023-07-16T10:17:52.113+00:00</time>
      </trkpt>
      <trkpt lat="46.21086" lon="-1.51292">
        <ele>1</ele>
        <time>2023-07-16T10:17:57.101+00:00</time>
      </trkpt>
      <trkpt lat="46.21087" lon="-1.51304">
        <ele>1</ele>
        <time>2023-07-16T10:18:02.070+00:00</time>
      </trkpt>
      <trkpt lat="46.21092" lon="-1.51318">
        <ele>1</ele>
        <time>2023-07-16T10:18:07.084+00:00</time>
      </trkpt>
      <trkpt lat="46.21096" lon="-1.51328">
        <ele>2</ele>
        <time>2023-07-16T10:18:11.089+00:00</time>
      </trkpt>
      <trkpt lat="46.211" lon="-1.5134">
        <ele>1</ele>
        <time>2023-07-16T10:18:15.632+00:00</time>
      </trkpt>
      <trkpt lat="46.21106" lon="-1.51346">
        <ele>1</ele>
        <time>2023-07-16T10:18:20.098+00:00</time>
      </trkpt>
      <trkpt lat="46.21111" lon="-1.51354">
        <ele>1</ele>
        <time>2023-07-16T10:18:24.108+00:00</time>
      </trkpt>
      <trkpt lat="46.21118" lon="-1.51367">
        <ele>1</ele>
        <time>2023-07-16T10:18:29.071+00:00</time>
      </trkpt>
      <trkpt lat="46.21124" lon="-1.51377">
        <ele>2</ele>
        <time>2023-07-16T10:18:33.099+00:00</time>
      </trkpt>
      <trkpt lat="46.2113" lon="-1.51388">
        <ele>1</ele>
        <time>2023-07-16T10:18:38.083+00:00</time>
      </trkpt>
      <trkpt lat="46.21136" lon="-1.51396">
        <ele>1</ele>
        <time>2023-07-16T10:18:42.101+00:00</time>
      </trkpt>
      <trkpt lat="46.21143" lon="-1.51405">
        <ele>1</ele>
        <time>2023-07-16T10:18:47.109+00:00</time>
      </trkpt>
      <trkpt lat="46.21151" lon="-1.51416">
        <ele>1</ele>
        <time>2023-07-16T10:19:01.075+00:00</time>
      </trkpt>
      <trkpt lat="46.21152" lon="-1.51417">
        <ele>1</ele>
        <time>2023-07-16T10:19:06.104+00:00</time>
      </trkpt>
      <trkpt lat="46.21152" lon="-1.51418">
        <ele>1</ele>
        <time>2023-07-16T10:19:11.091+00:00</time>
      </trkpt>
      <trkpt lat="46.21153" lon="-1.51418">
        <ele>1</ele>
        <time>2023-07-16T10:19:16.077+00:00</time>
      </trkpt>
      <trkpt lat="46.21161" lon="-1.51424">
        <ele>1</ele>
        <time>2023-07-16T10:19:20.096+00:00</time>
      </trkpt>
      <trkpt lat="46.21175" lon="-1.51435">
        <ele>1.9</ele>
        <time>2023-07-16T10:19:25.101+00:00</time>
      </trkpt>
      <trkpt lat="46.21188" lon="-1.51445">
        <ele>1</ele>
        <time>2023-07-16T10:19:30.096+00:00</time>
      </trkpt>
      <trkpt lat="46.21202" lon="-1.51458">
        <ele>1</ele>
        <time>2023-07-16T10:19:35.067+00:00</time>
      </trkpt>
      <trkpt lat="46.21215" lon="-1.5147">
        <ele>1.9</ele>
        <time>2023-07-16T10:19:39.099+00:00</time>
      </trkpt>
      <trkpt lat="46.21225" lon="-1.51487">
        <ele>2</ele>
        <time>2023-07-16T10:19:43.104+00:00</time>
      </trkpt>
      <trkpt lat="46.21234" lon="-1.51505">
        <ele>1.7</ele>
        <time>2023-07-16T10:19:48.092+00:00</time>
      </trkpt>
      <trkpt lat="46.21242" lon="-1.51522">
        <ele>-1</ele>
        <time>2023-07-16T10:19:52.115+00:00</time>
      </trkpt>
      <trkpt lat="46.21253" lon="-1.51536">
        <ele>-1</ele>
        <time>2023-07-16T10:19:57.104+00:00</time>
      </trkpt>
      <trkpt lat="46.21267" lon="-1.51554">
        <ele>-1</ele>
        <time>2023-07-16T10:20:02.077+00:00</time>
      </trkpt>
      <trkpt lat="46.21283" lon="-1.51565">
        <ele>-1</ele>
        <time>2023-07-16T10:20:06.078+00:00</time>
      </trkpt>
      <trkpt lat="46.21305" lon="-1.51578">
        <ele>1.8</ele>
        <time>2023-07-16T10:20:11.084+00:00</time>
      </trkpt>
      <trkpt lat="46.21323" lon="-1.51591">
        <ele>2</ele>
        <time>2023-07-16T10:20:16.068+00:00</time>
      </trkpt>
      <trkpt lat="46.21337" lon="-1.51601">
        <ele>2</ele>
        <time>2023-07-16T10:20:20.099+00:00</time>
      </trkpt>
      <trkpt lat="46.21349" lon="-1.51609">
        <ele>3</ele>
        <time>2023-07-16T10:20:24.094+00:00</time>
      </trkpt>
      <trkpt lat="46.21369" lon="-1.51619">
        <ele>3</ele>
        <time>2023-07-16T10:20:29.078+00:00</time>
      </trkpt>
      <trkpt lat="46.21387" lon="-1.51627">
        <ele>2</ele>
        <time>2023-07-16T10:20:33.125+00:00</time>
      </trkpt>
      <trkpt lat="46.2141" lon="-1.51632">
        <ele>1</ele>
        <time>2023-07-16T10:20:38.081+00:00</time>
      </trkpt>
      <trkpt lat="46.21426" lon="-1.51637">
        <ele>1</ele>
        <time>2023-07-16T10:20:42.089+00:00</time>
      </trkpt>
      <trkpt lat="46.21447" lon="-1.51642">
        <ele>2</ele>
        <time>2023-07-16T10:20:46.111+00:00</time>
      </trkpt>
      <trkpt lat="46.21469" lon="-1.51657">
        <ele>1</ele>
        <time>2023-07-16T10:20:51.106+00:00</time>
      </trkpt>
      <trkpt lat="46.21489" lon="-1.51675">
        <ele>2</ele>
        <time>2023-07-16T10:20:56.094+00:00</time>
      </trkpt>
      <trkpt lat="46.21505" lon="-1.51699">
        <ele>1.9</ele>
        <time>2023-07-16T10:21:01.092+00:00</time>
      </trkpt>
      <trkpt lat="46.21517" lon="-1.5172">
        <ele>2.5</ele>
        <time>2023-07-16T10:21:05.107+00:00</time>
      </trkpt>
      <trkpt lat="46.21526" lon="-1.5174">
        <ele>-1</ele>
        <time>2023-07-16T10:21:09.075+00:00</time>
      </trkpt>
      <trkpt lat="46.21542" lon="-1.51767">
        <ele>2</ele>
        <time>2023-07-16T10:21:14.069+00:00</time>
      </trkpt>
      <trkpt lat="46.21559" lon="-1.51784">
        <ele>1.9</ele>
        <time>2023-07-16T10:21:18.109+00:00</time>
      </trkpt>
      <trkpt lat="46.21582" lon="-1.51802">
        <ele>1</ele>
        <time>2023-07-16T10:21:23.103+00:00</time>
      </trkpt>
      <trkpt lat="46.21604" lon="-1.51821">
        <ele>2</ele>
        <time>2023-07-16T10:21:28.103+00:00</time>
      </trkpt>
      <trkpt lat="46.21625" lon="-1.51838">
        <ele>2</ele>
        <time>2023-07-16T10:21:33.110+00:00</time>
      </trkpt>
      <trkpt lat="46.21647" lon="-1.51851">
        <ele>1</ele>
        <time>2023-07-16T10:21:38.097+00:00</time>
      </trkpt>
      <trkpt lat="46.21669" lon="-1.51855">
        <ele>2</ele>
        <time>2023-07-16T10:21:43.078+00:00</time>
      </trkpt>
      <trkpt lat="46.21688" lon="-1.51854">
        <ele>-1</ele>
        <time>2023-07-16T10:21:47.081+00:00</time>
      </trkpt>
      <trkpt lat="46.21707" lon="-1.51857">
        <ele>-1</ele>
        <time>2023-07-16T10:21:51.114+00:00</time>
      </trkpt>
      <trkpt lat="46.21731" lon="-1.51865">
        <ele>2</ele>
        <time>2023-07-16T10:21:56.087+00:00</time>
      </trkpt>
      <trkpt lat="46.21747" lon="-1.51879">
        <ele>2</ele>
        <time>2023-07-16T10:22:00.093+00:00</time>
      </trkpt>
      <trkpt lat="46.21764" lon="-1.51893">
        <ele>2</ele>
        <time>2023-07-16T10:22:04.111+00:00</time>
      </trkpt>
      <trkpt lat="46.21781" lon="-1.5191">
        <ele>1</ele>
        <time>2023-07-16T10:22:09.074+00:00</time>
      </trkpt>
      <trkpt lat="46.21789" lon="-1.51928">
        <ele>1</ele>
        <time>2023-07-16T10:22:13.089+00:00</time>
      </trkpt>
      <trkpt lat="46.21808" lon="-1.5195">
        <ele>2</ele>
        <time>2023-07-16T10:22:18.083+00:00</time>
      </trkpt>
      <trkpt lat="46.21828" lon="-1.51967">
        <ele>2</ele>
        <time>2023-07-16T10:22:23.102+00:00</time>
      </trkpt>
      <trkpt lat="46.21848" lon="-1.51983">
        <ele>2.2</ele>
        <time>2023-07-16T10:22:28.078+00:00</time>
      </trkpt>
      <trkpt lat="46.21868" lon="-1.52001">
        <ele>2</ele>
        <time>2023-07-16T10:22:33.077+00:00</time>
      </trkpt>
      <trkpt lat="46.21888" lon="-1.52019">
        <ele>4</ele>
        <time>2023-07-16T10:22:38.083+00:00</time>
      </trkpt>
      <trkpt lat="46.21907" lon="-1.52035">
        <ele>3</ele>
        <time>2023-07-16T10:22:43.082+00:00</time>
      </trkpt>
      <trkpt lat="46.21923" lon="-1.52049">
        <ele>4</ele>
        <time>2023-07-16T10:22:48.075+00:00</time>
      </trkpt>
      <trkpt lat="46.21927" lon="-1.52073">
        <ele>3</ele>
        <time>2023-07-16T10:22:52.624+00:00</time>
      </trkpt>
      <trkpt lat="46.21925" lon="-1.52099">
        <ele>2</ele>
        <time>2023-07-16T10:22:56.792+00:00</time>
      </trkpt>
      <trkpt lat="46.21923" lon="-1.52118">
        <ele>2</ele>
        <time>2023-07-16T10:23:00.977+00:00</time>
      </trkpt>
      <trkpt lat="46.21926" lon="-1.52139">
        <ele>1</ele>
        <time>2023-07-16T10:23:05.164+00:00</time>
      </trkpt>
      <trkpt lat="46.21935" lon="-1.52157">
        <ele>1</ele>
        <time>2023-07-16T10:23:09.671+00:00</time>
      </trkpt>
      <trkpt lat="46.21943" lon="-1.52171">
        <ele>1</ele>
        <time>2023-07-16T10:23:13.858+00:00</time>
      </trkpt>
      <trkpt lat="46.21952" lon="-1.52187">
        <ele>2.9</ele>
        <time>2023-07-16T10:23:18.045+00:00</time>
      </trkpt>
      <trkpt lat="46.21962" lon="-1.52205">
        <ele>1</ele>
        <time>2023-07-16T10:23:22.592+00:00</time>
      </trkpt>
      <trkpt lat="46.21972" lon="-1.52223">
        <ele>1</ele>
        <time>2023-07-16T10:23:26.661+00:00</time>
      </trkpt>
      <trkpt lat="46.21985" lon="-1.52253">
        <ele>2.6</ele>
        <time>2023-07-16T10:23:32.074+00:00</time>
      </trkpt>
      <trkpt lat="46.22003" lon="-1.52283">
        <ele>1</ele>
        <time>2023-07-16T10:23:37.058+00:00</time>
      </trkpt>
      <trkpt lat="46.22017" lon="-1.52302">
        <ele>2.4</ele>
        <time>2023-07-16T10:23:41.081+00:00</time>
      </trkpt>
      <trkpt lat="46.22035" lon="-1.52325">
        <ele>2.7</ele>
        <time>2023-07-16T10:23:46.074+00:00</time>
      </trkpt>
      <trkpt lat="46.22053" lon="-1.52348">
        <ele>-1</ele>
        <time>2023-07-16T10:23:51.072+00:00</time>
      </trkpt>
      <trkpt lat="46.2207" lon="-1.52364">
        <ele>-1</ele>
        <time>2023-07-16T10:23:55.078+00:00</time>
      </trkpt>
      <trkpt lat="46.22084" lon="-1.52381">
        <ele>2.7</ele>
        <time>2023-07-16T10:23:59.101+00:00</time>
      </trkpt>
      <trkpt lat="46.22104" lon="-1.524">
        <ele>3</ele>
        <time>2023-07-16T10:24:04.100+00:00</time>
      </trkpt>
      <trkpt lat="46.22126" lon="-1.52415">
        <ele>3</ele>
        <time>2023-07-16T10:24:09.095+00:00</time>
      </trkpt>
      <trkpt lat="46.2215" lon="-1.5242">
        <ele>3</ele>
        <time>2023-07-16T10:24:14.096+00:00</time>
      </trkpt>
      <trkpt lat="46.22168" lon="-1.52423">
        <ele>3</ele>
        <time>2023-07-16T10:24:19.081+00:00</time>
      </trkpt>
      <trkpt lat="46.22186" lon="-1.52426">
        <ele>3</ele>
        <time>2023-07-16T10:24:23.093+00:00</time>
      </trkpt>
      <trkpt lat="46.22205" lon="-1.52426">
        <ele>3</ele>
        <time>2023-07-16T10:24:27.111+00:00</time>
      </trkpt>
      <trkpt lat="46.22226" lon="-1.52429">
        <ele>1</ele>
        <time>2023-07-16T10:24:32.102+00:00</time>
      </trkpt>
      <trkpt lat="46.22248" lon="-1.52436">
        <ele>2</ele>
        <time>2023-07-16T10:24:37.098+00:00</time>
      </trkpt>
      <trkpt lat="46.22265" lon="-1.52454">
        <ele>2</ele>
        <time>2023-07-16T10:24:42.103+00:00</time>
      </trkpt>
      <trkpt lat="46.22279" lon="-1.52475">
        <ele>2</ele>
        <time>2023-07-16T10:24:47.106+00:00</time>
      </trkpt>
      <trkpt lat="46.22297" lon="-1.52493">
        <ele>1</ele>
        <time>2023-07-16T10:24:52.081+00:00</time>
      </trkpt>
      <trkpt lat="46.22312" lon="-1.52503">
        <ele>1</ele>
        <time>2023-07-16T10:24:56.113+00:00</time>
      </trkpt>
      <trkpt lat="46.22329" lon="-1.52512">
        <ele>1</ele>
        <time>2023-07-16T10:25:01.102+00:00</time>
      </trkpt>
      <trkpt lat="46.22346" lon="-1.52525">
        <ele>3</ele>
        <time>2023-07-16T10:25:06.092+00:00</time>
      </trkpt>
      <trkpt lat="46.22364" lon="-1.52537">
        <ele>2.9</ele>
        <time>2023-07-16T10:25:11.092+00:00</time>
      </trkpt>
      <trkpt lat="46.22382" lon="-1.52555">
        <ele>3</ele>
        <time>2023-07-16T10:25:16.095+00:00</time>
      </trkpt>
      <trkpt lat="46.22399" lon="-1.52581">
        <ele>1</ele>
        <time>2023-07-16T10:25:21.105+00:00</time>
      </trkpt>
      <trkpt lat="46.22413" lon="-1.52605">
        <ele>1</ele>
        <time>2023-07-16T10:25:25.109+00:00</time>
      </trkpt>
      <trkpt lat="46.22427" lon="-1.52631">
        <ele>1</ele>
        <time>2023-07-16T10:25:29.097+00:00</time>
      </trkpt>
      <trkpt lat="46.22441" lon="-1.52656">
        <ele>2.5</ele>
        <time>2023-07-16T10:25:34.086+00:00</time>
      </trkpt>
      <trkpt lat="46.22453" lon="-1.5268">
        <ele>2.4</ele>
        <time>2023-07-16T10:25:39.077+00:00</time>
      </trkpt>
      <trkpt lat="46.22462" lon="-1.52706">
        <ele>-1</ele>
        <time>2023-07-16T10:25:43.101+00:00</time>
      </trkpt>
      <trkpt lat="46.22468" lon="-1.52731">
        <ele>-1</ele>
        <time>2023-07-16T10:25:47.096+00:00</time>
      </trkpt>
      <trkpt lat="46.22474" lon="-1.52755">
        <ele>-1</ele>
        <time>2023-07-16T10:25:51.872+00:00</time>
      </trkpt>
      <trkpt lat="46.22483" lon="-1.5278">
        <ele>2.6</ele>
        <time>2023-07-16T10:25:55.629+00:00</time>
      </trkpt>
      <trkpt lat="46.22493" lon="-1.52804">
        <ele>2.3</ele>
        <time>2023-07-16T10:26:00.100+00:00</time>
      </trkpt>
      <trkpt lat="46.22502" lon="-1.52827">
        <ele>2.7</ele>
        <time>2023-07-16T10:26:04.098+00:00</time>
      </trkpt>
      <trkpt lat="46.22517" lon="-1.52854">
        <ele>2.4</ele>
        <time>2023-07-16T10:26:09.096+00:00</time>
      </trkpt>
      <trkpt lat="46.22529" lon="-1.52876">
        <ele>2.5</ele>
        <time>2023-07-16T10:26:13.648+00:00</time>
      </trkpt>
      <trkpt lat="46.22543" lon="-1.52907">
        <ele>-1</ele>
        <time>2023-07-16T10:26:19.072+00:00</time>
      </trkpt>
      <trkpt lat="46.22551" lon="-1.52931">
        <ele>-1</ele>
        <time>2023-07-16T10:26:23.089+00:00</time>
      </trkpt>
      <trkpt lat="46.22558" lon="-1.52957">
        <ele>-1</ele>
        <time>2023-07-16T10:26:27.094+00:00</time>
      </trkpt>
      <trkpt lat="46.22567" lon="-1.52989">
        <ele>2.2</ele>
        <time>2023-07-16T10:26:32.103+00:00</time>
      </trkpt>
      <trkpt lat="46.22576" lon="-1.53021">
        <ele>2</ele>
        <time>2023-07-16T10:26:37.095+00:00</time>
      </trkpt>
      <trkpt lat="46.22586" lon="-1.53053">
        <ele>-1</ele>
        <time>2023-07-16T10:26:42.099+00:00</time>
      </trkpt>
      <trkpt lat="46.22594" lon="-1.53077">
        <ele>-1</ele>
        <time>2023-07-16T10:26:46.086+00:00</time>
      </trkpt>
      <trkpt lat="46.22603" lon="-1.53101">
        <ele>2.4</ele>
        <time>2023-07-16T10:26:50.090+00:00</time>
      </trkpt>
      <trkpt lat="46.22616" lon="-1.53122">
        <ele>3</ele>
        <time>2023-07-16T10:26:54.102+00:00</time>
      </trkpt>
      <trkpt lat="46.22632" lon="-1.53145">
        <ele>3</ele>
        <time>2023-07-16T10:26:59.088+00:00</time>
      </trkpt>
      <trkpt lat="46.22644" lon="-1.53165">
        <ele>1</ele>
        <time>2023-07-16T10:27:03.088+00:00</time>
      </trkpt>
      <trkpt lat="46.22651" lon="-1.53188">
        <ele>2</ele>
        <time>2023-07-16T10:27:07.102+00:00</time>
      </trkpt>
      <trkpt lat="46.22655" lon="-1.53208">
        <ele>1</ele>
        <time>2023-07-16T10:27:11.107+00:00</time>
      </trkpt>
      <trkpt lat="46.22658" lon="-1.53235">
        <ele>1</ele>
        <time>2023-07-16T10:27:15.624+00:00</time>
      </trkpt>
      <trkpt lat="46.22665" lon="-1.53262">
        <ele>1</ele>
        <time>2023-07-16T10:27:20.095+00:00</time>
      </trkpt>
      <trkpt lat="46.22673" lon="-1.53287">
        <ele>1</ele>
        <time>2023-07-16T10:27:24.110+00:00</time>
      </trkpt>
      <trkpt lat="46.22683" lon="-1.53318">
        <ele>2</ele>
        <time>2023-07-16T10:27:29.100+00:00</time>
      </trkpt>
      <trkpt lat="46.2269" lon="-1.53343">
        <ele>2</ele>
        <time>2023-07-16T10:27:33.098+00:00</time>
      </trkpt>
      <trkpt lat="46.22696" lon="-1.53374">
        <ele>1</ele>
        <time>2023-07-16T10:27:38.098+00:00</time>
      </trkpt>
      <trkpt lat="46.22694" lon="-1.53406">
        <ele>1</ele>
        <time>2023-07-16T10:27:43.123+00:00</time>
      </trkpt>
      <trkpt lat="46.22696" lon="-1.53433">
        <ele>1</ele>
        <time>2023-07-16T10:27:48.082+00:00</time>
      </trkpt>
      <trkpt lat="46.22701" lon="-1.53452">
        <ele>1</ele>
        <time>2023-07-16T10:27:51.722+00:00</time>
      </trkpt>
      <trkpt lat="46.22707" lon="-1.53461">
        <ele>1</ele>
        <time>2023-07-16T10:27:56.231+00:00</time>
      </trkpt>
      <trkpt lat="46.22716" lon="-1.53449">
        <ele>2.3</ele>
        <time>2023-07-16T10:28:00.214+00:00</time>
      </trkpt>
      <trkpt lat="46.22731" lon="-1.53432">
        <ele>2.1</ele>
        <time>2023-07-16T10:28:04.875+00:00</time>
      </trkpt>
      <trkpt lat="46.22745" lon="-1.53421">
        <ele>2.7</ele>
        <time>2023-07-16T10:28:09.096+00:00</time>
      </trkpt>
      <trkpt lat="46.22766" lon="-1.53403">
        <ele>1</ele>
        <time>2023-07-16T10:28:14.094+00:00</time>
      </trkpt>
      <trkpt lat="46.22786" lon="-1.53384">
        <ele>1</ele>
        <time>2023-07-16T10:28:19.084+00:00</time>
      </trkpt>
      <trkpt lat="46.22801" lon="-1.53368">
        <ele>1</ele>
        <time>2023-07-16T10:28:23.097+00:00</time>
      </trkpt>
      <trkpt lat="46.22819" lon="-1.53346">
        <ele>1</ele>
        <time>2023-07-16T10:28:28.099+00:00</time>
      </trkpt>
      <trkpt lat="46.22833" lon="-1.5333">
        <ele>2</ele>
        <time>2023-07-16T10:28:33.095+00:00</time>
      </trkpt>
      <trkpt lat="46.22843" lon="-1.53322">
        <ele>2</ele>
        <time>2023-07-16T10:28:37.100+00:00</time>
      </trkpt>
      <trkpt lat="46.22856" lon="-1.53306">
        <ele>4</ele>
        <time>2023-07-16T10:28:42.096+00:00</time>
      </trkpt>
      <trkpt lat="46.22875" lon="-1.53284">
        <ele>5</ele>
        <time>2023-07-16T10:28:47.110+00:00</time>
      </trkpt>
      <trkpt lat="46.22887" lon="-1.53267">
        <ele>4</ele>
        <time>2023-07-16T10:28:51.091+00:00</time>
      </trkpt>
      <trkpt lat="46.22906" lon="-1.53247">
        <ele>1</ele>
        <time>2023-07-16T10:28:56.096+00:00</time>
      </trkpt>
      <trkpt lat="46.22926" lon="-1.53227">
        <ele>1</ele>
        <time>2023-07-16T10:29:01.105+00:00</time>
      </trkpt>
      <trkpt lat="46.22946" lon="-1.53207">
        <ele>1</ele>
        <time>2023-07-16T10:29:06.079+00:00</time>
      </trkpt>
      <trkpt lat="46.22959" lon="-1.53192">
        <ele>1</ele>
        <time>2023-07-16T10:29:10.111+00:00</time>
      </trkpt>
      <trkpt lat="46.22974" lon="-1.53177">
        <ele>1</ele>
        <time>2023-07-16T10:29:15.088+00:00</time>
      </trkpt>
      <trkpt lat="46.22988" lon="-1.53164">
        <ele>1</ele>
        <time>2023-07-16T10:29:20.091+00:00</time>
      </trkpt>
      <trkpt lat="46.22994" lon="-1.53157">
        <ele>1</ele>
        <time>2023-07-16T10:29:25.097+00:00</time>
      </trkpt>
      <trkpt lat="46.23001" lon="-1.5316">
        <ele>1</ele>
        <time>2023-07-16T10:29:30.084+00:00</time>
      </trkpt>
      <trkpt lat="46.23008" lon="-1.53177">
        <ele>1</ele>
        <time>2023-07-16T10:29:34.096+00:00</time>
      </trkpt>
      <trkpt lat="46.23016" lon="-1.53197">
        <ele>2</ele>
        <time>2023-07-16T10:29:38.083+00:00</time>
      </trkpt>
      <trkpt lat="46.23025" lon="-1.5322">
        <ele>2</ele>
        <time>2023-07-16T10:29:42.101+00:00</time>
      </trkpt>
      <trkpt lat="46.23034" lon="-1.53247">
        <ele>2</ele>
        <time>2023-07-16T10:29:47.090+00:00</time>
      </trkpt>
      <trkpt lat="46.23043" lon="-1.53269">
        <ele>1</ele>
        <time>2023-07-16T10:29:51.096+00:00</time>
      </trkpt>
      <trkpt lat="46.23052" lon="-1.53294">
        <ele>1</ele>
        <time>2023-07-16T10:29:56.106+00:00</time>
      </trkpt>
      <trkpt lat="46.23063" lon="-1.53325">
        <ele>1</ele>
        <time>2023-07-16T10:30:01.099+00:00</time>
      </trkpt>
      <trkpt lat="46.23071" lon="-1.53357">
        <ele>2</ele>
        <time>2023-07-16T10:30:06.072+00:00</time>
      </trkpt>
      <trkpt lat="46.23078" lon="-1.53383">
        <ele>2</ele>
        <time>2023-07-16T10:30:10.098+00:00</time>
      </trkpt>
      <trkpt lat="46.23087" lon="-1.53409">
        <ele>2.6</ele>
        <time>2023-07-16T10:30:15.107+00:00</time>
      </trkpt>
      <trkpt lat="46.23092" lon="-1.53437">
        <ele>1</ele>
        <time>2023-07-16T10:30:19.097+00:00</time>
      </trkpt>
      <trkpt lat="46.23098" lon="-1.53471">
        <ele>3</ele>
        <time>2023-07-16T10:30:24.093+00:00</time>
      </trkpt>
      <trkpt lat="46.23101" lon="-1.53498">
        <ele>2.7</ele>
        <time>2023-07-16T10:30:28.101+00:00</time>
      </trkpt>
      <trkpt lat="46.23105" lon="-1.53524">
        <ele>2.8</ele>
        <time>2023-07-16T10:30:32.092+00:00</time>
      </trkpt>
      <trkpt lat="46.23111" lon="-1.53557">
        <ele>1</ele>
        <time>2023-07-16T10:30:37.077+00:00</time>
      </trkpt>
      <trkpt lat="46.23117" lon="-1.53584">
        <ele>1</ele>
        <time>2023-07-16T10:30:42.107+00:00</time>
      </trkpt>
      <trkpt lat="46.23122" lon="-1.53615">
        <ele>2.5</ele>
        <time>2023-07-16T10:30:47.098+00:00</time>
      </trkpt>
      <trkpt lat="46.23128" lon="-1.53644">
        <ele>2</ele>
        <time>2023-07-16T10:30:52.088+00:00</time>
      </trkpt>
      <trkpt lat="46.23132" lon="-1.53667">
        <ele>1</ele>
        <time>2023-07-16T10:30:56.096+00:00</time>
      </trkpt>
      <trkpt lat="46.23137" lon="-1.53703">
        <ele>1</ele>
        <time>2023-07-16T10:31:01.120+00:00</time>
      </trkpt>
      <trkpt lat="46.23142" lon="-1.53732">
        <ele>1</ele>
        <time>2023-07-16T10:31:06.103+00:00</time>
      </trkpt>
      <trkpt lat="46.23148" lon="-1.53758">
        <ele>1</ele>
        <time>2023-07-16T10:31:11.089+00:00</time>
      </trkpt>
      <trkpt lat="46.23156" lon="-1.53784">
        <ele>1</ele>
        <time>2023-07-16T10:31:15.086+00:00</time>
      </trkpt>
      <trkpt lat="46.23164" lon="-1.53809">
        <ele>2</ele>
        <time>2023-07-16T10:31:20.093+00:00</time>
      </trkpt>
      <trkpt lat="46.23176" lon="-1.5384">
        <ele>2.1</ele>
        <time>2023-07-16T10:31:25.085+00:00</time>
      </trkpt>
      <trkpt lat="46.23185" lon="-1.53863">
        <ele>2.6</ele>
        <time>2023-07-16T10:31:29.102+00:00</time>
      </trkpt>
      <trkpt lat="46.23193" lon="-1.53885">
        <ele>2.1</ele>
        <time>2023-07-16T10:31:33.106+00:00</time>
      </trkpt>
      <trkpt lat="46.23205" lon="-1.53916">
        <ele>2.4</ele>
        <time>2023-07-16T10:31:38.088+00:00</time>
      </trkpt>
      <trkpt lat="46.23216" lon="-1.53945">
        <ele>2.8</ele>
        <time>2023-07-16T10:31:43.091+00:00</time>
      </trkpt>
      <trkpt lat="46.23229" lon="-1.53974">
        <ele>2</ele>
        <time>2023-07-16T10:31:48.090+00:00</time>
      </trkpt>
      <trkpt lat="46.23238" lon="-1.53999">
        <ele>1</ele>
        <time>2023-07-16T10:31:52.102+00:00</time>
      </trkpt>
      <trkpt lat="46.23249" lon="-1.54027">
        <ele>2.9</ele>
        <time>2023-07-16T10:31:57.107+00:00</time>
      </trkpt>
      <trkpt lat="46.23261" lon="-1.54056">
        <ele>2.6</ele>
        <time>2023-07-16T10:32:02.093+00:00</time>
      </trkpt>
      <trkpt lat="46.23272" lon="-1.54083">
        <ele>2.2</ele>
        <time>2023-07-16T10:32:07.086+00:00</time>
      </trkpt>
      <trkpt lat="46.23282" lon="-1.5411">
        <ele>2</ele>
        <time>2023-07-16T10:32:11.611+00:00</time>
      </trkpt>
      <trkpt lat="46.23289" lon="-1.5413">
        <ele>2</ele>
        <time>2023-07-16T10:32:15.798+00:00</time>
      </trkpt>
      <trkpt lat="46.233" lon="-1.54131">
        <ele>1</ele>
        <time>2023-07-16T10:32:20.823+00:00</time>
      </trkpt>
      <trkpt lat="46.23319" lon="-1.54108">
        <ele>3</ele>
        <time>2023-07-16T10:32:26.080+00:00</time>
      </trkpt>
      <trkpt lat="46.23334" lon="-1.54092">
        <ele>3</ele>
        <time>2023-07-16T10:32:30.121+00:00</time>
      </trkpt>
      <trkpt lat="46.23354" lon="-1.54071">
        <ele>2</ele>
        <time>2023-07-16T10:32:35.114+00:00</time>
      </trkpt>
      <trkpt lat="46.23373" lon="-1.5405">
        <ele>1</ele>
        <time>2023-07-16T10:32:40.099+00:00</time>
      </trkpt>
      <trkpt lat="46.23393" lon="-1.54032">
        <ele>-1</ele>
        <time>2023-07-16T10:32:45.089+00:00</time>
      </trkpt>
      <trkpt lat="46.23414" lon="-1.54015">
        <ele>2</ele>
        <time>2023-07-16T10:32:50.105+00:00</time>
      </trkpt>
      <trkpt lat="46.23435" lon="-1.53998">
        <ele>3</ele>
        <time>2023-07-16T10:32:55.092+00:00</time>
      </trkpt>
      <trkpt lat="46.2345" lon="-1.54002">
        <ele>3</ele>
        <time>2023-07-16T10:32:59.083+00:00</time>
      </trkpt>
      <trkpt lat="46.23463" lon="-1.54026">
        <ele>3</ele>
        <time>2023-07-16T10:33:03.106+00:00</time>
      </trkpt>
      <trkpt lat="46.23478" lon="-1.54052">
        <ele>2</ele>
        <time>2023-07-16T10:33:08.107+00:00</time>
      </trkpt>
      <trkpt lat="46.23494" lon="-1.54079">
        <ele>1</ele>
        <time>2023-07-16T10:33:13.111+00:00</time>
      </trkpt>
      <trkpt lat="46.23509" lon="-1.54106">
        <ele>1</ele>
        <time>2023-07-16T10:33:18.065+00:00</time>
      </trkpt>
      <trkpt lat="46.23521" lon="-1.54128">
        <ele>1</ele>
        <time>2023-07-16T10:33:22.096+00:00</time>
      </trkpt>
      <trkpt lat="46.23533" lon="-1.5415">
        <ele>1</ele>
        <time>2023-07-16T10:33:26.104+00:00</time>
      </trkpt>
      <trkpt lat="46.23547" lon="-1.54177">
        <ele>1</ele>
        <time>2023-07-16T10:33:31.075+00:00</time>
      </trkpt>
      <trkpt lat="46.23559" lon="-1.54199">
        <ele>1</ele>
        <time>2023-07-16T10:33:35.094+00:00</time>
      </trkpt>
      <trkpt lat="46.23571" lon="-1.54221">
        <ele>1</ele>
        <time>2023-07-16T10:33:39.111+00:00</time>
      </trkpt>
      <trkpt lat="46.23583" lon="-1.54242">
        <ele>2</ele>
        <time>2023-07-16T10:33:43.112+00:00</time>
      </trkpt>
      <trkpt lat="46.23597" lon="-1.5427">
        <ele>2</ele>
        <time>2023-07-16T10:33:48.082+00:00</time>
      </trkpt>
      <trkpt lat="46.23608" lon="-1.54291">
        <ele>2</ele>
        <time>2023-07-16T10:33:52.091+00:00</time>
      </trkpt>
      <trkpt lat="46.23623" lon="-1.54318">
        <ele>1</ele>
        <time>2023-07-16T10:33:57.109+00:00</time>
      </trkpt>
      <trkpt lat="46.23632" lon="-1.54348">
        <ele>1</ele>
        <time>2023-07-16T10:34:02.079+00:00</time>
      </trkpt>
      <trkpt lat="46.23633" lon="-1.54375">
        <ele>1</ele>
        <time>2023-07-16T10:34:06.088+00:00</time>
      </trkpt>
      <trkpt lat="46.23634" lon="-1.54402">
        <ele>1</ele>
        <time>2023-07-16T10:34:10.104+00:00</time>
      </trkpt>
      <trkpt lat="46.23636" lon="-1.54428">
        <ele>1</ele>
        <time>2023-07-16T10:34:15.102+00:00</time>
      </trkpt>
      <trkpt lat="46.23637" lon="-1.54446">
        <ele>1</ele>
        <time>2023-07-16T10:34:19.494+00:00</time>
      </trkpt>
      <trkpt lat="46.23656" lon="-1.5445">
        <ele>1</ele>
        <time>2023-07-16T10:34:24.098+00:00</time>
      </trkpt>
      <trkpt lat="46.23681" lon="-1.54445">
        <ele>2</ele>
        <time>2023-07-16T10:34:29.095+00:00</time>
      </trkpt>
      <trkpt lat="46.23705" lon="-1.54439">
        <ele>2</ele>
        <time>2023-07-16T10:34:34.079+00:00</time>
      </trkpt>
      <trkpt lat="46.23729" lon="-1.54436">
        <ele>1</ele>
        <time>2023-07-16T10:34:39.068+00:00</time>
      </trkpt>
      <trkpt lat="46.23749" lon="-1.54436">
        <ele>2</ele>
        <time>2023-07-16T10:34:43.109+00:00</time>
      </trkpt>
      <trkpt lat="46.23768" lon="-1.54434">
        <ele>2</ele>
        <time>2023-07-16T10:34:47.111+00:00</time>
      </trkpt>
      <trkpt lat="46.23793" lon="-1.54431">
        <ele>2</ele>
        <time>2023-07-16T10:34:52.099+00:00</time>
      </trkpt>
      <trkpt lat="46.23811" lon="-1.54426">
        <ele>2</ele>
        <time>2023-07-16T10:34:56.096+00:00</time>
      </trkpt>
      <trkpt lat="46.23836" lon="-1.54423">
        <ele>1</ele>
        <time>2023-07-16T10:35:01.083+00:00</time>
      </trkpt>
      <trkpt lat="46.23855" lon="-1.54419">
        <ele>2.3</ele>
        <time>2023-07-16T10:35:05.096+00:00</time>
      </trkpt>
      <trkpt lat="46.23874" lon="-1.54414">
        <ele>2.5</ele>
        <time>2023-07-16T10:35:09.101+00:00</time>
      </trkpt>
      <trkpt lat="46.23899" lon="-1.54409">
        <ele>1</ele>
        <time>2023-07-16T10:35:14.105+00:00</time>
      </trkpt>
      <trkpt lat="46.23919" lon="-1.54409">
        <ele>2</ele>
        <time>2023-07-16T10:35:18.118+00:00</time>
      </trkpt>
      <trkpt lat="46.23939" lon="-1.54411">
        <ele>3</ele>
        <time>2023-07-16T10:35:23.095+00:00</time>
      </trkpt>
      <trkpt lat="46.23956" lon="-1.54412">
        <ele>3</ele>
        <time>2023-07-16T10:35:28.095+00:00</time>
      </trkpt>
      <trkpt lat="46.23964" lon="-1.54417">
        <ele>3</ele>
        <time>2023-07-16T10:35:31.697+00:00</time>
      </trkpt>
      <trkpt lat="46.23968" lon="-1.54428">
        <ele>3</ele>
        <time>2023-07-16T10:35:36.424+00:00</time>
      </trkpt>
      <trkpt lat="46.23965" lon="-1.54435">
        <ele>2</ele>
        <time>2023-07-16T10:35:41.011+00:00</time>
      </trkpt>
      <trkpt lat="46.23974" lon="-1.54445">
        <ele>2</ele>
        <time>2023-07-16T10:35:45.035+00:00</time>
      </trkpt>
      <trkpt lat="46.23991" lon="-1.54433">
        <ele>2</ele>
        <time>2023-07-16T10:35:49.700+00:00</time>
      </trkpt>
      <trkpt lat="46.24005" lon="-1.54425">
        <ele>3</ele>
        <time>2023-07-16T10:35:53.885+00:00</time>
      </trkpt>
      <trkpt lat="46.24024" lon="-1.54419">
        <ele>1</ele>
        <time>2023-07-16T10:35:58.103+00:00</time>
      </trkpt>
      <trkpt lat="46.24044" lon="-1.54414">
        <ele>3.3</ele>
        <time>2023-07-16T10:36:02.104+00:00</time>
      </trkpt>
      <trkpt lat="46.24067" lon="-1.54409">
        <ele>2.8</ele>
        <time>2023-07-16T10:36:07.070+00:00</time>
      </trkpt>
      <trkpt lat="46.24086" lon="-1.54404">
        <ele>1</ele>
        <time>2023-07-16T10:36:11.078+00:00</time>
      </trkpt>
      <trkpt lat="46.24106" lon="-1.54401">
        <ele>2</ele>
        <time>2023-07-16T10:36:15.087+00:00</time>
      </trkpt>
      <trkpt lat="46.24125" lon="-1.54396">
        <ele>2</ele>
        <time>2023-07-16T10:36:19.102+00:00</time>
      </trkpt>
      <trkpt lat="46.24146" lon="-1.54392">
        <ele>2</ele>
        <time>2023-07-16T10:36:24.095+00:00</time>
      </trkpt>
      <trkpt lat="46.24168" lon="-1.54388">
        <ele>3</ele>
        <time>2023-07-16T10:36:29.092+00:00</time>
      </trkpt>
      <trkpt lat="46.2419" lon="-1.54382">
        <ele>3</ele>
        <time>2023-07-16T10:36:34.085+00:00</time>
      </trkpt>
      <trkpt lat="46.2421" lon="-1.54389">
        <ele>3</ele>
        <time>2023-07-16T10:36:38.643+00:00</time>
      </trkpt>
      <trkpt lat="46.24222" lon="-1.54398">
        <ele>3</ele>
        <time>2023-07-16T10:36:43.906+00:00</time>
      </trkpt>
      <trkpt lat="46.24227" lon="-1.544">
        <ele>3</ele>
        <time>2023-07-16T10:36:47.816+00:00</time>
      </trkpt>
      <trkpt lat="46.24228" lon="-1.54429">
        <ele>4</ele>
        <time>2023-07-16T10:36:53.096+00:00</time>
      </trkpt>
      <trkpt lat="46.24227" lon="-1.54463">
        <ele>3</ele>
        <time>2023-07-16T10:36:58.075+00:00</time>
      </trkpt>
      <trkpt lat="46.24227" lon="-1.5449">
        <ele>2</ele>
        <time>2023-07-16T10:37:02.088+00:00</time>
      </trkpt>
      <trkpt lat="46.24226" lon="-1.54518">
        <ele>3</ele>
        <time>2023-07-16T10:37:06.088+00:00</time>
      </trkpt>
      <trkpt lat="46.24225" lon="-1.54544">
        <ele>3</ele>
        <time>2023-07-16T10:37:10.103+00:00</time>
      </trkpt>
      <trkpt lat="46.24223" lon="-1.54578">
        <ele>3</ele>
        <time>2023-07-16T10:37:15.084+00:00</time>
      </trkpt>
      <trkpt lat="46.24223" lon="-1.54605">
        <ele>2</ele>
        <time>2023-07-16T10:37:19.088+00:00</time>
      </trkpt>
      <trkpt lat="46.24221" lon="-1.54634">
        <ele>2</ele>
        <time>2023-07-16T10:37:24.099+00:00</time>
      </trkpt>
      <trkpt lat="46.24219" lon="-1.54657">
        <ele>3</ele>
        <time>2023-07-16T10:37:28.303+00:00</time>
      </trkpt>
      <trkpt lat="46.24219" lon="-1.54685">
        <ele>4</ele>
        <time>2023-07-16T10:37:32.658+00:00</time>
      </trkpt>
      <trkpt lat="46.2422" lon="-1.54707">
        <ele>4</ele>
        <time>2023-07-16T10:37:37.202+00:00</time>
      </trkpt>
      <trkpt lat="46.24224" lon="-1.54736">
        <ele>2</ele>
        <time>2023-07-16T10:37:41.866+00:00</time>
      </trkpt>
      <trkpt lat="46.24229" lon="-1.54765">
        <ele>3</ele>
        <time>2023-07-16T10:37:46.411+00:00</time>
      </trkpt>
      <trkpt lat="46.24232" lon="-1.54791">
        <ele>3</ele>
        <time>2023-07-16T10:37:51.048+00:00</time>
      </trkpt>
      <trkpt lat="46.24235" lon="-1.54814">
        <ele>4</ele>
        <time>2023-07-16T10:37:55.018+00:00</time>
      </trkpt>
      <trkpt lat="46.2424" lon="-1.54844">
        <ele>5</ele>
        <time>2023-07-16T10:38:00.062+00:00</time>
      </trkpt>
      <trkpt lat="46.24243" lon="-1.54866">
        <ele>5</ele>
        <time>2023-07-16T10:38:04.027+00:00</time>
      </trkpt>
      <trkpt lat="46.24247" lon="-1.54888">
        <ele>5</ele>
        <time>2023-07-16T10:38:08.455+00:00</time>
      </trkpt>
      <trkpt lat="46.24249" lon="-1.54912">
        <ele>4</ele>
        <time>2023-07-16T10:38:13+00:00</time>
      </trkpt>
      <trkpt lat="46.24248" lon="-1.54959">
        <ele>3</ele>
        <time>2023-07-16T10:38:31.238+00:00</time>
      </trkpt>
      <trkpt lat="46.24247" lon="-1.5496">
        <ele>3</ele>
        <time>2023-07-16T10:38:35.841+00:00</time>
      </trkpt>
      <trkpt lat="46.24243" lon="-1.54961">
        <ele>3</ele>
        <time>2023-07-16T10:38:40.385+00:00</time>
      </trkpt>
      <trkpt lat="46.24237" lon="-1.54962">
        <ele>3</ele>
        <time>2023-07-16T10:38:44.573+00:00</time>
      </trkpt>
      <trkpt lat="46.24234" lon="-1.54963">
        <ele>2</ele>
        <time>2023-07-16T10:38:46.248+00:00</time>
      </trkpt>
      <trkpt lat="46.24228" lon="-1.54967">
        <ele>2</ele>
        <time>2023-07-16T10:38:56.014+00:00</time>
      </trkpt>
      <trkpt lat="46.24228" lon="-1.54969">
        <ele>2</ele>
        <time>2023-07-16T10:39:01.022+00:00</time>
      </trkpt>
      <trkpt lat="46.2423" lon="-1.54967">
        <ele>2</ele>
        <time>2023-07-16T10:39:05.560+00:00</time>
      </trkpt>
      <trkpt lat="46.24233" lon="-1.5496">
        <ele>2</ele>
        <time>2023-07-16T10:39:09.564+00:00</time>
      </trkpt>
      <trkpt lat="46.24241" lon="-1.54958">
        <ele>3</ele>
        <time>2023-07-16T10:39:14.182+00:00</time>
      </trkpt>
      <trkpt lat="46.24246" lon="-1.54953">
        <ele>3</ele>
        <time>2023-07-16T10:40:00.004+00:00</time>
      </trkpt>
      <trkpt lat="46.24249" lon="-1.54951">
        <ele>3</ele>
        <time>2023-07-16T10:40:03.937+00:00</time>
      </trkpt>
      <trkpt lat="46.2425" lon="-1.54952">
        <ele>3</ele>
        <time>2023-07-16T10:40:08.490+00:00</time>
      </trkpt>
      <trkpt lat="46.2425" lon="-1.5496">
        <ele>3</ele>
        <time>2023-07-16T10:40:12.564+00:00</time>
      </trkpt>
      <trkpt lat="46.24253" lon="-1.54979">
        <ele>3</ele>
        <time>2023-07-16T10:40:17.096+00:00</time>
      </trkpt>
      <trkpt lat="46.2426" lon="-1.55008">
        <ele>4</ele>
        <time>2023-07-16T10:40:21.649+00:00</time>
      </trkpt>
      <trkpt lat="46.24267" lon="-1.5504">
        <ele>4</ele>
        <time>2023-07-16T10:40:26.089+00:00</time>
      </trkpt>
      <trkpt lat="46.2427" lon="-1.55075">
        <ele>4</ele>
        <time>2023-07-16T10:40:31.074+00:00</time>
      </trkpt>
      <trkpt lat="46.24275" lon="-1.551">
        <ele>4</ele>
        <time>2023-07-16T10:40:35.107+00:00</time>
      </trkpt>
      <trkpt lat="46.24281" lon="-1.55133">
        <ele>4</ele>
        <time>2023-07-16T10:40:40.092+00:00</time>
      </trkpt>
      <trkpt lat="46.24289" lon="-1.55166">
        <ele>3</ele>
        <time>2023-07-16T10:40:45.117+00:00</time>
      </trkpt>
      <trkpt lat="46.24295" lon="-1.55199">
        <ele>4</ele>
        <time>2023-07-16T10:40:50.077+00:00</time>
      </trkpt>
      <trkpt lat="46.24298" lon="-1.55227">
        <ele>2</ele>
        <time>2023-07-16T10:40:54.117+00:00</time>
      </trkpt>
      <trkpt lat="46.24303" lon="-1.55262">
        <ele>1</ele>
        <time>2023-07-16T10:40:59.069+00:00</time>
      </trkpt>
      <trkpt lat="46.24306" lon="-1.55289">
        <ele>3</ele>
        <time>2023-07-16T10:41:03.079+00:00</time>
      </trkpt>
      <trkpt lat="46.2431" lon="-1.55316">
        <ele>3.2</ele>
        <time>2023-07-16T10:41:07.100+00:00</time>
      </trkpt>
      <trkpt lat="46.24313" lon="-1.55343">
        <ele>3.3</ele>
        <time>2023-07-16T10:41:12.085+00:00</time>
      </trkpt>
      <trkpt lat="46.24315" lon="-1.55359">
        <ele>3.3</ele>
        <time>2023-07-16T10:41:16.091+00:00</time>
      </trkpt>
      <trkpt lat="46.24322" lon="-1.55381">
        <ele>2.9</ele>
        <time>2023-07-16T10:41:20.880+00:00</time>
      </trkpt>
      <trkpt lat="46.24332" lon="-1.55404">
        <ele>1</ele>
        <time>2023-07-16T10:41:25.068+00:00</time>
      </trkpt>
      <trkpt lat="46.24341" lon="-1.55429">
        <ele>1</ele>
        <time>2023-07-16T10:41:29.837+00:00</time>
      </trkpt>
      <trkpt lat="46.24353" lon="-1.5545">
        <ele>2</ele>
        <time>2023-07-16T10:41:34.597+00:00</time>
      </trkpt>
      <trkpt lat="46.2436" lon="-1.55467">
        <ele>3</ele>
        <time>2023-07-16T10:41:38.649+00:00</time>
      </trkpt>
      <trkpt lat="46.24372" lon="-1.55501">
        <ele>2</ele>
        <time>2023-07-16T10:41:44.084+00:00</time>
      </trkpt>
      <trkpt lat="46.24379" lon="-1.55532">
        <ele>2</ele>
        <time>2023-07-16T10:41:49.104+00:00</time>
      </trkpt>
      <trkpt lat="46.24385" lon="-1.5556">
        <ele>2</ele>
        <time>2023-07-16T10:41:53.099+00:00</time>
      </trkpt>
      <trkpt lat="46.24391" lon="-1.55592">
        <ele>2</ele>
        <time>2023-07-16T10:41:58.052+00:00</time>
      </trkpt>
      <trkpt lat="46.24399" lon="-1.55619">
        <ele>2</ele>
        <time>2023-07-16T10:42:02.091+00:00</time>
      </trkpt>
      <trkpt lat="46.2441" lon="-1.55656">
        <ele>3</ele>
        <time>2023-07-16T10:42:07.092+00:00</time>
      </trkpt>
      <trkpt lat="46.24422" lon="-1.55688">
        <ele>3</ele>
        <time>2023-07-16T10:42:12.079+00:00</time>
      </trkpt>
      <trkpt lat="46.24429" lon="-1.55719">
        <ele>3</ele>
        <time>2023-07-16T10:42:17.102+00:00</time>
      </trkpt>
      <trkpt lat="46.24433" lon="-1.55754">
        <ele>4</ele>
        <time>2023-07-16T10:42:22.106+00:00</time>
      </trkpt>
      <trkpt lat="46.24428" lon="-1.55781">
        <ele>2</ele>
        <time>2023-07-16T10:42:26.085+00:00</time>
      </trkpt>
      <trkpt lat="46.24415" lon="-1.5581">
        <ele>2</ele>
        <time>2023-07-16T10:42:31.089+00:00</time>
      </trkpt>
      <trkpt lat="46.24396" lon="-1.55835">
        <ele>1</ele>
        <time>2023-07-16T10:42:36.065+00:00</time>
      </trkpt>
      <trkpt lat="46.24383" lon="-1.55849">
        <ele>2</ele>
        <time>2023-07-16T10:42:40.086+00:00</time>
      </trkpt>
      <trkpt lat="46.24379" lon="-1.55852">
        <ele>2</ele>
        <time>2023-07-16T10:42:45.086+00:00</time>
      </trkpt>
      <trkpt lat="46.24377" lon="-1.55856">
        <ele>2</ele>
        <time>2023-07-16T10:42:49.100+00:00</time>
      </trkpt>
      <trkpt lat="46.24378" lon="-1.55855">
        <ele>2</ele>
        <time>2023-07-16T10:42:53.651+00:00</time>
      </trkpt>
      <trkpt lat="46.24373" lon="-1.55857">
        <ele>1</ele>
        <time>2023-07-16T10:42:57.723+00:00</time>
      </trkpt>
      <trkpt lat="46.24365" lon="-1.55864">
        <ele>1</ele>
        <time>2023-07-16T10:43:02.263+00:00</time>
      </trkpt>
      <trkpt lat="46.24363" lon="-1.5587">
        <ele>1</ele>
        <time>2023-07-16T10:43:06.215+00:00</time>
      </trkpt>
      <trkpt lat="46.2436" lon="-1.55876">
        <ele>1</ele>
        <time>2023-07-16T10:43:10.530+00:00</time>
      </trkpt>
      <trkpt lat="46.24355" lon="-1.55868">
        <ele>1</ele>
        <time>2023-07-16T10:43:14.658+00:00</time>
      </trkpt>
      <trkpt lat="46.2435" lon="-1.5588">
        <ele>1</ele>
        <time>2023-07-16T10:43:19.213+00:00</time>
      </trkpt>
      <trkpt lat="46.24345" lon="-1.55886">
        <ele>2</ele>
        <time>2023-07-16T10:43:23.262+00:00</time>
      </trkpt>
      <trkpt lat="46.2434" lon="-1.55889">
        <ele>2</ele>
        <time>2023-07-16T10:43:27.215+00:00</time>
      </trkpt>
      <trkpt lat="46.24334" lon="-1.5589">
        <ele>2</ele>
        <time>2023-07-16T10:43:31.739+00:00</time>
      </trkpt>
      <trkpt lat="46.24328" lon="-1.55891">
        <ele>2</ele>
        <time>2023-07-16T10:43:35.798+00:00</time>
      </trkpt>
      <trkpt lat="46.2433" lon="-1.55886">
        <ele>2</ele>
        <time>2023-07-16T10:43:39.879+00:00</time>
      </trkpt>
      <trkpt lat="46.24328" lon="-1.55884">
        <ele>2</ele>
        <time>2023-07-16T10:43:43.796+00:00</time>
      </trkpt>
      <trkpt lat="46.24324" lon="-1.55891">
        <ele>2</ele>
        <time>2023-07-16T10:43:48.228+00:00</time>
      </trkpt>
      <trkpt lat="46.24317" lon="-1.55902">
        <ele>1</ele>
        <time>2023-07-16T10:43:52.416+00:00</time>
      </trkpt>
      <trkpt lat="46.24312" lon="-1.5591">
        <ele>2</ele>
        <time>2023-07-16T10:43:57.085+00:00</time>
      </trkpt>
      <trkpt lat="46.24311" lon="-1.55916">
        <ele>2</ele>
        <time>2023-07-16T10:44:01.101+00:00</time>
      </trkpt>
      <trkpt lat="46.24302" lon="-1.55919">
        <ele>2</ele>
        <time>2023-07-16T10:44:05.225+00:00</time>
      </trkpt>
      <trkpt lat="46.24292" lon="-1.55923">
        <ele>2</ele>
        <time>2023-07-16T10:44:09.655+00:00</time>
      </trkpt>
      <trkpt lat="46.24292" lon="-1.55928">
        <ele>1</ele>
        <time>2023-07-16T10:45:31.414+00:00</time>
      </trkpt>
      <trkpt lat="46.24295" lon="-1.55924">
        <ele>2</ele>
        <time>2023-07-16T10:45:35.621+00:00</time>
      </trkpt>
      <trkpt lat="46.24295" lon="-1.55924">
        <ele>2</ele>
        <time>2023-07-16T10:45:39.691+00:00</time>
      </trkpt>
      <trkpt lat="46.24299" lon="-1.55929">
        <ele>2</ele>
        <time>2023-07-16T10:45:43.641+00:00</time>
      </trkpt>
      <trkpt lat="46.243" lon="-1.55927">
        <ele>2</ele>
        <time>2023-07-16T10:45:48.308+00:00</time>
      </trkpt>
      <trkpt lat="46.24296" lon="-1.55942">
        <ele>2</ele>
        <time>2023-07-16T10:46:01.218+00:00</time>
      </trkpt>
      <trkpt lat="46.24299" lon="-1.55935">
        <ele>2</ele>
        <time>2023-07-16T10:46:05.725+00:00</time>
      </trkpt>
      <trkpt lat="46.24305" lon="-1.55922">
        <ele>2</ele>
        <time>2023-07-16T10:46:10.231+00:00</time>
      </trkpt>
      <trkpt lat="46.2431" lon="-1.55915">
        <ele>2</ele>
        <time>2023-07-16T10:46:14.236+00:00</time>
      </trkpt>
      <trkpt lat="46.24312" lon="-1.55911">
        <ele>2</ele>
        <time>2023-07-16T10:46:18.240+00:00</time>
      </trkpt>
      <trkpt lat="46.24312" lon="-1.5591">
        <ele>2</ele>
        <time>2023-07-16T10:46:22.754+00:00</time>
      </trkpt>
      <trkpt lat="46.24313" lon="-1.5591">
        <ele>2</ele>
        <time>2023-07-16T10:46:26.896+00:00</time>
      </trkpt>
      <trkpt lat="46.24318" lon="-1.55914">
        <ele>2</ele>
        <time>2023-07-16T10:46:31.632+00:00</time>
      </trkpt>
      <trkpt lat="46.2432" lon="-1.55921">
        <ele>2</ele>
        <time>2023-07-16T10:46:35.828+00:00</time>
      </trkpt>
      <trkpt lat="46.24318" lon="-1.55933">
        <ele>2</ele>
        <time>2023-07-16T10:51:59.071+00:00</time>
      </trkpt>
      <trkpt lat="46.24317" lon="-1.55933">
        <ele>2</ele>
        <time>2023-07-16T10:52:03.094+00:00</time>
      </trkpt>
      <trkpt lat="46.24316" lon="-1.55935">
        <ele>2</ele>
        <time>2023-07-16T10:52:07.819+00:00</time>
      </trkpt>
      <trkpt lat="46.24316" lon="-1.55937">
        <ele>2</ele>
        <time>2023-07-16T10:52:12.012+00:00</time>
      </trkpt>
      <trkpt lat="46.24316" lon="-1.55939">
        <ele>2</ele>
        <time>2023-07-16T10:52:16.778+00:00</time>
      </trkpt>
      <trkpt lat="46.24308" lon="-1.55946">
        <ele>2</ele>
        <time>2023-07-16T10:52:55.862+00:00</time>
      </trkpt>
      <trkpt lat="46.24298" lon="-1.55917">
        <ele>2</ele>
        <time>2023-07-16T10:53:00.046+00:00</time>
      </trkpt>
      <trkpt lat="46.24277" lon="-1.5586">
        <ele>2</ele>
        <time>2023-07-16T10:53:04.045+00:00</time>
      </trkpt>
      <trkpt lat="46.24268" lon="-1.55823">
        <ele>2</ele>
        <time>2023-07-16T10:53:09.048+00:00</time>
      </trkpt>
      <trkpt lat="46.24265" lon="-1.55824">
        <ele>2</ele>
        <time>2023-07-16T10:53:14.042+00:00</time>
      </trkpt>
      <trkpt lat="46.24268" lon="-1.55826">
        <ele>2</ele>
        <time>2023-07-16T10:53:18.053+00:00</time>
      </trkpt>
      <trkpt lat="46.24278" lon="-1.55839">
        <ele>2</ele>
        <time>2023-07-16T10:53:23.039+00:00</time>
      </trkpt>
      <trkpt lat="46.24283" lon="-1.55864">
        <ele>2</ele>
        <time>2023-07-16T10:53:27.048+00:00</time>
      </trkpt>
      <trkpt lat="46.24288" lon="-1.55904">
        <ele>1</ele>
        <time>2023-07-16T10:53:32.056+00:00</time>
      </trkpt>
      <trkpt lat="46.24295" lon="-1.55925">
        <ele>2</ele>
        <time>2023-07-16T10:53:36.565+00:00</time>
      </trkpt>
      <trkpt lat="46.24297" lon="-1.55933">
        <ele>2</ele>
        <time>2023-07-16T10:53:41.074+00:00</time>
      </trkpt>
      <trkpt lat="46.243" lon="-1.55936">
        <ele>2</ele>
        <time>2023-07-16T10:53:45.586+00:00</time>
      </trkpt>
      <trkpt lat="46.24302" lon="-1.5594">
        <ele>2</ele>
        <time>2023-07-16T10:53:49.597+00:00</time>
      </trkpt>
      <trkpt lat="46.24336" lon="-1.5596">
        <ele>2</ele>
        <time>2023-07-16T10:53:55.051+00:00</time>
      </trkpt>
      <trkpt lat="46.24378" lon="-1.55985">
        <ele>2</ele>
        <time>2023-07-16T10:54:00.060+00:00</time>
      </trkpt>
      <trkpt lat="46.24411" lon="-1.56012">
        <ele>1</ele>
        <time>2023-07-16T10:54:05.053+00:00</time>
      </trkpt>
      <trkpt lat="46.24433" lon="-1.56072">
        <ele>4</ele>
        <time>2023-07-16T10:54:15.048+00:00</time>
      </trkpt>
      <trkpt lat="46.24311" lon="-1.56172">
        <ele>9</ele>
        <time>2023-07-16T10:54:40.040+00:00</time>
      </trkpt>
      <trkpt lat="46.24297" lon="-1.56183">
        <ele>11</ele>
        <time>2023-07-16T10:54:45.048+00:00</time>
      </trkpt>
      <trkpt lat="46.24314" lon="-1.55947">
        <ele>2</ele>
        <time>2023-07-16T10:55:29.936+00:00</time>
      </trkpt>
      <trkpt lat="46.24325" lon="-1.5591">
        <ele>2</ele>
        <time>2023-07-16T10:55:34.235+00:00</time>
      </trkpt>
      <trkpt lat="46.24315" lon="-1.5594">
        <ele>2</ele>
        <time>2023-07-16T10:55:55.049+00:00</time>
      </trkpt>
      <trkpt lat="46.24315" lon="-1.55941">
        <ele>2</ele>
        <time>2023-07-16T10:56:00.097+00:00</time>
      </trkpt>
      <trkpt lat="46.24309" lon="-1.55976">
        <ele>2</ele>
        <time>2023-07-16T10:56:20.073+00:00</time>
      </trkpt>
      <trkpt lat="46.24289" lon="-1.56018">
        <ele>2</ele>
        <time>2023-07-16T10:56:25.056+00:00</time>
      </trkpt>
      <trkpt lat="46.24292" lon="-1.55996">
        <ele>2</ele>
        <time>2023-07-16T10:56:30.070+00:00</time>
      </trkpt>
      <trkpt lat="46.24294" lon="-1.5598">
        <ele>2</ele>
        <time>2023-07-16T10:56:35.066+00:00</time>
      </trkpt>
      <trkpt lat="46.24296" lon="-1.55971">
        <ele>2</ele>
        <time>2023-07-16T10:56:40.050+00:00</time>
      </trkpt>
      <trkpt lat="46.243" lon="-1.55968">
        <ele>2</ele>
        <time>2023-07-16T10:56:45.045+00:00</time>
      </trkpt>
      <trkpt lat="46.24301" lon="-1.55965">
        <ele>2</ele>
        <time>2023-07-16T10:56:50.040+00:00</time>
      </trkpt>
      <trkpt lat="46.24299" lon="-1.55964">
        <ele>2</ele>
        <time>2023-07-16T10:56:55.057+00:00</time>
      </trkpt>
      <trkpt lat="46.24314" lon="-1.55953">
        <ele>2</ele>
        <time>2023-07-16T10:57:00.060+00:00</time>
      </trkpt>
      <trkpt lat="46.24323" lon="-1.5595">
        <ele>2</ele>
        <time>2023-07-16T10:57:04+00:00</time>
      </trkpt>
      <trkpt lat="46.24329" lon="-1.55943">
        <ele>2</ele>
        <time>2023-07-16T10:57:09.048+00:00</time>
      </trkpt>
      <trkpt lat="46.24329" lon="-1.55943">
        <ele>2</ele>
        <time>2023-07-16T10:57:14.056+00:00</time>
      </trkpt>
      <trkpt lat="46.24328" lon="-1.55943">
        <ele>2</ele>
        <time>2023-07-16T10:57:18.062+00:00</time>
      </trkpt>
      <trkpt lat="46.24324" lon="-1.55944">
        <ele>2</ele>
        <time>2023-07-16T10:57:22.068+00:00</time>
      </trkpt>
      <trkpt lat="46.2432" lon="-1.55946">
        <ele>2</ele>
        <time>2023-07-16T10:57:27.051+00:00</time>
      </trkpt>
      <trkpt lat="46.24332" lon="-1.55946">
        <ele>2</ele>
        <time>2023-07-16T10:58:22.070+00:00</time>
      </trkpt>
      <trkpt lat="46.24333" lon="-1.55947">
        <ele>2</ele>
        <time>2023-07-16T10:58:27.071+00:00</time>
      </trkpt>
      <trkpt lat="46.24337" lon="-1.55944">
        <ele>2</ele>
        <time>2023-07-16T10:58:32.075+00:00</time>
      </trkpt>
      <trkpt lat="46.24344" lon="-1.55937">
        <ele>2</ele>
        <time>2023-07-16T10:58:37.070+00:00</time>
      </trkpt>
      <trkpt lat="46.24346" lon="-1.55935">
        <ele>2</ele>
        <time>2023-07-16T10:58:41.077+00:00</time>
      </trkpt>
      <trkpt lat="46.24346" lon="-1.55933">
        <ele>2</ele>
        <time>2023-07-16T10:58:46.070+00:00</time>
      </trkpt>
      <trkpt lat="46.2434" lon="-1.55936">
        <ele>2</ele>
        <time>2023-07-16T10:58:51.083+00:00</time>
      </trkpt>
      <trkpt lat="46.24336" lon="-1.55943">
        <ele>2</ele>
        <time>2023-07-16T10:58:56.069+00:00</time>
      </trkpt>
      <trkpt lat="46.24335" lon="-1.55945">
        <ele>2</ele>
        <time>2023-07-16T10:59:01.065+00:00</time>
      </trkpt>
      <trkpt lat="46.24336" lon="-1.55943">
        <ele>2</ele>
        <time>2023-07-16T10:59:21.040+00:00</time>
      </trkpt>
      <trkpt lat="46.2433" lon="-1.5595">
        <ele>2</ele>
        <time>2023-07-16T10:59:26.048+00:00</time>
      </trkpt>
      <trkpt lat="46.24329" lon="-1.55951">
        <ele>2</ele>
        <time>2023-07-16T10:59:30.073+00:00</time>
      </trkpt>
      <trkpt lat="46.24321" lon="-1.55953">
        <ele>2</ele>
        <time>2023-07-16T10:59:35.089+00:00</time>
      </trkpt>
      <trkpt lat="46.24318" lon="-1.55957">
        <ele>2</ele>
        <time>2023-07-16T10:59:40.058+00:00</time>
      </trkpt>
      <trkpt lat="46.24318" lon="-1.55956">
        <ele>2</ele>
        <time>2023-07-16T11:00:07.056+00:00</time>
      </trkpt>
      <trkpt lat="46.24318" lon="-1.55956">
        <ele>2</ele>
        <time>2023-07-16T11:00:11.074+00:00</time>
      </trkpt>
      <trkpt lat="46.24318" lon="-1.55955">
        <ele>2</ele>
        <time>2023-07-16T11:00:16.067+00:00</time>
      </trkpt>
      <trkpt lat="46.24322" lon="-1.55948">
        <ele>2</ele>
        <time>2023-07-16T11:00:20.074+00:00</time>
      </trkpt>
      <trkpt lat="46.2433" lon="-1.55937">
        <ele>2</ele>
        <time>2023-07-16T11:00:25.083+00:00</time>
      </trkpt>
      <trkpt lat="46.2433" lon="-1.55946">
        <ele>2</ele>
        <time>2023-07-16T11:00:54.080+00:00</time>
      </trkpt>
      <trkpt lat="46.24329" lon="-1.55947">
        <ele>2</ele>
        <time>2023-07-16T11:00:58.094+00:00</time>
      </trkpt>
      <trkpt lat="46.2433" lon="-1.55948">
        <ele>2</ele>
        <time>2023-07-16T11:01:03.108+00:00</time>
      </trkpt>
      <trkpt lat="46.24332" lon="-1.55948">
        <ele>2</ele>
        <time>2023-07-16T11:01:07.107+00:00</time>
      </trkpt>
      <trkpt lat="46.24338" lon="-1.55949">
        <ele>2</ele>
        <time>2023-07-16T11:01:12.084+00:00</time>
      </trkpt>
      <trkpt lat="46.24342" lon="-1.55948">
        <ele>2</ele>
        <time>2023-07-16T11:01:17.065+00:00</time>
      </trkpt>
      <trkpt lat="46.24349" lon="-1.55945">
        <ele>2</ele>
        <time>2023-07-16T11:01:22.081+00:00</time>
      </trkpt>
      <trkpt lat="46.24356" lon="-1.55943">
        <ele>2</ele>
        <time>2023-07-16T11:01:27.090+00:00</time>
      </trkpt>
      <trkpt lat="46.24359" lon="-1.55942">
        <ele>2</ele>
        <time>2023-07-16T11:01:32.048+00:00</time>
      </trkpt>
      <trkpt lat="46.24359" lon="-1.55937">
        <ele>2</ele>
        <time>2023-07-16T11:01:51.072+00:00</time>
      </trkpt>
      <trkpt lat="46.24355" lon="-1.55938">
        <ele>2</ele>
        <time>2023-07-16T11:01:55.076+00:00</time>
      </trkpt>
      <trkpt lat="46.2435" lon="-1.55941">
        <ele>2</ele>
        <time>2023-07-16T11:01:59.078+00:00</time>
      </trkpt>
      <trkpt lat="46.24346" lon="-1.55943">
        <ele>2</ele>
        <time>2023-07-16T11:02:03.090+00:00</time>
      </trkpt>
      <trkpt lat="46.24342" lon="-1.55944">
        <ele>2</ele>
        <time>2023-07-16T11:02:07.088+00:00</time>
      </trkpt>
      <trkpt lat="46.24333" lon="-1.55948">
        <ele>2</ele>
        <time>2023-07-16T11:02:34.064+00:00</time>
      </trkpt>
      <trkpt lat="46.24333" lon="-1.55947">
        <ele>2</ele>
        <time>2023-07-16T11:02:39.052+00:00</time>
      </trkpt>
      <trkpt lat="46.24331" lon="-1.55948">
        <ele>2</ele>
        <time>2023-07-16T11:02:43.077+00:00</time>
      </trkpt>
      <trkpt lat="46.24329" lon="-1.55948">
        <ele>2</ele>
        <time>2023-07-16T11:02:47.072+00:00</time>
      </trkpt>
      <trkpt lat="46.24328" lon="-1.55949">
        <ele>2</ele>
        <time>2023-07-16T11:02:51.086+00:00</time>
      </trkpt>
      <trkpt lat="46.24321" lon="-1.55949">
        <ele>2</ele>
        <time>2023-07-16T11:03:00.075+00:00</time>
      </trkpt>
      <trkpt lat="46.2432" lon="-1.55949">
        <ele>2</ele>
        <time>2023-07-16T11:03:04.086+00:00</time>
      </trkpt>
      <trkpt lat="46.24319" lon="-1.55949">
        <ele>2</ele>
        <time>2023-07-16T11:03:09.077+00:00</time>
      </trkpt>
      <trkpt lat="46.24318" lon="-1.5595">
        <ele>2</ele>
        <time>2023-07-16T11:03:13.089+00:00</time>
      </trkpt>
      <trkpt lat="46.24316" lon="-1.55952">
        <ele>2</ele>
        <time>2023-07-16T11:03:18.072+00:00</time>
      </trkpt>
      <trkpt lat="46.24312" lon="-1.5595">
        <ele>2</ele>
        <time>2023-07-16T11:04:12.025+00:00</time>
      </trkpt>
      <trkpt lat="46.24311" lon="-1.5595">
        <ele>2</ele>
        <time>2023-07-16T11:04:16.038+00:00</time>
      </trkpt>
      <trkpt lat="46.2431" lon="-1.55951">
        <ele>2</ele>
        <time>2023-07-16T11:04:20.640+00:00</time>
      </trkpt>
      <trkpt lat="46.24309" lon="-1.55951">
        <ele>2</ele>
        <time>2023-07-16T11:04:24.881+00:00</time>
      </trkpt>
      <trkpt lat="46.24306" lon="-1.55951">
        <ele>2</ele>
        <time>2023-07-16T11:04:28.887+00:00</time>
      </trkpt>
      <trkpt lat="46.24307" lon="-1.55951">
        <ele>2</ele>
        <time>2023-07-16T11:08:43.063+00:00</time>
      </trkpt>
      <trkpt lat="46.24308" lon="-1.55951">
        <ele>2</ele>
        <time>2023-07-16T11:08:47.261+00:00</time>
      </trkpt>
      <trkpt lat="46.2431" lon="-1.55948">
        <ele>2</ele>
        <time>2023-07-16T11:08:51.768+00:00</time>
      </trkpt>
      <trkpt lat="46.24312" lon="-1.55944">
        <ele>2</ele>
        <time>2023-07-16T11:08:55.874+00:00</time>
      </trkpt>
      <trkpt lat="46.24313" lon="-1.55939">
        <ele>2</ele>
        <time>2023-07-16T11:09:00.883+00:00</time>
      </trkpt>
      <trkpt lat="46.24315" lon="-1.55938">
        <ele>2</ele>
        <time>2023-07-16T11:16:36.322+00:00</time>
      </trkpt>
      <trkpt lat="46.24321" lon="-1.55937">
        <ele>2</ele>
        <time>2023-07-16T11:16:40.334+00:00</time>
      </trkpt>
      <trkpt lat="46.24324" lon="-1.55937">
        <ele>2</ele>
        <time>2023-07-16T11:16:44.842+00:00</time>
      </trkpt>
      <trkpt lat="46.24327" lon="-1.55935">
        <ele>2</ele>
        <time>2023-07-16T11:16:49.849+00:00</time>
      </trkpt>
      <trkpt lat="46.24331" lon="-1.55938">
        <ele>2</ele>
        <time>2023-07-16T11:16:53.853+00:00</time>
      </trkpt>
      <trkpt lat="46.24338" lon="-1.55949">
        <ele>2</ele>
        <time>2023-07-16T11:17:17.566+00:00</time>
      </trkpt>
      <trkpt lat="46.24341" lon="-1.55952">
        <ele>2</ele>
        <time>2023-07-16T11:17:21.142+00:00</time>
      </trkpt>
      <trkpt lat="46.24344" lon="-1.55961">
        <ele>2</ele>
        <time>2023-07-16T11:17:25.658+00:00</time>
      </trkpt>
      <trkpt lat="46.24347" lon="-1.55967">
        <ele>2</ele>
        <time>2023-07-16T11:17:29.673+00:00</time>
      </trkpt>
      <trkpt lat="46.2435" lon="-1.5597">
        <ele>2</ele>
        <time>2023-07-16T11:17:33.789+00:00</time>
      </trkpt>
      <trkpt lat="46.24353" lon="-1.55976">
        <ele>2</ele>
        <time>2023-07-16T11:17:38.827+00:00</time>
      </trkpt>
      <trkpt lat="46.24356" lon="-1.55982">
        <ele>2</ele>
        <time>2023-07-16T11:17:43.366+00:00</time>
      </trkpt>
      <trkpt lat="46.24359" lon="-1.55981">
        <ele>2</ele>
        <time>2023-07-16T11:17:47.387+00:00</time>
      </trkpt>
      <trkpt lat="46.24363" lon="-1.55985">
        <ele>2</ele>
        <time>2023-07-16T11:17:51.908+00:00</time>
      </trkpt>
      <trkpt lat="46.24367" lon="-1.55994">
        <ele>2</ele>
        <time>2023-07-16T11:17:55.925+00:00</time>
      </trkpt>
      <trkpt lat="46.24369" lon="-1.56003">
        <ele>2</ele>
        <time>2023-07-16T11:18:00.443+00:00</time>
      </trkpt>
      <trkpt lat="46.24371" lon="-1.56009">
        <ele>2</ele>
        <time>2023-07-16T11:18:05.059+00:00</time>
      </trkpt>
      <trkpt lat="46.24374" lon="-1.56015">
        <ele>3</ele>
        <time>2023-07-16T11:18:09.073+00:00</time>
      </trkpt>
      <trkpt lat="46.24376" lon="-1.5602">
        <ele>2</ele>
        <time>2023-07-16T11:18:13.089+00:00</time>
      </trkpt>
      <trkpt lat="46.24379" lon="-1.56025">
        <ele>2</ele>
        <time>2023-07-16T11:18:17.104+00:00</time>
      </trkpt>
      <trkpt lat="46.24382" lon="-1.56031">
        <ele>2</ele>
        <time>2023-07-16T11:18:21.619+00:00</time>
      </trkpt>
      <trkpt lat="46.24385" lon="-1.56036">
        <ele>2</ele>
        <time>2023-07-16T11:18:26.134+00:00</time>
      </trkpt>
      <trkpt lat="46.24387" lon="-1.56043">
        <ele>3</ele>
        <time>2023-07-16T11:18:30.649+00:00</time>
      </trkpt>
      <trkpt lat="46.2439" lon="-1.5605">
        <ele>3</ele>
        <time>2023-07-16T11:18:35.166+00:00</time>
      </trkpt>
      <trkpt lat="46.24395" lon="-1.5606">
        <ele>3</ele>
        <time>2023-07-16T11:18:39.684+00:00</time>
      </trkpt>
      <trkpt lat="46.24398" lon="-1.56065">
        <ele>3</ele>
        <time>2023-07-16T11:18:44.201+00:00</time>
      </trkpt>
      <trkpt lat="46.24401" lon="-1.5607">
        <ele>4</ele>
        <time>2023-07-16T11:18:48.216+00:00</time>
      </trkpt>
      <trkpt lat="46.24405" lon="-1.56072">
        <ele>4</ele>
        <time>2023-07-16T11:18:52.733+00:00</time>
      </trkpt>
      <trkpt lat="46.24406" lon="-1.56075">
        <ele>4</ele>
        <time>2023-07-16T11:18:57.252+00:00</time>
      </trkpt>
      <trkpt lat="46.24404" lon="-1.56083">
        <ele>4</ele>
        <time>2023-07-16T11:19:01.367+00:00</time>
      </trkpt>
      <trkpt lat="46.244" lon="-1.5609">
        <ele>4</ele>
        <time>2023-07-16T11:19:05.383+00:00</time>
      </trkpt>
      <trkpt lat="46.244" lon="-1.56096">
        <ele>4</ele>
        <time>2023-07-16T11:19:10.002+00:00</time>
      </trkpt>
      <trkpt lat="46.244" lon="-1.56102">
        <ele>5</ele>
        <time>2023-07-16T11:19:14.315+00:00</time>
      </trkpt>
      <trkpt lat="46.24401" lon="-1.56109">
        <ele>5</ele>
        <time>2023-07-16T11:19:18.874+00:00</time>
      </trkpt>
      <trkpt lat="46.24404" lon="-1.56111">
        <ele>5</ele>
        <time>2023-07-16T11:19:22.447+00:00</time>
      </trkpt>
      <trkpt lat="46.2441" lon="-1.56111">
        <ele>5</ele>
        <time>2023-07-16T11:19:27.064+00:00</time>
      </trkpt>
      <trkpt lat="46.24414" lon="-1.56115">
        <ele>5</ele>
        <time>2023-07-16T11:19:31.578+00:00</time>
      </trkpt>
      <trkpt lat="46.24417" lon="-1.56113">
        <ele>5</ele>
        <time>2023-07-16T11:19:36.895+00:00</time>
      </trkpt>
      <trkpt lat="46.24418" lon="-1.56114">
        <ele>5</ele>
        <time>2023-07-16T11:19:45.931+00:00</time>
      </trkpt>
      <trkpt lat="46.24417" lon="-1.56116">
        <ele>5</ele>
        <time>2023-07-16T11:19:50.953+00:00</time>
      </trkpt>
      <trkpt lat="46.24417" lon="-1.56118">
        <ele>5</ele>
        <time>2023-07-16T11:19:55.974+00:00</time>
      </trkpt>
      <trkpt lat="46.24418" lon="-1.56118">
        <ele>5</ele>
        <time>2023-07-16T11:20:00.032+00:00</time>
      </trkpt>
      <trkpt lat="46.24418" lon="-1.56127">
        <ele>6</ele>
        <time>2023-07-16T11:20:05.034+00:00</time>
      </trkpt>
      <trkpt lat="46.24415" lon="-1.56126">
        <ele>6</ele>
        <time>2023-07-16T11:20:27.042+00:00</time>
      </trkpt>
      <trkpt lat="46.24416" lon="-1.56121">
        <ele>5</ele>
        <time>2023-07-16T11:20:32.109+00:00</time>
      </trkpt>
      <trkpt lat="46.24414" lon="-1.56121">
        <ele>5</ele>
        <time>2023-07-16T11:20:37.142+00:00</time>
      </trkpt>
      <trkpt lat="46.24413" lon="-1.56122">
        <ele>5</ele>
        <time>2023-07-16T11:20:42.150+00:00</time>
      </trkpt>
      <trkpt lat="46.24411" lon="-1.56132">
        <ele>6</ele>
        <time>2023-07-16T11:20:47.172+00:00</time>
      </trkpt>
      <trkpt lat="46.24419" lon="-1.56078">
        <ele>4</ele>
        <time>2023-07-16T11:20:55.617+00:00</time>
      </trkpt>
      <trkpt lat="46.2441" lon="-1.56065">
        <ele>2</ele>
        <time>2023-07-16T11:21:11.041+00:00</time>
      </trkpt>
      <trkpt lat="46.24393" lon="-1.56132">
        <ele>7</ele>
        <time>2023-07-16T11:22:50.121+00:00</time>
      </trkpt>
      <trkpt lat="46.24393" lon="-1.56134">
        <ele>7</ele>
        <time>2023-07-16T11:22:54.638+00:00</time>
      </trkpt>
      <trkpt lat="46.24392" lon="-1.56128">
        <ele>7</ele>
        <time>2023-07-16T11:26:09.059+00:00</time>
      </trkpt>
      <trkpt lat="46.24396" lon="-1.56126">
        <ele>7</ele>
        <time>2023-07-16T11:26:12.653+00:00</time>
      </trkpt>
      <trkpt lat="46.24408" lon="-1.56122">
        <ele>5</ele>
        <time>2023-07-16T11:26:17.334+00:00</time>
      </trkpt>
      <trkpt lat="46.24412" lon="-1.56118">
        <ele>5</ele>
        <time>2023-07-16T11:26:20.996+00:00</time>
      </trkpt>
      <trkpt lat="46.24416" lon="-1.56116">
        <ele>5</ele>
        <time>2023-07-16T11:26:26.014+00:00</time>
      </trkpt>
      <trkpt lat="46.24425" lon="-1.56104">
        <ele>5</ele>
        <time>2023-07-16T11:32:32.802+00:00</time>
      </trkpt>
      <trkpt lat="46.24429" lon="-1.56098">
        <ele>5</ele>
        <time>2023-07-16T11:32:36.843+00:00</time>
      </trkpt>
      <trkpt lat="46.24429" lon="-1.56086">
        <ele>4</ele>
        <time>2023-07-16T11:32:41.846+00:00</time>
      </trkpt>
      <trkpt lat="46.24429" lon="-1.56079">
        <ele>4</ele>
        <time>2023-07-16T11:32:45.867+00:00</time>
      </trkpt>
      <trkpt lat="46.24429" lon="-1.56075">
        <ele>4</ele>
        <time>2023-07-16T11:32:50.970+00:00</time>
      </trkpt>
      <trkpt lat="46.24426" lon="-1.56072">
        <ele>4</ele>
        <time>2023-07-16T11:32:55.012+00:00</time>
      </trkpt>
      <trkpt lat="46.24424" lon="-1.56073">
        <ele>4</ele>
        <time>2023-07-16T11:32:57.634+00:00</time>
      </trkpt>
      <trkpt lat="46.24446" lon="-1.56124">
        <ele>4</ele>
        <time>2023-07-16T11:36:13.049+00:00</time>
      </trkpt>
      <trkpt lat="46.24465" lon="-1.56117">
        <ele>4</ele>
        <time>2023-07-16T11:36:17.055+00:00</time>
      </trkpt>
      <trkpt lat="46.24455" lon="-1.5612">
        <ele>4</ele>
        <time>2023-07-16T11:36:21.652+00:00</time>
      </trkpt>
      <trkpt lat="46.24444" lon="-1.56121">
        <ele>4</ele>
        <time>2023-07-16T11:36:26.756+00:00</time>
      </trkpt>
      <trkpt lat="46.24435" lon="-1.56119">
        <ele>4</ele>
        <time>2023-07-16T11:36:31.878+00:00</time>
      </trkpt>
      <trkpt lat="46.24431" lon="-1.5612">
        <ele>4</ele>
        <time>2023-07-16T11:36:36.020+00:00</time>
      </trkpt>
      <trkpt lat="46.24436" lon="-1.56119">
        <ele>4</ele>
        <time>2023-07-16T11:41:27.056+00:00</time>
      </trkpt>
      <trkpt lat="46.24436" lon="-1.56119">
        <ele>4</ele>
        <time>2023-07-16T11:41:31.072+00:00</time>
      </trkpt>
      <trkpt lat="46.24437" lon="-1.56122">
        <ele>4</ele>
        <time>2023-07-16T11:41:36.044+00:00</time>
      </trkpt>
      <trkpt lat="46.24438" lon="-1.56123">
        <ele>4</ele>
        <time>2023-07-16T11:41:40.047+00:00</time>
      </trkpt>
      <trkpt lat="46.24438" lon="-1.56125">
        <ele>4</ele>
        <time>2023-07-16T11:41:44.051+00:00</time>
      </trkpt>
      <trkpt lat="46.24433" lon="-1.56126">
        <ele>5</ele>
        <time>2023-07-16T11:42:10.586+00:00</time>
      </trkpt>
      <trkpt lat="46.24431" lon="-1.56126">
        <ele>5</ele>
        <time>2023-07-16T11:42:14.375+00:00</time>
      </trkpt>
      <trkpt lat="46.24427" lon="-1.56124">
        <ele>5</ele>
        <time>2023-07-16T11:42:19.889+00:00</time>
      </trkpt>
      <trkpt lat="46.24421" lon="-1.56122">
        <ele>5</ele>
        <time>2023-07-16T11:42:24.894+00:00</time>
      </trkpt>
      <trkpt lat="46.24415" lon="-1.56121">
        <ele>5</ele>
        <time>2023-07-16T11:42:29.900+00:00</time>
      </trkpt>
      <trkpt lat="46.24434" lon="-1.56139">
        <ele>5</ele>
        <time>2023-07-16T11:42:56.048+00:00</time>
      </trkpt>
      <trkpt lat="46.24435" lon="-1.5614">
        <ele>5</ele>
        <time>2023-07-16T11:43:01.049+00:00</time>
      </trkpt>
      <trkpt lat="46.24437" lon="-1.56144">
        <ele>5</ele>
        <time>2023-07-16T11:43:06.054+00:00</time>
      </trkpt>
      <trkpt lat="46.2444" lon="-1.56152">
        <ele>5</ele>
        <time>2023-07-16T11:43:11.059+00:00</time>
      </trkpt>
      <trkpt lat="46.24442" lon="-1.56158">
        <ele>5</ele>
        <time>2023-07-16T11:43:15.056+00:00</time>
      </trkpt>
      <trkpt lat="46.24445" lon="-1.56162">
        <ele>5</ele>
        <time>2023-07-16T11:43:20.049+00:00</time>
      </trkpt>
      <trkpt lat="46.24447" lon="-1.56169">
        <ele>5</ele>
        <time>2023-07-16T11:43:24.418+00:00</time>
      </trkpt>
      <trkpt lat="46.2445" lon="-1.56173">
        <ele>5</ele>
        <time>2023-07-16T11:43:28.430+00:00</time>
      </trkpt>
      <trkpt lat="46.24451" lon="-1.56173">
        <ele>5</ele>
        <time>2023-07-16T11:43:32.943+00:00</time>
      </trkpt>
      <trkpt lat="46.24457" lon="-1.56182">
        <ele>5</ele>
        <time>2023-07-16T11:43:41.975+00:00</time>
      </trkpt>
      <trkpt lat="46.2446" lon="-1.5618">
        <ele>4</ele>
        <time>2023-07-16T11:43:46.498+00:00</time>
      </trkpt>
      <trkpt lat="46.24463" lon="-1.56179">
        <ele>4</ele>
        <time>2023-07-16T11:43:51.014+00:00</time>
      </trkpt>
      <trkpt lat="46.24463" lon="-1.56179">
        <ele>4</ele>
        <time>2023-07-16T11:43:56.029+00:00</time>
      </trkpt>
      <trkpt lat="46.24463" lon="-1.5618">
        <ele>4</ele>
        <time>2023-07-16T11:44:00.043+00:00</time>
      </trkpt>
      <trkpt lat="46.24466" lon="-1.56181">
        <ele>4</ele>
        <time>2023-07-16T11:44:04.058+00:00</time>
      </trkpt>
      <trkpt lat="46.24469" lon="-1.56186">
        <ele>4</ele>
        <time>2023-07-16T11:44:08.580+00:00</time>
      </trkpt>
      <trkpt lat="46.24472" lon="-1.56192">
        <ele>4</ele>
        <time>2023-07-16T11:44:12.598+00:00</time>
      </trkpt>
      <trkpt lat="46.24472" lon="-1.56196">
        <ele>4</ele>
        <time>2023-07-16T11:44:15.611+00:00</time>
      </trkpt>
      <trkpt lat="46.24473" lon="-1.56198">
        <ele>4</ele>
        <time>2023-07-16T11:45:04.819+00:00</time>
      </trkpt>
      <trkpt lat="46.24471" lon="-1.56196">
        <ele>4</ele>
        <time>2023-07-16T11:45:08.827+00:00</time>
      </trkpt>
      <trkpt lat="46.24471" lon="-1.56191">
        <ele>4</ele>
        <time>2023-07-16T11:45:12.837+00:00</time>
      </trkpt>
      <trkpt lat="46.2447" lon="-1.56189">
        <ele>4</ele>
        <time>2023-07-16T11:45:18.049+00:00</time>
      </trkpt>
      <trkpt lat="46.24469" lon="-1.56187">
        <ele>4</ele>
        <time>2023-07-16T11:45:22.559+00:00</time>
      </trkpt>
      <trkpt lat="46.24465" lon="-1.56184">
        <ele>4</ele>
        <time>2023-07-16T11:45:45.711+00:00</time>
      </trkpt>
      <trkpt lat="46.24465" lon="-1.56185">
        <ele>4</ele>
        <time>2023-07-16T11:45:50.217+00:00</time>
      </trkpt>
      <trkpt lat="46.2446" lon="-1.56182">
        <ele>4</ele>
        <time>2023-07-16T11:45:54.724+00:00</time>
      </trkpt>
      <trkpt lat="46.24456" lon="-1.5618">
        <ele>5</ele>
        <time>2023-07-16T11:45:59.231+00:00</time>
      </trkpt>
      <trkpt lat="46.24453" lon="-1.56177">
        <ele>5</ele>
        <time>2023-07-16T11:46:03.237+00:00</time>
      </trkpt>
      <trkpt lat="46.24449" lon="-1.56175">
        <ele>5</ele>
        <time>2023-07-16T11:46:07.344+00:00</time>
      </trkpt>
      <trkpt lat="46.24447" lon="-1.5617">
        <ele>5</ele>
        <time>2023-07-16T11:46:11.359+00:00</time>
      </trkpt>
      <trkpt lat="46.24444" lon="-1.56163">
        <ele>5</ele>
        <time>2023-07-16T11:46:15.861+00:00</time>
      </trkpt>
      <trkpt lat="46.24443" lon="-1.56156">
        <ele>5</ele>
        <time>2023-07-16T11:46:21.063+00:00</time>
      </trkpt>
      <trkpt lat="46.24441" lon="-1.56149">
        <ele>5</ele>
        <time>2023-07-16T11:46:25.586+00:00</time>
      </trkpt>
      <trkpt lat="46.24438" lon="-1.56143">
        <ele>5</ele>
        <time>2023-07-16T11:46:30.088+00:00</time>
      </trkpt>
      <trkpt lat="46.24434" lon="-1.56138">
        <ele>5</ele>
        <time>2023-07-16T11:46:34.869+00:00</time>
      </trkpt>
      <trkpt lat="46.2443" lon="-1.56139">
        <ele>6</ele>
        <time>2023-07-16T11:46:39.169+00:00</time>
      </trkpt>
      <trkpt lat="46.24427" lon="-1.56144">
        <ele>6</ele>
        <time>2023-07-16T11:46:43.910+00:00</time>
      </trkpt>
      <trkpt lat="46.24424" lon="-1.56148">
        <ele>6</ele>
        <time>2023-07-16T11:46:48.412+00:00</time>
      </trkpt>
      <trkpt lat="46.24422" lon="-1.5615">
        <ele>6</ele>
        <time>2023-07-16T11:46:52.453+00:00</time>
      </trkpt>
      <trkpt lat="46.24417" lon="-1.56151">
        <ele>6</ele>
        <time>2023-07-16T11:46:57.015+00:00</time>
      </trkpt>
      <trkpt lat="46.24413" lon="-1.56145">
        <ele>6</ele>
        <time>2023-07-16T11:47:01.018+00:00</time>
      </trkpt>
      <trkpt lat="46.24411" lon="-1.56139">
        <ele>6</ele>
        <time>2023-07-16T11:47:05.023+00:00</time>
      </trkpt>
      <trkpt lat="46.2441" lon="-1.56136">
        <ele>6</ele>
        <time>2023-07-16T11:47:09.029+00:00</time>
      </trkpt>
      <trkpt lat="46.24409" lon="-1.56132">
        <ele>6</ele>
        <time>2023-07-16T11:47:14.034+00:00</time>
      </trkpt>
      <trkpt lat="46.24408" lon="-1.56127">
        <ele>6</ele>
        <time>2023-07-16T11:47:18.141+00:00</time>
      </trkpt>
      <trkpt lat="46.24407" lon="-1.56126">
        <ele>6</ele>
        <time>2023-07-16T11:47:18.642+00:00</time>
      </trkpt>
      <trkpt lat="46.24402" lon="-1.56122">
        <ele>5</ele>
        <time>2023-07-16T11:47:27.673+00:00</time>
      </trkpt>
      <trkpt lat="46.24401" lon="-1.56122">
        <ele>5</ele>
        <time>2023-07-16T11:47:32.192+00:00</time>
      </trkpt>
      <trkpt lat="46.24399" lon="-1.56114">
        <ele>5</ele>
        <time>2023-07-16T11:47:36.207+00:00</time>
      </trkpt>
      <trkpt lat="46.24402" lon="-1.56092">
        <ele>4</ele>
        <time>2023-07-16T11:47:53.767+00:00</time>
      </trkpt>
      <trkpt lat="46.24403" lon="-1.56088">
        <ele>4</ele>
        <time>2023-07-16T11:47:58.284+00:00</time>
      </trkpt>
      <trkpt lat="46.24402" lon="-1.56079">
        <ele>4</ele>
        <time>2023-07-16T11:48:02.299+00:00</time>
      </trkpt>
      <trkpt lat="46.24401" lon="-1.56071">
        <ele>4</ele>
        <time>2023-07-16T11:48:06.814+00:00</time>
      </trkpt>
      <trkpt lat="46.24397" lon="-1.56065">
        <ele>3</ele>
        <time>2023-07-16T11:48:11.330+00:00</time>
      </trkpt>
      <trkpt lat="46.24393" lon="-1.56061">
        <ele>3</ele>
        <time>2023-07-16T11:48:15.845+00:00</time>
      </trkpt>
      <trkpt lat="46.24389" lon="-1.56053">
        <ele>3</ele>
        <time>2023-07-16T11:48:20.862+00:00</time>
      </trkpt>
      <trkpt lat="46.24387" lon="-1.56047">
        <ele>3</ele>
        <time>2023-07-16T11:48:24.873+00:00</time>
      </trkpt>
      <trkpt lat="46.24384" lon="-1.56042">
        <ele>3</ele>
        <time>2023-07-16T11:48:29.389+00:00</time>
      </trkpt>
      <trkpt lat="46.24383" lon="-1.5604">
        <ele>2</ele>
        <time>2023-07-16T11:49:10.488+00:00</time>
      </trkpt>
      <trkpt lat="46.2438" lon="-1.56032">
        <ele>2</ele>
        <time>2023-07-16T11:49:15.011+00:00</time>
      </trkpt>
      <trkpt lat="46.24376" lon="-1.56027">
        <ele>2</ele>
        <time>2023-07-16T11:49:19.631+00:00</time>
      </trkpt>
      <trkpt lat="46.24374" lon="-1.56019">
        <ele>3</ele>
        <time>2023-07-16T11:49:23.721+00:00</time>
      </trkpt>
      <trkpt lat="46.2437" lon="-1.56013">
        <ele>2</ele>
        <time>2023-07-16T11:49:27.727+00:00</time>
      </trkpt>
      <trkpt lat="46.24367" lon="-1.56005">
        <ele>2</ele>
        <time>2023-07-16T11:49:32.231+00:00</time>
      </trkpt>
      <trkpt lat="46.24365" lon="-1.55997">
        <ele>2</ele>
        <time>2023-07-16T11:49:36.836+00:00</time>
      </trkpt>
      <trkpt lat="46.24362" lon="-1.55991">
        <ele>2</ele>
        <time>2023-07-16T11:49:40.839+00:00</time>
      </trkpt>
      <trkpt lat="46.24359" lon="-1.55985">
        <ele>2</ele>
        <time>2023-07-16T11:49:45.443+00:00</time>
      </trkpt>
      <trkpt lat="46.24355" lon="-1.55975">
        <ele>2</ele>
        <time>2023-07-16T11:49:58.955+00:00</time>
      </trkpt>
      <trkpt lat="46.24355" lon="-1.55969">
        <ele>2</ele>
        <time>2023-07-16T11:50:03.458+00:00</time>
      </trkpt>
      <trkpt lat="46.24355" lon="-1.55961">
        <ele>2</ele>
        <time>2023-07-16T11:50:07.562+00:00</time>
      </trkpt>
      <trkpt lat="46.24362" lon="-1.55961">
        <ele>2</ele>
        <time>2023-07-16T11:50:11.664+00:00</time>
      </trkpt>
      <trkpt lat="46.24363" lon="-1.55959">
        <ele>2</ele>
        <time>2023-07-16T11:50:16.207+00:00</time>
      </trkpt>
      <trkpt lat="46.2436" lon="-1.5596">
        <ele>2</ele>
        <time>2023-07-16T11:50:20.709+00:00</time>
      </trkpt>
      <trkpt lat="46.24358" lon="-1.55963">
        <ele>2</ele>
        <time>2023-07-16T11:50:25.212+00:00</time>
      </trkpt>
      <trkpt lat="46.24356" lon="-1.55963">
        <ele>2</ele>
        <time>2023-07-16T11:50:29.727+00:00</time>
      </trkpt>
      <trkpt lat="46.24351" lon="-1.55962">
        <ele>2</ele>
        <time>2023-07-16T11:50:33.957+00:00</time>
      </trkpt>
      <trkpt lat="46.24344" lon="-1.55953">
        <ele>2</ele>
        <time>2023-07-16T11:50:38.520+00:00</time>
      </trkpt>
      <trkpt lat="46.2434" lon="-1.55947">
        <ele>2</ele>
        <time>2023-07-16T11:50:42.522+00:00</time>
      </trkpt>
      <trkpt lat="46.24337" lon="-1.55939">
        <ele>2</ele>
        <time>2023-07-16T11:50:47.223+00:00</time>
      </trkpt>
      <trkpt lat="46.24335" lon="-1.55933">
        <ele>2</ele>
        <time>2023-07-16T11:50:51.225+00:00</time>
      </trkpt>
      <trkpt lat="46.24332" lon="-1.55929">
        <ele>2</ele>
        <time>2023-07-16T11:50:55.366+00:00</time>
      </trkpt>
      <trkpt lat="46.24328" lon="-1.55923">
        <ele>2</ele>
        <time>2023-07-16T11:50:59.647+00:00</time>
      </trkpt>
      <trkpt lat="46.24327" lon="-1.55916">
        <ele>2</ele>
        <time>2023-07-16T11:51:03.870+00:00</time>
      </trkpt>
      <trkpt lat="46.24325" lon="-1.55911">
        <ele>2</ele>
        <time>2023-07-16T11:51:07.409+00:00</time>
      </trkpt>
      <trkpt lat="46.24321" lon="-1.55907">
        <ele>2</ele>
        <time>2023-07-16T11:51:11.670+00:00</time>
      </trkpt>
      <trkpt lat="46.24315" lon="-1.55904">
        <ele>2</ele>
        <time>2023-07-16T11:51:16.212+00:00</time>
      </trkpt>
      <trkpt lat="46.2431" lon="-1.55905">
        <ele>2</ele>
        <time>2023-07-16T11:51:20.292+00:00</time>
      </trkpt>
      <trkpt lat="46.24307" lon="-1.55913">
        <ele>2</ele>
        <time>2023-07-16T11:51:24.553+00:00</time>
      </trkpt>
      <trkpt lat="46.24303" lon="-1.55918">
        <ele>2</ele>
        <time>2023-07-16T11:51:28.754+00:00</time>
      </trkpt>
      <trkpt lat="46.24293" lon="-1.55924">
        <ele>2</ele>
        <time>2023-07-16T11:52:12.199+00:00</time>
      </trkpt>
      <trkpt lat="46.243" lon="-1.55919">
        <ele>2</ele>
        <time>2023-07-16T11:52:17.032+00:00</time>
      </trkpt>
      <trkpt lat="46.24306" lon="-1.55914">
        <ele>2</ele>
        <time>2023-07-16T11:52:21.479+00:00</time>
      </trkpt>
      <trkpt lat="46.24311" lon="-1.55909">
        <ele>2</ele>
        <time>2023-07-16T11:52:25.939+00:00</time>
      </trkpt>
      <trkpt lat="46.24316" lon="-1.55904">
        <ele>2</ele>
        <time>2023-07-16T11:52:30.399+00:00</time>
      </trkpt>
      <trkpt lat="46.24319" lon="-1.55899">
        <ele>1</ele>
        <time>2023-07-16T11:52:34.407+00:00</time>
      </trkpt>
      <trkpt lat="46.24324" lon="-1.55893">
        <ele>2</ele>
        <time>2023-07-16T11:52:38.605+00:00</time>
      </trkpt>
      <trkpt lat="46.2433" lon="-1.55891">
        <ele>2</ele>
        <time>2023-07-16T11:52:43.610+00:00</time>
      </trkpt>
      <trkpt lat="46.24336" lon="-1.55888">
        <ele>2</ele>
        <time>2023-07-16T11:52:47.773+00:00</time>
      </trkpt>
      <trkpt lat="46.2434" lon="-1.55884">
        <ele>2</ele>
        <time>2023-07-16T11:52:51.833+00:00</time>
      </trkpt>
      <trkpt lat="46.24344" lon="-1.5588">
        <ele>2</ele>
        <time>2023-07-16T11:52:56.395+00:00</time>
      </trkpt>
      <trkpt lat="46.24345" lon="-1.55879">
        <ele>2</ele>
        <time>2023-07-16T11:53:00.595+00:00</time>
      </trkpt>
      <trkpt lat="46.24346" lon="-1.55877">
        <ele>2</ele>
        <time>2023-07-16T11:53:05.356+00:00</time>
      </trkpt>
      <trkpt lat="46.24352" lon="-1.55872">
        <ele>1</ele>
        <time>2023-07-16T11:53:09.735+00:00</time>
      </trkpt>
      <trkpt lat="46.24357" lon="-1.55868">
        <ele>1</ele>
        <time>2023-07-16T11:53:13.876+00:00</time>
      </trkpt>
      <trkpt lat="46.24361" lon="-1.55863">
        <ele>1</ele>
        <time>2023-07-16T11:53:17.897+00:00</time>
      </trkpt>
      <trkpt lat="46.24361" lon="-1.55862">
        <ele>1</ele>
        <time>2023-07-16T11:53:22.738+00:00</time>
      </trkpt>
      <trkpt lat="46.24363" lon="-1.55862">
        <ele>1</ele>
        <time>2023-07-16T11:53:27.240+00:00</time>
      </trkpt>
      <trkpt lat="46.24366" lon="-1.55864">
        <ele>1</ele>
        <time>2023-07-16T11:53:31.242+00:00</time>
      </trkpt>
      <trkpt lat="46.2436" lon="-1.55864">
        <ele>1</ele>
        <time>2023-07-16T11:55:39.715+00:00</time>
      </trkpt>
      <trkpt lat="46.2436" lon="-1.55865">
        <ele>1</ele>
        <time>2023-07-16T11:55:44.718+00:00</time>
      </trkpt>
      <trkpt lat="46.2436" lon="-1.55865">
        <ele>1</ele>
        <time>2023-07-16T11:55:48.720+00:00</time>
      </trkpt>
      <trkpt lat="46.24359" lon="-1.55865">
        <ele>1</ele>
        <time>2023-07-16T11:55:53.742+00:00</time>
      </trkpt>
      <trkpt lat="46.24358" lon="-1.55865">
        <ele>1</ele>
        <time>2023-07-16T11:55:58.743+00:00</time>
      </trkpt>
      <trkpt lat="46.24356" lon="-1.55865">
        <ele>1</ele>
        <time>2023-07-16T11:56:03.244+00:00</time>
      </trkpt>
      <trkpt lat="46.24351" lon="-1.55868">
        <ele>1</ele>
        <time>2023-07-16T11:56:07.266+00:00</time>
      </trkpt>
      <trkpt lat="46.24346" lon="-1.55874">
        <ele>1</ele>
        <time>2023-07-16T11:56:11.887+00:00</time>
      </trkpt>
      <trkpt lat="46.24342" lon="-1.5588">
        <ele>2</ele>
        <time>2023-07-16T11:56:15.847+00:00</time>
      </trkpt>
      <trkpt lat="46.24338" lon="-1.55886">
        <ele>2</ele>
        <time>2023-07-16T11:56:20.088+00:00</time>
      </trkpt>
      <trkpt lat="46.24334" lon="-1.55889">
        <ele>2</ele>
        <time>2023-07-16T11:56:24.309+00:00</time>
      </trkpt>
      <trkpt lat="46.2433" lon="-1.55892">
        <ele>2</ele>
        <time>2023-07-16T11:56:29.098+00:00</time>
      </trkpt>
      <trkpt lat="46.24326" lon="-1.55895">
        <ele>2</ele>
        <time>2023-07-16T11:56:33.170+00:00</time>
      </trkpt>
      <trkpt lat="46.24321" lon="-1.55898">
        <ele>2</ele>
        <time>2023-07-16T11:56:37.530+00:00</time>
      </trkpt>
      <trkpt lat="46.24317" lon="-1.55899">
        <ele>1</ele>
        <time>2023-07-16T11:56:42.031+00:00</time>
      </trkpt>
      <trkpt lat="46.24313" lon="-1.55898">
        <ele>1</ele>
        <time>2023-07-16T11:56:46.026+00:00</time>
      </trkpt>
      <trkpt lat="46.24309" lon="-1.55895">
        <ele>1</ele>
        <time>2023-07-16T11:56:50.704+00:00</time>
      </trkpt>
      <trkpt lat="46.24307" lon="-1.55896">
        <ele>1</ele>
        <time>2023-07-16T12:00:28.038+00:00</time>
      </trkpt>
      <trkpt lat="46.24307" lon="-1.55897">
        <ele>1</ele>
        <time>2023-07-16T12:00:32.278+00:00</time>
      </trkpt>
      <trkpt lat="46.24306" lon="-1.55899">
        <ele>1</ele>
        <time>2023-07-16T12:00:36.959+00:00</time>
      </trkpt>
      <trkpt lat="46.24305" lon="-1.55902">
        <ele>1</ele>
        <time>2023-07-16T12:00:41.659+00:00</time>
      </trkpt>
      <trkpt lat="46.24303" lon="-1.55905">
        <ele>2</ele>
        <time>2023-07-16T12:00:45.780+00:00</time>
      </trkpt>
      <trkpt lat="46.24298" lon="-1.55906">
        <ele>2</ele>
        <time>2023-07-16T12:00:50.962+00:00</time>
      </trkpt>
      <trkpt lat="46.24287" lon="-1.55916">
        <ele>1</ele>
        <time>2023-07-16T12:00:55.045+00:00</time>
      </trkpt>
      <trkpt lat="46.24275" lon="-1.55928">
        <ele>1</ele>
        <time>2023-07-16T12:00:59.504+00:00</time>
      </trkpt>
      <trkpt lat="46.24264" lon="-1.55937">
        <ele>2</ele>
        <time>2023-07-16T12:01:03.645+00:00</time>
      </trkpt>
      <trkpt lat="46.24255" lon="-1.55945">
        <ele>2</ele>
        <time>2023-07-16T12:01:07.985+00:00</time>
      </trkpt>
      <trkpt lat="46.24244" lon="-1.55955">
        <ele>2</ele>
        <time>2023-07-16T12:01:12.988+00:00</time>
      </trkpt>
      <trkpt lat="46.24231" lon="-1.55972">
        <ele>1</ele>
        <time>2023-07-16T12:01:18.050+00:00</time>
      </trkpt>
      <trkpt lat="46.24225" lon="-1.55989">
        <ele>2</ele>
        <time>2023-07-16T12:01:22.072+00:00</time>
      </trkpt>
      <trkpt lat="46.24223" lon="-1.56006">
        <ele>2</ele>
        <time>2023-07-16T12:01:26.576+00:00</time>
      </trkpt>
      <trkpt lat="46.24219" lon="-1.56026">
        <ele>2</ele>
        <time>2023-07-16T12:01:31.581+00:00</time>
      </trkpt>
      <trkpt lat="46.24219" lon="-1.56039">
        <ele>2</ele>
        <time>2023-07-16T12:01:35.586+00:00</time>
      </trkpt>
      <trkpt lat="46.24215" lon="-1.5604">
        <ele>2</ele>
        <time>2023-07-16T12:01:40.089+00:00</time>
      </trkpt>
      <trkpt lat="46.24197" lon="-1.56038">
        <ele>2</ele>
        <time>2023-07-16T12:01:45.093+00:00</time>
      </trkpt>
      <trkpt lat="46.24179" lon="-1.56042">
        <ele>2</ele>
        <time>2023-07-16T12:01:50.063+00:00</time>
      </trkpt>
      <trkpt lat="46.24165" lon="-1.56044">
        <ele>2</ele>
        <time>2023-07-16T12:01:54.065+00:00</time>
      </trkpt>
      <trkpt lat="46.2415" lon="-1.56046">
        <ele>2</ele>
        <time>2023-07-16T12:01:58.065+00:00</time>
      </trkpt>
      <trkpt lat="46.2413" lon="-1.56053">
        <ele>2</ele>
        <time>2023-07-16T12:02:03.051+00:00</time>
      </trkpt>
      <trkpt lat="46.24111" lon="-1.56048">
        <ele>2</ele>
        <time>2023-07-16T12:02:07.063+00:00</time>
      </trkpt>
      <trkpt lat="46.24092" lon="-1.56035">
        <ele>1</ele>
        <time>2023-07-16T12:02:12.061+00:00</time>
      </trkpt>
      <trkpt lat="46.24074" lon="-1.56022">
        <ele>1</ele>
        <time>2023-07-16T12:02:16.726+00:00</time>
      </trkpt>
      <trkpt lat="46.24053" lon="-1.56008">
        <ele>3</ele>
        <time>2023-07-16T12:02:21.732+00:00</time>
      </trkpt>
      <trkpt lat="46.24032" lon="-1.55995">
        <ele>2.8</ele>
        <time>2023-07-16T12:02:27.064+00:00</time>
      </trkpt>
      <trkpt lat="46.24011" lon="-1.55981">
        <ele>-1</ele>
        <time>2023-07-16T12:02:32.088+00:00</time>
      </trkpt>
      <trkpt lat="46.2399" lon="-1.55968">
        <ele>-1</ele>
        <time>2023-07-16T12:02:37.073+00:00</time>
      </trkpt>
      <trkpt lat="46.23975" lon="-1.55957">
        <ele>-1</ele>
        <time>2023-07-16T12:02:41.095+00:00</time>
      </trkpt>
      <trkpt lat="46.2396" lon="-1.55948">
        <ele>-1</ele>
        <time>2023-07-16T12:02:45.096+00:00</time>
      </trkpt>
      <trkpt lat="46.2394" lon="-1.55937">
        <ele>-1</ele>
        <time>2023-07-16T12:02:49.775+00:00</time>
      </trkpt>
      <trkpt lat="46.23924" lon="-1.55926">
        <ele>2.3</ele>
        <time>2023-07-16T12:02:53.779+00:00</time>
      </trkpt>
      <trkpt lat="46.23908" lon="-1.55911">
        <ele>2</ele>
        <time>2023-07-16T12:02:58.385+00:00</time>
      </trkpt>
      <trkpt lat="46.23892" lon="-1.55893">
        <ele>2</ele>
        <time>2023-07-16T12:03:03.084+00:00</time>
      </trkpt>
      <trkpt lat="46.23873" lon="-1.55874">
        <ele>1</ele>
        <time>2023-07-16T12:03:08.081+00:00</time>
      </trkpt>
      <trkpt lat="46.23857" lon="-1.55858">
        <ele>1</ele>
        <time>2023-07-16T12:03:12.632+00:00</time>
      </trkpt>
      <trkpt lat="46.23839" lon="-1.55838">
        <ele>1</ele>
        <time>2023-07-16T12:03:17.637+00:00</time>
      </trkpt>
      <trkpt lat="46.23824" lon="-1.55823">
        <ele>1</ele>
        <time>2023-07-16T12:03:22.081+00:00</time>
      </trkpt>
      <trkpt lat="46.23809" lon="-1.55806">
        <ele>1</ele>
        <time>2023-07-16T12:03:26.144+00:00</time>
      </trkpt>
      <trkpt lat="46.23793" lon="-1.55787">
        <ele>1</ele>
        <time>2023-07-16T12:03:30.650+00:00</time>
      </trkpt>
      <trkpt lat="46.23776" lon="-1.55768">
        <ele>2</ele>
        <time>2023-07-16T12:03:35.756+00:00</time>
      </trkpt>
      <trkpt lat="46.23763" lon="-1.55755">
        <ele>2</ele>
        <time>2023-07-16T12:03:39.761+00:00</time>
      </trkpt>
      <trkpt lat="46.23749" lon="-1.55739">
        <ele>2</ele>
        <time>2023-07-16T12:03:43.767+00:00</time>
      </trkpt>
      <trkpt lat="46.23736" lon="-1.55723">
        <ele>1</ele>
        <time>2023-07-16T12:03:47.771+00:00</time>
      </trkpt>
      <trkpt lat="46.23721" lon="-1.55707">
        <ele>1</ele>
        <time>2023-07-16T12:03:52.290+00:00</time>
      </trkpt>
      <trkpt lat="46.23702" lon="-1.55688">
        <ele>1</ele>
        <time>2023-07-16T12:03:57.066+00:00</time>
      </trkpt>
      <trkpt lat="46.23688" lon="-1.55672">
        <ele>2.1</ele>
        <time>2023-07-16T12:04:01.160+00:00</time>
      </trkpt>
      <trkpt lat="46.23673" lon="-1.55655">
        <ele>2</ele>
        <time>2023-07-16T12:04:05.663+00:00</time>
      </trkpt>
      <trkpt lat="46.23656" lon="-1.55638">
        <ele>2</ele>
        <time>2023-07-16T12:04:10.668+00:00</time>
      </trkpt>
      <trkpt lat="46.23643" lon="-1.55623">
        <ele>2</ele>
        <time>2023-07-16T12:04:14.672+00:00</time>
      </trkpt>
      <trkpt lat="46.23625" lon="-1.55604">
        <ele>2</ele>
        <time>2023-07-16T12:04:19.677+00:00</time>
      </trkpt>
      <trkpt lat="46.23606" lon="-1.55584">
        <ele>2</ele>
        <time>2023-07-16T12:04:25.080+00:00</time>
      </trkpt>
      <trkpt lat="46.23589" lon="-1.55564">
        <ele>2</ele>
        <time>2023-07-16T12:04:30.089+00:00</time>
      </trkpt>
      <trkpt lat="46.23573" lon="-1.55544">
        <ele>2</ele>
        <time>2023-07-16T12:04:35.077+00:00</time>
      </trkpt>
      <trkpt lat="46.23554" lon="-1.55525">
        <ele>1</ele>
        <time>2023-07-16T12:04:40.085+00:00</time>
      </trkpt>
      <trkpt lat="46.23541" lon="-1.55511">
        <ele>2.3</ele>
        <time>2023-07-16T12:04:44.090+00:00</time>
      </trkpt>
      <trkpt lat="46.23525" lon="-1.55493">
        <ele>2.7</ele>
        <time>2023-07-16T12:04:49.088+00:00</time>
      </trkpt>
      <trkpt lat="46.23513" lon="-1.55476">
        <ele>-1</ele>
        <time>2023-07-16T12:04:53.087+00:00</time>
      </trkpt>
      <trkpt lat="46.23501" lon="-1.55457">
        <ele>-1</ele>
        <time>2023-07-16T12:04:57.094+00:00</time>
      </trkpt>
      <trkpt lat="46.23485" lon="-1.55436">
        <ele>1</ele>
        <time>2023-07-16T12:05:02.086+00:00</time>
      </trkpt>
      <trkpt lat="46.23469" lon="-1.55415">
        <ele>1</ele>
        <time>2023-07-16T12:05:07.084+00:00</time>
      </trkpt>
      <trkpt lat="46.23454" lon="-1.55395">
        <ele>1</ele>
        <time>2023-07-16T12:05:12.074+00:00</time>
      </trkpt>
      <trkpt lat="46.23443" lon="-1.55379">
        <ele>1</ele>
        <time>2023-07-16T12:05:16.086+00:00</time>
      </trkpt>
      <trkpt lat="46.2343" lon="-1.5536">
        <ele>2</ele>
        <time>2023-07-16T12:05:20.081+00:00</time>
      </trkpt>
      <trkpt lat="46.23415" lon="-1.55339">
        <ele>2</ele>
        <time>2023-07-16T12:05:25.096+00:00</time>
      </trkpt>
      <trkpt lat="46.234" lon="-1.55318">
        <ele>3</ele>
        <time>2023-07-16T12:05:30.056+00:00</time>
      </trkpt>
      <trkpt lat="46.23389" lon="-1.55301">
        <ele>3</ele>
        <time>2023-07-16T12:05:34.079+00:00</time>
      </trkpt>
      <trkpt lat="46.23374" lon="-1.5528">
        <ele>3</ele>
        <time>2023-07-16T12:05:39.089+00:00</time>
      </trkpt>
      <trkpt lat="46.23358" lon="-1.55259">
        <ele>3</ele>
        <time>2023-07-16T12:05:44.083+00:00</time>
      </trkpt>
      <trkpt lat="46.23344" lon="-1.55239">
        <ele>1</ele>
        <time>2023-07-16T12:05:49.089+00:00</time>
      </trkpt>
      <trkpt lat="46.23332" lon="-1.55222">
        <ele>2</ele>
        <time>2023-07-16T12:05:53.088+00:00</time>
      </trkpt>
      <trkpt lat="46.23317" lon="-1.55202">
        <ele>1</ele>
        <time>2023-07-16T12:05:57.090+00:00</time>
      </trkpt>
      <trkpt lat="46.233" lon="-1.55179">
        <ele>1</ele>
        <time>2023-07-16T12:06:02.069+00:00</time>
      </trkpt>
      <trkpt lat="46.23289" lon="-1.55163">
        <ele>1</ele>
        <time>2023-07-16T12:06:06.090+00:00</time>
      </trkpt>
      <trkpt lat="46.23275" lon="-1.55141">
        <ele>1</ele>
        <time>2023-07-16T12:06:11.085+00:00</time>
      </trkpt>
      <trkpt lat="46.23259" lon="-1.55117">
        <ele>1</ele>
        <time>2023-07-16T12:06:16.082+00:00</time>
      </trkpt>
      <trkpt lat="46.23245" lon="-1.55098">
        <ele>1</ele>
        <time>2023-07-16T12:06:20.078+00:00</time>
      </trkpt>
      <trkpt lat="46.23231" lon="-1.55078">
        <ele>1</ele>
        <time>2023-07-16T12:06:24.086+00:00</time>
      </trkpt>
      <trkpt lat="46.23213" lon="-1.55054">
        <ele>1</ele>
        <time>2023-07-16T12:06:29.097+00:00</time>
      </trkpt>
      <trkpt lat="46.23195" lon="-1.55031">
        <ele>1</ele>
        <time>2023-07-16T12:06:34.062+00:00</time>
      </trkpt>
      <trkpt lat="46.23181" lon="-1.55013">
        <ele>2</ele>
        <time>2023-07-16T12:06:38.085+00:00</time>
      </trkpt>
      <trkpt lat="46.23166" lon="-1.54991">
        <ele>1</ele>
        <time>2023-07-16T12:06:43.085+00:00</time>
      </trkpt>
      <trkpt lat="46.23152" lon="-1.54972">
        <ele>3</ele>
        <time>2023-07-16T12:06:48.079+00:00</time>
      </trkpt>
      <trkpt lat="46.23139" lon="-1.54953">
        <ele>3.7</ele>
        <time>2023-07-16T12:06:53.084+00:00</time>
      </trkpt>
      <trkpt lat="46.23127" lon="-1.54938">
        <ele>3.5</ele>
        <time>2023-07-16T12:06:57.110+00:00</time>
      </trkpt>
      <trkpt lat="46.2311" lon="-1.54913">
        <ele>-1</ele>
        <time>2023-07-16T12:07:02.079+00:00</time>
      </trkpt>
      <trkpt lat="46.23094" lon="-1.54889">
        <ele>3</ele>
        <time>2023-07-16T12:07:07.087+00:00</time>
      </trkpt>
      <trkpt lat="46.23076" lon="-1.54868">
        <ele>3</ele>
        <time>2023-07-16T12:07:12.096+00:00</time>
      </trkpt>
      <trkpt lat="46.23061" lon="-1.54846">
        <ele>-1</ele>
        <time>2023-07-16T12:07:17.087+00:00</time>
      </trkpt>
      <trkpt lat="46.23047" lon="-1.54827">
        <ele>-1</ele>
        <time>2023-07-16T12:07:21.694+00:00</time>
      </trkpt>
      <trkpt lat="46.23033" lon="-1.5481">
        <ele>-1</ele>
        <time>2023-07-16T12:07:25.716+00:00</time>
      </trkpt>
      <trkpt lat="46.23021" lon="-1.54792">
        <ele>-1</ele>
        <time>2023-07-16T12:07:29.718+00:00</time>
      </trkpt>
      <trkpt lat="46.23004" lon="-1.54769">
        <ele>3</ele>
        <time>2023-07-16T12:07:35.099+00:00</time>
      </trkpt>
      <trkpt lat="46.22989" lon="-1.54746">
        <ele>3</ele>
        <time>2023-07-16T12:07:40.064+00:00</time>
      </trkpt>
      <trkpt lat="46.22973" lon="-1.54724">
        <ele>3</ele>
        <time>2023-07-16T12:07:45.068+00:00</time>
      </trkpt>
      <trkpt lat="46.22961" lon="-1.54707">
        <ele>3.2</ele>
        <time>2023-07-16T12:07:49.071+00:00</time>
      </trkpt>
      <trkpt lat="46.22946" lon="-1.54684">
        <ele>1</ele>
        <time>2023-07-16T12:07:54.070+00:00</time>
      </trkpt>
      <trkpt lat="46.22929" lon="-1.54663">
        <ele>1</ele>
        <time>2023-07-16T12:07:59.077+00:00</time>
      </trkpt>
      <trkpt lat="46.22918" lon="-1.54646">
        <ele>2</ele>
        <time>2023-07-16T12:08:03.008+00:00</time>
      </trkpt>
      <trkpt lat="46.22904" lon="-1.54629">
        <ele>2</ele>
        <time>2023-07-16T12:08:07.099+00:00</time>
      </trkpt>
      <trkpt lat="46.22893" lon="-1.54613">
        <ele>2</ele>
        <time>2023-07-16T12:08:12.079+00:00</time>
      </trkpt>
      <trkpt lat="46.2288" lon="-1.54605">
        <ele>2</ele>
        <time>2023-07-16T12:08:17.091+00:00</time>
      </trkpt>
      <trkpt lat="46.22863" lon="-1.54625">
        <ele>2</ele>
        <time>2023-07-16T12:08:22.091+00:00</time>
      </trkpt>
      <trkpt lat="46.2285" lon="-1.54639">
        <ele>2</ele>
        <time>2023-07-16T12:08:26.095+00:00</time>
      </trkpt>
      <trkpt lat="46.22834" lon="-1.54657">
        <ele>1</ele>
        <time>2023-07-16T12:08:30.745+00:00</time>
      </trkpt>
      <trkpt lat="46.22822" lon="-1.5467">
        <ele>1</ele>
        <time>2023-07-16T12:08:34.788+00:00</time>
      </trkpt>
      <trkpt lat="46.22813" lon="-1.5468">
        <ele>1</ele>
        <time>2023-07-16T12:08:39.293+00:00</time>
      </trkpt>
      <trkpt lat="46.22795" lon="-1.54669">
        <ele>1</ele>
        <time>2023-07-16T12:08:44.082+00:00</time>
      </trkpt>
      <trkpt lat="46.22779" lon="-1.54656">
        <ele>1</ele>
        <time>2023-07-16T12:08:48.665+00:00</time>
      </trkpt>
      <trkpt lat="46.2277" lon="-1.54642">
        <ele>2</ele>
        <time>2023-07-16T12:08:52.763+00:00</time>
      </trkpt>
      <trkpt lat="46.22758" lon="-1.54627">
        <ele>1</ele>
        <time>2023-07-16T12:08:56.794+00:00</time>
      </trkpt>
      <trkpt lat="46.22746" lon="-1.54616">
        <ele>2</ele>
        <time>2023-07-16T12:09:00.798+00:00</time>
      </trkpt>
      <trkpt lat="46.22732" lon="-1.54597">
        <ele>1</ele>
        <time>2023-07-16T12:09:05.503+00:00</time>
      </trkpt>
      <trkpt lat="46.22719" lon="-1.54589">
        <ele>2</ele>
        <time>2023-07-16T12:09:09.507+00:00</time>
      </trkpt>
      <trkpt lat="46.22705" lon="-1.54573">
        <ele>2</ele>
        <time>2023-07-16T12:09:14.010+00:00</time>
      </trkpt>
      <trkpt lat="46.22693" lon="-1.54559">
        <ele>3</ele>
        <time>2023-07-16T12:09:18.014+00:00</time>
      </trkpt>
      <trkpt lat="46.22681" lon="-1.54544">
        <ele>3</ele>
        <time>2023-07-16T12:09:22.017+00:00</time>
      </trkpt>
      <trkpt lat="46.22665" lon="-1.54525">
        <ele>4</ele>
        <time>2023-07-16T12:09:26.523+00:00</time>
      </trkpt>
      <trkpt lat="46.2265" lon="-1.54508">
        <ele>3</ele>
        <time>2023-07-16T12:09:31.029+00:00</time>
      </trkpt>
      <trkpt lat="46.22635" lon="-1.54491">
        <ele>3</ele>
        <time>2023-07-16T12:09:35.077+00:00</time>
      </trkpt>
      <trkpt lat="46.22622" lon="-1.54476">
        <ele>2</ele>
        <time>2023-07-16T12:09:39.117+00:00</time>
      </trkpt>
      <trkpt lat="46.22608" lon="-1.54461">
        <ele>2</ele>
        <time>2023-07-16T12:09:43.122+00:00</time>
      </trkpt>
      <trkpt lat="46.2259" lon="-1.54443">
        <ele>1</ele>
        <time>2023-07-16T12:09:48.078+00:00</time>
      </trkpt>
      <trkpt lat="46.2257" lon="-1.54425">
        <ele>1</ele>
        <time>2023-07-16T12:09:53.083+00:00</time>
      </trkpt>
      <trkpt lat="46.2255" lon="-1.54405">
        <ele>1</ele>
        <time>2023-07-16T12:09:58.081+00:00</time>
      </trkpt>
      <trkpt lat="46.22532" lon="-1.54386">
        <ele>1</ele>
        <time>2023-07-16T12:10:03.072+00:00</time>
      </trkpt>
      <trkpt lat="46.22514" lon="-1.54369">
        <ele>1</ele>
        <time>2023-07-16T12:10:08.071+00:00</time>
      </trkpt>
      <trkpt lat="46.22496" lon="-1.54354">
        <ele>1</ele>
        <time>2023-07-16T12:10:13.083+00:00</time>
      </trkpt>
      <trkpt lat="46.22481" lon="-1.5434">
        <ele>3</ele>
        <time>2023-07-16T12:10:17.212+00:00</time>
      </trkpt>
      <trkpt lat="46.22465" lon="-1.54326">
        <ele>3</ele>
        <time>2023-07-16T12:10:21.717+00:00</time>
      </trkpt>
      <trkpt lat="46.22451" lon="-1.54314">
        <ele>4</ele>
        <time>2023-07-16T12:10:25.721+00:00</time>
      </trkpt>
      <trkpt lat="46.22437" lon="-1.54303">
        <ele>4</ele>
        <time>2023-07-16T12:10:29.725+00:00</time>
      </trkpt>
      <trkpt lat="46.22421" lon="-1.54289">
        <ele>5</ele>
        <time>2023-07-16T12:10:33.829+00:00</time>
      </trkpt>
      <trkpt lat="46.22404" lon="-1.54275">
        <ele>5</ele>
        <time>2023-07-16T12:10:38.335+00:00</time>
      </trkpt>
      <trkpt lat="46.2239" lon="-1.5426">
        <ele>4</ele>
        <time>2023-07-16T12:10:42.841+00:00</time>
      </trkpt>
      <trkpt lat="46.22376" lon="-1.54242">
        <ele>4</ele>
        <time>2023-07-16T12:10:46.847+00:00</time>
      </trkpt>
      <trkpt lat="46.22361" lon="-1.54227">
        <ele>3</ele>
        <time>2023-07-16T12:10:51.353+00:00</time>
      </trkpt>
      <trkpt lat="46.22345" lon="-1.5421">
        <ele>4</ele>
        <time>2023-07-16T12:10:55.859+00:00</time>
      </trkpt>
      <trkpt lat="46.22331" lon="-1.54198">
        <ele>4</ele>
        <time>2023-07-16T12:10:59.864+00:00</time>
      </trkpt>
      <trkpt lat="46.22315" lon="-1.54181">
        <ele>6</ele>
        <time>2023-07-16T12:11:04.371+00:00</time>
      </trkpt>
      <trkpt lat="46.22301" lon="-1.54166">
        <ele>5</ele>
        <time>2023-07-16T12:11:08.879+00:00</time>
      </trkpt>
      <trkpt lat="46.22288" lon="-1.54153">
        <ele>6</ele>
        <time>2023-07-16T12:11:12.885+00:00</time>
      </trkpt>
      <trkpt lat="46.22271" lon="-1.54138">
        <ele>6</ele>
        <time>2023-07-16T12:11:17.394+00:00</time>
      </trkpt>
      <trkpt lat="46.22256" lon="-1.54122">
        <ele>5</ele>
        <time>2023-07-16T12:11:21.900+00:00</time>
      </trkpt>
      <trkpt lat="46.22242" lon="-1.5411">
        <ele>5</ele>
        <time>2023-07-16T12:11:26.005+00:00</time>
      </trkpt>
      <trkpt lat="46.22233" lon="-1.54105">
        <ele>7</ele>
        <time>2023-07-16T12:11:30.611+00:00</time>
      </trkpt>
      <trkpt lat="46.22237" lon="-1.54079">
        <ele>5</ele>
        <time>2023-07-16T12:11:35.619+00:00</time>
      </trkpt>
      <trkpt lat="46.22243" lon="-1.54045">
        <ele>6</ele>
        <time>2023-07-16T12:11:40.625+00:00</time>
      </trkpt>
      <trkpt lat="46.22269" lon="-1.53992">
        <ele>5</ele>
        <time>2023-07-16T12:12:02.668+00:00</time>
      </trkpt>
      <trkpt lat="46.22268" lon="-1.53991">
        <ele>5</ele>
        <time>2023-07-16T12:12:07.306+00:00</time>
      </trkpt>
      <trkpt lat="46.22269" lon="-1.53991">
        <ele>5</ele>
        <time>2023-07-16T12:12:11.823+00:00</time>
      </trkpt>
      <trkpt lat="46.22271" lon="-1.53988">
        <ele>5</ele>
        <time>2023-07-16T12:12:16.841+00:00</time>
      </trkpt>
      <trkpt lat="46.22273" lon="-1.53978">
        <ele>5</ele>
        <time>2023-07-16T12:12:21.360+00:00</time>
      </trkpt>
      <trkpt lat="46.22276" lon="-1.53978">
        <ele>5</ele>
        <time>2023-07-16T12:12:38.933+00:00</time>
      </trkpt>
      <trkpt lat="46.22276" lon="-1.53978">
        <ele>5</ele>
        <time>2023-07-16T12:12:42.949+00:00</time>
      </trkpt>
      <trkpt lat="46.22277" lon="-1.53978">
        <ele>5</ele>
        <time>2023-07-16T12:12:47.054+00:00</time>
      </trkpt>
      <trkpt lat="46.22278" lon="-1.53976">
        <ele>5</ele>
        <time>2023-07-16T12:12:51.053+00:00</time>
      </trkpt>
      <trkpt lat="46.22287" lon="-1.53962">
        <ele>5</ele>
        <time>2023-07-16T12:12:56.016+00:00</time>
      </trkpt>
      <trkpt lat="46.22299" lon="-1.53941">
        <ele>4</ele>
        <time>2023-07-16T12:13:01.034+00:00</time>
      </trkpt>
      <trkpt lat="46.22308" lon="-1.53927">
        <ele>5</ele>
        <time>2023-07-16T12:13:05.047+00:00</time>
      </trkpt>
      <trkpt lat="46.22319" lon="-1.53911">
        <ele>5</ele>
        <time>2023-07-16T12:13:09.563+00:00</time>
      </trkpt>
      <trkpt lat="46.22331" lon="-1.53902">
        <ele>4</ele>
        <time>2023-07-16T12:13:13.577+00:00</time>
      </trkpt>
      <trkpt lat="46.22348" lon="-1.53891">
        <ele>4</ele>
        <time>2023-07-16T12:13:18.594+00:00</time>
      </trkpt>
      <trkpt lat="46.22372" lon="-1.5388">
        <ele>4</ele>
        <time>2023-07-16T12:13:24.052+00:00</time>
      </trkpt>
      <trkpt lat="46.22394" lon="-1.53867">
        <ele>3</ele>
        <time>2023-07-16T12:13:29.060+00:00</time>
      </trkpt>
      <trkpt lat="46.22414" lon="-1.53858">
        <ele>3</ele>
        <time>2023-07-16T12:13:34.054+00:00</time>
      </trkpt>
      <trkpt lat="46.22423" lon="-1.53853">
        <ele>3</ele>
        <time>2023-07-16T12:13:39.051+00:00</time>
      </trkpt>
      <trkpt lat="46.22423" lon="-1.53852">
        <ele>3</ele>
        <time>2023-07-16T12:13:44.044+00:00</time>
      </trkpt>
      <trkpt lat="46.22421" lon="-1.53846">
        <ele>3</ele>
        <time>2023-07-16T12:13:48.134+00:00</time>
      </trkpt>
      <trkpt lat="46.22411" lon="-1.53835">
        <ele>3</ele>
        <time>2023-07-16T12:13:52.651+00:00</time>
      </trkpt>
      <trkpt lat="46.22401" lon="-1.53819">
        <ele>4</ele>
        <time>2023-07-16T12:13:57.700+00:00</time>
      </trkpt>
      <trkpt lat="46.2239" lon="-1.53808">
        <ele>4</ele>
        <time>2023-07-16T12:14:01.713+00:00</time>
      </trkpt>
      <trkpt lat="46.22379" lon="-1.53789">
        <ele>3</ele>
        <time>2023-07-16T12:14:06.345+00:00</time>
      </trkpt>
      <trkpt lat="46.22366" lon="-1.53767">
        <ele>4</ele>
        <time>2023-07-16T12:14:10.859+00:00</time>
      </trkpt>
      <trkpt lat="46.2235" lon="-1.53748">
        <ele>4</ele>
        <time>2023-07-16T12:14:15.052+00:00</time>
      </trkpt>
      <trkpt lat="46.22336" lon="-1.53723">
        <ele>4</ele>
        <time>2023-07-16T12:14:20.042+00:00</time>
      </trkpt>
      <trkpt lat="46.22327" lon="-1.537">
        <ele>3</ele>
        <time>2023-07-16T12:14:24.045+00:00</time>
      </trkpt>
      <trkpt lat="46.22319" lon="-1.53671">
        <ele>2</ele>
        <time>2023-07-16T12:14:28.628+00:00</time>
      </trkpt>
      <trkpt lat="46.22305" lon="-1.53645">
        <ele>3</ele>
        <time>2023-07-16T12:14:33.636+00:00</time>
      </trkpt>
      <trkpt lat="46.22294" lon="-1.53621">
        <ele>1</ele>
        <time>2023-07-16T12:14:38.139+00:00</time>
      </trkpt>
      <trkpt lat="46.22283" lon="-1.53597">
        <ele>1</ele>
        <time>2023-07-16T12:14:42.742+00:00</time>
      </trkpt>
      <trkpt lat="46.22274" lon="-1.53577">
        <ele>1</ele>
        <time>2023-07-16T12:14:46.746+00:00</time>
      </trkpt>
      <trkpt lat="46.22264" lon="-1.53558">
        <ele>3</ele>
        <time>2023-07-16T12:14:50.750+00:00</time>
      </trkpt>
      <trkpt lat="46.22252" lon="-1.53539">
        <ele>2</ele>
        <time>2023-07-16T12:14:55.253+00:00</time>
      </trkpt>
      <trkpt lat="46.2224" lon="-1.53522">
        <ele>2</ele>
        <time>2023-07-16T12:14:59.256+00:00</time>
      </trkpt>
      <trkpt lat="46.22228" lon="-1.53503">
        <ele>2</ele>
        <time>2023-07-16T12:15:03.359+00:00</time>
      </trkpt>
      <trkpt lat="46.22215" lon="-1.53485">
        <ele>2</ele>
        <time>2023-07-16T12:15:07.862+00:00</time>
      </trkpt>
      <trkpt lat="46.22205" lon="-1.53468">
        <ele>3</ele>
        <time>2023-07-16T12:15:11.864+00:00</time>
      </trkpt>
      <trkpt lat="46.22191" lon="-1.5345">
        <ele>3</ele>
        <time>2023-07-16T12:15:16.506+00:00</time>
      </trkpt>
      <trkpt lat="46.22186" lon="-1.53432">
        <ele>3</ele>
        <time>2023-07-16T12:15:20.628+00:00</time>
      </trkpt>
      <trkpt lat="46.22197" lon="-1.53416">
        <ele>3</ele>
        <time>2023-07-16T12:15:24.630+00:00</time>
      </trkpt>
      <trkpt lat="46.2221" lon="-1.53399">
        <ele>2</ele>
        <time>2023-07-16T12:15:28.671+00:00</time>
      </trkpt>
      <trkpt lat="46.22225" lon="-1.53375">
        <ele>1</ele>
        <time>2023-07-16T12:15:34.013+00:00</time>
      </trkpt>
      <trkpt lat="46.22239" lon="-1.53357">
        <ele>1</ele>
        <time>2023-07-16T12:15:38.076+00:00</time>
      </trkpt>
      <trkpt lat="46.22254" lon="-1.53335">
        <ele>1</ele>
        <time>2023-07-16T12:15:42.832+00:00</time>
      </trkpt>
      <trkpt lat="46.22264" lon="-1.53321">
        <ele>1</ele>
        <time>2023-07-16T12:15:47.085+00:00</time>
      </trkpt>
      <trkpt lat="46.22276" lon="-1.53308">
        <ele>3.9</ele>
        <time>2023-07-16T12:15:52.020+00:00</time>
      </trkpt>
      <trkpt lat="46.22286" lon="-1.53302">
        <ele>4</ele>
        <time>2023-07-16T12:15:56.028+00:00</time>
      </trkpt>
      <trkpt lat="46.22282" lon="-1.53284">
        <ele>3.9</ele>
        <time>2023-07-16T12:16:09.483+00:00</time>
      </trkpt>
      <trkpt lat="46.22282" lon="-1.53284">
        <ele>3.9</ele>
        <time>2023-07-16T12:16:14.039+00:00</time>
      </trkpt>
      <trkpt lat="46.22284" lon="-1.53279">
        <ele>3.8</ele>
        <time>2023-07-16T12:16:18.655+00:00</time>
      </trkpt>
      <trkpt lat="46.22294" lon="-1.53265">
        <ele>3.2</ele>
        <time>2023-07-16T12:16:23.075+00:00</time>
      </trkpt>
      <trkpt lat="46.22306" lon="-1.53249">
        <ele>3</ele>
        <time>2023-07-16T12:16:26.665+00:00</time>
      </trkpt>
      <trkpt lat="46.22319" lon="-1.53231">
        <ele>3</ele>
        <time>2023-07-16T12:16:31.404+00:00</time>
      </trkpt>
      <trkpt lat="46.22334" lon="-1.53211">
        <ele>1</ele>
        <time>2023-07-16T12:16:36.017+00:00</time>
      </trkpt>
      <trkpt lat="46.22349" lon="-1.53187">
        <ele>1</ele>
        <time>2023-07-16T12:16:41.078+00:00</time>
      </trkpt>
      <trkpt lat="46.22362" lon="-1.53169">
        <ele>1</ele>
        <time>2023-07-16T12:16:45.103+00:00</time>
      </trkpt>
      <trkpt lat="46.22379" lon="-1.53145">
        <ele>3</ele>
        <time>2023-07-16T12:16:50.073+00:00</time>
      </trkpt>
      <trkpt lat="46.22394" lon="-1.53125">
        <ele>-1</ele>
        <time>2023-07-16T12:16:54.085+00:00</time>
      </trkpt>
      <trkpt lat="46.2241" lon="-1.53104">
        <ele>-1</ele>
        <time>2023-07-16T12:16:58.084+00:00</time>
      </trkpt>
      <trkpt lat="46.22428" lon="-1.53079">
        <ele>-1</ele>
        <time>2023-07-16T12:17:03.103+00:00</time>
      </trkpt>
      <trkpt lat="46.22445" lon="-1.53056">
        <ele>-1</ele>
        <time>2023-07-16T12:17:08.102+00:00</time>
      </trkpt>
      <trkpt lat="46.22459" lon="-1.53038">
        <ele>-1</ele>
        <time>2023-07-16T12:17:12.092+00:00</time>
      </trkpt>
      <trkpt lat="46.22477" lon="-1.53013">
        <ele>-1</ele>
        <time>2023-07-16T12:17:17.105+00:00</time>
      </trkpt>
      <trkpt lat="46.22493" lon="-1.52989">
        <ele>3</ele>
        <time>2023-07-16T12:17:22.092+00:00</time>
      </trkpt>
      <trkpt lat="46.22507" lon="-1.52972">
        <ele>-1</ele>
        <time>2023-07-16T12:17:26.108+00:00</time>
      </trkpt>
      <trkpt lat="46.22523" lon="-1.5295">
        <ele>-1</ele>
        <time>2023-07-16T12:17:31.094+00:00</time>
      </trkpt>
      <trkpt lat="46.22539" lon="-1.52928">
        <ele>-1</ele>
        <time>2023-07-16T12:17:36.102+00:00</time>
      </trkpt>
      <trkpt lat="46.22544" lon="-1.52914">
        <ele>-1</ele>
        <time>2023-07-16T12:17:41.104+00:00</time>
      </trkpt>
      <trkpt lat="46.2254" lon="-1.52905">
        <ele>-1</ele>
        <time>2023-07-16T12:17:46.097+00:00</time>
      </trkpt>
      <trkpt lat="46.22531" lon="-1.52883">
        <ele>2.7</ele>
        <time>2023-07-16T12:17:51.098+00:00</time>
      </trkpt>
      <trkpt lat="46.22522" lon="-1.52862">
        <ele>2.2</ele>
        <time>2023-07-16T12:17:55.099+00:00</time>
      </trkpt>
      <trkpt lat="46.2251" lon="-1.52838">
        <ele>2.6</ele>
        <time>2023-07-16T12:18:00.094+00:00</time>
      </trkpt>
      <trkpt lat="46.22501" lon="-1.52817">
        <ele>2.4</ele>
        <time>2023-07-16T12:18:03.897+00:00</time>
      </trkpt>
      <trkpt lat="46.2249" lon="-1.52791">
        <ele>-1</ele>
        <time>2023-07-16T12:18:08.937+00:00</time>
      </trkpt>
      <trkpt lat="46.2248" lon="-1.52764">
        <ele>2.7</ele>
        <time>2023-07-16T12:18:14.037+00:00</time>
      </trkpt>
      <trkpt lat="46.22471" lon="-1.52738">
        <ele>-1</ele>
        <time>2023-07-16T12:18:18.898+00:00</time>
      </trkpt>
      <trkpt lat="46.22463" lon="-1.52709">
        <ele>-1</ele>
        <time>2023-07-16T12:18:24.110+00:00</time>
      </trkpt>
      <trkpt lat="46.22456" lon="-1.52686">
        <ele>2.2</ele>
        <time>2023-07-16T12:18:28.338+00:00</time>
      </trkpt>
      <trkpt lat="46.22446" lon="-1.52664">
        <ele>2.8</ele>
        <time>2023-07-16T12:18:32.657+00:00</time>
      </trkpt>
      <trkpt lat="46.22435" lon="-1.52644">
        <ele>2.1</ele>
        <time>2023-07-16T12:18:36.676+00:00</time>
      </trkpt>
      <trkpt lat="46.22425" lon="-1.52629">
        <ele>1</ele>
        <time>2023-07-16T12:19:04.821+00:00</time>
      </trkpt>
      <trkpt lat="46.22425" lon="-1.5263">
        <ele>1</ele>
        <time>2023-07-16T12:19:09.359+00:00</time>
      </trkpt>
      <trkpt lat="46.22426" lon="-1.5263">
        <ele>1</ele>
        <time>2023-07-16T12:19:13.467+00:00</time>
      </trkpt>
      <trkpt lat="46.22421" lon="-1.52618">
        <ele>1</ele>
        <time>2023-07-16T12:19:18.058+00:00</time>
      </trkpt>
      <trkpt lat="46.22415" lon="-1.52603">
        <ele>1</ele>
        <time>2023-07-16T12:19:23.046+00:00</time>
      </trkpt>
      <trkpt lat="46.2241" lon="-1.52595">
        <ele>1</ele>
        <time>2023-07-16T12:19:27.049+00:00</time>
      </trkpt>
      <trkpt lat="46.22403" lon="-1.5258">
        <ele>1</ele>
        <time>2023-07-16T12:19:32.044+00:00</time>
      </trkpt>
      <trkpt lat="46.22393" lon="-1.52565">
        <ele>2.8</ele>
        <time>2023-07-16T12:19:36.055+00:00</time>
      </trkpt>
      <trkpt lat="46.22377" lon="-1.52546">
        <ele>2.8</ele>
        <time>2023-07-16T12:19:41.050+00:00</time>
      </trkpt>
      <trkpt lat="46.22358" lon="-1.52531">
        <ele>3</ele>
        <time>2023-07-16T12:19:46.041+00:00</time>
      </trkpt>
      <trkpt lat="46.22338" lon="-1.52518">
        <ele>3</ele>
        <time>2023-07-16T12:19:51.062+00:00</time>
      </trkpt>
      <trkpt lat="46.22321" lon="-1.52507">
        <ele>1</ele>
        <time>2023-07-16T12:19:55.201+00:00</time>
      </trkpt>
      <trkpt lat="46.22303" lon="-1.52499">
        <ele>1</ele>
        <time>2023-07-16T12:19:59.714+00:00</time>
      </trkpt>
      <trkpt lat="46.22287" lon="-1.52484">
        <ele>2</ele>
        <time>2023-07-16T12:20:04.043+00:00</time>
      </trkpt>
      <trkpt lat="46.22271" lon="-1.52461">
        <ele>2</ele>
        <time>2023-07-16T12:20:09.056+00:00</time>
      </trkpt>
      <trkpt lat="46.22257" lon="-1.52442">
        <ele>2</ele>
        <time>2023-07-16T12:20:13.060+00:00</time>
      </trkpt>
      <trkpt lat="46.22238" lon="-1.52434">
        <ele>2</ele>
        <time>2023-07-16T12:20:17.595+00:00</time>
      </trkpt>
      <trkpt lat="46.2222" lon="-1.5243">
        <ele>1</ele>
        <time>2023-07-16T12:20:21.608+00:00</time>
      </trkpt>
      <trkpt lat="46.22201" lon="-1.52428">
        <ele>3</ele>
        <time>2023-07-16T12:20:25.621+00:00</time>
      </trkpt>
      <trkpt lat="46.22187" lon="-1.52425">
        <ele>3</ele>
        <time>2023-07-16T12:20:29.635+00:00</time>
      </trkpt>
      <trkpt lat="46.2217" lon="-1.52424">
        <ele>3</ele>
        <time>2023-07-16T12:20:34.067+00:00</time>
      </trkpt>
      <trkpt lat="46.22146" lon="-1.5242">
        <ele>3</ele>
        <time>2023-07-16T12:20:39.056+00:00</time>
      </trkpt>
      <trkpt lat="46.22129" lon="-1.52414">
        <ele>2.9</ele>
        <time>2023-07-16T12:20:43.078+00:00</time>
      </trkpt>
      <trkpt lat="46.22112" lon="-1.52404">
        <ele>1</ele>
        <time>2023-07-16T12:20:47.591+00:00</time>
      </trkpt>
      <trkpt lat="46.22096" lon="-1.52394">
        <ele>3</ele>
        <time>2023-07-16T12:20:51.602+00:00</time>
      </trkpt>
      <trkpt lat="46.22082" lon="-1.52378">
        <ele>2.6</ele>
        <time>2023-07-16T12:20:56.143+00:00</time>
      </trkpt>
      <trkpt lat="46.22066" lon="-1.52358">
        <ele>-1</ele>
        <time>2023-07-16T12:21:00.654+00:00</time>
      </trkpt>
      <trkpt lat="46.22049" lon="-1.52343">
        <ele>-1</ele>
        <time>2023-07-16T12:21:05.283+00:00</time>
      </trkpt>
      <trkpt lat="46.22032" lon="-1.52319">
        <ele>2.5</ele>
        <time>2023-07-16T12:21:10.062+00:00</time>
      </trkpt>
      <trkpt lat="46.22018" lon="-1.52299">
        <ele>2.3</ele>
        <time>2023-07-16T12:21:14.054+00:00</time>
      </trkpt>
      <trkpt lat="46.22002" lon="-1.52277">
        <ele>1</ele>
        <time>2023-07-16T12:21:19.060+00:00</time>
      </trkpt>
      <trkpt lat="46.21991" lon="-1.52258">
        <ele>1</ele>
        <time>2023-07-16T12:21:23.066+00:00</time>
      </trkpt>
      <trkpt lat="46.21981" lon="-1.52239">
        <ele>2.7</ele>
        <time>2023-07-16T12:21:27.058+00:00</time>
      </trkpt>
      <trkpt lat="46.21969" lon="-1.52211">
        <ele>1</ele>
        <time>2023-07-16T12:21:32.055+00:00</time>
      </trkpt>
      <trkpt lat="46.21958" lon="-1.52193">
        <ele>3</ele>
        <time>2023-07-16T12:21:36.051+00:00</time>
      </trkpt>
      <trkpt lat="46.21944" lon="-1.5217">
        <ele>1</ele>
        <time>2023-07-16T12:21:40.566+00:00</time>
      </trkpt>
      <trkpt lat="46.21935" lon="-1.52149">
        <ele>1</ele>
        <time>2023-07-16T12:21:44.560+00:00</time>
      </trkpt>
      <trkpt lat="46.21927" lon="-1.52118">
        <ele>2</ele>
        <time>2023-07-16T12:21:50.052+00:00</time>
      </trkpt>
      <trkpt lat="46.21933" lon="-1.52079">
        <ele>1</ele>
        <time>2023-07-16T12:21:55.059+00:00</time>
      </trkpt>
      <trkpt lat="46.2193" lon="-1.52049">
        <ele>4</ele>
        <time>2023-07-16T12:21:59.631+00:00</time>
      </trkpt>
      <trkpt lat="46.21911" lon="-1.52033">
        <ele>3</ele>
        <time>2023-07-16T12:22:04.053+00:00</time>
      </trkpt>
      <trkpt lat="46.21894" lon="-1.52019">
        <ele>4</ele>
        <time>2023-07-16T12:22:08.053+00:00</time>
      </trkpt>
      <trkpt lat="46.21874" lon="-1.52001">
        <ele>2</ele>
        <time>2023-07-16T12:22:13.056+00:00</time>
      </trkpt>
      <trkpt lat="46.21858" lon="-1.51985">
        <ele>2.4</ele>
        <time>2023-07-16T12:22:17.066+00:00</time>
      </trkpt>
      <trkpt lat="46.21843" lon="-1.51973">
        <ele>2</ele>
        <time>2023-07-16T12:22:21.060+00:00</time>
      </trkpt>
      <trkpt lat="46.21825" lon="-1.51958">
        <ele>-1</ele>
        <time>2023-07-16T12:22:26.053+00:00</time>
      </trkpt>
      <trkpt lat="46.21812" lon="-1.51946">
        <ele>2</ele>
        <time>2023-07-16T12:22:30.047+00:00</time>
      </trkpt>
      <trkpt lat="46.21797" lon="-1.51936">
        <ele>2</ele>
        <time>2023-07-16T12:22:34.106+00:00</time>
      </trkpt>
      <trkpt lat="46.21787" lon="-1.51916">
        <ele>1</ele>
        <time>2023-07-16T12:22:38.721+00:00</time>
      </trkpt>
      <trkpt lat="46.21774" lon="-1.51893">
        <ele>2</ele>
        <time>2023-07-16T12:22:43.739+00:00</time>
      </trkpt>
      <trkpt lat="46.21759" lon="-1.51885">
        <ele>2</ele>
        <time>2023-07-16T12:22:47.752+00:00</time>
      </trkpt>
      <trkpt lat="46.2174" lon="-1.51869">
        <ele>-1</ele>
        <time>2023-07-16T12:22:52.053+00:00</time>
      </trkpt>
      <trkpt lat="46.21722" lon="-1.51856">
        <ele>1.8</ele>
        <time>2023-07-16T12:22:56.054+00:00</time>
      </trkpt>
      <trkpt lat="46.21695" lon="-1.51854">
        <ele>-1</ele>
        <time>2023-07-16T12:23:01.060+00:00</time>
      </trkpt>
      <trkpt lat="46.21672" lon="-1.51857">
        <ele>2</ele>
        <time>2023-07-16T12:23:06.058+00:00</time>
      </trkpt>
      <trkpt lat="46.21649" lon="-1.51847">
        <ele>2</ele>
        <time>2023-07-16T12:23:11.062+00:00</time>
      </trkpt>
      <trkpt lat="46.21627" lon="-1.51831">
        <ele>2</ele>
        <time>2023-07-16T12:23:16.059+00:00</time>
      </trkpt>
      <trkpt lat="46.21606" lon="-1.51815">
        <ele>2</ele>
        <time>2023-07-16T12:23:21.064+00:00</time>
      </trkpt>
      <trkpt lat="46.21589" lon="-1.518">
        <ele>1</ele>
        <time>2023-07-16T12:23:25.055+00:00</time>
      </trkpt>
      <trkpt lat="46.21569" lon="-1.51786">
        <ele>1.6</ele>
        <time>2023-07-16T12:23:30.059+00:00</time>
      </trkpt>
      <trkpt lat="46.21552" lon="-1.51772">
        <ele>1.8</ele>
        <time>2023-07-16T12:23:35.071+00:00</time>
      </trkpt>
      <trkpt lat="46.21539" lon="-1.51753">
        <ele>-1</ele>
        <time>2023-07-16T12:23:39.585+00:00</time>
      </trkpt>
      <trkpt lat="46.2153" lon="-1.51733">
        <ele>2.8</ele>
        <time>2023-07-16T12:23:43.596+00:00</time>
      </trkpt>
      <trkpt lat="46.21519" lon="-1.51712">
        <ele>2.2</ele>
        <time>2023-07-16T12:23:47.596+00:00</time>
      </trkpt>
      <trkpt lat="46.215" lon="-1.51687">
        <ele>2</ele>
        <time>2023-07-16T12:23:53.057+00:00</time>
      </trkpt>
      <trkpt lat="46.21483" lon="-1.51667">
        <ele>1</ele>
        <time>2023-07-16T12:23:58.051+00:00</time>
      </trkpt>
      <trkpt lat="46.21461" lon="-1.51649">
        <ele>2</ele>
        <time>2023-07-16T12:24:03.068+00:00</time>
      </trkpt>
      <trkpt lat="46.21443" lon="-1.51641">
        <ele>2</ele>
        <time>2023-07-16T12:24:07.107+00:00</time>
      </trkpt>
      <trkpt lat="46.21429" lon="-1.51636">
        <ele>1</ele>
        <time>2023-07-16T12:24:11.115+00:00</time>
      </trkpt>
      <trkpt lat="46.21411" lon="-1.51633">
        <ele>1</ele>
        <time>2023-07-16T12:24:15.160+00:00</time>
      </trkpt>
      <trkpt lat="46.21392" lon="-1.51626">
        <ele>2</ele>
        <time>2023-07-16T12:24:19.743+00:00</time>
      </trkpt>
      <trkpt lat="46.21374" lon="-1.51618">
        <ele>3</ele>
        <time>2023-07-16T12:24:24.746+00:00</time>
      </trkpt>
      <trkpt lat="46.2136" lon="-1.51609">
        <ele>3</ele>
        <time>2023-07-16T12:24:29.748+00:00</time>
      </trkpt>
      <trkpt lat="46.21343" lon="-1.51599">
        <ele>2</ele>
        <time>2023-07-16T12:24:33.750+00:00</time>
      </trkpt>
      <trkpt lat="46.21322" lon="-1.51586">
        <ele>2</ele>
        <time>2023-07-16T12:24:39.100+00:00</time>
      </trkpt>
      <trkpt lat="46.21307" lon="-1.51576">
        <ele>1.8</ele>
        <time>2023-07-16T12:24:42.812+00:00</time>
      </trkpt>
      <trkpt lat="46.21288" lon="-1.51562">
        <ele>-1</ele>
        <time>2023-07-16T12:24:47.573+00:00</time>
      </trkpt>
      <trkpt lat="46.21269" lon="-1.51546">
        <ele>-1</ele>
        <time>2023-07-16T12:24:53.014+00:00</time>
      </trkpt>
      <trkpt lat="46.21256" lon="-1.51532">
        <ele>-1</ele>
        <time>2023-07-16T12:24:57.082+00:00</time>
      </trkpt>
      <trkpt lat="46.21245" lon="-1.51515">
        <ele>-1</ele>
        <time>2023-07-16T12:25:00.695+00:00</time>
      </trkpt>
      <trkpt lat="46.21231" lon="-1.51488">
        <ele>1.8</ele>
        <time>2023-07-16T12:25:06.080+00:00</time>
      </trkpt>
      <trkpt lat="46.21215" lon="-1.51469">
        <ele>1.9</ele>
        <time>2023-07-16T12:25:10.665+00:00</time>
      </trkpt>
      <trkpt lat="46.21198" lon="-1.51452">
        <ele>1</ele>
        <time>2023-07-16T12:25:15.687+00:00</time>
      </trkpt>
      <trkpt lat="46.21182" lon="-1.51438">
        <ele>1</ele>
        <time>2023-07-16T12:25:19.748+00:00</time>
      </trkpt>
      <trkpt lat="46.21171" lon="-1.51427">
        <ele>1</ele>
        <time>2023-07-16T12:25:23.749+00:00</time>
      </trkpt>
      <trkpt lat="46.2116" lon="-1.51417">
        <ele>1</ele>
        <time>2023-07-16T12:25:27.753+00:00</time>
      </trkpt>
      <trkpt lat="46.21146" lon="-1.51404">
        <ele>1</ele>
        <time>2023-07-16T12:25:32.756+00:00</time>
      </trkpt>
      <trkpt lat="46.21137" lon="-1.51392">
        <ele>1</ele>
        <time>2023-07-16T12:25:36.759+00:00</time>
      </trkpt>
      <trkpt lat="46.21123" lon="-1.51373">
        <ele>1</ele>
        <time>2023-07-16T12:25:41.763+00:00</time>
      </trkpt>
      <trkpt lat="46.21114" lon="-1.51355">
        <ele>1</ele>
        <time>2023-07-16T12:25:47.084+00:00</time>
      </trkpt>
      <trkpt lat="46.2111" lon="-1.51344">
        <ele>1</ele>
        <time>2023-07-16T12:25:51.117+00:00</time>
      </trkpt>
      <trkpt lat="46.21105" lon="-1.51338">
        <ele>1</ele>
        <time>2023-07-16T12:25:56.068+00:00</time>
      </trkpt>
      <trkpt lat="46.21103" lon="-1.51338">
        <ele>1</ele>
        <time>2023-07-16T12:26:00.907+00:00</time>
      </trkpt>
      <trkpt lat="46.21094" lon="-1.51334">
        <ele>2</ele>
        <time>2023-07-16T12:26:05.028+00:00</time>
      </trkpt>
      <trkpt lat="46.21094" lon="-1.5133">
        <ele>2</ele>
        <time>2023-07-16T12:26:09.947+00:00</time>
      </trkpt>
      <trkpt lat="46.21094" lon="-1.51324">
        <ele>2</ele>
        <time>2023-07-16T12:26:13.966+00:00</time>
      </trkpt>
      <trkpt lat="46.21086" lon="-1.51305">
        <ele>1</ele>
        <time>2023-07-16T12:26:18.584+00:00</time>
      </trkpt>
      <trkpt lat="46.21082" lon="-1.5129">
        <ele>1</ele>
        <time>2023-07-16T12:26:23.044+00:00</time>
      </trkpt>
      <trkpt lat="46.21079" lon="-1.51273">
        <ele>1</ele>
        <time>2023-07-16T12:26:27.841+00:00</time>
      </trkpt>
      <trkpt lat="46.21075" lon="-1.51262">
        <ele>3</ele>
        <time>2023-07-16T12:26:32.100+00:00</time>
      </trkpt>
      <trkpt lat="46.21069" lon="-1.51259">
        <ele>3</ele>
        <time>2023-07-16T12:26:37.072+00:00</time>
      </trkpt>
      <trkpt lat="46.21065" lon="-1.5127">
        <ele>1</ele>
        <time>2023-07-16T12:26:41.096+00:00</time>
      </trkpt>
      <trkpt lat="46.21059" lon="-1.51283">
        <ele>1</ele>
        <time>2023-07-16T12:26:46.090+00:00</time>
      </trkpt>
      <trkpt lat="46.21053" lon="-1.5129">
        <ele>1</ele>
        <time>2023-07-16T12:26:50.210+00:00</time>
      </trkpt>
      <trkpt lat="46.21046" lon="-1.51304">
        <ele>1</ele>
        <time>2023-07-16T12:26:54.803+00:00</time>
      </trkpt>
      <trkpt lat="46.21037" lon="-1.51315">
        <ele>1</ele>
        <time>2023-07-16T12:26:58.880+00:00</time>
      </trkpt>
      <trkpt lat="46.21032" lon="-1.51323">
        <ele>1</ele>
        <time>2023-07-16T12:27:02.919+00:00</time>
      </trkpt>
      <trkpt lat="46.21029" lon="-1.51333">
        <ele>1</ele>
        <time>2023-07-16T12:27:07.117+00:00</time>
      </trkpt>
      <trkpt lat="46.21032" lon="-1.51337">
        <ele>1</ele>
        <time>2023-07-16T12:27:11.672+00:00</time>
      </trkpt>
      <trkpt lat="46.21032" lon="-1.51342">
        <ele>1</ele>
        <time>2023-07-16T12:27:16.467+00:00</time>
      </trkpt>
      <trkpt lat="46.21025" lon="-1.51355">
        <ele>1</ele>
        <time>2023-07-16T12:27:20.672+00:00</time>
      </trkpt>
      <trkpt lat="46.21012" lon="-1.51367">
        <ele>3</ele>
        <time>2023-07-16T12:27:24.685+00:00</time>
      </trkpt>
      <trkpt lat="46.21" lon="-1.51378">
        <ele>1</ele>
        <time>2023-07-16T12:27:29.201+00:00</time>
      </trkpt>
      <trkpt lat="46.20995" lon="-1.51386">
        <ele>1</ele>
        <time>2023-07-16T12:27:33.212+00:00</time>
      </trkpt>
      <trkpt lat="46.20991" lon="-1.51393">
        <ele>1</ele>
        <time>2023-07-16T12:27:37.722+00:00</time>
      </trkpt>
      <trkpt lat="46.20988" lon="-1.514">
        <ele>1</ele>
        <time>2023-07-16T12:27:42.233+00:00</time>
      </trkpt>
      <trkpt lat="46.20986" lon="-1.51409">
        <ele>2</ele>
        <time>2023-07-16T12:27:46.242+00:00</time>
      </trkpt>
      <trkpt lat="46.20978" lon="-1.51425">
        <ele>2</ele>
        <time>2023-07-16T12:27:58.977+00:00</time>
      </trkpt>
      <trkpt lat="46.20972" lon="-1.51428">
        <ele>2</ele>
        <time>2023-07-16T12:28:03.488+00:00</time>
      </trkpt>
      <trkpt lat="46.20963" lon="-1.51436">
        <ele>2</ele>
        <time>2023-07-16T12:28:07.500+00:00</time>
      </trkpt>
      <trkpt lat="46.2095" lon="-1.51453">
        <ele>2</ele>
        <time>2023-07-16T12:28:11.512+00:00</time>
      </trkpt>
      <trkpt lat="46.20941" lon="-1.51468">
        <ele>2</ele>
        <time>2023-07-16T12:28:16.023+00:00</time>
      </trkpt>
      <trkpt lat="46.20935" lon="-1.51465">
        <ele>2</ele>
        <time>2023-07-16T12:28:20.045+00:00</time>
      </trkpt>
      <trkpt lat="46.20927" lon="-1.51462">
        <ele>2</ele>
        <time>2023-07-16T12:28:25.041+00:00</time>
      </trkpt>
      <trkpt lat="46.20913" lon="-1.51465">
        <ele>2</ele>
        <time>2023-07-16T12:28:29.048+00:00</time>
      </trkpt>
      <trkpt lat="46.20901" lon="-1.51471">
        <ele>2</ele>
        <time>2023-07-16T12:28:34.045+00:00</time>
      </trkpt>
      <trkpt lat="46.20893" lon="-1.51473">
        <ele>2</ele>
        <time>2023-07-16T12:28:38.039+00:00</time>
      </trkpt>
      <trkpt lat="46.20889" lon="-1.51483">
        <ele>2</ele>
        <time>2023-07-16T12:28:42.054+00:00</time>
      </trkpt>
      <trkpt lat="46.20886" lon="-1.51486">
        <ele>2</ele>
        <time>2023-07-16T12:28:46.671+00:00</time>
      </trkpt>
      <trkpt lat="46.20886" lon="-1.51489">
        <ele>2</ele>
        <time>2023-07-16T12:28:50.803+00:00</time>
      </trkpt>
      <trkpt lat="46.20887" lon="-1.51491">
        <ele>2</ele>
        <time>2023-07-16T12:28:55.815+00:00</time>
      </trkpt>
      <trkpt lat="46.20885" lon="-1.5149">
        <ele>2</ele>
        <time>2023-07-16T12:28:59.824+00:00</time>
      </trkpt>
      <trkpt lat="46.20881" lon="-1.5149">
        <ele>2</ele>
        <time>2023-07-16T12:29:04.335+00:00</time>
      </trkpt>
      <trkpt lat="46.20878" lon="-1.5149">
        <ele>2</ele>
        <time>2023-07-16T12:29:08.853+00:00</time>
      </trkpt>
      <trkpt lat="46.20877" lon="-1.51489">
        <ele>2</ele>
        <time>2023-07-16T12:29:10.860+00:00</time>
      </trkpt>
      <trkpt lat="46.20875" lon="-1.51491">
        <ele>2</ele>
        <time>2023-07-16T12:29:17.891+00:00</time>
      </trkpt>
      <trkpt lat="46.20868" lon="-1.51493">
        <ele>2</ele>
        <time>2023-07-16T12:29:22.407+00:00</time>
      </trkpt>
      <trkpt lat="46.20863" lon="-1.51494">
        <ele>2</ele>
        <time>2023-07-16T12:29:26.418+00:00</time>
      </trkpt>
      <trkpt lat="46.20857" lon="-1.51485">
        <ele>2</ele>
        <time>2023-07-16T12:29:47.967+00:00</time>
      </trkpt>
      <trkpt lat="46.20864" lon="-1.51493">
        <ele>2</ele>
        <time>2023-07-16T12:29:51.976+00:00</time>
      </trkpt>
      <trkpt lat="46.2087" lon="-1.51497">
        <ele>2</ele>
        <time>2023-07-16T12:29:56.986+00:00</time>
      </trkpt>
      <trkpt lat="46.20876" lon="-1.51492">
        <ele>2</ele>
        <time>2023-07-16T12:30:01.996+00:00</time>
      </trkpt>
      <trkpt lat="46.2088" lon="-1.51487">
        <ele>2</ele>
        <time>2023-07-16T12:30:06.005+00:00</time>
      </trkpt>
      <trkpt lat="46.20877" lon="-1.5149">
        <ele>2</ele>
        <time>2023-07-16T12:30:19.036+00:00</time>
      </trkpt>
      <trkpt lat="46.20877" lon="-1.5149">
        <ele>2</ele>
        <time>2023-07-16T12:30:23.046+00:00</time>
      </trkpt>
      <trkpt lat="46.20877" lon="-1.5149">
        <ele>2</ele>
        <time>2023-07-16T12:30:27.658+00:00</time>
      </trkpt>
      <trkpt lat="46.20881" lon="-1.51496">
        <ele>2</ele>
        <time>2023-07-16T12:30:32.672+00:00</time>
      </trkpt>
      <trkpt lat="46.20881" lon="-1.51502">
        <ele>2</ele>
        <time>2023-07-16T12:30:36.683+00:00</time>
      </trkpt>
      <trkpt lat="46.2088" lon="-1.51506">
        <ele>2</ele>
        <time>2023-07-16T12:30:41.195+00:00</time>
      </trkpt>
      <trkpt lat="46.20875" lon="-1.51513">
        <ele>2</ele>
        <time>2023-07-16T12:30:45.807+00:00</time>
      </trkpt>
      <trkpt lat="46.20868" lon="-1.51527">
        <ele>2</ele>
        <time>2023-07-16T12:30:51.044+00:00</time>
      </trkpt>
      <trkpt lat="46.20863" lon="-1.51537">
        <ele>2</ele>
        <time>2023-07-16T12:30:54.826+00:00</time>
      </trkpt>
      <trkpt lat="46.20859" lon="-1.51551">
        <ele>3</ele>
        <time>2023-07-16T12:31:31.029+00:00</time>
      </trkpt>
      <trkpt lat="46.2086" lon="-1.5155">
        <ele>3</ele>
        <time>2023-07-16T12:31:35.050+00:00</time>
      </trkpt>
      <trkpt lat="46.20859" lon="-1.51556">
        <ele>3</ele>
        <time>2023-07-16T12:31:39.567+00:00</time>
      </trkpt>
      <trkpt lat="46.2085" lon="-1.51564">
        <ele>3</ele>
        <time>2023-07-16T12:31:44.586+00:00</time>
      </trkpt>
      <trkpt lat="46.20848" lon="-1.51566">
        <ele>3</ele>
        <time>2023-07-16T12:31:49.103+00:00</time>
      </trkpt>
      <trkpt lat="46.20845" lon="-1.51576">
        <ele>4</ele>
        <time>2023-07-16T12:32:56.832+00:00</time>
      </trkpt>
      <trkpt lat="46.20843" lon="-1.5158">
        <ele>4</ele>
        <time>2023-07-16T12:33:01.840+00:00</time>
      </trkpt>
      <trkpt lat="46.20842" lon="-1.5158">
        <ele>4</ele>
        <time>2023-07-16T12:33:04.846+00:00</time>
      </trkpt>
      <trkpt lat="46.20842" lon="-1.5158">
        <ele>4</ele>
        <time>2023-07-16T12:33:11.877+00:00</time>
      </trkpt>
      <trkpt lat="46.20837" lon="-1.5158">
        <ele>4</ele>
        <time>2023-07-16T12:33:16.397+00:00</time>
      </trkpt>
      <trkpt lat="46.20833" lon="-1.51578">
        <ele>4</ele>
        <time>2023-07-16T12:33:20.414+00:00</time>
      </trkpt>
      <trkpt lat="46.20828" lon="-1.51572">
        <ele>4</ele>
        <time>2023-07-16T12:33:24.930+00:00</time>
      </trkpt>
      <trkpt lat="46.20824" lon="-1.51569">
        <ele>4</ele>
        <time>2023-07-16T12:33:29.950+00:00</time>
      </trkpt>
      <trkpt lat="46.20819" lon="-1.51568">
        <ele>4</ele>
        <time>2023-07-16T12:33:34.483+00:00</time>
      </trkpt>
      <trkpt lat="46.20814" lon="-1.51572">
        <ele>4</ele>
        <time>2023-07-16T12:33:38.599+00:00</time>
      </trkpt>
      <trkpt lat="46.20808" lon="-1.51573">
        <ele>4</ele>
        <time>2023-07-16T12:33:42.614+00:00</time>
      </trkpt>
      <trkpt lat="46.20808" lon="-1.51576">
        <ele>4</ele>
        <time>2023-07-16T12:33:46.630+00:00</time>
      </trkpt>
      <trkpt lat="46.20807" lon="-1.51577">
        <ele>4</ele>
        <time>2023-07-16T12:33:51.147+00:00</time>
      </trkpt>
      <trkpt lat="46.20804" lon="-1.51578">
        <ele>4</ele>
        <time>2023-07-16T12:33:55.666+00:00</time>
      </trkpt>
      <trkpt lat="46.20797" lon="-1.51577">
        <ele>4</ele>
        <time>2023-07-16T12:34:00.182+00:00</time>
      </trkpt>
      <trkpt lat="46.20795" lon="-1.51572">
        <ele>4</ele>
        <time>2023-07-16T12:34:04.699+00:00</time>
      </trkpt>
      <trkpt lat="46.20795" lon="-1.5157">
        <ele>4</ele>
        <time>2023-07-16T12:34:08.715+00:00</time>
      </trkpt>
      <trkpt lat="46.20795" lon="-1.51568">
        <ele>4</ele>
        <time>2023-07-16T12:34:13.233+00:00</time>
      </trkpt>
      <trkpt lat="46.20792" lon="-1.51566">
        <ele>4</ele>
        <time>2023-07-16T12:34:17.249+00:00</time>
      </trkpt>
      <trkpt lat="46.2079" lon="-1.51565">
        <ele>4</ele>
        <time>2023-07-16T12:34:21.363+00:00</time>
      </trkpt>
      <trkpt lat="46.20787" lon="-1.51566">
        <ele>4</ele>
        <time>2023-07-16T12:34:25.879+00:00</time>
      </trkpt>
      <trkpt lat="46.20787" lon="-1.51572">
        <ele>4</ele>
        <time>2023-07-16T12:34:30.396+00:00</time>
      </trkpt>
      <trkpt lat="46.20802" lon="-1.51583">
        <ele>4</ele>
        <time>2023-07-16T12:34:35.028+00:00</time>
      </trkpt>
      <trkpt lat="46.20845" lon="-1.51601">
        <ele>5</ele>
        <time>2023-07-16T12:35:27.818+00:00</time>
      </trkpt>
      <trkpt lat="46.20843" lon="-1.51578">
        <ele>4</ele>
        <time>2023-07-16T12:35:32.030+00:00</time>
      </trkpt>
      <trkpt lat="46.20833" lon="-1.51565">
        <ele>4</ele>
        <time>2023-07-16T12:35:37.036+00:00</time>
      </trkpt>
      <trkpt lat="46.2082" lon="-1.51565">
        <ele>4</ele>
        <time>2023-07-16T12:35:41.872+00:00</time>
      </trkpt>
      <trkpt lat="46.20792" lon="-1.51507">
        <ele>4</ele>
        <time>2023-07-16T12:35:46.027+00:00</time>
      </trkpt>
      <trkpt lat="46.20764" lon="-1.51482">
        <ele>5</ele>
        <time>2023-07-16T12:35:50.032+00:00</time>
      </trkpt>
      <trkpt lat="46.20736" lon="-1.51474">
        <ele>6</ele>
        <time>2023-07-16T12:35:54.042+00:00</time>
      </trkpt>
      <trkpt lat="46.20716" lon="-1.51469">
        <ele>6</ele>
        <time>2023-07-16T12:35:59.030+00:00</time>
      </trkpt>
      <trkpt lat="46.20713" lon="-1.51465">
        <ele>6</ele>
        <time>2023-07-16T12:36:04.041+00:00</time>
      </trkpt>
      <trkpt lat="46.20775" lon="-1.51555">
        <ele>4</ele>
        <time>2023-07-16T12:37:44.250+00:00</time>
      </trkpt>
      <trkpt lat="46.20778" lon="-1.5155">
        <ele>4</ele>
        <time>2023-07-16T12:37:48.753+00:00</time>
      </trkpt>
      <trkpt lat="46.2078" lon="-1.51549">
        <ele>4</ele>
        <time>2023-07-16T12:37:52.755+00:00</time>
      </trkpt>
      <trkpt lat="46.20782" lon="-1.5155">
        <ele>4</ele>
        <time>2023-07-16T12:37:57.757+00:00</time>
      </trkpt>
      <trkpt lat="46.20782" lon="-1.51551">
        <ele>4</ele>
        <time>2023-07-16T12:38:02.261+00:00</time>
      </trkpt>
      <trkpt lat="46.20782" lon="-1.51555">
        <ele>4</ele>
        <time>2023-07-16T12:38:20.309+00:00</time>
      </trkpt>
      <trkpt lat="46.20784" lon="-1.51558">
        <ele>4</ele>
        <time>2023-07-16T12:38:24.414+00:00</time>
      </trkpt>
      <trkpt lat="46.20783" lon="-1.51559">
        <ele>4</ele>
        <time>2023-07-16T12:38:28.919+00:00</time>
      </trkpt>
      <trkpt lat="46.20777" lon="-1.51556">
        <ele>4</ele>
        <time>2023-07-16T12:38:32.926+00:00</time>
      </trkpt>
      <trkpt lat="46.20771" lon="-1.51552">
        <ele>4</ele>
        <time>2023-07-16T12:38:37.431+00:00</time>
      </trkpt>
      <trkpt lat="46.2077" lon="-1.51553">
        <ele>4</ele>
        <time>2023-07-16T12:38:41.937+00:00</time>
      </trkpt>
      <trkpt lat="46.20773" lon="-1.51558">
        <ele>4</ele>
        <time>2023-07-16T12:38:45.944+00:00</time>
      </trkpt>
      <trkpt lat="46.20789" lon="-1.51575">
        <ele>4</ele>
        <time>2023-07-16T12:38:50.650+00:00</time>
      </trkpt>
      <trkpt lat="46.20791" lon="-1.51579">
        <ele>4</ele>
        <time>2023-07-16T12:38:55.155+00:00</time>
      </trkpt>
      <trkpt lat="46.20799" lon="-1.51588">
        <ele>4</ele>
        <time>2023-07-16T12:39:23.859+00:00</time>
      </trkpt>
      <trkpt lat="46.208" lon="-1.51592">
        <ele>4</ele>
        <time>2023-07-16T12:39:28.371+00:00</time>
      </trkpt>
      <trkpt lat="46.20798" lon="-1.51597">
        <ele>4</ele>
        <time>2023-07-16T12:39:32.984+00:00</time>
      </trkpt>
      <trkpt lat="46.20798" lon="-1.51602">
        <ele>4</ele>
        <time>2023-07-16T12:39:37.499+00:00</time>
      </trkpt>
      <trkpt lat="46.20799" lon="-1.51608">
        <ele>4</ele>
        <time>2023-07-16T12:39:42.015+00:00</time>
      </trkpt>
      <trkpt lat="46.20798" lon="-1.51611">
        <ele>4</ele>
        <time>2023-07-16T12:39:47.035+00:00</time>
      </trkpt>
      <trkpt lat="46.20793" lon="-1.51612">
        <ele>4</ele>
        <time>2023-07-16T12:39:51.554+00:00</time>
      </trkpt>
      <trkpt lat="46.20788" lon="-1.51611">
        <ele>4</ele>
        <time>2023-07-16T12:39:55.686+00:00</time>
      </trkpt>
      <trkpt lat="46.20786" lon="-1.51609">
        <ele>4</ele>
        <time>2023-07-16T12:40:00.708+00:00</time>
      </trkpt>
      <trkpt lat="46.20788" lon="-1.51608">
        <ele>4</ele>
        <time>2023-07-16T12:40:10.645+00:00</time>
      </trkpt>
      <trkpt lat="46.20788" lon="-1.51607">
        <ele>4</ele>
        <time>2023-07-16T12:40:15.667+00:00</time>
      </trkpt>
      <trkpt lat="46.20785" lon="-1.51609">
        <ele>4</ele>
        <time>2023-07-16T12:40:20.687+00:00</time>
      </trkpt>
      <trkpt lat="46.20785" lon="-1.51613">
        <ele>4</ele>
        <time>2023-07-16T12:40:24.703+00:00</time>
      </trkpt>
      <trkpt lat="46.2078" lon="-1.51615">
        <ele>4</ele>
        <time>2023-07-16T12:40:29.222+00:00</time>
      </trkpt>
      <trkpt lat="46.20775" lon="-1.51609">
        <ele>4</ele>
        <time>2023-07-16T12:40:46.792+00:00</time>
      </trkpt>
      <trkpt lat="46.20772" lon="-1.51608">
        <ele>4</ele>
        <time>2023-07-16T12:40:50.808+00:00</time>
      </trkpt>
      <trkpt lat="46.2077" lon="-1.51608">
        <ele>4</ele>
        <time>2023-07-16T12:40:55.827+00:00</time>
      </trkpt>
      <trkpt lat="46.20768" lon="-1.51606">
        <ele>4</ele>
        <time>2023-07-16T12:41:00.343+00:00</time>
      </trkpt>
      <trkpt lat="46.20767" lon="-1.51606">
        <ele>4</ele>
        <time>2023-07-16T12:41:04.858+00:00</time>
      </trkpt>
      <trkpt lat="46.20766" lon="-1.51607">
        <ele>4</ele>
        <time>2023-07-16T12:41:26.441+00:00</time>
      </trkpt>
      <trkpt lat="46.20762" lon="-1.51611">
        <ele>5</ele>
        <time>2023-07-16T12:41:30.973+00:00</time>
      </trkpt>
      <trkpt lat="46.2076" lon="-1.51617">
        <ele>5</ele>
        <time>2023-07-16T12:41:34.986+00:00</time>
      </trkpt>
      <trkpt lat="46.20757" lon="-1.5162">
        <ele>5</ele>
        <time>2023-07-16T12:41:39.015+00:00</time>
      </trkpt>
      <trkpt lat="46.20754" lon="-1.51623">
        <ele>5</ele>
        <time>2023-07-16T12:41:43.529+00:00</time>
      </trkpt>
      <trkpt lat="46.20751" lon="-1.51628">
        <ele>5</ele>
        <time>2023-07-16T12:42:13.351+00:00</time>
      </trkpt>
      <trkpt lat="46.20756" lon="-1.51625">
        <ele>5</ele>
        <time>2023-07-16T12:42:17.967+00:00</time>
      </trkpt>
      <trkpt lat="46.20761" lon="-1.51619">
        <ele>5</ele>
        <time>2023-07-16T12:42:21.983+00:00</time>
      </trkpt>
      <trkpt lat="46.20763" lon="-1.51616">
        <ele>5</ele>
        <time>2023-07-16T12:42:26.099+00:00</time>
      </trkpt>
      <trkpt lat="46.20767" lon="-1.51609">
        <ele>4</ele>
        <time>2023-07-16T12:42:30.115+00:00</time>
      </trkpt>
      <trkpt lat="46.20771" lon="-1.51606">
        <ele>4</ele>
        <time>2023-07-16T12:42:34.431+00:00</time>
      </trkpt>
      <trkpt lat="46.20775" lon="-1.51607">
        <ele>4</ele>
        <time>2023-07-16T12:42:38.947+00:00</time>
      </trkpt>
      <trkpt lat="46.20778" lon="-1.51604">
        <ele>4</ele>
        <time>2023-07-16T12:42:42.961+00:00</time>
      </trkpt>
      <trkpt lat="46.20783" lon="-1.51604">
        <ele>4</ele>
        <time>2023-07-16T12:42:47.050+00:00</time>
      </trkpt>
      <trkpt lat="46.20786" lon="-1.51603">
        <ele>4</ele>
        <time>2023-07-16T12:42:51.087+00:00</time>
      </trkpt>
      <trkpt lat="46.20791" lon="-1.51603">
        <ele>4</ele>
        <time>2023-07-16T12:42:55.600+00:00</time>
      </trkpt>
      <trkpt lat="46.20796" lon="-1.51601">
        <ele>4</ele>
        <time>2023-07-16T12:43:00.114+00:00</time>
      </trkpt>
      <trkpt lat="46.208" lon="-1.51597">
        <ele>4</ele>
        <time>2023-07-16T12:43:04.127+00:00</time>
      </trkpt>
      <trkpt lat="46.20803" lon="-1.51591">
        <ele>4</ele>
        <time>2023-07-16T12:43:21.794+00:00</time>
      </trkpt>
      <trkpt lat="46.20805" lon="-1.51585">
        <ele>4</ele>
        <time>2023-07-16T12:43:25.806+00:00</time>
      </trkpt>
      <trkpt lat="46.20811" lon="-1.5158">
        <ele>4</ele>
        <time>2023-07-16T12:43:30.821+00:00</time>
      </trkpt>
      <trkpt lat="46.20815" lon="-1.51575">
        <ele>4</ele>
        <time>2023-07-16T12:43:34.831+00:00</time>
      </trkpt>
      <trkpt lat="46.20818" lon="-1.51569">
        <ele>4</ele>
        <time>2023-07-16T12:43:38.852+00:00</time>
      </trkpt>
      <trkpt lat="46.20825" lon="-1.51555">
        <ele>4</ele>
        <time>2023-07-16T12:43:51.892+00:00</time>
      </trkpt>
      <trkpt lat="46.20824" lon="-1.51554">
        <ele>4</ele>
        <time>2023-07-16T12:43:56.407+00:00</time>
      </trkpt>
      <trkpt lat="46.20825" lon="-1.51554">
        <ele>4</ele>
        <time>2023-07-16T12:44:01.122+00:00</time>
      </trkpt>
      <trkpt lat="46.20823" lon="-1.5155">
        <ele>4</ele>
        <time>2023-07-16T12:44:05.137+00:00</time>
      </trkpt>
      <trkpt lat="46.20821" lon="-1.51542">
        <ele>4</ele>
        <time>2023-07-16T12:44:09.664+00:00</time>
      </trkpt>
      <trkpt lat="46.20823" lon="-1.51541">
        <ele>3</ele>
        <time>2023-07-16T12:45:44.912+00:00</time>
      </trkpt>
      <trkpt lat="46.20822" lon="-1.51554">
        <ele>4</ele>
        <time>2023-07-16T12:45:48.929+00:00</time>
      </trkpt>
      <trkpt lat="46.20823" lon="-1.51562">
        <ele>4</ele>
        <time>2023-07-16T12:45:53.447+00:00</time>
      </trkpt>
      <trkpt lat="46.20825" lon="-1.51568">
        <ele>4</ele>
        <time>2023-07-16T12:45:57.463+00:00</time>
      </trkpt>
      <trkpt lat="46.20829" lon="-1.51573">
        <ele>4</ele>
        <time>2023-07-16T12:46:02.079+00:00</time>
      </trkpt>
      <trkpt lat="46.20832" lon="-1.51578">
        <ele>4</ele>
        <time>2023-07-16T12:46:06.093+00:00</time>
      </trkpt>
      <trkpt lat="46.20835" lon="-1.5158">
        <ele>4</ele>
        <time>2023-07-16T12:46:10.609+00:00</time>
      </trkpt>
      <trkpt lat="46.2084" lon="-1.51579">
        <ele>4</ele>
        <time>2023-07-16T12:46:15.125+00:00</time>
      </trkpt>
      <trkpt lat="46.20841" lon="-1.51578">
        <ele>4</ele>
        <time>2023-07-16T12:46:19.639+00:00</time>
      </trkpt>
      <trkpt lat="46.2084" lon="-1.51575">
        <ele>4</ele>
        <time>2023-07-16T12:48:22.996+00:00</time>
      </trkpt>
      <trkpt lat="46.2084" lon="-1.51574">
        <ele>4</ele>
        <time>2023-07-16T12:48:28.077+00:00</time>
      </trkpt>
      <trkpt lat="46.2084" lon="-1.51573">
        <ele>4</ele>
        <time>2023-07-16T12:48:32.099+00:00</time>
      </trkpt>
      <trkpt lat="46.20838" lon="-1.51571">
        <ele>4</ele>
        <time>2023-07-16T12:48:36.004+00:00</time>
      </trkpt>
      <trkpt lat="46.20832" lon="-1.51575">
        <ele>4</ele>
        <time>2023-07-16T12:48:41.067+00:00</time>
      </trkpt>
      <trkpt lat="46.2083" lon="-1.51573">
        <ele>4</ele>
        <time>2023-07-16T12:48:45.069+00:00</time>
      </trkpt>
      <trkpt lat="46.20825" lon="-1.51566">
        <ele>4</ele>
        <time>2023-07-16T12:48:50.072+00:00</time>
      </trkpt>
      <trkpt lat="46.20822" lon="-1.51561">
        <ele>4</ele>
        <time>2023-07-16T12:48:54.575+00:00</time>
      </trkpt>
      <trkpt lat="46.20819" lon="-1.51558">
        <ele>4</ele>
        <time>2023-07-16T12:48:59.078+00:00</time>
      </trkpt>
      <trkpt lat="46.20818" lon="-1.5155">
        <ele>4</ele>
        <time>2023-07-16T12:49:03.299+00:00</time>
      </trkpt>
      <trkpt lat="46.20819" lon="-1.51544">
        <ele>4</ele>
        <time>2023-07-16T12:49:07.801+00:00</time>
      </trkpt>
      <trkpt lat="46.20823" lon="-1.51529">
        <ele>3</ele>
        <time>2023-07-16T12:49:12.304+00:00</time>
      </trkpt>
      <trkpt lat="46.20828" lon="-1.51512">
        <ele>3</ele>
        <time>2023-07-16T12:49:16.846+00:00</time>
      </trkpt>
      <trkpt lat="46.20834" lon="-1.51498">
        <ele>3</ele>
        <time>2023-07-16T12:49:21.223+00:00</time>
      </trkpt>
      <trkpt lat="46.20839" lon="-1.51487">
        <ele>3</ele>
        <time>2023-07-16T12:49:25.480+00:00</time>
      </trkpt>
      <trkpt lat="46.20842" lon="-1.51472">
        <ele>3</ele>
        <time>2023-07-16T12:49:29.707+00:00</time>
      </trkpt>
      <trkpt lat="46.20844" lon="-1.51456">
        <ele>3</ele>
        <time>2023-07-16T12:49:34.048+00:00</time>
      </trkpt>
      <trkpt lat="46.20843" lon="-1.51443">
        <ele>3</ele>
        <time>2023-07-16T12:49:37.569+00:00</time>
      </trkpt>
      <trkpt lat="46.20842" lon="-1.51428">
        <ele>3</ele>
        <time>2023-07-16T12:49:42.628+00:00</time>
      </trkpt>
      <trkpt lat="46.20841" lon="-1.51421">
        <ele>3</ele>
        <time>2023-07-16T12:49:46.627+00:00</time>
      </trkpt>
      <trkpt lat="46.2084" lon="-1.51421">
        <ele>3</ele>
        <time>2023-07-16T12:49:51.486+00:00</time>
      </trkpt>
      <trkpt lat="46.20841" lon="-1.5141">
        <ele>3</ele>
        <time>2023-07-16T12:50:07.749+00:00</time>
      </trkpt>
      <trkpt lat="46.20841" lon="-1.5141">
        <ele>3</ele>
        <time>2023-07-16T12:50:12.629+00:00</time>
      </trkpt>
      <trkpt lat="46.20842" lon="-1.51409">
        <ele>3</ele>
        <time>2023-07-16T12:50:17.671+00:00</time>
      </trkpt>
      <trkpt lat="46.20842" lon="-1.51409">
        <ele>3</ele>
        <time>2023-07-16T12:50:22.193+00:00</time>
      </trkpt>
      <trkpt lat="46.20843" lon="-1.51406">
        <ele>3</ele>
        <time>2023-07-16T12:50:26.672+00:00</time>
      </trkpt>
      <trkpt lat="46.20846" lon="-1.51409">
        <ele>3</ele>
        <time>2023-07-16T12:58:10.137+00:00</time>
      </trkpt>
      <trkpt lat="46.20857" lon="-1.51401">
        <ele>3</ele>
        <time>2023-07-16T12:58:14.090+00:00</time>
      </trkpt>
      <trkpt lat="46.2087" lon="-1.51392">
        <ele>3</ele>
        <time>2023-07-16T12:58:18.667+00:00</time>
      </trkpt>
      <trkpt lat="46.2088" lon="-1.51384">
        <ele>3</ele>
        <time>2023-07-16T12:58:22.724+00:00</time>
      </trkpt>
      <trkpt lat="46.20891" lon="-1.51376">
        <ele>3</ele>
        <time>2023-07-16T12:58:26.800+00:00</time>
      </trkpt>
      <trkpt lat="46.20902" lon="-1.51369">
        <ele>3</ele>
        <time>2023-07-16T12:58:30.998+00:00</time>
      </trkpt>
      <trkpt lat="46.20911" lon="-1.51362">
        <ele>3</ele>
        <time>2023-07-16T12:58:35.069+00:00</time>
      </trkpt>
      <trkpt lat="46.20923" lon="-1.51349">
        <ele>3</ele>
        <time>2023-07-16T12:58:39.614+00:00</time>
      </trkpt>
      <trkpt lat="46.20934" lon="-1.51338">
        <ele>3</ele>
        <time>2023-07-16T12:58:45.010+00:00</time>
      </trkpt>
      <trkpt lat="46.20945" lon="-1.5133">
        <ele>3</ele>
        <time>2023-07-16T12:58:49.620+00:00</time>
      </trkpt>
      <trkpt lat="46.20954" lon="-1.51319">
        <ele>4</ele>
        <time>2023-07-16T12:58:53.664+00:00</time>
      </trkpt>
      <trkpt lat="46.20965" lon="-1.51307">
        <ele>2</ele>
        <time>2023-07-16T12:58:58.759+00:00</time>
      </trkpt>
      <trkpt lat="46.20978" lon="-1.51294">
        <ele>2</ele>
        <time>2023-07-16T12:59:04.034+00:00</time>
      </trkpt>
      <trkpt lat="46.20989" lon="-1.51283">
        <ele>2</ele>
        <time>2023-07-16T12:59:08.829+00:00</time>
      </trkpt>
      <trkpt lat="46.20998" lon="-1.51271">
        <ele>2</ele>
        <time>2023-07-16T12:59:14.069+00:00</time>
      </trkpt>
      <trkpt lat="46.21005" lon="-1.51257">
        <ele>2</ele>
        <time>2023-07-16T12:59:18.639+00:00</time>
      </trkpt>
      <trkpt lat="46.21009" lon="-1.51246">
        <ele>2</ele>
        <time>2023-07-16T12:59:22.835+00:00</time>
      </trkpt>
      <trkpt lat="46.21007" lon="-1.51234">
        <ele>1</ele>
        <time>2023-07-16T12:59:26.972+00:00</time>
      </trkpt>
      <trkpt lat="46.21001" lon="-1.51225">
        <ele>1</ele>
        <time>2023-07-16T12:59:32.065+00:00</time>
      </trkpt>
      <trkpt lat="46.20992" lon="-1.5122">
        <ele>1</ele>
        <time>2023-07-16T12:59:36.083+00:00</time>
      </trkpt>
      <trkpt lat="46.20983" lon="-1.51213">
        <ele>3</ele>
        <time>2023-07-16T12:59:40.080+00:00</time>
      </trkpt>
      <trkpt lat="46.20974" lon="-1.51203">
        <ele>2</ele>
        <time>2023-07-16T12:59:44.095+00:00</time>
      </trkpt>
      <trkpt lat="46.20964" lon="-1.51187">
        <ele>2</ele>
        <time>2023-07-16T12:59:48.629+00:00</time>
      </trkpt>
      <trkpt lat="46.20954" lon="-1.51172">
        <ele>1</ele>
        <time>2023-07-16T12:59:53.665+00:00</time>
      </trkpt>
      <trkpt lat="46.20946" lon="-1.5116">
        <ele>1</ele>
        <time>2023-07-16T12:59:57.620+00:00</time>
      </trkpt>
      <trkpt lat="46.20936" lon="-1.51146">
        <ele>1</ele>
        <time>2023-07-16T13:00:02.996+00:00</time>
      </trkpt>
      <trkpt lat="46.20929" lon="-1.51135">
        <ele>1</ele>
        <time>2023-07-16T13:00:07.792+00:00</time>
      </trkpt>
      <trkpt lat="46.20919" lon="-1.51122">
        <ele>1</ele>
        <time>2023-07-16T13:00:12.928+00:00</time>
      </trkpt>
      <trkpt lat="46.20917" lon="-1.5111">
        <ele>1</ele>
        <time>2023-07-16T13:00:18.044+00:00</time>
      </trkpt>
      <trkpt lat="46.20902" lon="-1.51097">
        <ele>1</ele>
        <time>2023-07-16T13:00:23.092+00:00</time>
      </trkpt>
      <trkpt lat="46.20892" lon="-1.51075">
        <ele>1</ele>
        <time>2023-07-16T13:00:27.860+00:00</time>
      </trkpt>
      <trkpt lat="46.20888" lon="-1.51045">
        <ele>2</ele>
        <time>2023-07-16T13:00:32.959+00:00</time>
      </trkpt>
      <trkpt lat="46.20883" lon="-1.51023">
        <ele>2</ele>
        <time>2023-07-16T13:00:37.280+00:00</time>
      </trkpt>
      <trkpt lat="46.20877" lon="-1.51005">
        <ele>3</ele>
        <time>2023-07-16T13:00:41.560+00:00</time>
      </trkpt>
      <trkpt lat="46.20866" lon="-1.50992">
        <ele>2</ele>
        <time>2023-07-16T13:00:46+00:00</time>
      </trkpt>
      <trkpt lat="46.20856" lon="-1.50979">
        <ele>2</ele>
        <time>2023-07-16T13:00:49.840+00:00</time>
      </trkpt>
      <trkpt lat="46.20841" lon="-1.5096">
        <ele>2.6</ele>
        <time>2023-07-16T13:00:54.939+00:00</time>
      </trkpt>
      <trkpt lat="46.20828" lon="-1.50943">
        <ele>1</ele>
        <time>2023-07-16T13:00:58.919+00:00</time>
      </trkpt>
      <trkpt lat="46.20809" lon="-1.50923">
        <ele>2</ele>
        <time>2023-07-16T13:01:04.078+00:00</time>
      </trkpt>
      <trkpt lat="46.20798" lon="-1.50908">
        <ele>2</ele>
        <time>2023-07-16T13:01:07.646+00:00</time>
      </trkpt>
      <trkpt lat="46.20781" lon="-1.50884">
        <ele>2</ele>
        <time>2023-07-16T13:01:12.645+00:00</time>
      </trkpt>
      <trkpt lat="46.20766" lon="-1.50865">
        <ele>2</ele>
        <time>2023-07-16T13:01:18.064+00:00</time>
      </trkpt>
      <trkpt lat="46.20753" lon="-1.50847">
        <ele>1</ele>
        <time>2023-07-16T13:01:22.822+00:00</time>
      </trkpt>
      <trkpt lat="46.20738" lon="-1.50827">
        <ele>1</ele>
        <time>2023-07-16T13:01:27.880+00:00</time>
      </trkpt>
      <trkpt lat="46.20731" lon="-1.50813">
        <ele>2.8</ele>
        <time>2023-07-16T13:01:32.061+00:00</time>
      </trkpt>
      <trkpt lat="46.20725" lon="-1.50803">
        <ele>3</ele>
        <time>2023-07-16T13:01:35.662+00:00</time>
      </trkpt>
      <trkpt lat="46.20718" lon="-1.50785">
        <ele>3</ele>
        <time>2023-07-16T13:01:40.884+00:00</time>
      </trkpt>
      <trkpt lat="46.20713" lon="-1.50775">
        <ele>3</ele>
        <time>2023-07-16T13:01:45.547+00:00</time>
      </trkpt>
      <trkpt lat="46.20713" lon="-1.50773">
        <ele>3</ele>
        <time>2023-07-16T13:01:49.748+00:00</time>
      </trkpt>
      <trkpt lat="46.20695" lon="-1.50774">
        <ele>3</ele>
        <time>2023-07-16T13:02:22.447+00:00</time>
      </trkpt>
      <trkpt lat="46.20687" lon="-1.50778">
        <ele>3</ele>
        <time>2023-07-16T13:02:26.529+00:00</time>
      </trkpt>
      <trkpt lat="46.20674" lon="-1.50783">
        <ele>1</ele>
        <time>2023-07-16T13:02:31.071+00:00</time>
      </trkpt>
      <trkpt lat="46.20663" lon="-1.50788">
        <ele>1</ele>
        <time>2023-07-16T13:02:35.652+00:00</time>
      </trkpt>
      <trkpt lat="46.20646" lon="-1.50793">
        <ele>2</ele>
        <time>2023-07-16T13:02:40.713+00:00</time>
      </trkpt>
      <trkpt lat="46.20631" lon="-1.508">
        <ele>2</ele>
        <time>2023-07-16T13:02:44.835+00:00</time>
      </trkpt>
      <trkpt lat="46.20611" lon="-1.50807">
        <ele>1</ele>
        <time>2023-07-16T13:02:49.858+00:00</time>
      </trkpt>
      <trkpt lat="46.20596" lon="-1.50812">
        <ele>3</ele>
        <time>2023-07-16T13:02:53.861+00:00</time>
      </trkpt>
      <trkpt lat="46.20576" lon="-1.50819">
        <ele>2.9</ele>
        <time>2023-07-16T13:02:59.100+00:00</time>
      </trkpt>
      <trkpt lat="46.20554" lon="-1.50833">
        <ele>1</ele>
        <time>2023-07-16T13:03:22.337+00:00</time>
      </trkpt>
      <trkpt lat="46.20553" lon="-1.50832">
        <ele>1</ele>
        <time>2023-07-16T13:03:26.881+00:00</time>
      </trkpt>
      <trkpt lat="46.20553" lon="-1.50833">
        <ele>1</ele>
        <time>2023-07-16T13:03:30.883+00:00</time>
      </trkpt>
      <trkpt lat="46.20553" lon="-1.50834">
        <ele>1</ele>
        <time>2023-07-16T13:03:35.887+00:00</time>
      </trkpt>
      <trkpt lat="46.20553" lon="-1.50835">
        <ele>1</ele>
        <time>2023-07-16T13:03:40.401+00:00</time>
      </trkpt>
      <trkpt lat="46.20553" lon="-1.50836">
        <ele>1</ele>
        <time>2023-07-16T13:03:44.404+00:00</time>
      </trkpt>
      <trkpt lat="46.20553" lon="-1.50834">
        <ele>1</ele>
        <time>2023-07-16T13:03:48.909+00:00</time>
      </trkpt>
      <trkpt lat="46.20559" lon="-1.50839">
        <ele>1</ele>
        <time>2023-07-16T13:03:52.914+00:00</time>
      </trkpt>
      <trkpt lat="46.2057" lon="-1.5085">
        <ele>1</ele>
        <time>2023-07-16T13:03:56.917+00:00</time>
      </trkpt>
      <trkpt lat="46.20578" lon="-1.50862">
        <ele>1</ele>
        <time>2023-07-16T13:04:00.919+00:00</time>
      </trkpt>
      <trkpt lat="46.20592" lon="-1.50877">
        <ele>2.5</ele>
        <time>2023-07-16T13:04:06.080+00:00</time>
      </trkpt>
      <trkpt lat="46.20602" lon="-1.50886">
        <ele>2</ele>
        <time>2023-07-16T13:04:09.602+00:00</time>
      </trkpt>
      <trkpt lat="46.20615" lon="-1.50898">
        <ele>2</ele>
        <time>2023-07-16T13:04:14.092+00:00</time>
      </trkpt>
      <trkpt lat="46.20629" lon="-1.50917">
        <ele>2</ele>
        <time>2023-07-16T13:04:18.685+00:00</time>
      </trkpt>
      <trkpt lat="46.20639" lon="-1.50931">
        <ele>2</ele>
        <time>2023-07-16T13:04:22.306+00:00</time>
      </trkpt>
      <trkpt lat="46.20649" lon="-1.50947">
        <ele>2</ele>
        <time>2023-07-16T13:04:26.868+00:00</time>
      </trkpt>
      <trkpt lat="46.2066" lon="-1.50961">
        <ele>2.7</ele>
        <time>2023-07-16T13:04:30.871+00:00</time>
      </trkpt>
      <trkpt lat="46.20674" lon="-1.50979">
        <ele>2.8</ele>
        <time>2023-07-16T13:04:36.099+00:00</time>
      </trkpt>
      <trkpt lat="46.20686" lon="-1.50995">
        <ele>1</ele>
        <time>2023-07-16T13:04:40.094+00:00</time>
      </trkpt>
      <trkpt lat="46.20695" lon="-1.51014">
        <ele>1</ele>
        <time>2023-07-16T13:04:44.214+00:00</time>
      </trkpt>
      <trkpt lat="46.20703" lon="-1.5104">
        <ele>1</ele>
        <time>2023-07-16T13:04:48.753+00:00</time>
      </trkpt>
      <trkpt lat="46.20709" lon="-1.5106">
        <ele>2.6</ele>
        <time>2023-07-16T13:04:52.692+00:00</time>
      </trkpt>
      <trkpt lat="46.20717" lon="-1.51086">
        <ele>3</ele>
        <time>2023-07-16T13:04:57.830+00:00</time>
      </trkpt>
      <trkpt lat="46.20724" lon="-1.51107">
        <ele>2.9</ele>
        <time>2023-07-16T13:05:01.849+00:00</time>
      </trkpt>
      <trkpt lat="46.20729" lon="-1.51133">
        <ele>1</ele>
        <time>2023-07-16T13:05:06.268+00:00</time>
      </trkpt>
      <trkpt lat="46.20734" lon="-1.51159">
        <ele>1</ele>
        <time>2023-07-16T13:05:10.947+00:00</time>
      </trkpt>
      <trkpt lat="46.20736" lon="-1.51178">
        <ele>1</ele>
        <time>2023-07-16T13:05:14.787+00:00</time>
      </trkpt>
      <trkpt lat="46.20739" lon="-1.51196">
        <ele>1</ele>
        <time>2023-07-16T13:05:18.687+00:00</time>
      </trkpt>
      <trkpt lat="46.20742" lon="-1.51222">
        <ele>2</ele>
        <time>2023-07-16T13:05:23.886+00:00</time>
      </trkpt>
      <trkpt lat="46.20745" lon="-1.51242">
        <ele>2</ele>
        <time>2023-07-16T13:05:27.925+00:00</time>
      </trkpt>
      <trkpt lat="46.20748" lon="-1.51261">
        <ele>2</ele>
        <time>2023-07-16T13:05:32.662+00:00</time>
      </trkpt>
      <trkpt lat="46.20746" lon="-1.51285">
        <ele>3</ele>
        <time>2023-07-16T13:05:37.641+00:00</time>
      </trkpt>
      <trkpt lat="46.20739" lon="-1.51307">
        <ele>3</ele>
        <time>2023-07-16T13:05:41.837+00:00</time>
      </trkpt>
      <trkpt lat="46.20734" lon="-1.51335">
        <ele>3</ele>
        <time>2023-07-16T13:05:47.035+00:00</time>
      </trkpt>
      <trkpt lat="46.20728" lon="-1.51353">
        <ele>3</ele>
        <time>2023-07-16T13:05:51.054+00:00</time>
      </trkpt>
      <trkpt lat="46.20717" lon="-1.51373">
        <ele>3</ele>
        <time>2023-07-16T13:05:55.849+00:00</time>
      </trkpt>
      <trkpt lat="46.20703" lon="-1.51394">
        <ele>3</ele>
        <time>2023-07-16T13:06:00.628+00:00</time>
      </trkpt>
      <trkpt lat="46.20694" lon="-1.51411">
        <ele>4</ele>
        <time>2023-07-16T13:06:05.132+00:00</time>
      </trkpt>
      <trkpt lat="46.20678" lon="-1.51429">
        <ele>4</ele>
        <time>2023-07-16T13:06:09.637+00:00</time>
      </trkpt>
      <trkpt lat="46.20664" lon="-1.51438">
        <ele>4</ele>
        <time>2023-07-16T13:06:13.640+00:00</time>
      </trkpt>
      <trkpt lat="46.20655" lon="-1.51448">
        <ele>4</ele>
        <time>2023-07-16T13:06:17.644+00:00</time>
      </trkpt>
      <trkpt lat="46.20657" lon="-1.51461">
        <ele>5</ele>
        <time>2023-07-16T13:06:22.148+00:00</time>
      </trkpt>
      <trkpt lat="46.20655" lon="-1.51474">
        <ele>5</ele>
        <time>2023-07-16T13:06:26.652+00:00</time>
      </trkpt>
      <trkpt lat="46.2065" lon="-1.5148">
        <ele>4</ele>
        <time>2023-07-16T13:06:31.255+00:00</time>
      </trkpt>
      <trkpt lat="46.20645" lon="-1.51488">
        <ele>4</ele>
        <time>2023-07-16T13:06:35.757+00:00</time>
      </trkpt>
      <trkpt lat="46.20642" lon="-1.5149">
        <ele>4</ele>
        <time>2023-07-16T13:07:43.854+00:00</time>
      </trkpt>
      <trkpt lat="46.20649" lon="-1.51474">
        <ele>4</ele>
        <time>2023-07-16T13:07:48.875+00:00</time>
      </trkpt>
      <trkpt lat="46.20657" lon="-1.51463">
        <ele>5</ele>
        <time>2023-07-16T13:07:52.936+00:00</time>
      </trkpt>
      <trkpt lat="46.2066" lon="-1.5145">
        <ele>4</ele>
        <time>2023-07-16T13:07:56.998+00:00</time>
      </trkpt>
      <trkpt lat="46.20668" lon="-1.51434">
        <ele>4</ele>
        <time>2023-07-16T13:08:01.739+00:00</time>
      </trkpt>
      <trkpt lat="46.20678" lon="-1.51418">
        <ele>4</ele>
        <time>2023-07-16T13:08:06.659+00:00</time>
      </trkpt>
      <trkpt lat="46.20689" lon="-1.514">
        <ele>3</ele>
        <time>2023-07-16T13:08:12.019+00:00</time>
      </trkpt>
      <trkpt lat="46.207" lon="-1.51387">
        <ele>3</ele>
        <time>2023-07-16T13:08:15.721+00:00</time>
      </trkpt>
      <trkpt lat="46.2071" lon="-1.51368">
        <ele>3</ele>
        <time>2023-07-16T13:08:20.681+00:00</time>
      </trkpt>
      <trkpt lat="46.20722" lon="-1.51351">
        <ele>3</ele>
        <time>2023-07-16T13:08:25.860+00:00</time>
      </trkpt>
      <trkpt lat="46.20733" lon="-1.51331">
        <ele>3</ele>
        <time>2023-07-16T13:08:30.459+00:00</time>
      </trkpt>
      <trkpt lat="46.2074" lon="-1.51308">
        <ele>3</ele>
        <time>2023-07-16T13:08:35.063+00:00</time>
      </trkpt>
      <trkpt lat="46.20744" lon="-1.51287">
        <ele>3</ele>
        <time>2023-07-16T13:08:39.037+00:00</time>
      </trkpt>
      <trkpt lat="46.20747" lon="-1.51269">
        <ele>3</ele>
        <time>2023-07-16T13:08:43.575+00:00</time>
      </trkpt>
      <trkpt lat="46.20746" lon="-1.51249">
        <ele>2</ele>
        <time>2023-07-16T13:08:47.776+00:00</time>
      </trkpt>
      <trkpt lat="46.20742" lon="-1.51224">
        <ele>2</ele>
        <time>2023-07-16T13:08:52.677+00:00</time>
      </trkpt>
      <trkpt lat="46.2074" lon="-1.51203">
        <ele>1</ele>
        <time>2023-07-16T13:08:56.693+00:00</time>
      </trkpt>
      <trkpt lat="46.20737" lon="-1.51182">
        <ele>1</ele>
        <time>2023-07-16T13:09:00.832+00:00</time>
      </trkpt>
      <trkpt lat="46.20731" lon="-1.51151">
        <ele>1</ele>
        <time>2023-07-16T13:09:05.629+00:00</time>
      </trkpt>
      <trkpt lat="46.20726" lon="-1.51124">
        <ele>2.9</ele>
        <time>2023-07-16T13:09:10.151+00:00</time>
      </trkpt>
      <trkpt lat="46.20719" lon="-1.51097">
        <ele>3</ele>
        <time>2023-07-16T13:09:14.817+00:00</time>
      </trkpt>
      <trkpt lat="46.20709" lon="-1.51069">
        <ele>2.7</ele>
        <time>2023-07-16T13:09:19.921+00:00</time>
      </trkpt>
      <trkpt lat="46.20703" lon="-1.51049">
        <ele>2</ele>
        <time>2023-07-16T13:09:23.880+00:00</time>
      </trkpt>
      <trkpt lat="46.20694" lon="-1.51024">
        <ele>1</ele>
        <time>2023-07-16T13:09:28.677+00:00</time>
      </trkpt>
      <trkpt lat="46.20684" lon="-1.50999">
        <ele>1</ele>
        <time>2023-07-16T13:09:33.472+00:00</time>
      </trkpt>
      <trkpt lat="46.2067" lon="-1.50978">
        <ele>2.9</ele>
        <time>2023-07-16T13:09:37.998+00:00</time>
      </trkpt>
      <trkpt lat="46.20655" lon="-1.50962">
        <ele>2.8</ele>
        <time>2023-07-16T13:09:41.979+00:00</time>
      </trkpt>
      <trkpt lat="46.20643" lon="-1.50945">
        <ele>2</ele>
        <time>2023-07-16T13:09:45.933+00:00</time>
      </trkpt>
      <trkpt lat="46.2063" lon="-1.50922">
        <ele>2</ele>
        <time>2023-07-16T13:09:50.487+00:00</time>
      </trkpt>
      <trkpt lat="46.20617" lon="-1.50906">
        <ele>2</ele>
        <time>2023-07-16T13:09:55.042+00:00</time>
      </trkpt>
      <trkpt lat="46.20605" lon="-1.50893">
        <ele>2</ele>
        <time>2023-07-16T13:09:58.638+00:00</time>
      </trkpt>
      <trkpt lat="46.20588" lon="-1.50876">
        <ele>2.5</ele>
        <time>2023-07-16T13:10:04.033+00:00</time>
      </trkpt>
      <trkpt lat="46.20576" lon="-1.50863">
        <ele>1</ele>
        <time>2023-07-16T13:10:07.629+00:00</time>
      </trkpt>
      <trkpt lat="46.20555" lon="-1.50836">
        <ele>1</ele>
        <time>2023-07-16T13:11:21.062+00:00</time>
      </trkpt>
      <trkpt lat="46.20552" lon="-1.50831">
        <ele>1</ele>
        <time>2023-07-16T13:11:25.088+00:00</time>
      </trkpt>
      <trkpt lat="46.20539" lon="-1.5081">
        <ele>2.2</ele>
        <time>2023-07-16T13:11:30.075+00:00</time>
      </trkpt>
      <trkpt lat="46.20521" lon="-1.50779">
        <ele>2.2</ele>
        <time>2023-07-16T13:11:35.082+00:00</time>
      </trkpt>
      <trkpt lat="46.20509" lon="-1.50756">
        <ele>2.2</ele>
        <time>2023-07-16T13:11:39.083+00:00</time>
      </trkpt>
      <trkpt lat="46.20504" lon="-1.50749">
        <ele>2</ele>
        <time>2023-07-16T13:12:15.814+00:00</time>
      </trkpt>
      <trkpt lat="46.20507" lon="-1.50754">
        <ele>2.1</ele>
        <time>2023-07-16T13:12:20.082+00:00</time>
      </trkpt>
      <trkpt lat="46.2052" lon="-1.50773">
        <ele>2.2</ele>
        <time>2023-07-16T13:12:24.633+00:00</time>
      </trkpt>
      <trkpt lat="46.20531" lon="-1.50793">
        <ele>2.1</ele>
        <time>2023-07-16T13:12:29.773+00:00</time>
      </trkpt>
      <trkpt lat="46.20541" lon="-1.5081">
        <ele>2.2</ele>
        <time>2023-07-16T13:12:34.053+00:00</time>
      </trkpt>
      <trkpt lat="46.2055" lon="-1.50825">
        <ele>1</ele>
        <time>2023-07-16T13:12:38.851+00:00</time>
      </trkpt>
      <trkpt lat="46.20551" lon="-1.50824">
        <ele>1</ele>
        <time>2023-07-16T13:12:43.310+00:00</time>
      </trkpt>
      <trkpt lat="46.20545" lon="-1.50836">
        <ele>1</ele>
        <time>2023-07-16T13:12:48.108+00:00</time>
      </trkpt>
      <trkpt lat="46.20526" lon="-1.50856">
        <ele>1</ele>
        <time>2023-07-16T13:12:52.888+00:00</time>
      </trkpt>
      <trkpt lat="46.20509" lon="-1.50874">
        <ele>2.6</ele>
        <time>2023-07-16T13:12:57.849+00:00</time>
      </trkpt>
      <trkpt lat="46.20495" lon="-1.50888">
        <ele>2.8</ele>
        <time>2023-07-16T13:13:01.828+00:00</time>
      </trkpt>
      <trkpt lat="46.20479" lon="-1.50907">
        <ele>1</ele>
        <time>2023-07-16T13:13:06.625+00:00</time>
      </trkpt>
      <trkpt lat="46.20465" lon="-1.50921">
        <ele>1</ele>
        <time>2023-07-16T13:13:11.098+00:00</time>
      </trkpt>
      <trkpt lat="46.2045" lon="-1.50942">
        <ele>2</ele>
        <time>2023-07-16T13:13:16.085+00:00</time>
      </trkpt>
      <trkpt lat="46.20439" lon="-1.50958">
        <ele>2</ele>
        <time>2023-07-16T13:13:19.683+00:00</time>
      </trkpt>
      <trkpt lat="46.20425" lon="-1.50975">
        <ele>2</ele>
        <time>2023-07-16T13:13:23.681+00:00</time>
      </trkpt>
      <trkpt lat="46.20409" lon="-1.50997">
        <ele>1</ele>
        <time>2023-07-16T13:13:29.077+00:00</time>
      </trkpt>
      <trkpt lat="46.20394" lon="-1.51017">
        <ele>2.7</ele>
        <time>2023-07-16T13:13:34.079+00:00</time>
      </trkpt>
      <trkpt lat="46.20379" lon="-1.51038">
        <ele>2.8</ele>
        <time>2023-07-16T13:13:39.084+00:00</time>
      </trkpt>
      <trkpt lat="46.20363" lon="-1.5106">
        <ele>1</ele>
        <time>2023-07-16T13:13:44.068+00:00</time>
      </trkpt>
      <trkpt lat="46.20351" lon="-1.51076">
        <ele>2</ele>
        <time>2023-07-16T13:13:47.729+00:00</time>
      </trkpt>
      <trkpt lat="46.20342" lon="-1.51094">
        <ele>1</ele>
        <time>2023-07-16T13:13:52.888+00:00</time>
      </trkpt>
      <trkpt lat="46.20338" lon="-1.51108">
        <ele>2</ele>
        <time>2023-07-16T13:13:56.963+00:00</time>
      </trkpt>
      <trkpt lat="46.20326" lon="-1.51123">
        <ele>2</ele>
        <time>2023-07-16T13:14:02.060+00:00</time>
      </trkpt>
      <trkpt lat="46.20316" lon="-1.51111">
        <ele>3</ele>
        <time>2023-07-16T13:14:05.599+00:00</time>
      </trkpt>
      <trkpt lat="46.2031" lon="-1.51086">
        <ele>1</ele>
        <time>2023-07-16T13:14:10.876+00:00</time>
      </trkpt>
      <trkpt lat="46.20297" lon="-1.51062">
        <ele>1</ele>
        <time>2023-07-16T13:14:16.060+00:00</time>
      </trkpt>
      <trkpt lat="46.20285" lon="-1.51039">
        <ele>2.7</ele>
        <time>2023-07-16T13:14:20.078+00:00</time>
      </trkpt>
      <trkpt lat="46.20272" lon="-1.51018">
        <ele>2.6</ele>
        <time>2023-07-16T13:14:24.089+00:00</time>
      </trkpt>
      <trkpt lat="46.20258" lon="-1.50999">
        <ele>-1</ele>
        <time>2023-07-16T13:14:28.120+00:00</time>
      </trkpt>
      <trkpt lat="46.2024" lon="-1.50976">
        <ele>-1</ele>
        <time>2023-07-16T13:14:33.097+00:00</time>
      </trkpt>
      <trkpt lat="46.20221" lon="-1.50954">
        <ele>1</ele>
        <time>2023-07-16T13:14:38.092+00:00</time>
      </trkpt>
      <trkpt lat="46.20201" lon="-1.50933">
        <ele>1</ele>
        <time>2023-07-16T13:14:43.081+00:00</time>
      </trkpt>
      <trkpt lat="46.20182" lon="-1.50912">
        <ele>1</ele>
        <time>2023-07-16T13:14:48.080+00:00</time>
      </trkpt>
      <trkpt lat="46.20166" lon="-1.50895">
        <ele>1</ele>
        <time>2023-07-16T13:14:52.083+00:00</time>
      </trkpt>
      <trkpt lat="46.20147" lon="-1.50874">
        <ele>2</ele>
        <time>2023-07-16T13:14:57.082+00:00</time>
      </trkpt>
      <trkpt lat="46.20129" lon="-1.50851">
        <ele>2</ele>
        <time>2023-07-16T13:15:02.088+00:00</time>
      </trkpt>
      <trkpt lat="46.20116" lon="-1.50832">
        <ele>4</ele>
        <time>2023-07-16T13:15:06.066+00:00</time>
      </trkpt>
      <trkpt lat="46.20107" lon="-1.50812">
        <ele>4</ele>
        <time>2023-07-16T13:15:10.092+00:00</time>
      </trkpt>
      <trkpt lat="46.201" lon="-1.50803">
        <ele>4</ele>
        <time>2023-07-16T13:15:14.773+00:00</time>
      </trkpt>
      <trkpt lat="46.20089" lon="-1.5081">
        <ele>3</ele>
        <time>2023-07-16T13:15:20.031+00:00</time>
      </trkpt>
      <trkpt lat="46.20089" lon="-1.50809">
        <ele>3</ele>
        <time>2023-07-16T13:15:24.370+00:00</time>
      </trkpt>
      <trkpt lat="46.20088" lon="-1.50808">
        <ele>3</ele>
        <time>2023-07-16T13:15:28.874+00:00</time>
      </trkpt>
      <trkpt lat="46.20074" lon="-1.5081">
        <ele>3</ele>
        <time>2023-07-16T13:15:32.878+00:00</time>
      </trkpt>
      <trkpt lat="46.20056" lon="-1.50813">
        <ele>2</ele>
        <time>2023-07-16T13:15:36.940+00:00</time>
      </trkpt>
      <trkpt lat="46.20036" lon="-1.5082">
        <ele>2.9</ele>
        <time>2023-07-16T13:15:41.543+00:00</time>
      </trkpt>
      <trkpt lat="46.20019" lon="-1.50824">
        <ele>3</ele>
        <time>2023-07-16T13:15:45.784+00:00</time>
      </trkpt>
      <trkpt lat="46.20001" lon="-1.50829">
        <ele>3</ele>
        <time>2023-07-16T13:15:50.144+00:00</time>
      </trkpt>
      <trkpt lat="46.19985" lon="-1.50839">
        <ele>1</ele>
        <time>2023-07-16T13:15:54.503+00:00</time>
      </trkpt>
      <trkpt lat="46.1997" lon="-1.50851">
        <ele>1</ele>
        <time>2023-07-16T13:15:58.783+00:00</time>
      </trkpt>
      <trkpt lat="46.19953" lon="-1.50859">
        <ele>1</ele>
        <time>2023-07-16T13:16:03.362+00:00</time>
      </trkpt>
      <trkpt lat="46.19938" lon="-1.50866">
        <ele>1</ele>
        <time>2023-07-16T13:16:07.382+00:00</time>
      </trkpt>
      <trkpt lat="46.19921" lon="-1.50879">
        <ele>1</ele>
        <time>2023-07-16T13:16:12.081+00:00</time>
      </trkpt>
      <trkpt lat="46.19906" lon="-1.50892">
        <ele>1</ele>
        <time>2023-07-16T13:16:16.158+00:00</time>
      </trkpt>
      <trkpt lat="46.19889" lon="-1.50906">
        <ele>3</ele>
        <time>2023-07-16T13:16:20.558+00:00</time>
      </trkpt>
      <trkpt lat="46.1987" lon="-1.50919">
        <ele>3</ele>
        <time>2023-07-16T13:16:25.080+00:00</time>
      </trkpt>
      <trkpt lat="46.19848" lon="-1.50932">
        <ele>3</ele>
        <time>2023-07-16T13:16:30.074+00:00</time>
      </trkpt>
      <trkpt lat="46.19831" lon="-1.50941">
        <ele>3</ele>
        <time>2023-07-16T13:16:34.077+00:00</time>
      </trkpt>
      <trkpt lat="46.19813" lon="-1.50952">
        <ele>1</ele>
        <time>2023-07-16T13:16:39.082+00:00</time>
      </trkpt>
      <trkpt lat="46.19804" lon="-1.50957">
        <ele>1</ele>
        <time>2023-07-16T13:16:43.296+00:00</time>
      </trkpt>
      <trkpt lat="46.19802" lon="-1.50959">
        <ele>1</ele>
        <time>2023-07-16T13:16:47.755+00:00</time>
      </trkpt>
      <trkpt lat="46.19804" lon="-1.50956">
        <ele>1</ele>
        <time>2023-07-16T13:17:31.761+00:00</time>
      </trkpt>
      <trkpt lat="46.19793" lon="-1.50966">
        <ele>1</ele>
        <time>2023-07-16T13:17:36.782+00:00</time>
      </trkpt>
      <trkpt lat="46.19775" lon="-1.50979">
        <ele>3</ele>
        <time>2023-07-16T13:17:41.093+00:00</time>
      </trkpt>
      <trkpt lat="46.19759" lon="-1.5099">
        <ele>1</ele>
        <time>2023-07-16T13:17:45.678+00:00</time>
      </trkpt>
      <trkpt lat="46.19742" lon="-1.50997">
        <ele>1</ele>
        <time>2023-07-16T13:17:49.796+00:00</time>
      </trkpt>
      <trkpt lat="46.19728" lon="-1.51003">
        <ele>2</ele>
        <time>2023-07-16T13:17:54.017+00:00</time>
      </trkpt>
      <trkpt lat="46.19716" lon="-1.51008">
        <ele>2</ele>
        <time>2023-07-16T13:17:58.036+00:00</time>
      </trkpt>
      <trkpt lat="46.19708" lon="-1.51013">
        <ele>2</ele>
        <time>2023-07-16T13:18:02.559+00:00</time>
      </trkpt>
      <trkpt lat="46.19708" lon="-1.51014">
        <ele>2</ele>
        <time>2023-07-16T13:18:06.532+00:00</time>
      </trkpt>
      <trkpt lat="46.19706" lon="-1.51019">
        <ele>2</ele>
        <time>2023-07-16T13:18:10.512+00:00</time>
      </trkpt>
      <trkpt lat="46.19699" lon="-1.51021">
        <ele>2</ele>
        <time>2023-07-16T13:18:15.069+00:00</time>
      </trkpt>
      <trkpt lat="46.19694" lon="-1.51023">
        <ele>2</ele>
        <time>2023-07-16T13:18:19.280+00:00</time>
      </trkpt>
      <trkpt lat="46.1969" lon="-1.51027">
        <ele>2</ele>
        <time>2023-07-16T13:18:23.667+00:00</time>
      </trkpt>
      <trkpt lat="46.19687" lon="-1.51027">
        <ele>2</ele>
        <time>2023-07-16T13:20:44.082+00:00</time>
      </trkpt>
      <trkpt lat="46.19692" lon="-1.51022">
        <ele>2</ele>
        <time>2023-07-16T13:20:49.090+00:00</time>
      </trkpt>
      <trkpt lat="46.19696" lon="-1.5102">
        <ele>2</ele>
        <time>2023-07-16T13:20:53.087+00:00</time>
      </trkpt>
      <trkpt lat="46.19701" lon="-1.51017">
        <ele>2</ele>
        <time>2023-07-16T13:20:58.091+00:00</time>
      </trkpt>
      <trkpt lat="46.19705" lon="-1.51014">
        <ele>2</ele>
        <time>2023-07-16T13:21:02.092+00:00</time>
      </trkpt>
      <trkpt lat="46.19712" lon="-1.5101">
        <ele>2</ele>
        <time>2023-07-16T13:21:07.005+00:00</time>
      </trkpt>
      <trkpt lat="46.19717" lon="-1.51008">
        <ele>2</ele>
        <time>2023-07-16T13:21:11.506+00:00</time>
      </trkpt>
      <trkpt lat="46.19721" lon="-1.51008">
        <ele>2</ele>
        <time>2023-07-16T13:21:15.510+00:00</time>
      </trkpt>
      <trkpt lat="46.19725" lon="-1.51006">
        <ele>2</ele>
        <time>2023-07-16T13:21:19.930+00:00</time>
      </trkpt>
      <trkpt lat="46.19735" lon="-1.51001">
        <ele>2</ele>
        <time>2023-07-16T13:21:24.250+00:00</time>
      </trkpt>
      <trkpt lat="46.19752" lon="-1.50992">
        <ele>1</ele>
        <time>2023-07-16T13:21:29.090+00:00</time>
      </trkpt>
      <trkpt lat="46.19769" lon="-1.50981">
        <ele>3</ele>
        <time>2023-07-16T13:21:33.603+00:00</time>
      </trkpt>
      <trkpt lat="46.19785" lon="-1.5097">
        <ele>3</ele>
        <time>2023-07-16T13:21:37.646+00:00</time>
      </trkpt>
      <trkpt lat="46.19799" lon="-1.50962">
        <ele>1</ele>
        <time>2023-07-16T13:21:42.073+00:00</time>
      </trkpt>
      <trkpt lat="46.19813" lon="-1.50953">
        <ele>1</ele>
        <time>2023-07-16T13:21:46.238+00:00</time>
      </trkpt>
      <trkpt lat="46.19826" lon="-1.50944">
        <ele>3</ele>
        <time>2023-07-16T13:21:50.764+00:00</time>
      </trkpt>
      <trkpt lat="46.19844" lon="-1.50933">
        <ele>3</ele>
        <time>2023-07-16T13:21:55.092+00:00</time>
      </trkpt>
      <trkpt lat="46.19868" lon="-1.50919">
        <ele>3</ele>
        <time>2023-07-16T13:22:00.077+00:00</time>
      </trkpt>
      <trkpt lat="46.19888" lon="-1.50905">
        <ele>3</ele>
        <time>2023-07-16T13:22:05.075+00:00</time>
      </trkpt>
      <trkpt lat="46.19905" lon="-1.50892">
        <ele>1</ele>
        <time>2023-07-16T13:22:09.081+00:00</time>
      </trkpt>
      <trkpt lat="46.19922" lon="-1.50877">
        <ele>1</ele>
        <time>2023-07-16T13:22:13.079+00:00</time>
      </trkpt>
      <trkpt lat="46.19944" lon="-1.50864">
        <ele>1</ele>
        <time>2023-07-16T13:22:18.085+00:00</time>
      </trkpt>
      <trkpt lat="46.19965" lon="-1.50852">
        <ele>1</ele>
        <time>2023-07-16T13:22:23.073+00:00</time>
      </trkpt>
      <trkpt lat="46.19985" lon="-1.50842">
        <ele>1</ele>
        <time>2023-07-16T13:22:27.101+00:00</time>
      </trkpt>
      <trkpt lat="46.20007" lon="-1.50828">
        <ele>3</ele>
        <time>2023-07-16T13:22:32.061+00:00</time>
      </trkpt>
      <trkpt lat="46.20026" lon="-1.50821">
        <ele>3</ele>
        <time>2023-07-16T13:22:36.098+00:00</time>
      </trkpt>
      <trkpt lat="46.20048" lon="-1.50819">
        <ele>2</ele>
        <time>2023-07-16T13:22:41.099+00:00</time>
      </trkpt>
      <trkpt lat="46.20065" lon="-1.50815">
        <ele>2</ele>
        <time>2023-07-16T13:22:45.083+00:00</time>
      </trkpt>
      <trkpt lat="46.20081" lon="-1.50808">
        <ele>3</ele>
        <time>2023-07-16T13:22:49.428+00:00</time>
      </trkpt>
      <trkpt lat="46.201" lon="-1.50798">
        <ele>4</ele>
        <time>2023-07-16T13:23:26.094+00:00</time>
      </trkpt>
      <trkpt lat="46.201" lon="-1.50798">
        <ele>4</ele>
        <time>2023-07-16T13:23:30.078+00:00</time>
      </trkpt>
      <trkpt lat="46.20101" lon="-1.50798">
        <ele>4</ele>
        <time>2023-07-16T13:23:35.077+00:00</time>
      </trkpt>
      <trkpt lat="46.20109" lon="-1.5081">
        <ele>4</ele>
        <time>2023-07-16T13:23:39.076+00:00</time>
      </trkpt>
      <trkpt lat="46.2012" lon="-1.50813">
        <ele>4</ele>
        <time>2023-07-16T13:23:44.058+00:00</time>
      </trkpt>
      <trkpt lat="46.20136" lon="-1.50804">
        <ele>4</ele>
        <time>2023-07-16T13:23:48.083+00:00</time>
      </trkpt>
      <trkpt lat="46.20157" lon="-1.50792">
        <ele>3</ele>
        <time>2023-07-16T13:23:53.080+00:00</time>
      </trkpt>
      <trkpt lat="46.20173" lon="-1.50783">
        <ele>3</ele>
        <time>2023-07-16T13:23:57.074+00:00</time>
      </trkpt>
      <trkpt lat="46.20189" lon="-1.50775">
        <ele>1</ele>
        <time>2023-07-16T13:24:01.096+00:00</time>
      </trkpt>
      <trkpt lat="46.20226" lon="-1.50759">
        <ele>1</ele>
        <time>2023-07-16T13:24:18.648+00:00</time>
      </trkpt>
      <trkpt lat="46.20227" lon="-1.50759">
        <ele>1</ele>
        <time>2023-07-16T13:24:23.828+00:00</time>
      </trkpt>
      <trkpt lat="46.20232" lon="-1.50775">
        <ele>2.6</ele>
        <time>2023-07-16T13:24:27.805+00:00</time>
      </trkpt>
      <trkpt lat="46.2024" lon="-1.50789">
        <ele>2.6</ele>
        <time>2023-07-16T13:24:32.268+00:00</time>
      </trkpt>
      <trkpt lat="46.20246" lon="-1.50809">
        <ele>1</ele>
        <time>2023-07-16T13:24:36.741+00:00</time>
      </trkpt>
      <trkpt lat="46.20255" lon="-1.50823">
        <ele>2</ele>
        <time>2023-07-16T13:24:41.085+00:00</time>
      </trkpt>
      <trkpt lat="46.20266" lon="-1.50841">
        <ele>3</ele>
        <time>2023-07-16T13:24:45.496+00:00</time>
      </trkpt>
      <trkpt lat="46.20281" lon="-1.5086">
        <ele>3</ele>
        <time>2023-07-16T13:24:49.896+00:00</time>
      </trkpt>
      <trkpt lat="46.20296" lon="-1.5087">
        <ele>3</ele>
        <time>2023-07-16T13:24:54.268+00:00</time>
      </trkpt>
      <trkpt lat="46.20312" lon="-1.5088">
        <ele>2</ele>
        <time>2023-07-16T13:24:58.734+00:00</time>
      </trkpt>
      <trkpt lat="46.2033" lon="-1.50891">
        <ele>2</ele>
        <time>2023-07-16T13:25:03.174+00:00</time>
      </trkpt>
      <trkpt lat="46.20343" lon="-1.50902">
        <ele>2</ele>
        <time>2023-07-16T13:25:07.212+00:00</time>
      </trkpt>
      <trkpt lat="46.20362" lon="-1.50917">
        <ele>1</ele>
        <time>2023-07-16T13:25:12.096+00:00</time>
      </trkpt>
      <trkpt lat="46.2038" lon="-1.50931">
        <ele>1</ele>
        <time>2023-07-16T13:25:16.686+00:00</time>
      </trkpt>
      <trkpt lat="46.20396" lon="-1.50953">
        <ele>1</ele>
        <time>2023-07-16T13:25:22.082+00:00</time>
      </trkpt>
      <trkpt lat="46.20412" lon="-1.50968">
        <ele>2</ele>
        <time>2023-07-16T13:25:26.654+00:00</time>
      </trkpt>
      <trkpt lat="46.20423" lon="-1.50975">
        <ele>2</ele>
        <time>2023-07-16T13:25:30.653+00:00</time>
      </trkpt>
      <trkpt lat="46.20437" lon="-1.50952">
        <ele>2</ele>
        <time>2023-07-16T13:25:35.107+00:00</time>
      </trkpt>
      <trkpt lat="46.20456" lon="-1.50927">
        <ele>2</ele>
        <time>2023-07-16T13:25:40.084+00:00</time>
      </trkpt>
      <trkpt lat="46.2047" lon="-1.50909">
        <ele>1</ele>
        <time>2023-07-16T13:25:44.085+00:00</time>
      </trkpt>
      <trkpt lat="46.2049" lon="-1.50889">
        <ele>2.6</ele>
        <time>2023-07-16T13:25:49.081+00:00</time>
      </trkpt>
      <trkpt lat="46.20505" lon="-1.50874">
        <ele>2.6</ele>
        <time>2023-07-16T13:25:53.085+00:00</time>
      </trkpt>
      <trkpt lat="46.20523" lon="-1.50856">
        <ele>1</ele>
        <time>2023-07-16T13:25:58.089+00:00</time>
      </trkpt>
      <trkpt lat="46.20541" lon="-1.50838">
        <ele>1</ele>
        <time>2023-07-16T13:26:03.087+00:00</time>
      </trkpt>
      <trkpt lat="46.20546" lon="-1.50818">
        <ele>1</ele>
        <time>2023-07-16T13:26:08.109+00:00</time>
      </trkpt>
      <trkpt lat="46.20529" lon="-1.50788">
        <ele>2</ele>
        <time>2023-07-16T13:26:13.074+00:00</time>
      </trkpt>
      <trkpt lat="46.20515" lon="-1.50766">
        <ele>2.2</ele>
        <time>2023-07-16T13:26:17.085+00:00</time>
      </trkpt>
      <trkpt lat="46.20498" lon="-1.50735">
        <ele>2.5</ele>
        <time>2023-07-16T13:26:22.083+00:00</time>
      </trkpt>
      <trkpt lat="46.20479" lon="-1.50712">
        <ele>1</ele>
        <time>2023-07-16T13:26:27.071+00:00</time>
      </trkpt>
      <trkpt lat="46.20461" lon="-1.50691">
        <ele>1</ele>
        <time>2023-07-16T13:26:32.062+00:00</time>
      </trkpt>
      <trkpt lat="46.20452" lon="-1.50669">
        <ele>1</ele>
        <time>2023-07-16T13:26:36.079+00:00</time>
      </trkpt>
      <trkpt lat="46.20461" lon="-1.50635">
        <ele>2</ele>
        <time>2023-07-16T13:26:41.069+00:00</time>
      </trkpt>
      <trkpt lat="46.20474" lon="-1.50607">
        <ele>2</ele>
        <time>2023-07-16T13:26:46.105+00:00</time>
      </trkpt>
      <trkpt lat="46.20486" lon="-1.5058">
        <ele>2</ele>
        <time>2023-07-16T13:26:51.083+00:00</time>
      </trkpt>
      <trkpt lat="46.20495" lon="-1.50556">
        <ele>2</ele>
        <time>2023-07-16T13:26:55.093+00:00</time>
      </trkpt>
      <trkpt lat="46.20504" lon="-1.50525">
        <ele>3</ele>
        <time>2023-07-16T13:27:00.060+00:00</time>
      </trkpt>
      <trkpt lat="46.20515" lon="-1.50504">
        <ele>2</ele>
        <time>2023-07-16T13:27:04.101+00:00</time>
      </trkpt>
      <trkpt lat="46.20528" lon="-1.50476">
        <ele>1</ele>
        <time>2023-07-16T13:28:09.984+00:00</time>
      </trkpt>
      <trkpt lat="46.20511" lon="-1.50447">
        <ele>1</ele>
        <time>2023-07-16T13:28:15.044+00:00</time>
      </trkpt>
      <trkpt lat="46.20497" lon="-1.50416">
        <ele>2.8</ele>
        <time>2023-07-16T13:28:20.062+00:00</time>
      </trkpt>
      <trkpt lat="46.20481" lon="-1.50391">
        <ele>-1</ele>
        <time>2023-07-16T13:28:25.061+00:00</time>
      </trkpt>
      <trkpt lat="46.20461" lon="-1.50368">
        <ele>-1</ele>
        <time>2023-07-16T13:28:30.038+00:00</time>
      </trkpt>
      <trkpt lat="46.20448" lon="-1.50344">
        <ele>-1</ele>
        <time>2023-07-16T13:28:34.044+00:00</time>
      </trkpt>
      <trkpt lat="46.20435" lon="-1.50319">
        <ele>-1</ele>
        <time>2023-07-16T13:28:38.061+00:00</time>
      </trkpt>
      <trkpt lat="46.20424" lon="-1.50294">
        <ele>-2</ele>
        <time>2023-07-16T13:28:42.052+00:00</time>
      </trkpt>
      <trkpt lat="46.20414" lon="-1.5026">
        <ele>2</ele>
        <time>2023-07-16T13:28:47.046+00:00</time>
      </trkpt>
      <trkpt lat="46.20406" lon="-1.50221">
        <ele>1.4</ele>
        <time>2023-07-16T13:28:52.047+00:00</time>
      </trkpt>
      <trkpt lat="46.20402" lon="-1.50183">
        <ele>-1</ele>
        <time>2023-07-16T13:28:57.049+00:00</time>
      </trkpt>
      <trkpt lat="46.20402" lon="-1.50149">
        <ele>-1</ele>
        <time>2023-07-16T13:29:02.047+00:00</time>
      </trkpt>
      <trkpt lat="46.20404" lon="-1.50121">
        <ele>-2</ele>
        <time>2023-07-16T13:29:06.055+00:00</time>
      </trkpt>
      <trkpt lat="46.20405" lon="-1.50097">
        <ele>-2</ele>
        <time>2023-07-16T13:29:10.045+00:00</time>
      </trkpt>
      <trkpt lat="46.20403" lon="-1.50066">
        <ele>-2</ele>
        <time>2023-07-16T13:29:15.049+00:00</time>
      </trkpt>
      <trkpt lat="46.20403" lon="-1.50041">
        <ele>-3</ele>
        <time>2023-07-16T13:29:19.051+00:00</time>
      </trkpt>
      <trkpt lat="46.20404" lon="-1.50011">
        <ele>-2</ele>
        <time>2023-07-16T13:29:24.056+00:00</time>
      </trkpt>
      <trkpt lat="46.20408" lon="-1.49976">
        <ele>-2</ele>
        <time>2023-07-16T13:29:29.057+00:00</time>
      </trkpt>
      <trkpt lat="46.20414" lon="-1.49939">
        <ele>-1</ele>
        <time>2023-07-16T13:29:34.056+00:00</time>
      </trkpt>
      <trkpt lat="46.20412" lon="-1.49906">
        <ele>-1</ele>
        <time>2023-07-16T13:29:39.049+00:00</time>
      </trkpt>
      <trkpt lat="46.2041" lon="-1.49878">
        <ele>-2</ele>
        <time>2023-07-16T13:29:43.053+00:00</time>
      </trkpt>
      <trkpt lat="46.20406" lon="-1.49844">
        <ele>-3</ele>
        <time>2023-07-16T13:29:48.061+00:00</time>
      </trkpt>
      <trkpt lat="46.20401" lon="-1.49816">
        <ele>-2</ele>
        <time>2023-07-16T13:29:52.059+00:00</time>
      </trkpt>
      <trkpt lat="46.20392" lon="-1.4979">
        <ele>-1</ele>
        <time>2023-07-16T13:29:56.046+00:00</time>
      </trkpt>
      <trkpt lat="46.20378" lon="-1.49765">
        <ele>-1</ele>
        <time>2023-07-16T13:30:01.052+00:00</time>
      </trkpt>
      <trkpt lat="46.20362" lon="-1.49744">
        <ele>-1</ele>
        <time>2023-07-16T13:30:06.050+00:00</time>
      </trkpt>
      <trkpt lat="46.20348" lon="-1.49724">
        <ele>-1</ele>
        <time>2023-07-16T13:30:10.086+00:00</time>
      </trkpt>
      <trkpt lat="46.20334" lon="-1.49702">
        <ele>-1</ele>
        <time>2023-07-16T13:30:15.055+00:00</time>
      </trkpt>
      <trkpt lat="46.2032" lon="-1.49677">
        <ele>-1</ele>
        <time>2023-07-16T13:30:20.053+00:00</time>
      </trkpt>
      <trkpt lat="46.20311" lon="-1.49656">
        <ele>1</ele>
        <time>2023-07-16T13:30:24.060+00:00</time>
      </trkpt>
      <trkpt lat="46.20301" lon="-1.49632">
        <ele>1</ele>
        <time>2023-07-16T13:30:27.585+00:00</time>
      </trkpt>
      <trkpt lat="46.2029" lon="-1.49605">
        <ele>1</ele>
        <time>2023-07-16T13:30:33.067+00:00</time>
      </trkpt>
      <trkpt lat="46.20278" lon="-1.49576">
        <ele>1</ele>
        <time>2023-07-16T13:30:38.070+00:00</time>
      </trkpt>
      <trkpt lat="46.2027" lon="-1.49554">
        <ele>1</ele>
        <time>2023-07-16T13:30:42.076+00:00</time>
      </trkpt>
      <trkpt lat="46.20258" lon="-1.49524">
        <ele>1</ele>
        <time>2023-07-16T13:30:47.088+00:00</time>
      </trkpt>
      <trkpt lat="46.20248" lon="-1.49499">
        <ele>1</ele>
        <time>2023-07-16T13:30:52.069+00:00</time>
      </trkpt>
      <trkpt lat="46.20239" lon="-1.49475">
        <ele>1.5</ele>
        <time>2023-07-16T13:30:57.091+00:00</time>
      </trkpt>
      <trkpt lat="46.20232" lon="-1.49455">
        <ele>-1</ele>
        <time>2023-07-16T13:31:01.097+00:00</time>
      </trkpt>
      <trkpt lat="46.20222" lon="-1.49429">
        <ele>-1</ele>
        <time>2023-07-16T13:31:06.061+00:00</time>
      </trkpt>
      <trkpt lat="46.20215" lon="-1.49403">
        <ele>-1</ele>
        <time>2023-07-16T13:31:10.090+00:00</time>
      </trkpt>
      <trkpt lat="46.20211" lon="-1.49367">
        <ele>1</ele>
        <time>2023-07-16T13:31:15.074+00:00</time>
      </trkpt>
      <trkpt lat="46.20214" lon="-1.49339">
        <ele>1.6</ele>
        <time>2023-07-16T13:31:19.084+00:00</time>
      </trkpt>
      <trkpt lat="46.20217" lon="-1.49312">
        <ele>2</ele>
        <time>2023-07-16T13:31:23.093+00:00</time>
      </trkpt>
      <trkpt lat="46.20222" lon="-1.49282">
        <ele>2</ele>
        <time>2023-07-16T13:31:28.073+00:00</time>
      </trkpt>
      <trkpt lat="46.20225" lon="-1.49251">
        <ele>-1</ele>
        <time>2023-07-16T13:31:33.072+00:00</time>
      </trkpt>
      <trkpt lat="46.20224" lon="-1.49226">
        <ele>-1</ele>
        <time>2023-07-16T13:31:37.093+00:00</time>
      </trkpt>
      <trkpt lat="46.20218" lon="-1.49197">
        <ele>-1</ele>
        <time>2023-07-16T13:31:42.081+00:00</time>
      </trkpt>
      <trkpt lat="46.2021" lon="-1.49168">
        <ele>1</ele>
        <time>2023-07-16T13:31:47.066+00:00</time>
      </trkpt>
      <trkpt lat="46.20206" lon="-1.4915">
        <ele>1.4</ele>
        <time>2023-07-16T13:31:51.089+00:00</time>
      </trkpt>
      <trkpt lat="46.20199" lon="-1.49126">
        <ele>1.8</ele>
        <time>2023-07-16T13:31:56.077+00:00</time>
      </trkpt>
      <trkpt lat="46.20191" lon="-1.491">
        <ele>-1</ele>
        <time>2023-07-16T13:32:01.061+00:00</time>
      </trkpt>
      <trkpt lat="46.20186" lon="-1.49081">
        <ele>-2</ele>
        <time>2023-07-16T13:32:05.076+00:00</time>
      </trkpt>
      <trkpt lat="46.2018" lon="-1.49059">
        <ele>-2</ele>
        <time>2023-07-16T13:32:09.080+00:00</time>
      </trkpt>
      <trkpt lat="46.20173" lon="-1.49032">
        <ele>-1</ele>
        <time>2023-07-16T13:32:14.069+00:00</time>
      </trkpt>
      <trkpt lat="46.20165" lon="-1.49012">
        <ele>-1</ele>
        <time>2023-07-16T13:32:18.082+00:00</time>
      </trkpt>
      <trkpt lat="46.20158" lon="-1.48988">
        <ele>-1</ele>
        <time>2023-07-16T13:32:22.712+00:00</time>
      </trkpt>
      <trkpt lat="46.20152" lon="-1.48965">
        <ele>-1</ele>
        <time>2023-07-16T13:32:26.850+00:00</time>
      </trkpt>
      <trkpt lat="46.20146" lon="-1.48944">
        <ele>-1</ele>
        <time>2023-07-16T13:32:30.909+00:00</time>
      </trkpt>
      <trkpt lat="46.20139" lon="-1.4892">
        <ele>-1</ele>
        <time>2023-07-16T13:32:36.083+00:00</time>
      </trkpt>
      <trkpt lat="46.20132" lon="-1.48894">
        <ele>1.1</ele>
        <time>2023-07-16T13:32:40.746+00:00</time>
      </trkpt>
      <trkpt lat="46.20125" lon="-1.48873">
        <ele>1</ele>
        <time>2023-07-16T13:32:45.315+00:00</time>
      </trkpt>
      <trkpt lat="46.20119" lon="-1.48853">
        <ele>1</ele>
        <time>2023-07-16T13:32:49.823+00:00</time>
      </trkpt>
      <trkpt lat="46.20114" lon="-1.48835">
        <ele>1</ele>
        <time>2023-07-16T13:32:54.083+00:00</time>
      </trkpt>
      <trkpt lat="46.20109" lon="-1.48818">
        <ele>1</ele>
        <time>2023-07-16T13:32:58.080+00:00</time>
      </trkpt>
      <trkpt lat="46.20104" lon="-1.48792">
        <ele>1</ele>
        <time>2023-07-16T13:33:03.079+00:00</time>
      </trkpt>
      <trkpt lat="46.20101" lon="-1.48775">
        <ele>3</ele>
        <time>2023-07-16T13:33:07.093+00:00</time>
      </trkpt>
      <trkpt lat="46.201" lon="-1.48752">
        <ele>4</ele>
        <time>2023-07-16T13:33:12.067+00:00</time>
      </trkpt>
      <trkpt lat="46.20103" lon="-1.48729">
        <ele>4</ele>
        <time>2023-07-16T13:33:17.068+00:00</time>
      </trkpt>
      <trkpt lat="46.20106" lon="-1.4871">
        <ele>4</ele>
        <time>2023-07-16T13:33:22.064+00:00</time>
      </trkpt>
      <trkpt lat="46.20112" lon="-1.48693">
        <ele>4</ele>
        <time>2023-07-16T13:33:26.638+00:00</time>
      </trkpt>
      <trkpt lat="46.20125" lon="-1.48674">
        <ele>3</ele>
        <time>2023-07-16T13:33:31.097+00:00</time>
      </trkpt>
      <trkpt lat="46.20138" lon="-1.48656">
        <ele>2</ele>
        <time>2023-07-16T13:33:35.530+00:00</time>
      </trkpt>
      <trkpt lat="46.20148" lon="-1.48643">
        <ele>2</ele>
        <time>2023-07-16T13:33:39.985+00:00</time>
      </trkpt>
      <trkpt lat="46.20158" lon="-1.48626">
        <ele>3</ele>
        <time>2023-07-16T13:33:44.643+00:00</time>
      </trkpt>
      <trkpt lat="46.20164" lon="-1.48605">
        <ele>3</ele>
        <time>2023-07-16T13:33:49.779+00:00</time>
      </trkpt>
      <trkpt lat="46.20171" lon="-1.48585">
        <ele>4</ele>
        <time>2023-07-16T13:33:53.797+00:00</time>
      </trkpt>
      <trkpt lat="46.20182" lon="-1.48561">
        <ele>2</ele>
        <time>2023-07-16T13:33:58.835+00:00</time>
      </trkpt>
      <trkpt lat="46.20189" lon="-1.48539">
        <ele>3</ele>
        <time>2023-07-16T13:34:03.971+00:00</time>
      </trkpt>
      <trkpt lat="46.20197" lon="-1.48514">
        <ele>3</ele>
        <time>2023-07-16T13:34:09.083+00:00</time>
      </trkpt>
      <trkpt lat="46.202" lon="-1.4849">
        <ele>3</ele>
        <time>2023-07-16T13:34:12.964+00:00</time>
      </trkpt>
      <trkpt lat="46.20203" lon="-1.48471">
        <ele>4</ele>
        <time>2023-07-16T13:34:17.080+00:00</time>
      </trkpt>
      <trkpt lat="46.20208" lon="-1.48446">
        <ele>4</ele>
        <time>2023-07-16T13:34:22.085+00:00</time>
      </trkpt>
      <trkpt lat="46.20212" lon="-1.48422">
        <ele>1</ele>
        <time>2023-07-16T13:34:27.088+00:00</time>
      </trkpt>
      <trkpt lat="46.20217" lon="-1.48397">
        <ele>1</ele>
        <time>2023-07-16T13:34:32.081+00:00</time>
      </trkpt>
      <trkpt lat="46.20221" lon="-1.48371">
        <ele>2</ele>
        <time>2023-07-16T13:34:37.078+00:00</time>
      </trkpt>
      <trkpt lat="46.20222" lon="-1.48347">
        <ele>2</ele>
        <time>2023-07-16T13:34:42.054+00:00</time>
      </trkpt>
      <trkpt lat="46.20224" lon="-1.48327">
        <ele>2</ele>
        <time>2023-07-16T13:34:45.961+00:00</time>
      </trkpt>
      <trkpt lat="46.2023" lon="-1.48311">
        <ele>2</ele>
        <time>2023-07-16T13:34:49.959+00:00</time>
      </trkpt>
      <trkpt lat="46.20234" lon="-1.48293">
        <ele>2</ele>
        <time>2023-07-16T13:34:53.857+00:00</time>
      </trkpt>
      <trkpt lat="46.20239" lon="-1.48271">
        <ele>2</ele>
        <time>2023-07-16T13:34:59.075+00:00</time>
      </trkpt>
      <trkpt lat="46.20241" lon="-1.48256">
        <ele>2</ele>
        <time>2023-07-16T13:35:03.013+00:00</time>
      </trkpt>
      <trkpt lat="46.20245" lon="-1.48231">
        <ele>2</ele>
        <time>2023-07-16T13:35:08.031+00:00</time>
      </trkpt>
      <trkpt lat="46.20247" lon="-1.48211">
        <ele>2</ele>
        <time>2023-07-16T13:35:11.889+00:00</time>
      </trkpt>
      <trkpt lat="46.20252" lon="-1.48187">
        <ele>2</ele>
        <time>2023-07-16T13:35:16.848+00:00</time>
      </trkpt>
      <trkpt lat="46.20257" lon="-1.48168">
        <ele>2</ele>
        <time>2023-07-16T13:35:20.866+00:00</time>
      </trkpt>
      <trkpt lat="46.20263" lon="-1.48143">
        <ele>2</ele>
        <time>2023-07-16T13:35:26.080+00:00</time>
      </trkpt>
      <trkpt lat="46.20274" lon="-1.48117">
        <ele>2</ele>
        <time>2023-07-16T13:35:31.075+00:00</time>
      </trkpt>
      <trkpt lat="46.20284" lon="-1.48095">
        <ele>2</ele>
        <time>2023-07-16T13:35:35.081+00:00</time>
      </trkpt>
      <trkpt lat="46.20291" lon="-1.48073">
        <ele>2</ele>
        <time>2023-07-16T13:35:39.051+00:00</time>
      </trkpt>
      <trkpt lat="46.20302" lon="-1.48046">
        <ele>3</ele>
        <time>2023-07-16T13:35:43.628+00:00</time>
      </trkpt>
      <trkpt lat="46.20313" lon="-1.48024">
        <ele>4</ele>
        <time>2023-07-16T13:35:48.205+00:00</time>
      </trkpt>
      <trkpt lat="46.20324" lon="-1.47998">
        <ele>1</ele>
        <time>2023-07-16T13:35:53.063+00:00</time>
      </trkpt>
      <trkpt lat="46.20335" lon="-1.47976">
        <ele>2</ele>
        <time>2023-07-16T13:35:58+00:00</time>
      </trkpt>
      <trkpt lat="46.20345" lon="-1.47958">
        <ele>2</ele>
        <time>2023-07-16T13:36:02.103+00:00</time>
      </trkpt>
      <trkpt lat="46.20352" lon="-1.47941">
        <ele>1</ele>
        <time>2023-07-16T13:36:06.443+00:00</time>
      </trkpt>
      <trkpt lat="46.20361" lon="-1.4792">
        <ele>3</ele>
        <time>2023-07-16T13:36:10.845+00:00</time>
      </trkpt>
      <trkpt lat="46.2037" lon="-1.47898">
        <ele>4</ele>
        <time>2023-07-16T13:36:15.985+00:00</time>
      </trkpt>
      <trkpt lat="46.20376" lon="-1.47881">
        <ele>3</ele>
        <time>2023-07-16T13:36:20.002+00:00</time>
      </trkpt>
      <trkpt lat="46.20386" lon="-1.4786">
        <ele>3</ele>
        <time>2023-07-16T13:36:24.600+00:00</time>
      </trkpt>
      <trkpt lat="46.20393" lon="-1.47841">
        <ele>4</ele>
        <time>2023-07-16T13:36:28.400+00:00</time>
      </trkpt>
      <trkpt lat="46.20403" lon="-1.47819">
        <ele>3</ele>
        <time>2023-07-16T13:36:32.780+00:00</time>
      </trkpt>
      <trkpt lat="46.20412" lon="-1.47792">
        <ele>4</ele>
        <time>2023-07-16T13:36:37.047+00:00</time>
      </trkpt>
      <trkpt lat="46.20417" lon="-1.47765">
        <ele>4</ele>
        <time>2023-07-16T13:36:41.075+00:00</time>
      </trkpt>
      <trkpt lat="46.20424" lon="-1.47739">
        <ele>4</ele>
        <time>2023-07-16T13:36:45.079+00:00</time>
      </trkpt>
      <trkpt lat="46.20431" lon="-1.47714">
        <ele>4</ele>
        <time>2023-07-16T13:36:50.081+00:00</time>
      </trkpt>
      <trkpt lat="46.20441" lon="-1.47675">
        <ele>2</ele>
        <time>2023-07-16T13:36:55.087+00:00</time>
      </trkpt>
      <trkpt lat="46.20446" lon="-1.47654">
        <ele>2</ele>
        <time>2023-07-16T13:36:59.719+00:00</time>
      </trkpt>
      <trkpt lat="46.20453" lon="-1.4763">
        <ele>2</ele>
        <time>2023-07-16T13:37:04.337+00:00</time>
      </trkpt>
      <trkpt lat="46.20463" lon="-1.47616">
        <ele>2</ele>
        <time>2023-07-16T13:37:08.896+00:00</time>
      </trkpt>
      <trkpt lat="46.20472" lon="-1.47607">
        <ele>2</ele>
        <time>2023-07-16T13:37:12.875+00:00</time>
      </trkpt>
      <trkpt lat="46.20482" lon="-1.47588">
        <ele>3</ele>
        <time>2023-07-16T13:37:18.072+00:00</time>
      </trkpt>
      <trkpt lat="46.20493" lon="-1.47572">
        <ele>1</ele>
        <time>2023-07-16T13:37:22.013+00:00</time>
      </trkpt>
      <trkpt lat="46.20505" lon="-1.47545">
        <ele>1</ele>
        <time>2023-07-16T13:37:27.089+00:00</time>
      </trkpt>
      <trkpt lat="46.20516" lon="-1.47523">
        <ele>2</ele>
        <time>2023-07-16T13:37:31.530+00:00</time>
      </trkpt>
      <trkpt lat="46.20526" lon="-1.47507">
        <ele>2</ele>
        <time>2023-07-16T13:37:35.970+00:00</time>
      </trkpt>
      <trkpt lat="46.20535" lon="-1.47488">
        <ele>2</ele>
        <time>2023-07-16T13:37:39.949+00:00</time>
      </trkpt>
      <trkpt lat="46.20546" lon="-1.47469">
        <ele>1</ele>
        <time>2023-07-16T13:37:44.075+00:00</time>
      </trkpt>
      <trkpt lat="46.20562" lon="-1.47452">
        <ele>1</ele>
        <time>2023-07-16T13:37:48.870+00:00</time>
      </trkpt>
      <trkpt lat="46.20577" lon="-1.47442">
        <ele>2</ele>
        <time>2023-07-16T13:37:53.489+00:00</time>
      </trkpt>
      <trkpt lat="46.20593" lon="-1.47434">
        <ele>2</ele>
        <time>2023-07-16T13:37:57.848+00:00</time>
      </trkpt>
      <trkpt lat="46.20603" lon="-1.47423">
        <ele>1</ele>
        <time>2023-07-16T13:38:01.768+00:00</time>
      </trkpt>
      <trkpt lat="46.20618" lon="-1.47416">
        <ele>1</ele>
        <time>2023-07-16T13:38:06.071+00:00</time>
      </trkpt>
      <trkpt lat="46.20649" lon="-1.47409">
        <ele>1</ele>
        <time>2023-07-16T13:38:11.091+00:00</time>
      </trkpt>
      <trkpt lat="46.20679" lon="-1.47405">
        <ele>1</ele>
        <time>2023-07-16T13:38:16.073+00:00</time>
      </trkpt>
      <trkpt lat="46.20701" lon="-1.47402">
        <ele>2</ele>
        <time>2023-07-16T13:38:20.091+00:00</time>
      </trkpt>
      <trkpt lat="46.20718" lon="-1.47396">
        <ele>2</ele>
        <time>2023-07-16T13:38:25.098+00:00</time>
      </trkpt>
      <trkpt lat="46.20719" lon="-1.47376">
        <ele>2</ele>
        <time>2023-07-16T13:38:30.059+00:00</time>
      </trkpt>
      <trkpt lat="46.20706" lon="-1.47357">
        <ele>2</ele>
        <time>2023-07-16T13:38:34.598+00:00</time>
      </trkpt>
      <trkpt lat="46.20693" lon="-1.47336">
        <ele>2</ele>
        <time>2023-07-16T13:38:39.776+00:00</time>
      </trkpt>
      <trkpt lat="46.20678" lon="-1.47326">
        <ele>2</ele>
        <time>2023-07-16T13:38:44.317+00:00</time>
      </trkpt>
      <trkpt lat="46.20664" lon="-1.4731">
        <ele>3</ele>
        <time>2023-07-16T13:38:48.796+00:00</time>
      </trkpt>
      <trkpt lat="46.2065" lon="-1.47286">
        <ele>3</ele>
        <time>2023-07-16T13:38:54.044+00:00</time>
      </trkpt>
      <trkpt lat="46.20637" lon="-1.47272">
        <ele>3</ele>
        <time>2023-07-16T13:38:57.835+00:00</time>
      </trkpt>
      <trkpt lat="46.20621" lon="-1.47251">
        <ele>3</ele>
        <time>2023-07-16T13:39:03.032+00:00</time>
      </trkpt>
      <trkpt lat="46.20605" lon="-1.47249">
        <ele>3</ele>
        <time>2023-07-16T13:39:06.932+00:00</time>
      </trkpt>
      <trkpt lat="46.20592" lon="-1.47242">
        <ele>3</ele>
        <time>2023-07-16T13:39:10.902+00:00</time>
      </trkpt>
      <trkpt lat="46.20587" lon="-1.47227">
        <ele>3</ele>
        <time>2023-07-16T13:39:14.920+00:00</time>
      </trkpt>
      <trkpt lat="46.20584" lon="-1.47199">
        <ele>3</ele>
        <time>2023-07-16T13:39:20.061+00:00</time>
      </trkpt>
      <trkpt lat="46.2058" lon="-1.47174">
        <ele>3</ele>
        <time>2023-07-16T13:39:24.559+00:00</time>
      </trkpt>
      <trkpt lat="46.20575" lon="-1.4715">
        <ele>3</ele>
        <time>2023-07-16T13:39:29.817+00:00</time>
      </trkpt>
      <trkpt lat="46.20568" lon="-1.4714">
        <ele>4</ele>
        <time>2023-07-16T13:39:34.321+00:00</time>
      </trkpt>
      <trkpt lat="46.20568" lon="-1.47137">
        <ele>4</ele>
        <time>2023-07-16T13:39:38.321+00:00</time>
      </trkpt>
      <trkpt lat="46.20568" lon="-1.47135">
        <ele>4</ele>
        <time>2023-07-16T13:39:42.832+00:00</time>
      </trkpt>
      <trkpt lat="46.20566" lon="-1.47128">
        <ele>4</ele>
        <time>2023-07-16T13:41:02.072+00:00</time>
      </trkpt>
      <trkpt lat="46.20567" lon="-1.47126">
        <ele>4</ele>
        <time>2023-07-16T13:41:06.073+00:00</time>
      </trkpt>
      <trkpt lat="46.20571" lon="-1.47122">
        <ele>4</ele>
        <time>2023-07-16T13:41:10.082+00:00</time>
      </trkpt>
      <trkpt lat="46.20576" lon="-1.47119">
        <ele>4</ele>
        <time>2023-07-16T13:41:15.097+00:00</time>
      </trkpt>
      <trkpt lat="46.20583" lon="-1.47115">
        <ele>4</ele>
        <time>2023-07-16T13:41:20.079+00:00</time>
      </trkpt>
      <trkpt lat="46.20592" lon="-1.47107">
        <ele>4</ele>
        <time>2023-07-16T13:41:25.079+00:00</time>
      </trkpt>
      <trkpt lat="46.20609" lon="-1.47094">
        <ele>3</ele>
        <time>2023-07-16T13:41:30.077+00:00</time>
      </trkpt>
      <trkpt lat="46.20637" lon="-1.47072">
        <ele>1</ele>
        <time>2023-07-16T13:41:35.078+00:00</time>
      </trkpt>
      <trkpt lat="46.20664" lon="-1.47063">
        <ele>2.7</ele>
        <time>2023-07-16T13:41:39.086+00:00</time>
      </trkpt>
      <trkpt lat="46.20688" lon="-1.47053">
        <ele>-1</ele>
        <time>2023-07-16T13:41:44.062+00:00</time>
      </trkpt>
      <trkpt lat="46.20705" lon="-1.4705">
        <ele>-1</ele>
        <time>2023-07-16T13:41:48.066+00:00</time>
      </trkpt>
      <trkpt lat="46.2072" lon="-1.4705">
        <ele>2.8</ele>
        <time>2023-07-16T13:41:52.092+00:00</time>
      </trkpt>
      <trkpt lat="46.20742" lon="-1.47041">
        <ele>1</ele>
        <time>2023-07-16T13:41:57.093+00:00</time>
      </trkpt>
      <trkpt lat="46.20756" lon="-1.47031">
        <ele>1</ele>
        <time>2023-07-16T13:42:01.081+00:00</time>
      </trkpt>
      <trkpt lat="46.2077" lon="-1.47017">
        <ele>1</ele>
        <time>2023-07-16T13:42:05.443+00:00</time>
      </trkpt>
      <trkpt lat="46.20783" lon="-1.47005">
        <ele>1</ele>
        <time>2023-07-16T13:42:09.521+00:00</time>
      </trkpt>
      <trkpt lat="46.20795" lon="-1.46995">
        <ele>1</ele>
        <time>2023-07-16T13:42:13.521+00:00</time>
      </trkpt>
      <trkpt lat="46.20813" lon="-1.46983">
        <ele>1</ele>
        <time>2023-07-16T13:42:18.067+00:00</time>
      </trkpt>
      <trkpt lat="46.20833" lon="-1.46968">
        <ele>1</ele>
        <time>2023-07-16T13:42:22.076+00:00</time>
      </trkpt>
      <trkpt lat="46.20859" lon="-1.46944">
        <ele>1</ele>
        <time>2023-07-16T13:42:27.072+00:00</time>
      </trkpt>
      <trkpt lat="46.2088" lon="-1.46927">
        <ele>1</ele>
        <time>2023-07-16T13:42:31.086+00:00</time>
      </trkpt>
      <trkpt lat="46.20903" lon="-1.46912">
        <ele>1</ele>
        <time>2023-07-16T13:42:36.100+00:00</time>
      </trkpt>
      <trkpt lat="46.20921" lon="-1.46897">
        <ele>1</ele>
        <time>2023-07-16T13:42:41.086+00:00</time>
      </trkpt>
      <trkpt lat="46.20941" lon="-1.46882">
        <ele>2</ele>
        <time>2023-07-16T13:42:46.080+00:00</time>
      </trkpt>
      <trkpt lat="46.20958" lon="-1.4687">
        <ele>1</ele>
        <time>2023-07-16T13:42:50.612+00:00</time>
      </trkpt>
      <trkpt lat="46.20976" lon="-1.46857">
        <ele>2</ele>
        <time>2023-07-16T13:42:55.769+00:00</time>
      </trkpt>
      <trkpt lat="46.20991" lon="-1.4684">
        <ele>1</ele>
        <time>2023-07-16T13:43:00.708+00:00</time>
      </trkpt>
      <trkpt lat="46.21003" lon="-1.4682">
        <ele>1</ele>
        <time>2023-07-16T13:43:05.906+00:00</time>
      </trkpt>
      <trkpt lat="46.21009" lon="-1.4679">
        <ele>2</ele>
        <time>2023-07-16T13:43:11.088+00:00</time>
      </trkpt>
      <trkpt lat="46.2102" lon="-1.46764">
        <ele>2</ele>
        <time>2023-07-16T13:43:16.070+00:00</time>
      </trkpt>
      <trkpt lat="46.21031" lon="-1.46746">
        <ele>2</ele>
        <time>2023-07-16T13:43:20.090+00:00</time>
      </trkpt>
      <trkpt lat="46.21039" lon="-1.46729">
        <ele>1</ele>
        <time>2023-07-16T13:43:24.085+00:00</time>
      </trkpt>
      <trkpt lat="46.21048" lon="-1.46699">
        <ele>1</ele>
        <time>2023-07-16T13:43:29.078+00:00</time>
      </trkpt>
      <trkpt lat="46.21054" lon="-1.46675">
        <ele>1</ele>
        <time>2023-07-16T13:43:33.091+00:00</time>
      </trkpt>
      <trkpt lat="46.21057" lon="-1.46647">
        <ele>1</ele>
        <time>2023-07-16T13:43:38.071+00:00</time>
      </trkpt>
      <trkpt lat="46.21059" lon="-1.46625">
        <ele>1</ele>
        <time>2023-07-16T13:43:42.092+00:00</time>
      </trkpt>
      <trkpt lat="46.21063" lon="-1.46593">
        <ele>1</ele>
        <time>2023-07-16T13:43:47.067+00:00</time>
      </trkpt>
      <trkpt lat="46.21064" lon="-1.46567">
        <ele>1</ele>
        <time>2023-07-16T13:43:51.085+00:00</time>
      </trkpt>
      <trkpt lat="46.21066" lon="-1.46536">
        <ele>2</ele>
        <time>2023-07-16T13:43:56.075+00:00</time>
      </trkpt>
      <trkpt lat="46.21068" lon="-1.46504">
        <ele>2</ele>
        <time>2023-07-16T13:44:01.072+00:00</time>
      </trkpt>
      <trkpt lat="46.2107" lon="-1.46476">
        <ele>2</ele>
        <time>2023-07-16T13:44:05.060+00:00</time>
      </trkpt>
      <trkpt lat="46.21073" lon="-1.46446">
        <ele>1</ele>
        <time>2023-07-16T13:44:09.076+00:00</time>
      </trkpt>
      <trkpt lat="46.21077" lon="-1.46414">
        <ele>1</ele>
        <time>2023-07-16T13:44:13.099+00:00</time>
      </trkpt>
      <trkpt lat="46.21081" lon="-1.46371">
        <ele>1</ele>
        <time>2023-07-16T13:44:18.065+00:00</time>
      </trkpt>
      <trkpt lat="46.21084" lon="-1.4634">
        <ele>1</ele>
        <time>2023-07-16T13:44:22.069+00:00</time>
      </trkpt>
      <trkpt lat="46.21092" lon="-1.463">
        <ele>1</ele>
        <time>2023-07-16T13:44:27.080+00:00</time>
      </trkpt>
      <trkpt lat="46.211" lon="-1.46267">
        <ele>1</ele>
        <time>2023-07-16T13:44:31.104+00:00</time>
      </trkpt>
      <trkpt lat="46.21107" lon="-1.46229">
        <ele>2</ele>
        <time>2023-07-16T13:44:36.078+00:00</time>
      </trkpt>
      <trkpt lat="46.21113" lon="-1.46199">
        <ele>1</ele>
        <time>2023-07-16T13:44:40.075+00:00</time>
      </trkpt>
      <trkpt lat="46.21122" lon="-1.46164">
        <ele>1</ele>
        <time>2023-07-16T13:44:45.093+00:00</time>
      </trkpt>
      <trkpt lat="46.21126" lon="-1.46126">
        <ele>2</ele>
        <time>2023-07-16T13:44:50.086+00:00</time>
      </trkpt>
      <trkpt lat="46.21124" lon="-1.46093">
        <ele>2.7</ele>
        <time>2023-07-16T13:44:55.078+00:00</time>
      </trkpt>
      <trkpt lat="46.21125" lon="-1.4607">
        <ele>3</ele>
        <time>2023-07-16T13:44:59.064+00:00</time>
      </trkpt>
      <trkpt lat="46.21125" lon="-1.46047">
        <ele>3</ele>
        <time>2023-07-16T13:45:03.080+00:00</time>
      </trkpt>
      <trkpt lat="46.21122" lon="-1.46026">
        <ele>1</ele>
        <time>2023-07-16T13:45:08.064+00:00</time>
      </trkpt>
      <trkpt lat="46.21112" lon="-1.46013">
        <ele>1</ele>
        <time>2023-07-16T13:45:12.073+00:00</time>
      </trkpt>
      <trkpt lat="46.21103" lon="-1.46">
        <ele>1</ele>
        <time>2023-07-16T13:45:16.087+00:00</time>
      </trkpt>
      <trkpt lat="46.21095" lon="-1.45971">
        <ele>1</ele>
        <time>2023-07-16T13:45:41.052+00:00</time>
      </trkpt>
      <trkpt lat="46.21095" lon="-1.4597">
        <ele>1</ele>
        <time>2023-07-16T13:45:45.083+00:00</time>
      </trkpt>
      <trkpt lat="46.21092" lon="-1.45951">
        <ele>1</ele>
        <time>2023-07-16T13:45:50.060+00:00</time>
      </trkpt>
      <trkpt lat="46.2109" lon="-1.45933">
        <ele>1</ele>
        <time>2023-07-16T13:45:54.092+00:00</time>
      </trkpt>
      <trkpt lat="46.21087" lon="-1.45912">
        <ele>-1</ele>
        <time>2023-07-16T13:45:59.057+00:00</time>
      </trkpt>
      <trkpt lat="46.21084" lon="-1.45893">
        <ele>-1</ele>
        <time>2023-07-16T13:46:03.091+00:00</time>
      </trkpt>
      <trkpt lat="46.21082" lon="-1.45864">
        <ele>2.1</ele>
        <time>2023-07-16T13:46:07.097+00:00</time>
      </trkpt>
      <trkpt lat="46.21078" lon="-1.45837">
        <ele>2</ele>
        <time>2023-07-16T13:46:12.082+00:00</time>
      </trkpt>
      <trkpt lat="46.21072" lon="-1.4581">
        <ele>1</ele>
        <time>2023-07-16T13:46:17.088+00:00</time>
      </trkpt>
      <trkpt lat="46.21066" lon="-1.45782">
        <ele>2</ele>
        <time>2023-07-16T13:46:22.080+00:00</time>
      </trkpt>
      <trkpt lat="46.2106" lon="-1.45756">
        <ele>2</ele>
        <time>2023-07-16T13:46:27.083+00:00</time>
      </trkpt>
      <trkpt lat="46.21056" lon="-1.45732">
        <ele>2</ele>
        <time>2023-07-16T13:46:31.090+00:00</time>
      </trkpt>
      <trkpt lat="46.2105" lon="-1.457">
        <ele>2</ele>
        <time>2023-07-16T13:46:36.087+00:00</time>
      </trkpt>
      <trkpt lat="46.21045" lon="-1.45675">
        <ele>3</ele>
        <time>2023-07-16T13:46:40.100+00:00</time>
      </trkpt>
      <trkpt lat="46.2104" lon="-1.45649">
        <ele>1</ele>
        <time>2023-07-16T13:46:44.786+00:00</time>
      </trkpt>
      <trkpt lat="46.21034" lon="-1.45618">
        <ele>2.6</ele>
        <time>2023-07-16T13:46:50.025+00:00</time>
      </trkpt>
      <trkpt lat="46.21026" lon="-1.45595">
        <ele>2.9</ele>
        <time>2023-07-16T13:46:54.083+00:00</time>
      </trkpt>
      <trkpt lat="46.21016" lon="-1.45566">
        <ele>1</ele>
        <time>2023-07-16T13:46:58.664+00:00</time>
      </trkpt>
      <trkpt lat="46.2101" lon="-1.45541">
        <ele>3</ele>
        <time>2023-07-16T13:47:02.683+00:00</time>
      </trkpt>
      <trkpt lat="46.21004" lon="-1.45519">
        <ele>3</ele>
        <time>2023-07-16T13:47:06.644+00:00</time>
      </trkpt>
      <trkpt lat="46.20996" lon="-1.45493">
        <ele>3</ele>
        <time>2023-07-16T13:47:11.821+00:00</time>
      </trkpt>
      <trkpt lat="46.20988" lon="-1.45468">
        <ele>3</ele>
        <time>2023-07-16T13:47:16.281+00:00</time>
      </trkpt>
      <trkpt lat="46.20979" lon="-1.45444">
        <ele>1</ele>
        <time>2023-07-16T13:47:20.898+00:00</time>
      </trkpt>
      <trkpt lat="46.20971" lon="-1.45422">
        <ele>1</ele>
        <time>2023-07-16T13:47:25.455+00:00</time>
      </trkpt>
      <trkpt lat="46.20964" lon="-1.45405">
        <ele>1</ele>
        <time>2023-07-16T13:47:30.061+00:00</time>
      </trkpt>
      <trkpt lat="46.20961" lon="-1.45388">
        <ele>2</ele>
        <time>2023-07-16T13:47:33.994+00:00</time>
      </trkpt>
      <trkpt lat="46.20956" lon="-1.45368">
        <ele>1</ele>
        <time>2023-07-16T13:47:39.082+00:00</time>
      </trkpt>
      <trkpt lat="46.2095" lon="-1.45347">
        <ele>1</ele>
        <time>2023-07-16T13:47:44.014+00:00</time>
      </trkpt>
      <trkpt lat="46.20948" lon="-1.45347">
        <ele>1</ele>
        <time>2023-07-16T13:47:49.054+00:00</time>
      </trkpt>
      <trkpt lat="46.20949" lon="-1.45348">
        <ele>1</ele>
        <time>2023-07-16T13:49:40.081+00:00</time>
      </trkpt>
      <trkpt lat="46.20949" lon="-1.45348">
        <ele>1</ele>
        <time>2023-07-16T13:49:43.888+00:00</time>
      </trkpt>
      <trkpt lat="46.20946" lon="-1.4533">
        <ele>1</ele>
        <time>2023-07-16T13:49:48.128+00:00</time>
      </trkpt>
      <trkpt lat="46.20941" lon="-1.45312">
        <ele>1</ele>
        <time>2023-07-16T13:49:52.330+00:00</time>
      </trkpt>
      <trkpt lat="46.20931" lon="-1.45287">
        <ele>1</ele>
        <time>2023-07-16T13:49:56.650+00:00</time>
      </trkpt>
      <trkpt lat="46.20921" lon="-1.4526">
        <ele>1</ele>
        <time>2023-07-16T13:50:01.097+00:00</time>
      </trkpt>
      <trkpt lat="46.2091" lon="-1.45229">
        <ele>1</ele>
        <time>2023-07-16T13:50:06.073+00:00</time>
      </trkpt>
      <trkpt lat="46.20902" lon="-1.45204">
        <ele>2</ele>
        <time>2023-07-16T13:50:10.090+00:00</time>
      </trkpt>
      <trkpt lat="46.20893" lon="-1.45173">
        <ele>2.7</ele>
        <time>2023-07-16T13:50:15.092+00:00</time>
      </trkpt>
      <trkpt lat="46.20883" lon="-1.45144">
        <ele>1</ele>
        <time>2023-07-16T13:50:20.069+00:00</time>
      </trkpt>
      <trkpt lat="46.20875" lon="-1.45118">
        <ele>2.1</ele>
        <time>2023-07-16T13:50:24.095+00:00</time>
      </trkpt>
      <trkpt lat="46.20864" lon="-1.45086">
        <ele>2.8</ele>
        <time>2023-07-16T13:50:29.087+00:00</time>
      </trkpt>
      <trkpt lat="46.20853" lon="-1.45053">
        <ele>2</ele>
        <time>2023-07-16T13:50:34.088+00:00</time>
      </trkpt>
      <trkpt lat="46.20842" lon="-1.45022">
        <ele>2</ele>
        <time>2023-07-16T13:50:39.075+00:00</time>
      </trkpt>
      <trkpt lat="46.20833" lon="-1.44996">
        <ele>2</ele>
        <time>2023-07-16T13:50:43.068+00:00</time>
      </trkpt>
      <trkpt lat="46.20824" lon="-1.44968">
        <ele>2</ele>
        <time>2023-07-16T13:50:47.088+00:00</time>
      </trkpt>
      <trkpt lat="46.20812" lon="-1.44933">
        <ele>2.4</ele>
        <time>2023-07-16T13:50:52.078+00:00</time>
      </trkpt>
      <trkpt lat="46.20804" lon="-1.44907">
        <ele>2</ele>
        <time>2023-07-16T13:50:56.105+00:00</time>
      </trkpt>
      <trkpt lat="46.20793" lon="-1.44873">
        <ele>2</ele>
        <time>2023-07-16T13:51:01.079+00:00</time>
      </trkpt>
      <trkpt lat="46.20785" lon="-1.44847">
        <ele>2</ele>
        <time>2023-07-16T13:51:05.101+00:00</time>
      </trkpt>
      <trkpt lat="46.20774" lon="-1.44814">
        <ele>1</ele>
        <time>2023-07-16T13:51:10.055+00:00</time>
      </trkpt>
      <trkpt lat="46.20765" lon="-1.44788">
        <ele>1</ele>
        <time>2023-07-16T13:51:14.082+00:00</time>
      </trkpt>
      <trkpt lat="46.20756" lon="-1.44761">
        <ele>2</ele>
        <time>2023-07-16T13:51:18.094+00:00</time>
      </trkpt>
      <trkpt lat="46.20746" lon="-1.44729">
        <ele>2</ele>
        <time>2023-07-16T13:51:23.096+00:00</time>
      </trkpt>
      <trkpt lat="46.20737" lon="-1.44702">
        <ele>1</ele>
        <time>2023-07-16T13:51:27.117+00:00</time>
      </trkpt>
      <trkpt lat="46.20726" lon="-1.44668">
        <ele>1</ele>
        <time>2023-07-16T13:51:32.083+00:00</time>
      </trkpt>
      <trkpt lat="46.20715" lon="-1.44634">
        <ele>1</ele>
        <time>2023-07-16T13:51:37.094+00:00</time>
      </trkpt>
      <trkpt lat="46.20704" lon="-1.44602">
        <ele>1</ele>
        <time>2023-07-16T13:51:42.095+00:00</time>
      </trkpt>
      <trkpt lat="46.20694" lon="-1.44574">
        <ele>1</ele>
        <time>2023-07-16T13:51:47.070+00:00</time>
      </trkpt>
      <trkpt lat="46.20685" lon="-1.44548">
        <ele>2</ele>
        <time>2023-07-16T13:51:51.096+00:00</time>
      </trkpt>
      <trkpt lat="46.20675" lon="-1.44516">
        <ele>1</ele>
        <time>2023-07-16T13:51:56.073+00:00</time>
      </trkpt>
      <trkpt lat="46.20664" lon="-1.44484">
        <ele>2</ele>
        <time>2023-07-16T13:52:01.093+00:00</time>
      </trkpt>
      <trkpt lat="46.20654" lon="-1.44454">
        <ele>2</ele>
        <time>2023-07-16T13:52:06.079+00:00</time>
      </trkpt>
      <trkpt lat="46.20646" lon="-1.44429">
        <ele>2</ele>
        <time>2023-07-16T13:52:11.062+00:00</time>
      </trkpt>
      <trkpt lat="46.2064" lon="-1.44413">
        <ele>2</ele>
        <time>2023-07-16T13:52:15.084+00:00</time>
      </trkpt>
      <trkpt lat="46.20638" lon="-1.4441">
        <ele>2</ele>
        <time>2023-07-16T13:52:20.064+00:00</time>
      </trkpt>
      <trkpt lat="46.20637" lon="-1.44409">
        <ele>2</ele>
        <time>2023-07-16T13:52:24.080+00:00</time>
      </trkpt>
      <trkpt lat="46.20637" lon="-1.44409">
        <ele>2</ele>
        <time>2023-07-16T13:53:52.080+00:00</time>
      </trkpt>
      <trkpt lat="46.20636" lon="-1.44408">
        <ele>2</ele>
        <time>2023-07-16T13:53:57.087+00:00</time>
      </trkpt>
      <trkpt lat="46.20636" lon="-1.44401">
        <ele>1</ele>
        <time>2023-07-16T13:54:02.075+00:00</time>
      </trkpt>
      <trkpt lat="46.20644" lon="-1.44387">
        <ele>1</ele>
        <time>2023-07-16T13:54:06.540+00:00</time>
      </trkpt>
      <trkpt lat="46.20656" lon="-1.4437">
        <ele>1</ele>
        <time>2023-07-16T13:54:10.682+00:00</time>
      </trkpt>
      <trkpt lat="46.20671" lon="-1.44349">
        <ele>1</ele>
        <time>2023-07-16T13:54:16.065+00:00</time>
      </trkpt>
      <trkpt lat="46.20687" lon="-1.44331">
        <ele>1</ele>
        <time>2023-07-16T13:54:20.071+00:00</time>
      </trkpt>
      <trkpt lat="46.20699" lon="-1.44315">
        <ele>1</ele>
        <time>2023-07-16T13:54:23.932+00:00</time>
      </trkpt>
      <trkpt lat="46.20718" lon="-1.44293">
        <ele>1</ele>
        <time>2023-07-16T13:54:29.095+00:00</time>
      </trkpt>
      <trkpt lat="46.20736" lon="-1.44269">
        <ele>1</ele>
        <time>2023-07-16T13:54:34.098+00:00</time>
      </trkpt>
      <trkpt lat="46.20753" lon="-1.44241">
        <ele>2.6</ele>
        <time>2023-07-16T13:54:39.074+00:00</time>
      </trkpt>
      <trkpt lat="46.20766" lon="-1.44217">
        <ele>1</ele>
        <time>2023-07-16T13:54:43.100+00:00</time>
      </trkpt>
      <trkpt lat="46.20783" lon="-1.44189">
        <ele>1</ele>
        <time>2023-07-16T13:54:48.061+00:00</time>
      </trkpt>
      <trkpt lat="46.20799" lon="-1.44163">
        <ele>1</ele>
        <time>2023-07-16T13:54:53.093+00:00</time>
      </trkpt>
      <trkpt lat="46.20815" lon="-1.44139">
        <ele>2</ele>
        <time>2023-07-16T13:54:58.056+00:00</time>
      </trkpt>
      <trkpt lat="46.20828" lon="-1.44122">
        <ele>2</ele>
        <time>2023-07-16T13:55:02.083+00:00</time>
      </trkpt>
      <trkpt lat="46.20844" lon="-1.44101">
        <ele>2</ele>
        <time>2023-07-16T13:55:07.075+00:00</time>
      </trkpt>
      <trkpt lat="46.20849" lon="-1.44077">
        <ele>2</ele>
        <time>2023-07-16T13:55:11.094+00:00</time>
      </trkpt>
      <trkpt lat="46.20841" lon="-1.44047">
        <ele>2.2</ele>
        <time>2023-07-16T13:55:16.079+00:00</time>
      </trkpt>
      <trkpt lat="46.20833" lon="-1.44024">
        <ele>1</ele>
        <time>2023-07-16T13:55:20.562+00:00</time>
      </trkpt>
      <trkpt lat="46.20822" lon="-1.43997">
        <ele>2</ele>
        <time>2023-07-16T13:55:25.085+00:00</time>
      </trkpt>
      <trkpt lat="46.20808" lon="-1.43969">
        <ele>1</ele>
        <time>2023-07-16T13:55:30.069+00:00</time>
      </trkpt>
      <trkpt lat="46.20799" lon="-1.43945">
        <ele>1</ele>
        <time>2023-07-16T13:55:34.089+00:00</time>
      </trkpt>
      <trkpt lat="46.20791" lon="-1.43925">
        <ele>2</ele>
        <time>2023-07-16T13:55:38.079+00:00</time>
      </trkpt>
      <trkpt lat="46.20779" lon="-1.43896">
        <ele>2</ele>
        <time>2023-07-16T13:55:43.098+00:00</time>
      </trkpt>
      <trkpt lat="46.20769" lon="-1.43874">
        <ele>2</ele>
        <time>2023-07-16T13:55:47.648+00:00</time>
      </trkpt>
      <trkpt lat="46.20758" lon="-1.43849">
        <ele>2</ele>
        <time>2023-07-16T13:55:52.084+00:00</time>
      </trkpt>
      <trkpt lat="46.2075" lon="-1.4383">
        <ele>1</ele>
        <time>2023-07-16T13:55:56.274+00:00</time>
      </trkpt>
      <trkpt lat="46.20738" lon="-1.43803">
        <ele>1</ele>
        <time>2023-07-16T13:56:01.090+00:00</time>
      </trkpt>
      <trkpt lat="46.20727" lon="-1.43779">
        <ele>1</ele>
        <time>2023-07-16T13:56:06.078+00:00</time>
      </trkpt>
      <trkpt lat="46.20714" lon="-1.4375">
        <ele>1</ele>
        <time>2023-07-16T13:56:11.064+00:00</time>
      </trkpt>
      <trkpt lat="46.20703" lon="-1.43726">
        <ele>2</ele>
        <time>2023-07-16T13:56:16.074+00:00</time>
      </trkpt>
      <trkpt lat="46.20692" lon="-1.43701">
        <ele>2</ele>
        <time>2023-07-16T13:56:21.078+00:00</time>
      </trkpt>
      <trkpt lat="46.20679" lon="-1.43671">
        <ele>1</ele>
        <time>2023-07-16T13:56:26.088+00:00</time>
      </trkpt>
      <trkpt lat="46.20671" lon="-1.43641">
        <ele>2.8</ele>
        <time>2023-07-16T13:56:31.068+00:00</time>
      </trkpt>
      <trkpt lat="46.20662" lon="-1.4362">
        <ele>1</ele>
        <time>2023-07-16T13:56:35.074+00:00</time>
      </trkpt>
      <trkpt lat="46.2065" lon="-1.43598">
        <ele>1</ele>
        <time>2023-07-16T13:56:39.083+00:00</time>
      </trkpt>
      <trkpt lat="46.20639" lon="-1.43574">
        <ele>1</ele>
        <time>2023-07-16T13:56:44.069+00:00</time>
      </trkpt>
      <trkpt lat="46.2063" lon="-1.43555">
        <ele>1</ele>
        <time>2023-07-16T13:56:48.081+00:00</time>
      </trkpt>
      <trkpt lat="46.20622" lon="-1.43532">
        <ele>1</ele>
        <time>2023-07-16T13:56:52.198+00:00</time>
      </trkpt>
      <trkpt lat="46.20612" lon="-1.43506">
        <ele>2</ele>
        <time>2023-07-16T13:56:57+00:00</time>
      </trkpt>
      <trkpt lat="46.20604" lon="-1.43484">
        <ele>3</ele>
        <time>2023-07-16T13:57:01.161+00:00</time>
      </trkpt>
      <trkpt lat="46.20594" lon="-1.43456">
        <ele>3</ele>
        <time>2023-07-16T13:57:06.077+00:00</time>
      </trkpt>
      <trkpt lat="46.20586" lon="-1.43434">
        <ele>3</ele>
        <time>2023-07-16T13:57:10.470+00:00</time>
      </trkpt>
      <trkpt lat="46.20576" lon="-1.43407">
        <ele>3</ele>
        <time>2023-07-16T13:57:15.063+00:00</time>
      </trkpt>
      <trkpt lat="46.20568" lon="-1.43383">
        <ele>2</ele>
        <time>2023-07-16T13:57:19.303+00:00</time>
      </trkpt>
      <trkpt lat="46.20557" lon="-1.43357">
        <ele>2</ele>
        <time>2023-07-16T13:57:24.092+00:00</time>
      </trkpt>
      <trkpt lat="46.20548" lon="-1.43333">
        <ele>2</ele>
        <time>2023-07-16T13:57:28.086+00:00</time>
      </trkpt>
      <trkpt lat="46.2054" lon="-1.43308">
        <ele>2</ele>
        <time>2023-07-16T13:57:32.681+00:00</time>
      </trkpt>
      <trkpt lat="46.20529" lon="-1.43285">
        <ele>2</ele>
        <time>2023-07-16T13:57:37.092+00:00</time>
      </trkpt>
      <trkpt lat="46.20517" lon="-1.43254">
        <ele>2</ele>
        <time>2023-07-16T13:57:42.075+00:00</time>
      </trkpt>
      <trkpt lat="46.20507" lon="-1.4323">
        <ele>3</ele>
        <time>2023-07-16T13:57:46.603+00:00</time>
      </trkpt>
      <trkpt lat="46.20494" lon="-1.43209">
        <ele>3</ele>
        <time>2023-07-16T13:57:51.106+00:00</time>
      </trkpt>
      <trkpt lat="46.20488" lon="-1.43182">
        <ele>3</ele>
        <time>2023-07-16T13:57:56.062+00:00</time>
      </trkpt>
      <trkpt lat="46.20502" lon="-1.43154">
        <ele>3</ele>
        <time>2023-07-16T13:58:01.105+00:00</time>
      </trkpt>
      <trkpt lat="46.20509" lon="-1.43122">
        <ele>2</ele>
        <time>2023-07-16T13:58:06.086+00:00</time>
      </trkpt>
      <trkpt lat="46.20511" lon="-1.43088">
        <ele>2</ele>
        <time>2023-07-16T13:58:11.087+00:00</time>
      </trkpt>
      <trkpt lat="46.20506" lon="-1.43054">
        <ele>2</ele>
        <time>2023-07-16T13:58:16.052+00:00</time>
      </trkpt>
      <trkpt lat="46.20492" lon="-1.43023">
        <ele>2</ele>
        <time>2023-07-16T13:58:21.058+00:00</time>
      </trkpt>
      <trkpt lat="46.2048" lon="-1.42998">
        <ele>2</ele>
        <time>2023-07-16T13:58:25.108+00:00</time>
      </trkpt>
      <trkpt lat="46.20467" lon="-1.42968">
        <ele>2</ele>
        <time>2023-07-16T13:58:30.071+00:00</time>
      </trkpt>
      <trkpt lat="46.20449" lon="-1.42945">
        <ele>1</ele>
        <time>2023-07-16T13:58:35.060+00:00</time>
      </trkpt>
      <trkpt lat="46.20432" lon="-1.4293">
        <ele>2.5</ele>
        <time>2023-07-16T13:58:39.103+00:00</time>
      </trkpt>
      <trkpt lat="46.2041" lon="-1.42909">
        <ele>2.6</ele>
        <time>2023-07-16T13:58:44.084+00:00</time>
      </trkpt>
      <trkpt lat="46.20393" lon="-1.42893">
        <ele>1</ele>
        <time>2023-07-16T13:58:48.081+00:00</time>
      </trkpt>
      <trkpt lat="46.20375" lon="-1.42871">
        <ele>2.2</ele>
        <time>2023-07-16T13:58:53.080+00:00</time>
      </trkpt>
      <trkpt lat="46.20363" lon="-1.42854">
        <ele>2.9</ele>
        <time>2023-07-16T13:58:58.079+00:00</time>
      </trkpt>
      <trkpt lat="46.20355" lon="-1.42841">
        <ele>2.9</ele>
        <time>2023-07-16T13:59:02.909+00:00</time>
      </trkpt>
      <trkpt lat="46.20355" lon="-1.42838">
        <ele>2.9</ele>
        <time>2023-07-16T13:59:07.211+00:00</time>
      </trkpt>
      <trkpt lat="46.20357" lon="-1.42825">
        <ele>3.2</ele>
        <time>2023-07-16T13:59:11.952+00:00</time>
      </trkpt>
      <trkpt lat="46.20363" lon="-1.42808">
        <ele>3.8</ele>
        <time>2023-07-16T13:59:16.308+00:00</time>
      </trkpt>
      <trkpt lat="46.20369" lon="-1.42792">
        <ele>1</ele>
        <time>2023-07-16T13:59:20.754+00:00</time>
      </trkpt>
      <trkpt lat="46.2039" lon="-1.42789">
        <ele>1</ele>
        <time>2023-07-16T13:59:25.792+00:00</time>
      </trkpt>
      <trkpt lat="46.20403" lon="-1.42791">
        <ele>2.3</ele>
        <time>2023-07-16T13:59:29.960+00:00</time>
      </trkpt>
      <trkpt lat="46.20414" lon="-1.42793">
        <ele>2.4</ele>
        <time>2023-07-16T13:59:33.920+00:00</time>
      </trkpt>
      <trkpt lat="46.20428" lon="-1.42795">
        <ele>2.4</ele>
        <time>2023-07-16T13:59:37.880+00:00</time>
      </trkpt>
      <trkpt lat="46.20441" lon="-1.42794">
        <ele>2.4</ele>
        <time>2023-07-16T13:59:42.815+00:00</time>
      </trkpt>
      <trkpt lat="46.20455" lon="-1.42796">
        <ele>2.9</ele>
        <time>2023-07-16T13:59:46.943+00:00</time>
      </trkpt>
      <trkpt lat="46.2047" lon="-1.42806">
        <ele>-1</ele>
        <time>2023-07-16T13:59:51.144+00:00</time>
      </trkpt>
      <trkpt lat="46.20481" lon="-1.42819">
        <ele>-1</ele>
        <time>2023-07-16T13:59:55.746+00:00</time>
      </trkpt>
      <trkpt lat="46.20492" lon="-1.42836">
        <ele>-1</ele>
        <time>2023-07-16T14:00:00.910+00:00</time>
      </trkpt>
      <trkpt lat="46.20505" lon="-1.42851">
        <ele>2.5</ele>
        <time>2023-07-16T14:00:05.914+00:00</time>
      </trkpt>
      <trkpt lat="46.2052" lon="-1.42851">
        <ele>2.8</ele>
        <time>2023-07-16T14:00:09.918+00:00</time>
      </trkpt>
      <trkpt lat="46.20536" lon="-1.42852">
        <ele>3</ele>
        <time>2023-07-16T14:00:14.857+00:00</time>
      </trkpt>
      <trkpt lat="46.20552" lon="-1.42851">
        <ele>1</ele>
        <time>2023-07-16T14:00:19.798+00:00</time>
      </trkpt>
      <trkpt lat="46.20567" lon="-1.42849">
        <ele>1</ele>
        <time>2023-07-16T14:00:23.639+00:00</time>
      </trkpt>
      <trkpt lat="46.20579" lon="-1.42836">
        <ele>4</ele>
        <time>2023-07-16T14:00:28.798+00:00</time>
      </trkpt>
      <trkpt lat="46.20586" lon="-1.42812">
        <ele>4</ele>
        <time>2023-07-16T14:00:33.219+00:00</time>
      </trkpt>
      <trkpt lat="46.20588" lon="-1.42782">
        <ele>4</ele>
        <time>2023-07-16T14:00:37.700+00:00</time>
      </trkpt>
      <trkpt lat="46.20589" lon="-1.42762">
        <ele>3.3</ele>
        <time>2023-07-16T14:00:41.599+00:00</time>
      </trkpt>
      <trkpt lat="46.20591" lon="-1.42743">
        <ele>3.5</ele>
        <time>2023-07-16T14:00:45.781+00:00</time>
      </trkpt>
      <trkpt lat="46.20587" lon="-1.4272">
        <ele>3</ele>
        <time>2023-07-16T14:00:50.241+00:00</time>
      </trkpt>
      <trkpt lat="46.20579" lon="-1.42707">
        <ele>2.5</ele>
        <time>2023-07-16T14:00:54.795+00:00</time>
      </trkpt>
      <trkpt lat="46.20569" lon="-1.42697">
        <ele>1</ele>
        <time>2023-07-16T14:00:58.501+00:00</time>
      </trkpt>
      <trkpt lat="46.20557" lon="-1.42687">
        <ele>1</ele>
        <time>2023-07-16T14:01:03.020+00:00</time>
      </trkpt>
      <trkpt lat="46.20545" lon="-1.42676">
        <ele>1</ele>
        <time>2023-07-16T14:01:06.960+00:00</time>
      </trkpt>
      <trkpt lat="46.20534" lon="-1.42663">
        <ele>1</ele>
        <time>2023-07-16T14:01:10.858+00:00</time>
      </trkpt>
      <trkpt lat="46.20524" lon="-1.42645">
        <ele>1</ele>
        <time>2023-07-16T14:01:15.476+00:00</time>
      </trkpt>
      <trkpt lat="46.20513" lon="-1.42635">
        <ele>1</ele>
        <time>2023-07-16T14:01:19.817+00:00</time>
      </trkpt>
      <trkpt lat="46.205" lon="-1.4264">
        <ele>1</ele>
        <time>2023-07-16T14:01:24.796+00:00</time>
      </trkpt>
      <trkpt lat="46.20495" lon="-1.42645">
        <ele>1</ele>
        <time>2023-07-16T14:01:28.774+00:00</time>
      </trkpt>
      <trkpt lat="46.20484" lon="-1.42653">
        <ele>1</ele>
        <time>2023-07-16T14:01:33.673+00:00</time>
      </trkpt>
      <trkpt lat="46.2047" lon="-1.42661">
        <ele>3.7</ele>
        <time>2023-07-16T14:01:38.062+00:00</time>
      </trkpt>
      <trkpt lat="46.20458" lon="-1.42663">
        <ele>2</ele>
        <time>2023-07-16T14:01:42.053+00:00</time>
      </trkpt>
      <trkpt lat="46.20445" lon="-1.42666">
        <ele>2</ele>
        <time>2023-07-16T14:01:46.077+00:00</time>
      </trkpt>
      <trkpt lat="46.2043" lon="-1.42665">
        <ele>3</ele>
        <time>2023-07-16T14:01:51.072+00:00</time>
      </trkpt>
      <trkpt lat="46.20415" lon="-1.42662">
        <ele>3</ele>
        <time>2023-07-16T14:01:55.096+00:00</time>
      </trkpt>
      <trkpt lat="46.2039" lon="-1.42662">
        <ele>3</ele>
        <time>2023-07-16T14:02:00.058+00:00</time>
      </trkpt>
      <trkpt lat="46.20374" lon="-1.42667">
        <ele>3</ele>
        <time>2023-07-16T14:02:04.060+00:00</time>
      </trkpt>
      <trkpt lat="46.20358" lon="-1.42674">
        <ele>3</ele>
        <time>2023-07-16T14:02:08.074+00:00</time>
      </trkpt>
      <trkpt lat="46.20334" lon="-1.42681">
        <ele>2</ele>
        <time>2023-07-16T14:02:13.107+00:00</time>
      </trkpt>
      <trkpt lat="46.20311" lon="-1.42692">
        <ele>2</ele>
        <time>2023-07-16T14:02:18.085+00:00</time>
      </trkpt>
      <trkpt lat="46.2029" lon="-1.42701">
        <ele>1</ele>
        <time>2023-07-16T14:02:23.081+00:00</time>
      </trkpt>
      <trkpt lat="46.20271" lon="-1.42706">
        <ele>1</ele>
        <time>2023-07-16T14:02:27.093+00:00</time>
      </trkpt>
      <trkpt lat="46.20248" lon="-1.42711">
        <ele>1</ele>
        <time>2023-07-16T14:02:32.073+00:00</time>
      </trkpt>
      <trkpt lat="46.20226" lon="-1.42708">
        <ele>2.6</ele>
        <time>2023-07-16T14:02:37.076+00:00</time>
      </trkpt>
      <trkpt lat="46.20211" lon="-1.42697">
        <ele>2.5</ele>
        <time>2023-07-16T14:02:41.083+00:00</time>
      </trkpt>
      <trkpt lat="46.20188" lon="-1.42693">
        <ele>1</ele>
        <time>2023-07-16T14:02:46.108+00:00</time>
      </trkpt>
      <trkpt lat="46.20167" lon="-1.42702">
        <ele>1</ele>
        <time>2023-07-16T14:02:51.074+00:00</time>
      </trkpt>
      <trkpt lat="46.20151" lon="-1.42717">
        <ele>2.4</ele>
        <time>2023-07-16T14:02:55.096+00:00</time>
      </trkpt>
      <trkpt lat="46.20138" lon="-1.42739">
        <ele>2.6</ele>
        <time>2023-07-16T14:03:00.099+00:00</time>
      </trkpt>
      <trkpt lat="46.2013" lon="-1.42761">
        <ele>2.7</ele>
        <time>2023-07-16T14:03:05.097+00:00</time>
      </trkpt>
      <trkpt lat="46.20114" lon="-1.42768">
        <ele>2.1</ele>
        <time>2023-07-16T14:03:09.103+00:00</time>
      </trkpt>
      <trkpt lat="46.2009" lon="-1.42765">
        <ele>-1</ele>
        <time>2023-07-16T14:03:14.063+00:00</time>
      </trkpt>
      <trkpt lat="46.20072" lon="-1.42764">
        <ele>-1</ele>
        <time>2023-07-16T14:03:18.090+00:00</time>
      </trkpt>
      <trkpt lat="46.20052" lon="-1.42762">
        <ele>-1</ele>
        <time>2023-07-16T14:03:23.097+00:00</time>
      </trkpt>
      <trkpt lat="46.20032" lon="-1.42758">
        <ele>-1</ele>
        <time>2023-07-16T14:03:28.094+00:00</time>
      </trkpt>
      <trkpt lat="46.20011" lon="-1.42751">
        <ele>2</ele>
        <time>2023-07-16T14:03:33.084+00:00</time>
      </trkpt>
      <trkpt lat="46.19994" lon="-1.42745">
        <ele>2</ele>
        <time>2023-07-16T14:03:37.087+00:00</time>
      </trkpt>
      <trkpt lat="46.19975" lon="-1.42739">
        <ele>2.4</ele>
        <time>2023-07-16T14:03:42.060+00:00</time>
      </trkpt>
      <trkpt lat="46.19961" lon="-1.42738">
        <ele>2.2</ele>
        <time>2023-07-16T14:03:45.764+00:00</time>
      </trkpt>
      <trkpt lat="46.19945" lon="-1.42742">
        <ele>2</ele>
        <time>2023-07-16T14:03:49.643+00:00</time>
      </trkpt>
      <trkpt lat="46.19922" lon="-1.42749">
        <ele>2</ele>
        <time>2023-07-16T14:03:55.096+00:00</time>
      </trkpt>
      <trkpt lat="46.19901" lon="-1.42747">
        <ele>-1</ele>
        <time>2023-07-16T14:04:00.022+00:00</time>
      </trkpt>
      <trkpt lat="46.19886" lon="-1.42748">
        <ele>-1</ele>
        <time>2023-07-16T14:04:03.901+00:00</time>
      </trkpt>
      <trkpt lat="46.1988" lon="-1.42743">
        <ele>-1</ele>
        <time>2023-07-16T14:04:08.479+00:00</time>
      </trkpt>
      <trkpt lat="46.1988" lon="-1.42732">
        <ele>2</ele>
        <time>2023-07-16T14:04:12.955+00:00</time>
      </trkpt>
      <trkpt lat="46.19882" lon="-1.42722">
        <ele>2</ele>
        <time>2023-07-16T14:04:16.877+00:00</time>
      </trkpt>
      <trkpt lat="46.19877" lon="-1.42708">
        <ele>1</ele>
        <time>2023-07-16T14:04:20.858+00:00</time>
      </trkpt>
      <trkpt lat="46.19871" lon="-1.42674">
        <ele>1</ele>
        <time>2023-07-16T14:04:26.067+00:00</time>
      </trkpt>
      <trkpt lat="46.19864" lon="-1.42645">
        <ele>1</ele>
        <time>2023-07-16T14:04:30.897+00:00</time>
      </trkpt>
      <trkpt lat="46.19853" lon="-1.42628">
        <ele>1</ele>
        <time>2023-07-16T14:04:36.014+00:00</time>
      </trkpt>
      <trkpt lat="46.19846" lon="-1.42623">
        <ele>1</ele>
        <time>2023-07-16T14:04:41.072+00:00</time>
      </trkpt>
      <trkpt lat="46.19846" lon="-1.42621">
        <ele>1</ele>
        <time>2023-07-16T14:04:45.092+00:00</time>
      </trkpt>
      <trkpt lat="46.19846" lon="-1.42617">
        <ele>1</ele>
        <time>2023-07-16T14:04:49.390+00:00</time>
      </trkpt>
      <trkpt lat="46.19838" lon="-1.42623">
        <ele>1</ele>
        <time>2023-07-16T14:04:53.741+00:00</time>
      </trkpt>
      <trkpt lat="46.1983" lon="-1.4262">
        <ele>1</ele>
        <time>2023-07-16T14:04:57.728+00:00</time>
      </trkpt>
      <trkpt lat="46.19835" lon="-1.4261">
        <ele>1</ele>
        <time>2023-07-16T14:05:01.687+00:00</time>
      </trkpt>
      <trkpt lat="46.19832" lon="-1.42602">
        <ele>1</ele>
        <time>2023-07-16T14:05:06.278+00:00</time>
      </trkpt>
      <trkpt lat="46.19822" lon="-1.4259">
        <ele>1</ele>
        <time>2023-07-16T14:05:10.805+00:00</time>
      </trkpt>
      <trkpt lat="46.19812" lon="-1.42577">
        <ele>1</ele>
        <time>2023-07-16T14:05:15.278+00:00</time>
      </trkpt>
      <trkpt lat="46.19803" lon="-1.42565">
        <ele>1</ele>
        <time>2023-07-16T14:05:19.278+00:00</time>
      </trkpt>
      <trkpt lat="46.19788" lon="-1.42544">
        <ele>2</ele>
        <time>2023-07-16T14:05:24.077+00:00</time>
      </trkpt>
      <trkpt lat="46.19774" lon="-1.42526">
        <ele>2</ele>
        <time>2023-07-16T14:05:28.330+00:00</time>
      </trkpt>
      <trkpt lat="46.19761" lon="-1.42509">
        <ele>3</ele>
        <time>2023-07-16T14:05:32.696+00:00</time>
      </trkpt>
      <trkpt lat="46.19748" lon="-1.42493">
        <ele>3</ele>
        <time>2023-07-16T14:05:37.235+00:00</time>
      </trkpt>
      <trkpt lat="46.19743" lon="-1.42484">
        <ele>3</ele>
        <time>2023-07-16T14:05:41.764+00:00</time>
      </trkpt>
      <trkpt lat="46.1975" lon="-1.42471">
        <ele>3</ele>
        <time>2023-07-16T14:05:46.223+00:00</time>
      </trkpt>
      <trkpt lat="46.1976" lon="-1.42451">
        <ele>4</ele>
        <time>2023-07-16T14:05:50.250+00:00</time>
      </trkpt>
      <trkpt lat="46.19767" lon="-1.42431">
        <ele>4</ele>
        <time>2023-07-16T14:05:54.808+00:00</time>
      </trkpt>
      <trkpt lat="46.19761" lon="-1.42419">
        <ele>4</ele>
        <time>2023-07-16T14:05:59.338+00:00</time>
      </trkpt>
      <trkpt lat="46.19747" lon="-1.424">
        <ele>4</ele>
        <time>2023-07-16T14:06:03.612+00:00</time>
      </trkpt>
      <trkpt lat="46.19732" lon="-1.42383">
        <ele>3</ele>
        <time>2023-07-16T14:06:08.228+00:00</time>
      </trkpt>
      <trkpt lat="46.1972" lon="-1.42369">
        <ele>3</ele>
        <time>2023-07-16T14:06:12.245+00:00</time>
      </trkpt>
      <trkpt lat="46.19704" lon="-1.4235">
        <ele>3</ele>
        <time>2023-07-16T14:06:17.263+00:00</time>
      </trkpt>
      <trkpt lat="46.19692" lon="-1.42327">
        <ele>3</ele>
        <time>2023-07-16T14:06:22.109+00:00</time>
      </trkpt>
      <trkpt lat="46.19681" lon="-1.42305">
        <ele>3</ele>
        <time>2023-07-16T14:06:26.688+00:00</time>
      </trkpt>
      <trkpt lat="46.1967" lon="-1.42286">
        <ele>4</ele>
        <time>2023-07-16T14:06:30.608+00:00</time>
      </trkpt>
      <trkpt lat="46.1966" lon="-1.42264">
        <ele>4</ele>
        <time>2023-07-16T14:06:34.988+00:00</time>
      </trkpt>
      <trkpt lat="46.19657" lon="-1.42249">
        <ele>4</ele>
        <time>2023-07-16T14:06:39.212+00:00</time>
      </trkpt>
      <trkpt lat="46.19653" lon="-1.42234">
        <ele>5</ele>
        <time>2023-07-16T14:06:43.583+00:00</time>
      </trkpt>
      <trkpt lat="46.19653" lon="-1.4223">
        <ele>5</ele>
        <time>2023-07-16T14:06:48.023+00:00</time>
      </trkpt>
      <trkpt lat="46.19655" lon="-1.42213">
        <ele>5</ele>
        <time>2023-07-16T14:06:52.025+00:00</time>
      </trkpt>
      <trkpt lat="46.19652" lon="-1.42185">
        <ele>4</ele>
        <time>2023-07-16T14:06:56.325+00:00</time>
      </trkpt>
      <trkpt lat="46.1965" lon="-1.42158">
        <ele>3</ele>
        <time>2023-07-16T14:07:00.187+00:00</time>
      </trkpt>
      <trkpt lat="46.19646" lon="-1.42135">
        <ele>2</ele>
        <time>2023-07-16T14:07:04.567+00:00</time>
      </trkpt>
      <trkpt lat="46.19644" lon="-1.42113">
        <ele>2</ele>
        <time>2023-07-16T14:07:09.007+00:00</time>
      </trkpt>
      <trkpt lat="46.19639" lon="-1.4209">
        <ele>1</ele>
        <time>2023-07-16T14:07:13.509+00:00</time>
      </trkpt>
      <trkpt lat="46.19634" lon="-1.42065">
        <ele>1</ele>
        <time>2023-07-16T14:07:18.008+00:00</time>
      </trkpt>
      <trkpt lat="46.19628" lon="-1.42041">
        <ele>2</ele>
        <time>2023-07-16T14:07:23.080+00:00</time>
      </trkpt>
      <trkpt lat="46.19621" lon="-1.42018">
        <ele>2</ele>
        <time>2023-07-16T14:07:27.566+00:00</time>
      </trkpt>
      <trkpt lat="46.19616" lon="-1.41995">
        <ele>3</ele>
        <time>2023-07-16T14:07:32.079+00:00</time>
      </trkpt>
      <trkpt lat="46.1961" lon="-1.41985">
        <ele>3</ele>
        <time>2023-07-16T14:07:36.645+00:00</time>
      </trkpt>
      <trkpt lat="46.19597" lon="-1.41992">
        <ele>2</ele>
        <time>2023-07-16T14:07:41.904+00:00</time>
      </trkpt>
      <trkpt lat="46.19585" lon="-1.42006">
        <ele>2</ele>
        <time>2023-07-16T14:07:46.307+00:00</time>
      </trkpt>
      <trkpt lat="46.19574" lon="-1.42018">
        <ele>2</ele>
        <time>2023-07-16T14:07:50.826+00:00</time>
      </trkpt>
      <trkpt lat="46.19562" lon="-1.4204">
        <ele>3</ele>
        <time>2023-07-16T14:07:55.885+00:00</time>
      </trkpt>
      <trkpt lat="46.19551" lon="-1.42058">
        <ele>3</ele>
        <time>2023-07-16T14:08:00.985+00:00</time>
      </trkpt>
      <trkpt lat="46.19543" lon="-1.42058">
        <ele>3</ele>
        <time>2023-07-16T14:08:06.003+00:00</time>
      </trkpt>
      <trkpt lat="46.19544" lon="-1.42057">
        <ele>3</ele>
        <time>2023-07-16T14:10:13.181+00:00</time>
      </trkpt>
      <trkpt lat="46.19545" lon="-1.42057">
        <ele>3</ele>
        <time>2023-07-16T14:10:17.262+00:00</time>
      </trkpt>
      <trkpt lat="46.19546" lon="-1.42058">
        <ele>3</ele>
        <time>2023-07-16T14:10:21.183+00:00</time>
      </trkpt>
      <trkpt lat="46.19545" lon="-1.42067">
        <ele>3</ele>
        <time>2023-07-16T14:10:25.885+00:00</time>
      </trkpt>
      <trkpt lat="46.19535" lon="-1.42083">
        <ele>2</ele>
        <time>2023-07-16T14:10:30.146+00:00</time>
      </trkpt>
      <trkpt lat="46.19528" lon="-1.42104">
        <ele>1</ele>
        <time>2023-07-16T14:10:34.586+00:00</time>
      </trkpt>
      <trkpt lat="46.19522" lon="-1.42119">
        <ele>1</ele>
        <time>2023-07-16T14:10:40.081+00:00</time>
      </trkpt>
      <trkpt lat="46.19516" lon="-1.42135">
        <ele>2</ele>
        <time>2023-07-16T14:10:44.784+00:00</time>
      </trkpt>
      <trkpt lat="46.19509" lon="-1.42152">
        <ele>1</ele>
        <time>2023-07-16T14:10:49.818+00:00</time>
      </trkpt>
      <trkpt lat="46.19502" lon="-1.42164">
        <ele>2</ele>
        <time>2023-07-16T14:10:54.357+00:00</time>
      </trkpt>
      <trkpt lat="46.19498" lon="-1.42174">
        <ele>2</ele>
        <time>2023-07-16T14:10:58.307+00:00</time>
      </trkpt>
      <trkpt lat="46.19494" lon="-1.42184">
        <ele>2</ele>
        <time>2023-07-16T14:11:02.678+00:00</time>
      </trkpt>
      <trkpt lat="46.19493" lon="-1.42197">
        <ele>2</ele>
        <time>2023-07-16T14:11:06.796+00:00</time>
      </trkpt>
      <trkpt lat="46.1949" lon="-1.42215">
        <ele>3</ele>
        <time>2023-07-16T14:11:11.895+00:00</time>
      </trkpt>
      <trkpt lat="46.19488" lon="-1.42229">
        <ele>3</ele>
        <time>2023-07-16T14:11:16.514+00:00</time>
      </trkpt>
      <trkpt lat="46.19483" lon="-1.42248">
        <ele>3</ele>
        <time>2023-07-16T14:11:21.090+00:00</time>
      </trkpt>
      <trkpt lat="46.19479" lon="-1.42264">
        <ele>4</ele>
        <time>2023-07-16T14:11:25.587+00:00</time>
      </trkpt>
      <trkpt lat="46.19475" lon="-1.42279">
        <ele>4</ele>
        <time>2023-07-16T14:11:29.604+00:00</time>
      </trkpt>
      <trkpt lat="46.19471" lon="-1.42294">
        <ele>5</ele>
        <time>2023-07-16T14:11:33.621+00:00</time>
      </trkpt>
      <trkpt lat="46.19463" lon="-1.42315">
        <ele>5</ele>
        <time>2023-07-16T14:11:38.619+00:00</time>
      </trkpt>
      <trkpt lat="46.19456" lon="-1.42333">
        <ele>5</ele>
        <time>2023-07-16T14:11:42.307+00:00</time>
      </trkpt>
      <trkpt lat="46.19451" lon="-1.42351">
        <ele>5</ele>
        <time>2023-07-16T14:11:47.202+00:00</time>
      </trkpt>
      <trkpt lat="46.19446" lon="-1.42366">
        <ele>5</ele>
        <time>2023-07-16T14:11:51.680+00:00</time>
      </trkpt>
      <trkpt lat="46.19441" lon="-1.42379">
        <ele>5</ele>
        <time>2023-07-16T14:11:55.738+00:00</time>
      </trkpt>
      <trkpt lat="46.19437" lon="-1.42391">
        <ele>5</ele>
        <time>2023-07-16T14:11:59.578+00:00</time>
      </trkpt>
      <trkpt lat="46.19432" lon="-1.42393">
        <ele>5</ele>
        <time>2023-07-16T14:12:04.077+00:00</time>
      </trkpt>
      <trkpt lat="46.19423" lon="-1.4239">
        <ele>4</ele>
        <time>2023-07-16T14:12:08.555+00:00</time>
      </trkpt>
      <trkpt lat="46.19413" lon="-1.42388">
        <ele>4</ele>
        <time>2023-07-16T14:12:12.435+00:00</time>
      </trkpt>
      <trkpt lat="46.19405" lon="-1.42387">
        <ele>4</ele>
        <time>2023-07-16T14:12:16.835+00:00</time>
      </trkpt>
      <trkpt lat="46.19397" lon="-1.42383">
        <ele>3</ele>
        <time>2023-07-16T14:12:21.974+00:00</time>
      </trkpt>
      <trkpt lat="46.1939" lon="-1.42385">
        <ele>3</ele>
        <time>2023-07-16T14:12:26.638+00:00</time>
      </trkpt>
      <trkpt lat="46.19392" lon="-1.42403">
        <ele>4</ele>
        <time>2023-07-16T14:12:30.454+00:00</time>
      </trkpt>
      <trkpt lat="46.19395" lon="-1.42417">
        <ele>4</ele>
        <time>2023-07-16T14:12:34.918+00:00</time>
      </trkpt>
      <trkpt lat="46.19401" lon="-1.42441">
        <ele>4</ele>
        <time>2023-07-16T14:14:15.641+00:00</time>
      </trkpt>
      <trkpt lat="46.19401" lon="-1.42441">
        <ele>4</ele>
        <time>2023-07-16T14:14:19.653+00:00</time>
      </trkpt>
      <trkpt lat="46.19401" lon="-1.42442">
        <ele>4</ele>
        <time>2023-07-16T14:14:24.167+00:00</time>
      </trkpt>
      <trkpt lat="46.19403" lon="-1.42445">
        <ele>4</ele>
        <time>2023-07-16T14:14:28.782+00:00</time>
      </trkpt>
      <trkpt lat="46.19408" lon="-1.42452">
        <ele>4</ele>
        <time>2023-07-16T14:14:32.794+00:00</time>
      </trkpt>
      <trkpt lat="46.1941" lon="-1.42458">
        <ele>4</ele>
        <time>2023-07-16T14:14:36.805+00:00</time>
      </trkpt>
      <trkpt lat="46.19412" lon="-1.42468">
        <ele>5</ele>
        <time>2023-07-16T14:14:41.418+00:00</time>
      </trkpt>
      <trkpt lat="46.19412" lon="-1.42476">
        <ele>5</ele>
        <time>2023-07-16T14:14:45.949+00:00</time>
      </trkpt>
      <trkpt lat="46.19412" lon="-1.42486">
        <ele>5</ele>
        <time>2023-07-16T14:14:49.977+00:00</time>
      </trkpt>
      <trkpt lat="46.19406" lon="-1.4249">
        <ele>5</ele>
        <time>2023-07-16T14:15:26.037+00:00</time>
      </trkpt>
      <trkpt lat="46.19404" lon="-1.42491">
        <ele>5</ele>
        <time>2023-07-16T14:15:30.696+00:00</time>
      </trkpt>
      <trkpt lat="46.19403" lon="-1.42493">
        <ele>5</ele>
        <time>2023-07-16T14:15:34.708+00:00</time>
      </trkpt>
      <trkpt lat="46.19401" lon="-1.42494">
        <ele>6</ele>
        <time>2023-07-16T14:15:39.721+00:00</time>
      </trkpt>
      <trkpt lat="46.19399" lon="-1.42494">
        <ele>6</ele>
        <time>2023-07-16T14:15:44.047+00:00</time>
      </trkpt>
      <trkpt lat="46.19396" lon="-1.4249">
        <ele>6</ele>
        <time>2023-07-16T14:16:12.068+00:00</time>
      </trkpt>
      <trkpt lat="46.19398" lon="-1.42494">
        <ele>6</ele>
        <time>2023-07-16T14:16:17.076+00:00</time>
      </trkpt>
      <trkpt lat="46.19401" lon="-1.42489">
        <ele>6</ele>
        <time>2023-07-16T14:16:22.076+00:00</time>
      </trkpt>
      <trkpt lat="46.19404" lon="-1.42476">
        <ele>5</ele>
        <time>2023-07-16T14:16:27.052+00:00</time>
      </trkpt>
      <trkpt lat="46.19405" lon="-1.42475">
        <ele>5</ele>
        <time>2023-07-16T14:16:28.042+00:00</time>
      </trkpt>
      <trkpt lat="46.19408" lon="-1.42474">
        <ele>5</ele>
        <time>2023-07-16T14:16:36.720+00:00</time>
      </trkpt>
      <trkpt lat="46.19411" lon="-1.42475">
        <ele>5</ele>
        <time>2023-07-16T14:16:40.749+00:00</time>
      </trkpt>
      <trkpt lat="46.19412" lon="-1.42468">
        <ele>5</ele>
        <time>2023-07-16T14:16:45.264+00:00</time>
      </trkpt>
      <trkpt lat="46.1941" lon="-1.42455">
        <ele>4</ele>
        <time>2023-07-16T14:16:49.779+00:00</time>
      </trkpt>
      <trkpt lat="46.19408" lon="-1.42452">
        <ele>4</ele>
        <time>2023-07-16T14:16:53.793+00:00</time>
      </trkpt>
      <trkpt lat="46.19403" lon="-1.42442">
        <ele>4</ele>
        <time>2023-07-16T14:16:57.805+00:00</time>
      </trkpt>
      <trkpt lat="46.19401" lon="-1.42439">
        <ele>4</ele>
        <time>2023-07-16T14:17:03.020+00:00</time>
      </trkpt>
      <trkpt lat="46.19401" lon="-1.42439">
        <ele>4</ele>
        <time>2023-07-16T14:17:08.036+00:00</time>
      </trkpt>
      <trkpt lat="46.19403" lon="-1.4244">
        <ele>4</ele>
        <time>2023-07-16T14:17:54.686+00:00</time>
      </trkpt>
      <trkpt lat="46.19401" lon="-1.42436">
        <ele>4</ele>
        <time>2023-07-16T14:17:59.696+00:00</time>
      </trkpt>
      <trkpt lat="46.19402" lon="-1.42429">
        <ele>4</ele>
        <time>2023-07-16T14:18:03.704+00:00</time>
      </trkpt>
      <trkpt lat="46.194" lon="-1.42416">
        <ele>4</ele>
        <time>2023-07-16T14:18:08.210+00:00</time>
      </trkpt>
      <trkpt lat="46.19391" lon="-1.42399">
        <ele>3</ele>
        <time>2023-07-16T14:18:12.718+00:00</time>
      </trkpt>
      <trkpt lat="46.19384" lon="-1.42384">
        <ele>3</ele>
        <time>2023-07-16T14:18:16.725+00:00</time>
      </trkpt>
      <trkpt lat="46.19379" lon="-1.42367">
        <ele>3</ele>
        <time>2023-07-16T14:18:21.732+00:00</time>
      </trkpt>
      <trkpt lat="46.19377" lon="-1.42348">
        <ele>3</ele>
        <time>2023-07-16T14:18:26.047+00:00</time>
      </trkpt>
      <trkpt lat="46.19375" lon="-1.42323">
        <ele>3</ele>
        <time>2023-07-16T14:18:30.741+00:00</time>
      </trkpt>
      <trkpt lat="46.19366" lon="-1.4229">
        <ele>4</ele>
        <time>2023-07-16T14:18:36.046+00:00</time>
      </trkpt>
      <trkpt lat="46.19359" lon="-1.42264">
        <ele>4</ele>
        <time>2023-07-16T14:18:40.046+00:00</time>
      </trkpt>
      <trkpt lat="46.19353" lon="-1.42237">
        <ele>4</ele>
        <time>2023-07-16T14:18:44.577+00:00</time>
      </trkpt>
      <trkpt lat="46.19347" lon="-1.42209">
        <ele>3</ele>
        <time>2023-07-16T14:18:49.083+00:00</time>
      </trkpt>
      <trkpt lat="46.19342" lon="-1.42183">
        <ele>4</ele>
        <time>2023-07-16T14:18:53.589+00:00</time>
      </trkpt>
      <trkpt lat="46.19339" lon="-1.42159">
        <ele>4</ele>
        <time>2023-07-16T14:18:58.594+00:00</time>
      </trkpt>
      <trkpt lat="46.19341" lon="-1.4213">
        <ele>3</ele>
        <time>2023-07-16T14:19:03.600+00:00</time>
      </trkpt>
      <trkpt lat="46.19342" lon="-1.421">
        <ele>3</ele>
        <time>2023-07-16T14:19:08.604+00:00</time>
      </trkpt>
      <trkpt lat="46.19343" lon="-1.42075">
        <ele>2</ele>
        <time>2023-07-16T14:19:12.706+00:00</time>
      </trkpt>
      <trkpt lat="46.19347" lon="-1.4205">
        <ele>2</ele>
        <time>2023-07-16T14:19:17.211+00:00</time>
      </trkpt>
      <trkpt lat="46.19348" lon="-1.42026">
        <ele>2</ele>
        <time>2023-07-16T14:19:21.713+00:00</time>
      </trkpt>
      <trkpt lat="46.19344" lon="-1.41999">
        <ele>1</ele>
        <time>2023-07-16T14:19:26.216+00:00</time>
      </trkpt>
      <trkpt lat="46.19353" lon="-1.41978">
        <ele>3</ele>
        <time>2023-07-16T14:19:30.719+00:00</time>
      </trkpt>
      <trkpt lat="46.19358" lon="-1.41961">
        <ele>3</ele>
        <time>2023-07-16T14:19:34.723+00:00</time>
      </trkpt>
      <trkpt lat="46.19368" lon="-1.41947">
        <ele>4</ele>
        <time>2023-07-16T14:19:39.828+00:00</time>
      </trkpt>
      <trkpt lat="46.19377" lon="-1.41927">
        <ele>3</ele>
        <time>2023-07-16T14:19:43.831+00:00</time>
      </trkpt>
      <trkpt lat="46.19391" lon="-1.41902">
        <ele>2</ele>
        <time>2023-07-16T14:19:48.075+00:00</time>
      </trkpt>
      <trkpt lat="46.19405" lon="-1.41874">
        <ele>2</ele>
        <time>2023-07-16T14:19:53.086+00:00</time>
      </trkpt>
      <trkpt lat="46.19417" lon="-1.41843">
        <ele>2</ele>
        <time>2023-07-16T14:19:58.047+00:00</time>
      </trkpt>
      <trkpt lat="46.19422" lon="-1.4182">
        <ele>2</ele>
        <time>2023-07-16T14:20:01.735+00:00</time>
      </trkpt>
      <trkpt lat="46.19422" lon="-1.41796">
        <ele>3</ele>
        <time>2023-07-16T14:20:05.896+00:00</time>
      </trkpt>
      <trkpt lat="46.19418" lon="-1.41764">
        <ele>3</ele>
        <time>2023-07-16T14:20:10.916+00:00</time>
      </trkpt>
      <trkpt lat="46.19413" lon="-1.41737">
        <ele>2</ele>
        <time>2023-07-16T14:20:15.157+00:00</time>
      </trkpt>
      <trkpt lat="46.19408" lon="-1.41709">
        <ele>2</ele>
        <time>2023-07-16T14:20:19.918+00:00</time>
      </trkpt>
      <trkpt lat="46.19399" lon="-1.41688">
        <ele>1</ele>
        <time>2023-07-16T14:20:24.019+00:00</time>
      </trkpt>
      <trkpt lat="46.19387" lon="-1.41664">
        <ele>1</ele>
        <time>2023-07-16T14:20:29.064+00:00</time>
      </trkpt>
      <trkpt lat="46.19379" lon="-1.41644">
        <ele>1</ele>
        <time>2023-07-16T14:20:32.784+00:00</time>
      </trkpt>
      <trkpt lat="46.19374" lon="-1.4162">
        <ele>1</ele>
        <time>2023-07-16T14:20:36.783+00:00</time>
      </trkpt>
      <trkpt lat="46.19371" lon="-1.41589">
        <ele>2</ele>
        <time>2023-07-16T14:20:41.940+00:00</time>
      </trkpt>
      <trkpt lat="46.19369" lon="-1.41565">
        <ele>2</ele>
        <time>2023-07-16T14:20:46.082+00:00</time>
      </trkpt>
      <trkpt lat="46.19367" lon="-1.41533">
        <ele>2</ele>
        <time>2023-07-16T14:20:51.061+00:00</time>
      </trkpt>
      <trkpt lat="46.19364" lon="-1.41509">
        <ele>1</ele>
        <time>2023-07-16T14:20:55.084+00:00</time>
      </trkpt>
      <trkpt lat="46.19359" lon="-1.41485">
        <ele>1</ele>
        <time>2023-07-16T14:20:59.111+00:00</time>
      </trkpt>
      <trkpt lat="46.19351" lon="-1.41452">
        <ele>1</ele>
        <time>2023-07-16T14:21:04.082+00:00</time>
      </trkpt>
      <trkpt lat="46.19345" lon="-1.41426">
        <ele>2</ele>
        <time>2023-07-16T14:21:08.079+00:00</time>
      </trkpt>
      <trkpt lat="46.19341" lon="-1.41398">
        <ele>2</ele>
        <time>2023-07-16T14:21:12.095+00:00</time>
      </trkpt>
      <trkpt lat="46.19341" lon="-1.41365">
        <ele>2</ele>
        <time>2023-07-16T14:21:17.080+00:00</time>
      </trkpt>
      <trkpt lat="46.19346" lon="-1.41339">
        <ele>2</ele>
        <time>2023-07-16T14:21:21.080+00:00</time>
      </trkpt>
      <trkpt lat="46.19359" lon="-1.41311">
        <ele>-1</ele>
        <time>2023-07-16T14:21:26.073+00:00</time>
      </trkpt>
      <trkpt lat="46.19373" lon="-1.41282">
        <ele>-1</ele>
        <time>2023-07-16T14:21:31.096+00:00</time>
      </trkpt>
      <trkpt lat="46.1938" lon="-1.4125">
        <ele>2</ele>
        <time>2023-07-16T14:21:36.088+00:00</time>
      </trkpt>
      <trkpt lat="46.19385" lon="-1.41216">
        <ele>2</ele>
        <time>2023-07-16T14:21:41.099+00:00</time>
      </trkpt>
      <trkpt lat="46.19387" lon="-1.41184">
        <ele>2</ele>
        <time>2023-07-16T14:21:46.098+00:00</time>
      </trkpt>
      <trkpt lat="46.19393" lon="-1.41155">
        <ele>-1</ele>
        <time>2023-07-16T14:21:51.086+00:00</time>
      </trkpt>
      <trkpt lat="46.194" lon="-1.41133">
        <ele>-1</ele>
        <time>2023-07-16T14:21:55.061+00:00</time>
      </trkpt>
      <trkpt lat="46.19407" lon="-1.41107">
        <ele>2</ele>
        <time>2023-07-16T14:22:00.055+00:00</time>
      </trkpt>
      <trkpt lat="46.19412" lon="-1.41084">
        <ele>2</ele>
        <time>2023-07-16T14:22:04.070+00:00</time>
      </trkpt>
      <trkpt lat="46.19416" lon="-1.41062">
        <ele>2</ele>
        <time>2023-07-16T14:22:08.063+00:00</time>
      </trkpt>
      <trkpt lat="46.19413" lon="-1.41037">
        <ele>2</ele>
        <time>2023-07-16T14:22:13.078+00:00</time>
      </trkpt>
      <trkpt lat="46.19408" lon="-1.41016">
        <ele>2</ele>
        <time>2023-07-16T14:22:17.675+00:00</time>
      </trkpt>
      <trkpt lat="46.19403" lon="-1.40996">
        <ele>2</ele>
        <time>2023-07-16T14:22:23.061+00:00</time>
      </trkpt>
      <trkpt lat="46.19399" lon="-1.40977">
        <ele>-1</ele>
        <time>2023-07-16T14:22:27.805+00:00</time>
      </trkpt>
      <trkpt lat="46.19393" lon="-1.40955">
        <ele>-2</ele>
        <time>2023-07-16T14:22:33.063+00:00</time>
      </trkpt>
      <trkpt lat="46.19388" lon="-1.40933">
        <ele>-2</ele>
        <time>2023-07-16T14:22:38.058+00:00</time>
      </trkpt>
      <trkpt lat="46.19382" lon="-1.40907">
        <ele>-2</ele>
        <time>2023-07-16T14:22:43.060+00:00</time>
      </trkpt>
      <trkpt lat="46.19376" lon="-1.40881">
        <ele>-1</ele>
        <time>2023-07-16T14:22:48.062+00:00</time>
      </trkpt>
      <trkpt lat="46.1937" lon="-1.40849">
        <ele>2</ele>
        <time>2023-07-16T14:22:53.060+00:00</time>
      </trkpt>
      <trkpt lat="46.19363" lon="-1.4082">
        <ele>1</ele>
        <time>2023-07-16T14:22:58.055+00:00</time>
      </trkpt>
      <trkpt lat="46.19356" lon="-1.40795">
        <ele>2</ele>
        <time>2023-07-16T14:23:02.863+00:00</time>
      </trkpt>
      <trkpt lat="46.19348" lon="-1.40769">
        <ele>1</ele>
        <time>2023-07-16T14:23:07.057+00:00</time>
      </trkpt>
      <trkpt lat="46.1934" lon="-1.40745">
        <ele>1</ele>
        <time>2023-07-16T14:23:11.187+00:00</time>
      </trkpt>
      <trkpt lat="46.19334" lon="-1.40716">
        <ele>1</ele>
        <time>2023-07-16T14:23:15.676+00:00</time>
      </trkpt>
      <trkpt lat="46.19327" lon="-1.40685">
        <ele>2.5</ele>
        <time>2023-07-16T14:23:21.075+00:00</time>
      </trkpt>
      <trkpt lat="46.19319" lon="-1.40651">
        <ele>1</ele>
        <time>2023-07-16T14:23:26.083+00:00</time>
      </trkpt>
      <trkpt lat="46.19315" lon="-1.40616">
        <ele>2</ele>
        <time>2023-07-16T14:23:31.066+00:00</time>
      </trkpt>
      <trkpt lat="46.19306" lon="-1.4058">
        <ele>2</ele>
        <time>2023-07-16T14:23:36.045+00:00</time>
      </trkpt>
      <trkpt lat="46.19299" lon="-1.4055">
        <ele>1</ele>
        <time>2023-07-16T14:23:40.045+00:00</time>
      </trkpt>
      <trkpt lat="46.19289" lon="-1.40513">
        <ele>1</ele>
        <time>2023-07-16T14:23:45.050+00:00</time>
      </trkpt>
      <trkpt lat="46.19283" lon="-1.40488">
        <ele>1</ele>
        <time>2023-07-16T14:23:49.065+00:00</time>
      </trkpt>
      <trkpt lat="46.19277" lon="-1.40465">
        <ele>1</ele>
        <time>2023-07-16T14:23:54.047+00:00</time>
      </trkpt>
      <trkpt lat="46.19274" lon="-1.40449">
        <ele>2</ele>
        <time>2023-07-16T14:23:57.839+00:00</time>
      </trkpt>
      <trkpt lat="46.19266" lon="-1.40419">
        <ele>2</ele>
        <time>2023-07-16T14:24:02.096+00:00</time>
      </trkpt>
      <trkpt lat="46.19256" lon="-1.40381">
        <ele>3</ele>
        <time>2023-07-16T14:24:07.090+00:00</time>
      </trkpt>
      <trkpt lat="46.19247" lon="-1.40346">
        <ele>3</ele>
        <time>2023-07-16T14:24:12.097+00:00</time>
      </trkpt>
      <trkpt lat="46.19238" lon="-1.40315">
        <ele>2</ele>
        <time>2023-07-16T14:24:17.081+00:00</time>
      </trkpt>
      <trkpt lat="46.19231" lon="-1.40286">
        <ele>1</ele>
        <time>2023-07-16T14:24:22.061+00:00</time>
      </trkpt>
      <trkpt lat="46.19222" lon="-1.4025">
        <ele>1</ele>
        <time>2023-07-16T14:24:27.082+00:00</time>
      </trkpt>
      <trkpt lat="46.19214" lon="-1.40221">
        <ele>1</ele>
        <time>2023-07-16T14:24:32.085+00:00</time>
      </trkpt>
      <trkpt lat="46.19207" lon="-1.40191">
        <ele>4</ele>
        <time>2023-07-16T14:24:36.103+00:00</time>
      </trkpt>
      <trkpt lat="46.19198" lon="-1.40157">
        <ele>1</ele>
        <time>2023-07-16T14:24:41.059+00:00</time>
      </trkpt>
      <trkpt lat="46.1919" lon="-1.40126">
        <ele>2</ele>
        <time>2023-07-16T14:24:46.068+00:00</time>
      </trkpt>
      <trkpt lat="46.19184" lon="-1.401">
        <ele>3</ele>
        <time>2023-07-16T14:24:50.075+00:00</time>
      </trkpt>
      <trkpt lat="46.19177" lon="-1.40074">
        <ele>2</ele>
        <time>2023-07-16T14:24:54.084+00:00</time>
      </trkpt>
      <trkpt lat="46.19169" lon="-1.40048">
        <ele>1</ele>
        <time>2023-07-16T14:24:58.106+00:00</time>
      </trkpt>
      <trkpt lat="46.1916" lon="-1.40015">
        <ele>4</ele>
        <time>2023-07-16T14:25:03.074+00:00</time>
      </trkpt>
      <trkpt lat="46.19153" lon="-1.39988">
        <ele>1</ele>
        <time>2023-07-16T14:25:07.091+00:00</time>
      </trkpt>
      <trkpt lat="46.19143" lon="-1.39957">
        <ele>1</ele>
        <time>2023-07-16T14:25:12.051+00:00</time>
      </trkpt>
      <trkpt lat="46.19135" lon="-1.3993">
        <ele>1</ele>
        <time>2023-07-16T14:25:16.090+00:00</time>
      </trkpt>
      <trkpt lat="46.19125" lon="-1.39899">
        <ele>2</ele>
        <time>2023-07-16T14:25:21.078+00:00</time>
      </trkpt>
      <trkpt lat="46.19117" lon="-1.39874">
        <ele>2</ele>
        <time>2023-07-16T14:25:25.110+00:00</time>
      </trkpt>
      <trkpt lat="46.19106" lon="-1.39844">
        <ele>2</ele>
        <time>2023-07-16T14:25:30.099+00:00</time>
      </trkpt>
      <trkpt lat="46.19098" lon="-1.39819">
        <ele>3</ele>
        <time>2023-07-16T14:25:34.073+00:00</time>
      </trkpt>
      <trkpt lat="46.1909" lon="-1.39797">
        <ele>3</ele>
        <time>2023-07-16T14:25:38.097+00:00</time>
      </trkpt>
      <trkpt lat="46.19079" lon="-1.39764">
        <ele>4</ele>
        <time>2023-07-16T14:25:43.081+00:00</time>
      </trkpt>
      <trkpt lat="46.19067" lon="-1.3973">
        <ele>3</ele>
        <time>2023-07-16T14:25:48.083+00:00</time>
      </trkpt>
      <trkpt lat="46.19054" lon="-1.39699">
        <ele>3</ele>
        <time>2023-07-16T14:25:53.079+00:00</time>
      </trkpt>
      <trkpt lat="46.19047" lon="-1.39673">
        <ele>3</ele>
        <time>2023-07-16T14:25:57.101+00:00</time>
      </trkpt>
      <trkpt lat="46.19038" lon="-1.3965">
        <ele>3</ele>
        <time>2023-07-16T14:26:01.101+00:00</time>
      </trkpt>
      <trkpt lat="46.19029" lon="-1.3962">
        <ele>3</ele>
        <time>2023-07-16T14:26:06.050+00:00</time>
      </trkpt>
      <trkpt lat="46.19023" lon="-1.39598">
        <ele>3</ele>
        <time>2023-07-16T14:26:10.089+00:00</time>
      </trkpt>
      <trkpt lat="46.1901" lon="-1.39564">
        <ele>3</ele>
        <time>2023-07-16T14:26:15.084+00:00</time>
      </trkpt>
      <trkpt lat="46.18998" lon="-1.3954">
        <ele>4</ele>
        <time>2023-07-16T14:26:19.098+00:00</time>
      </trkpt>
      <trkpt lat="46.18985" lon="-1.3951">
        <ele>4</ele>
        <time>2023-07-16T14:26:24.072+00:00</time>
      </trkpt>
      <trkpt lat="46.18977" lon="-1.39487">
        <ele>4</ele>
        <time>2023-07-16T14:26:28.081+00:00</time>
      </trkpt>
      <trkpt lat="46.18973" lon="-1.39468">
        <ele>4</ele>
        <time>2023-07-16T14:26:32.746+00:00</time>
      </trkpt>
      <trkpt lat="46.1897" lon="-1.39441">
        <ele>4</ele>
        <time>2023-07-16T14:26:37.403+00:00</time>
      </trkpt>
      <trkpt lat="46.18966" lon="-1.3941">
        <ele>4</ele>
        <time>2023-07-16T14:26:42.085+00:00</time>
      </trkpt>
      <trkpt lat="46.18962" lon="-1.39374">
        <ele>4</ele>
        <time>2023-07-16T14:26:47.096+00:00</time>
      </trkpt>
      <trkpt lat="46.1896" lon="-1.39348">
        <ele>4</ele>
        <time>2023-07-16T14:26:51.090+00:00</time>
      </trkpt>
      <trkpt lat="46.18959" lon="-1.39324">
        <ele>5</ele>
        <time>2023-07-16T14:26:55.054+00:00</time>
      </trkpt>
      <trkpt lat="46.18961" lon="-1.39288">
        <ele>7</ele>
        <time>2023-07-16T14:27:00.064+00:00</time>
      </trkpt>
      <trkpt lat="46.18961" lon="-1.39258">
        <ele>7</ele>
        <time>2023-07-16T14:27:04.094+00:00</time>
      </trkpt>
      <trkpt lat="46.18964" lon="-1.39221">
        <ele>6</ele>
        <time>2023-07-16T14:27:09.081+00:00</time>
      </trkpt>
      <trkpt lat="46.18968" lon="-1.39186">
        <ele>5</ele>
        <time>2023-07-16T14:27:14.062+00:00</time>
      </trkpt>
      <trkpt lat="46.18971" lon="-1.39158">
        <ele>4</ele>
        <time>2023-07-16T14:27:18.083+00:00</time>
      </trkpt>
      <trkpt lat="46.18978" lon="-1.39125">
        <ele>4</ele>
        <time>2023-07-16T14:27:23.086+00:00</time>
      </trkpt>
      <trkpt lat="46.18985" lon="-1.39099">
        <ele>4</ele>
        <time>2023-07-16T14:27:27.094+00:00</time>
      </trkpt>
      <trkpt lat="46.1899" lon="-1.39064">
        <ele>6</ele>
        <time>2023-07-16T14:27:32.083+00:00</time>
      </trkpt>
      <trkpt lat="46.18996" lon="-1.39029">
        <ele>7</ele>
        <time>2023-07-16T14:27:37.062+00:00</time>
      </trkpt>
      <trkpt lat="46.18999" lon="-1.39002">
        <ele>6</ele>
        <time>2023-07-16T14:27:41.085+00:00</time>
      </trkpt>
      <trkpt lat="46.19001" lon="-1.38974">
        <ele>6</ele>
        <time>2023-07-16T14:27:45.076+00:00</time>
      </trkpt>
      <trkpt lat="46.19011" lon="-1.38948">
        <ele>5</ele>
        <time>2023-07-16T14:27:50.072+00:00</time>
      </trkpt>
      <trkpt lat="46.19016" lon="-1.38921">
        <ele>6</ele>
        <time>2023-07-16T14:27:54.072+00:00</time>
      </trkpt>
      <trkpt lat="46.19014" lon="-1.38892">
        <ele>7</ele>
        <time>2023-07-16T14:27:58.873+00:00</time>
      </trkpt>
      <trkpt lat="46.19013" lon="-1.38872">
        <ele>8</ele>
        <time>2023-07-16T14:28:03.065+00:00</time>
      </trkpt>
      <trkpt lat="46.19011" lon="-1.38855">
        <ele>8</ele>
        <time>2023-07-16T14:28:06.958+00:00</time>
      </trkpt>
      <trkpt lat="46.19002" lon="-1.38823">
        <ele>8</ele>
        <time>2023-07-16T14:28:12.071+00:00</time>
      </trkpt>
      <trkpt lat="46.18997" lon="-1.38784">
        <ele>6</ele>
        <time>2023-07-16T14:28:17.083+00:00</time>
      </trkpt>
      <trkpt lat="46.18991" lon="-1.38747">
        <ele>5</ele>
        <time>2023-07-16T14:28:22.082+00:00</time>
      </trkpt>
      <trkpt lat="46.18986" lon="-1.3872">
        <ele>5</ele>
        <time>2023-07-16T14:28:26.089+00:00</time>
      </trkpt>
      <trkpt lat="46.18979" lon="-1.38691">
        <ele>5</ele>
        <time>2023-07-16T14:28:31.095+00:00</time>
      </trkpt>
      <trkpt lat="46.18974" lon="-1.38664">
        <ele>6</ele>
        <time>2023-07-16T14:28:35.834+00:00</time>
      </trkpt>
      <trkpt lat="46.18968" lon="-1.38645">
        <ele>6</ele>
        <time>2023-07-16T14:28:39.805+00:00</time>
      </trkpt>
      <trkpt lat="46.18959" lon="-1.38615">
        <ele>6</ele>
        <time>2023-07-16T14:28:45.102+00:00</time>
      </trkpt>
      <trkpt lat="46.18954" lon="-1.38599">
        <ele>7</ele>
        <time>2023-07-16T14:28:49.826+00:00</time>
      </trkpt>
      <trkpt lat="46.18948" lon="-1.3858">
        <ele>6</ele>
        <time>2023-07-16T14:28:54.280+00:00</time>
      </trkpt>
      <trkpt lat="46.18938" lon="-1.38559">
        <ele>6</ele>
        <time>2023-07-16T14:28:58.235+00:00</time>
      </trkpt>
      <trkpt lat="46.1893" lon="-1.38542">
        <ele>6</ele>
        <time>2023-07-16T14:29:02.191+00:00</time>
      </trkpt>
      <trkpt lat="46.18922" lon="-1.38523">
        <ele>6</ele>
        <time>2023-07-16T14:29:06.265+00:00</time>
      </trkpt>
      <trkpt lat="46.18912" lon="-1.38497">
        <ele>6</ele>
        <time>2023-07-16T14:29:10.938+00:00</time>
      </trkpt>
      <trkpt lat="46.18902" lon="-1.38471">
        <ele>7</ele>
        <time>2023-07-16T14:29:15.076+00:00</time>
      </trkpt>
      <trkpt lat="46.18889" lon="-1.38445">
        <ele>6</ele>
        <time>2023-07-16T14:29:19.078+00:00</time>
      </trkpt>
      <trkpt lat="46.18875" lon="-1.38415">
        <ele>6</ele>
        <time>2023-07-16T14:29:24.083+00:00</time>
      </trkpt>
      <trkpt lat="46.18863" lon="-1.38386">
        <ele>6</ele>
        <time>2023-07-16T14:29:29.096+00:00</time>
      </trkpt>
      <trkpt lat="46.18852" lon="-1.38365">
        <ele>6</ele>
        <time>2023-07-16T14:29:33.802+00:00</time>
      </trkpt>
      <trkpt lat="46.18843" lon="-1.38346">
        <ele>6</ele>
        <time>2023-07-16T14:29:37.876+00:00</time>
      </trkpt>
      <trkpt lat="46.18841" lon="-1.38334">
        <ele>6</ele>
        <time>2023-07-16T14:29:42.068+00:00</time>
      </trkpt>
      <trkpt lat="46.18856" lon="-1.38309">
        <ele>7</ele>
        <time>2023-07-16T14:29:46.602+00:00</time>
      </trkpt>
      <trkpt lat="46.18865" lon="-1.38287">
        <ele>8</ele>
        <time>2023-07-16T14:29:51.273+00:00</time>
      </trkpt>
      <trkpt lat="46.18862" lon="-1.38268">
        <ele>8</ele>
        <time>2023-07-16T14:29:54.867+00:00</time>
      </trkpt>
      <trkpt lat="46.18867" lon="-1.38259">
        <ele>9</ele>
        <time>2023-07-16T14:30:00.856+00:00</time>
      </trkpt>
      <trkpt lat="46.18887" lon="-1.38256">
        <ele>10</ele>
        <time>2023-07-16T14:30:05.647+00:00</time>
      </trkpt>
      <trkpt lat="46.18902" lon="-1.38255">
        <ele>10</ele>
        <time>2023-07-16T14:30:09.579+00:00</time>
      </trkpt>
      <trkpt lat="46.18922" lon="-1.38254">
        <ele>10</ele>
        <time>2023-07-16T14:30:14.250+00:00</time>
      </trkpt>
      <trkpt lat="46.18939" lon="-1.38247">
        <ele>10</ele>
        <time>2023-07-16T14:30:18.782+00:00</time>
      </trkpt>
      <trkpt lat="46.18955" lon="-1.3824">
        <ele>10</ele>
        <time>2023-07-16T14:30:22.595+00:00</time>
      </trkpt>
      <trkpt lat="46.18973" lon="-1.38227">
        <ele>9</ele>
        <time>2023-07-16T14:30:27.266+00:00</time>
      </trkpt>
      <trkpt lat="46.18992" lon="-1.38219">
        <ele>8</ele>
        <time>2023-07-16T14:30:31.981+00:00</time>
      </trkpt>
      <trkpt lat="46.19009" lon="-1.38216">
        <ele>8</ele>
        <time>2023-07-16T14:30:35.892+00:00</time>
      </trkpt>
      <trkpt lat="46.19028" lon="-1.38215">
        <ele>8</ele>
        <time>2023-07-16T14:30:40.563+00:00</time>
      </trkpt>
      <trkpt lat="46.19043" lon="-1.382">
        <ele>9</ele>
        <time>2023-07-16T14:30:44.637+00:00</time>
      </trkpt>
      <trkpt lat="46.19055" lon="-1.38181">
        <ele>9</ele>
        <time>2023-07-16T14:30:48.851+00:00</time>
      </trkpt>
      <trkpt lat="46.19063" lon="-1.38145">
        <ele>9</ele>
        <time>2023-07-16T14:30:54.085+00:00</time>
      </trkpt>
      <trkpt lat="46.1907" lon="-1.3812">
        <ele>7</ele>
        <time>2023-07-16T14:30:58.072+00:00</time>
      </trkpt>
      <trkpt lat="46.1908" lon="-1.38087">
        <ele>7</ele>
        <time>2023-07-16T14:31:03.053+00:00</time>
      </trkpt>
      <trkpt lat="46.19091" lon="-1.3806">
        <ele>7</ele>
        <time>2023-07-16T14:31:07.069+00:00</time>
      </trkpt>
      <trkpt lat="46.19102" lon="-1.38036">
        <ele>6</ele>
        <time>2023-07-16T14:31:11.085+00:00</time>
      </trkpt>
      <trkpt lat="46.19124" lon="-1.38026">
        <ele>6</ele>
        <time>2023-07-16T14:31:16.088+00:00</time>
      </trkpt>
      <trkpt lat="46.19148" lon="-1.38027">
        <ele>7</ele>
        <time>2023-07-16T14:31:21.078+00:00</time>
      </trkpt>
      <trkpt lat="46.19174" lon="-1.38029">
        <ele>7</ele>
        <time>2023-07-16T14:31:26.084+00:00</time>
      </trkpt>
      <trkpt lat="46.19187" lon="-1.38018">
        <ele>6</ele>
        <time>2023-07-16T14:31:30.078+00:00</time>
      </trkpt>
      <trkpt lat="46.19193" lon="-1.37981">
        <ele>7</ele>
        <time>2023-07-16T14:31:35.094+00:00</time>
      </trkpt>
      <trkpt lat="46.19199" lon="-1.37946">
        <ele>7</ele>
        <time>2023-07-16T14:31:40.084+00:00</time>
      </trkpt>
      <trkpt lat="46.19205" lon="-1.37911">
        <ele>7</ele>
        <time>2023-07-16T14:31:45.112+00:00</time>
      </trkpt>
      <trkpt lat="46.19209" lon="-1.37873">
        <ele>7</ele>
        <time>2023-07-16T14:31:50.085+00:00</time>
      </trkpt>
      <trkpt lat="46.19215" lon="-1.37838">
        <ele>7</ele>
        <time>2023-07-16T14:31:55.063+00:00</time>
      </trkpt>
      <trkpt lat="46.19222" lon="-1.37809">
        <ele>7</ele>
        <time>2023-07-16T14:31:59.092+00:00</time>
      </trkpt>
      <trkpt lat="46.19228" lon="-1.37773">
        <ele>6</ele>
        <time>2023-07-16T14:32:04.079+00:00</time>
      </trkpt>
      <trkpt lat="46.19233" lon="-1.37746">
        <ele>6</ele>
        <time>2023-07-16T14:32:08.093+00:00</time>
      </trkpt>
      <trkpt lat="46.19238" lon="-1.3771">
        <ele>8</ele>
        <time>2023-07-16T14:32:13.079+00:00</time>
      </trkpt>
      <trkpt lat="46.19242" lon="-1.37676">
        <ele>7</ele>
        <time>2023-07-16T14:32:18.079+00:00</time>
      </trkpt>
      <trkpt lat="46.19245" lon="-1.37641">
        <ele>7</ele>
        <time>2023-07-16T14:32:23.074+00:00</time>
      </trkpt>
      <trkpt lat="46.19249" lon="-1.37612">
        <ele>7</ele>
        <time>2023-07-16T14:32:27.088+00:00</time>
      </trkpt>
      <trkpt lat="46.19254" lon="-1.37583">
        <ele>8</ele>
        <time>2023-07-16T14:32:31.100+00:00</time>
      </trkpt>
      <trkpt lat="46.19263" lon="-1.37545">
        <ele>8</ele>
        <time>2023-07-16T14:32:36.105+00:00</time>
      </trkpt>
      <trkpt lat="46.19271" lon="-1.3751">
        <ele>8</ele>
        <time>2023-07-16T14:32:41.088+00:00</time>
      </trkpt>
      <trkpt lat="46.19279" lon="-1.37479">
        <ele>8</ele>
        <time>2023-07-16T14:32:46.092+00:00</time>
      </trkpt>
      <trkpt lat="46.19286" lon="-1.37447">
        <ele>8</ele>
        <time>2023-07-16T14:32:51.092+00:00</time>
      </trkpt>
      <trkpt lat="46.19289" lon="-1.37422">
        <ele>9</ele>
        <time>2023-07-16T14:32:56.089+00:00</time>
      </trkpt>
      <trkpt lat="46.1929" lon="-1.37406">
        <ele>9</ele>
        <time>2023-07-16T14:33:00.291+00:00</time>
      </trkpt>
      <trkpt lat="46.19299" lon="-1.37393">
        <ele>8</ele>
        <time>2023-07-16T14:33:04.846+00:00</time>
      </trkpt>
      <trkpt lat="46.19318" lon="-1.37393">
        <ele>8</ele>
        <time>2023-07-16T14:33:09.636+00:00</time>
      </trkpt>
      <trkpt lat="46.19344" lon="-1.37395">
        <ele>7</ele>
        <time>2023-07-16T14:33:37.072+00:00</time>
      </trkpt>
      <trkpt lat="46.19325" lon="-1.3739">
        <ele>7</ele>
        <time>2023-07-16T14:33:41.081+00:00</time>
      </trkpt>
      <trkpt lat="46.19306" lon="-1.37389">
        <ele>8</ele>
        <time>2023-07-16T14:33:45.697+00:00</time>
      </trkpt>
      <trkpt lat="46.19291" lon="-1.37388">
        <ele>8</ele>
        <time>2023-07-16T14:33:49.885+00:00</time>
      </trkpt>
      <trkpt lat="46.19281" lon="-1.3738">
        <ele>8</ele>
        <time>2023-07-16T14:33:54.669+00:00</time>
      </trkpt>
      <trkpt lat="46.1929" lon="-1.37351">
        <ele>9</ele>
        <time>2023-07-16T14:34:00.090+00:00</time>
      </trkpt>
      <trkpt lat="46.19297" lon="-1.37321">
        <ele>8</ele>
        <time>2023-07-16T14:34:05.109+00:00</time>
      </trkpt>
      <trkpt lat="46.19302" lon="-1.37287">
        <ele>9</ele>
        <time>2023-07-16T14:34:10.063+00:00</time>
      </trkpt>
      <trkpt lat="46.19307" lon="-1.37254">
        <ele>11</ele>
        <time>2023-07-16T14:34:15.059+00:00</time>
      </trkpt>
      <trkpt lat="46.19311" lon="-1.37226">
        <ele>11</ele>
        <time>2023-07-16T14:34:19.098+00:00</time>
      </trkpt>
      <trkpt lat="46.19316" lon="-1.37191">
        <ele>11</ele>
        <time>2023-07-16T14:34:24.085+00:00</time>
      </trkpt>
      <trkpt lat="46.19321" lon="-1.37165">
        <ele>11</ele>
        <time>2023-07-16T14:34:28.097+00:00</time>
      </trkpt>
      <trkpt lat="46.19329" lon="-1.37132">
        <ele>12</ele>
        <time>2023-07-16T14:34:33.077+00:00</time>
      </trkpt>
      <trkpt lat="46.19336" lon="-1.371">
        <ele>13</ele>
        <time>2023-07-16T14:34:38.095+00:00</time>
      </trkpt>
      <trkpt lat="46.19342" lon="-1.37076">
        <ele>13</ele>
        <time>2023-07-16T14:34:42.663+00:00</time>
      </trkpt>
      <trkpt lat="46.19348" lon="-1.3705">
        <ele>12</ele>
        <time>2023-07-16T14:34:46.613+00:00</time>
      </trkpt>
      <trkpt lat="46.19356" lon="-1.37029">
        <ele>12</ele>
        <time>2023-07-16T14:34:51.212+00:00</time>
      </trkpt>
      <trkpt lat="46.19363" lon="-1.37019">
        <ele>12</ele>
        <time>2023-07-16T14:35:27.743+00:00</time>
      </trkpt>
      <trkpt lat="46.19366" lon="-1.36999">
        <ele>12</ele>
        <time>2023-07-16T14:35:32.749+00:00</time>
      </trkpt>
      <trkpt lat="46.19369" lon="-1.36977">
        <ele>12</ele>
        <time>2023-07-16T14:35:37.752+00:00</time>
      </trkpt>
      <trkpt lat="46.19367" lon="-1.36972">
        <ele>12</ele>
        <time>2023-07-16T14:35:42.754+00:00</time>
      </trkpt>
      <trkpt lat="46.19367" lon="-1.36971">
        <ele>12</ele>
        <time>2023-07-16T14:35:47.258+00:00</time>
      </trkpt>
      <trkpt lat="46.19359" lon="-1.36952">
        <ele>11</ele>
        <time>2023-07-16T14:36:00.884+00:00</time>
      </trkpt>
      <trkpt lat="46.19359" lon="-1.36952">
        <ele>11</ele>
        <time>2023-07-16T14:36:04.946+00:00</time>
      </trkpt>
      <trkpt lat="46.19356" lon="-1.36946">
        <ele>11</ele>
        <time>2023-07-16T14:36:10.027+00:00</time>
      </trkpt>
      <trkpt lat="46.19346" lon="-1.36936">
        <ele>11</ele>
        <time>2023-07-16T14:36:14.040+00:00</time>
      </trkpt>
      <trkpt lat="46.19334" lon="-1.36923">
        <ele>11</ele>
        <time>2023-07-16T14:36:18.054+00:00</time>
      </trkpt>
      <trkpt lat="46.19317" lon="-1.36906">
        <ele>11</ele>
        <time>2023-07-16T14:36:22.553+00:00</time>
      </trkpt>
      <trkpt lat="46.19294" lon="-1.36891">
        <ele>11</ele>
        <time>2023-07-16T14:36:28.044+00:00</time>
      </trkpt>
      <trkpt lat="46.19272" lon="-1.36878">
        <ele>12</ele>
        <time>2023-07-16T14:36:33.049+00:00</time>
      </trkpt>
      <trkpt lat="46.1925" lon="-1.36866">
        <ele>11</ele>
        <time>2023-07-16T14:36:38.042+00:00</time>
      </trkpt>
      <trkpt lat="46.19228" lon="-1.36852">
        <ele>10</ele>
        <time>2023-07-16T14:36:43.050+00:00</time>
      </trkpt>
      <trkpt lat="46.19205" lon="-1.3684">
        <ele>10</ele>
        <time>2023-07-16T14:36:48.054+00:00</time>
      </trkpt>
      <trkpt lat="46.19182" lon="-1.36826">
        <ele>10</ele>
        <time>2023-07-16T14:36:53.050+00:00</time>
      </trkpt>
      <trkpt lat="46.19165" lon="-1.36817">
        <ele>10</ele>
        <time>2023-07-16T14:36:57.052+00:00</time>
      </trkpt>
      <trkpt lat="46.19151" lon="-1.36811">
        <ele>9</ele>
        <time>2023-07-16T14:37:01.052+00:00</time>
      </trkpt>
      <trkpt lat="46.19141" lon="-1.36811">
        <ele>9</ele>
        <time>2023-07-16T14:37:05.056+00:00</time>
      </trkpt>
      <trkpt lat="46.19132" lon="-1.36802">
        <ele>9</ele>
        <time>2023-07-16T14:37:09.775+00:00</time>
      </trkpt>
      <trkpt lat="46.19108" lon="-1.36792">
        <ele>8</ele>
        <time>2023-07-16T14:37:15.051+00:00</time>
      </trkpt>
      <trkpt lat="46.19082" lon="-1.3679">
        <ele>9</ele>
        <time>2023-07-16T14:37:20.044+00:00</time>
      </trkpt>
      <trkpt lat="46.19059" lon="-1.36789">
        <ele>9</ele>
        <time>2023-07-16T14:37:25.041+00:00</time>
      </trkpt>
      <trkpt lat="46.19037" lon="-1.36785">
        <ele>9</ele>
        <time>2023-07-16T14:37:29.065+00:00</time>
      </trkpt>
      <trkpt lat="46.19017" lon="-1.36782">
        <ele>9</ele>
        <time>2023-07-16T14:37:33.087+00:00</time>
      </trkpt>
      <trkpt lat="46.18991" lon="-1.36778">
        <ele>9</ele>
        <time>2023-07-16T14:37:38.054+00:00</time>
      </trkpt>
      <trkpt lat="46.1897" lon="-1.36778">
        <ele>9</ele>
        <time>2023-07-16T14:37:42.066+00:00</time>
      </trkpt>
      <trkpt lat="46.18951" lon="-1.36783">
        <ele>9</ele>
        <time>2023-07-16T14:37:46.067+00:00</time>
      </trkpt>
      <trkpt lat="46.18934" lon="-1.3679">
        <ele>9</ele>
        <time>2023-07-16T14:37:51.091+00:00</time>
      </trkpt>
      <trkpt lat="46.18911" lon="-1.36802">
        <ele>9</ele>
        <time>2023-07-16T14:37:56.048+00:00</time>
      </trkpt>
      <trkpt lat="46.18901" lon="-1.3681">
        <ele>8</ele>
        <time>2023-07-16T14:38:00.026+00:00</time>
      </trkpt>
      <trkpt lat="46.1888" lon="-1.36823">
        <ele>8</ele>
        <time>2023-07-16T14:38:04.220+00:00</time>
      </trkpt>
      <trkpt lat="46.18866" lon="-1.3684">
        <ele>9</ele>
        <time>2023-07-16T14:38:08.716+00:00</time>
      </trkpt>
      <trkpt lat="46.18852" lon="-1.36858">
        <ele>9</ele>
        <time>2023-07-16T14:38:12.610+00:00</time>
      </trkpt>
      <trkpt lat="46.18839" lon="-1.36876">
        <ele>9</ele>
        <time>2023-07-16T14:38:17.245+00:00</time>
      </trkpt>
      <trkpt lat="46.18826" lon="-1.36903">
        <ele>9</ele>
        <time>2023-07-16T14:38:22.077+00:00</time>
      </trkpt>
      <trkpt lat="46.18817" lon="-1.36922">
        <ele>8</ele>
        <time>2023-07-16T14:38:25.852+00:00</time>
      </trkpt>
      <trkpt lat="46.18803" lon="-1.36945">
        <ele>7</ele>
        <time>2023-07-16T14:38:30.643+00:00</time>
      </trkpt>
      <trkpt lat="46.18798" lon="-1.36966">
        <ele>7</ele>
        <time>2023-07-16T14:38:35.434+00:00</time>
      </trkpt>
      <trkpt lat="46.18782" lon="-1.36986">
        <ele>8</ele>
        <time>2023-07-16T14:38:40.084+00:00</time>
      </trkpt>
      <trkpt lat="46.18766" lon="-1.37012">
        <ele>8</ele>
        <time>2023-07-16T14:38:45.101+00:00</time>
      </trkpt>
      <trkpt lat="46.18749" lon="-1.37036">
        <ele>8</ele>
        <time>2023-07-16T14:38:50.072+00:00</time>
      </trkpt>
      <trkpt lat="46.18734" lon="-1.37054">
        <ele>9</ele>
        <time>2023-07-16T14:38:54.083+00:00</time>
      </trkpt>
      <trkpt lat="46.18718" lon="-1.3707">
        <ele>8</ele>
        <time>2023-07-16T14:38:58.102+00:00</time>
      </trkpt>
      <trkpt lat="46.18697" lon="-1.37089">
        <ele>6</ele>
        <time>2023-07-16T14:39:03.060+00:00</time>
      </trkpt>
      <trkpt lat="46.18681" lon="-1.37102">
        <ele>5</ele>
        <time>2023-07-16T14:39:07.065+00:00</time>
      </trkpt>
      <trkpt lat="46.18663" lon="-1.37114">
        <ele>5</ele>
        <time>2023-07-16T14:39:11.091+00:00</time>
      </trkpt>
      <trkpt lat="46.18643" lon="-1.37124">
        <ele>7</ele>
        <time>2023-07-16T14:39:15.106+00:00</time>
      </trkpt>
      <trkpt lat="46.18618" lon="-1.37134">
        <ele>8</ele>
        <time>2023-07-16T14:39:20.092+00:00</time>
      </trkpt>
      <trkpt lat="46.18597" lon="-1.3714">
        <ele>9</ele>
        <time>2023-07-16T14:39:25.090+00:00</time>
      </trkpt>
      <trkpt lat="46.18573" lon="-1.37147">
        <ele>9</ele>
        <time>2023-07-16T14:39:30.093+00:00</time>
      </trkpt>
      <trkpt lat="46.18554" lon="-1.3715">
        <ele>8</ele>
        <time>2023-07-16T14:39:34.076+00:00</time>
      </trkpt>
      <trkpt lat="46.18534" lon="-1.37154">
        <ele>9</ele>
        <time>2023-07-16T14:39:38.075+00:00</time>
      </trkpt>
      <trkpt lat="46.18509" lon="-1.3716">
        <ele>9</ele>
        <time>2023-07-16T14:39:43.091+00:00</time>
      </trkpt>
      <trkpt lat="46.1849" lon="-1.37164">
        <ele>9</ele>
        <time>2023-07-16T14:39:47.102+00:00</time>
      </trkpt>
      <trkpt lat="46.18466" lon="-1.3717">
        <ele>10</ele>
        <time>2023-07-16T14:39:52.102+00:00</time>
      </trkpt>
      <trkpt lat="46.18442" lon="-1.37179">
        <ele>10</ele>
        <time>2023-07-16T14:39:57.111+00:00</time>
      </trkpt>
      <trkpt lat="46.18418" lon="-1.37193">
        <ele>9</ele>
        <time>2023-07-16T14:40:02.066+00:00</time>
      </trkpt>
      <trkpt lat="46.184" lon="-1.37207">
        <ele>8</ele>
        <time>2023-07-16T14:40:06.086+00:00</time>
      </trkpt>
      <trkpt lat="46.18378" lon="-1.37225">
        <ele>7</ele>
        <time>2023-07-16T14:40:11.074+00:00</time>
      </trkpt>
      <trkpt lat="46.18362" lon="-1.37239">
        <ele>8</ele>
        <time>2023-07-16T14:40:15.099+00:00</time>
      </trkpt>
      <trkpt lat="46.18345" lon="-1.37251">
        <ele>9</ele>
        <time>2023-07-16T14:40:19.097+00:00</time>
      </trkpt>
      <trkpt lat="46.18323" lon="-1.37266">
        <ele>10</ele>
        <time>2023-07-16T14:40:24.082+00:00</time>
      </trkpt>
      <trkpt lat="46.18301" lon="-1.37281">
        <ele>8</ele>
        <time>2023-07-16T14:40:29.085+00:00</time>
      </trkpt>
      <trkpt lat="46.18279" lon="-1.37294">
        <ele>9</ele>
        <time>2023-07-16T14:40:34.062+00:00</time>
      </trkpt>
      <trkpt lat="46.18262" lon="-1.37303">
        <ele>8</ele>
        <time>2023-07-16T14:40:38.076+00:00</time>
      </trkpt>
      <trkpt lat="46.18239" lon="-1.37311">
        <ele>8</ele>
        <time>2023-07-16T14:40:43.095+00:00</time>
      </trkpt>
      <trkpt lat="46.18215" lon="-1.37319">
        <ele>8</ele>
        <time>2023-07-16T14:40:48.090+00:00</time>
      </trkpt>
      <trkpt lat="46.18197" lon="-1.37324">
        <ele>6</ele>
        <time>2023-07-16T14:40:52.106+00:00</time>
      </trkpt>
      <trkpt lat="46.18174" lon="-1.37329">
        <ele>4</ele>
        <time>2023-07-16T14:40:57.099+00:00</time>
      </trkpt>
      <trkpt lat="46.18152" lon="-1.3733">
        <ele>5</ele>
        <time>2023-07-16T14:41:02.078+00:00</time>
      </trkpt>
      <trkpt lat="46.18133" lon="-1.37333">
        <ele>5</ele>
        <time>2023-07-16T14:41:06.911+00:00</time>
      </trkpt>
      <trkpt lat="46.18111" lon="-1.37332">
        <ele>7</ele>
        <time>2023-07-16T14:41:11.686+00:00</time>
      </trkpt>
      <trkpt lat="46.18093" lon="-1.37332">
        <ele>7</ele>
        <time>2023-07-16T14:41:15.872+00:00</time>
      </trkpt>
      <trkpt lat="46.18075" lon="-1.37332">
        <ele>7</ele>
        <time>2023-07-16T14:41:20.660+00:00</time>
      </trkpt>
      <trkpt lat="46.18059" lon="-1.37332">
        <ele>11</ele>
        <time>2023-07-16T14:41:26.061+00:00</time>
      </trkpt>
      <trkpt lat="46.18042" lon="-1.37334">
        <ele>11</ele>
        <time>2023-07-16T14:41:30.077+00:00</time>
      </trkpt>
      <trkpt lat="46.18022" lon="-1.37341">
        <ele>13</ele>
        <time>2023-07-16T14:41:34.083+00:00</time>
      </trkpt>
      <trkpt lat="46.17999" lon="-1.37355">
        <ele>12</ele>
        <time>2023-07-16T14:41:39.085+00:00</time>
      </trkpt>
      <trkpt lat="46.17982" lon="-1.37368">
        <ele>12</ele>
        <time>2023-07-16T14:41:43.797+00:00</time>
      </trkpt>
      <trkpt lat="46.17971" lon="-1.37382">
        <ele>13</ele>
        <time>2023-07-16T14:41:47.987+00:00</time>
      </trkpt>
      <trkpt lat="46.1796" lon="-1.374">
        <ele>13</ele>
        <time>2023-07-16T14:41:53.087+00:00</time>
      </trkpt>
      <trkpt lat="46.17952" lon="-1.3741">
        <ele>11</ele>
        <time>2023-07-16T14:41:57.085+00:00</time>
      </trkpt>
      <trkpt lat="46.17944" lon="-1.37416">
        <ele>11</ele>
        <time>2023-07-16T14:42:01.082+00:00</time>
      </trkpt>
      <trkpt lat="46.17941" lon="-1.37413">
        <ele>11</ele>
        <time>2023-07-16T14:42:06.028+00:00</time>
      </trkpt>
      <trkpt lat="46.17939" lon="-1.37409">
        <ele>11</ele>
        <time>2023-07-16T14:42:10.218+00:00</time>
      </trkpt>
      <trkpt lat="46.17935" lon="-1.37395">
        <ele>12</ele>
        <time>2023-07-16T14:42:14.886+00:00</time>
      </trkpt>
      <trkpt lat="46.17935" lon="-1.37392">
        <ele>12</ele>
        <time>2023-07-16T14:42:19.076+00:00</time>
      </trkpt>
      <trkpt lat="46.17929" lon="-1.37388">
        <ele>11</ele>
        <time>2023-07-16T14:42:23.627+00:00</time>
      </trkpt>
      <trkpt lat="46.17904" lon="-1.37385">
        <ele>11</ele>
        <time>2023-07-16T14:42:29.015+00:00</time>
      </trkpt>
      <trkpt lat="46.17888" lon="-1.37383">
        <ele>9</ele>
        <time>2023-07-16T14:42:33.086+00:00</time>
      </trkpt>
      <trkpt lat="46.1788" lon="-1.37374">
        <ele>9</ele>
        <time>2023-07-16T14:42:37.257+00:00</time>
      </trkpt>
      <trkpt lat="46.17869" lon="-1.37352">
        <ele>8</ele>
        <time>2023-07-16T14:42:42.046+00:00</time>
      </trkpt>
      <trkpt lat="46.17862" lon="-1.37331">
        <ele>8</ele>
        <time>2023-07-16T14:42:46.708+00:00</time>
      </trkpt>
      <trkpt lat="46.17866" lon="-1.37311">
        <ele>8</ele>
        <time>2023-07-16T14:42:50.645+00:00</time>
      </trkpt>
      <trkpt lat="46.17868" lon="-1.37295">
        <ele>8</ele>
        <time>2023-07-16T14:42:54.727+00:00</time>
      </trkpt>
      <trkpt lat="46.17862" lon="-1.37267">
        <ele>9</ele>
        <time>2023-07-16T14:42:59.994+00:00</time>
      </trkpt>
      <trkpt lat="46.17865" lon="-1.37238">
        <ele>11</ele>
        <time>2023-07-16T14:43:04.064+00:00</time>
      </trkpt>
      <trkpt lat="46.17865" lon="-1.37214">
        <ele>12</ele>
        <time>2023-07-16T14:43:08.852+00:00</time>
      </trkpt>
      <trkpt lat="46.1786" lon="-1.37188">
        <ele>12</ele>
        <time>2023-07-16T14:43:13.640+00:00</time>
      </trkpt>
      <trkpt lat="46.17838" lon="-1.37161">
        <ele>10</ele>
        <time>2023-07-16T14:43:19.102+00:00</time>
      </trkpt>
      <trkpt lat="46.17814" lon="-1.37136">
        <ele>7</ele>
        <time>2023-07-16T14:43:24.092+00:00</time>
      </trkpt>
      <trkpt lat="46.17792" lon="-1.37103">
        <ele>7</ele>
        <time>2023-07-16T14:43:29.082+00:00</time>
      </trkpt>
      <trkpt lat="46.17773" lon="-1.37077">
        <ele>6</ele>
        <time>2023-07-16T14:43:34.069+00:00</time>
      </trkpt>
      <trkpt lat="46.17758" lon="-1.37065">
        <ele>7</ele>
        <time>2023-07-16T14:43:38.090+00:00</time>
      </trkpt>
      <trkpt lat="46.1774" lon="-1.37047">
        <ele>7</ele>
        <time>2023-07-16T14:43:43.036+00:00</time>
      </trkpt>
      <trkpt lat="46.17722" lon="-1.3704">
        <ele>7</ele>
        <time>2023-07-16T14:43:47.226+00:00</time>
      </trkpt>
      <trkpt lat="46.17707" lon="-1.3703">
        <ele>6</ele>
        <time>2023-07-16T14:43:51.857+00:00</time>
      </trkpt>
      <trkpt lat="46.17693" lon="-1.37027">
        <ele>6</ele>
        <time>2023-07-16T14:43:56.047+00:00</time>
      </trkpt>
      <trkpt lat="46.17682" lon="-1.37022">
        <ele>6</ele>
        <time>2023-07-16T14:44:00.119+00:00</time>
      </trkpt>
      <trkpt lat="46.17671" lon="-1.37016">
        <ele>6</ele>
        <time>2023-07-16T14:44:04.906+00:00</time>
      </trkpt>
      <trkpt lat="46.17655" lon="-1.37007">
        <ele>7</ele>
        <time>2023-07-16T14:44:09.986+00:00</time>
      </trkpt>
      <trkpt lat="46.17644" lon="-1.36991">
        <ele>8</ele>
        <time>2023-07-16T14:44:13.843+00:00</time>
      </trkpt>
      <trkpt lat="46.17632" lon="-1.36969">
        <ele>8</ele>
        <time>2023-07-16T14:44:19.108+00:00</time>
      </trkpt>
      <trkpt lat="46.17625" lon="-1.3695">
        <ele>10</ele>
        <time>2023-07-16T14:44:23.095+00:00</time>
      </trkpt>
      <trkpt lat="46.17615" lon="-1.36928">
        <ele>9</ele>
        <time>2023-07-16T14:44:27.835+00:00</time>
      </trkpt>
      <trkpt lat="46.17606" lon="-1.36906">
        <ele>9</ele>
        <time>2023-07-16T14:44:33.097+00:00</time>
      </trkpt>
      <trkpt lat="46.17595" lon="-1.36887">
        <ele>11</ele>
        <time>2023-07-16T14:44:37.885+00:00</time>
      </trkpt>
      <trkpt lat="46.17585" lon="-1.36877">
        <ele>11</ele>
        <time>2023-07-16T14:44:42.072+00:00</time>
      </trkpt>
      <trkpt lat="46.1757" lon="-1.36858">
        <ele>12</ele>
        <time>2023-07-16T14:44:46.861+00:00</time>
      </trkpt>
      <trkpt lat="46.17553" lon="-1.36841">
        <ele>14</ele>
        <time>2023-07-16T14:44:52.087+00:00</time>
      </trkpt>
      <trkpt lat="46.17533" lon="-1.3682">
        <ele>14</ele>
        <time>2023-07-16T14:44:57.077+00:00</time>
      </trkpt>
      <trkpt lat="46.17519" lon="-1.36809">
        <ele>14</ele>
        <time>2023-07-16T14:45:02.067+00:00</time>
      </trkpt>
      <trkpt lat="46.17508" lon="-1.36801">
        <ele>14</ele>
        <time>2023-07-16T14:45:07.056+00:00</time>
      </trkpt>
      <trkpt lat="46.17497" lon="-1.3679">
        <ele>14</ele>
        <time>2023-07-16T14:45:11.074+00:00</time>
      </trkpt>
      <trkpt lat="46.17488" lon="-1.36783">
        <ele>14</ele>
        <time>2023-07-16T14:45:14.837+00:00</time>
      </trkpt>
      <trkpt lat="46.17471" lon="-1.3677">
        <ele>14</ele>
        <time>2023-07-16T14:45:19.864+00:00</time>
      </trkpt>
      <trkpt lat="46.17456" lon="-1.36761">
        <ele>13</ele>
        <time>2023-07-16T14:45:24.533+00:00</time>
      </trkpt>
      <trkpt lat="46.17439" lon="-1.36745">
        <ele>13</ele>
        <time>2023-07-16T14:45:29.079+00:00</time>
      </trkpt>
      <trkpt lat="46.17423" lon="-1.36727">
        <ele>12</ele>
        <time>2023-07-16T14:45:33.112+00:00</time>
      </trkpt>
      <trkpt lat="46.17407" lon="-1.36704">
        <ele>12</ele>
        <time>2023-07-16T14:45:38.094+00:00</time>
      </trkpt>
      <trkpt lat="46.17392" lon="-1.36677">
        <ele>11</ele>
        <time>2023-07-16T14:45:43.081+00:00</time>
      </trkpt>
      <trkpt lat="46.17382" lon="-1.36657">
        <ele>11</ele>
        <time>2023-07-16T14:45:47.088+00:00</time>
      </trkpt>
      <trkpt lat="46.17366" lon="-1.36629">
        <ele>12</ele>
        <time>2023-07-16T14:45:52.087+00:00</time>
      </trkpt>
      <trkpt lat="46.17348" lon="-1.36602">
        <ele>13</ele>
        <time>2023-07-16T14:45:57.075+00:00</time>
      </trkpt>
      <trkpt lat="46.17335" lon="-1.36581">
        <ele>13</ele>
        <time>2023-07-16T14:46:01.086+00:00</time>
      </trkpt>
      <trkpt lat="46.17322" lon="-1.36562">
        <ele>13</ele>
        <time>2023-07-16T14:46:05.089+00:00</time>
      </trkpt>
      <trkpt lat="46.17306" lon="-1.36538">
        <ele>10</ele>
        <time>2023-07-16T14:46:10.094+00:00</time>
      </trkpt>
      <trkpt lat="46.1729" lon="-1.36514">
        <ele>9</ele>
        <time>2023-07-16T14:46:15.090+00:00</time>
      </trkpt>
      <trkpt lat="46.17275" lon="-1.36496">
        <ele>9</ele>
        <time>2023-07-16T14:46:19.094+00:00</time>
      </trkpt>
      <trkpt lat="46.17253" lon="-1.36473">
        <ele>7</ele>
        <time>2023-07-16T14:46:24.100+00:00</time>
      </trkpt>
      <trkpt lat="46.17227" lon="-1.36446">
        <ele>6</ele>
        <time>2023-07-16T14:46:29.080+00:00</time>
      </trkpt>
      <trkpt lat="46.17206" lon="-1.36429">
        <ele>5</ele>
        <time>2023-07-16T14:46:33.094+00:00</time>
      </trkpt>
      <trkpt lat="46.17183" lon="-1.36408">
        <ele>5</ele>
        <time>2023-07-16T14:46:38.088+00:00</time>
      </trkpt>
      <trkpt lat="46.17163" lon="-1.36389">
        <ele>5</ele>
        <time>2023-07-16T14:46:43.095+00:00</time>
      </trkpt>
      <trkpt lat="46.17145" lon="-1.36368">
        <ele>7</ele>
        <time>2023-07-16T14:46:48.077+00:00</time>
      </trkpt>
      <trkpt lat="46.17131" lon="-1.3635">
        <ele>7</ele>
        <time>2023-07-16T14:46:52.106+00:00</time>
      </trkpt>
      <trkpt lat="46.17113" lon="-1.3633">
        <ele>8</ele>
        <time>2023-07-16T14:46:57.094+00:00</time>
      </trkpt>
      <trkpt lat="46.171" lon="-1.36317">
        <ele>9</ele>
        <time>2023-07-16T14:47:02.074+00:00</time>
      </trkpt>
      <trkpt lat="46.17088" lon="-1.36304">
        <ele>9</ele>
        <time>2023-07-16T14:47:06.079+00:00</time>
      </trkpt>
      <trkpt lat="46.17069" lon="-1.36292">
        <ele>9</ele>
        <time>2023-07-16T14:47:11.079+00:00</time>
      </trkpt>
      <trkpt lat="46.17058" lon="-1.36285">
        <ele>10</ele>
        <time>2023-07-16T14:47:15.090+00:00</time>
      </trkpt>
      <trkpt lat="46.17043" lon="-1.36275">
        <ele>10</ele>
        <time>2023-07-16T14:47:20.096+00:00</time>
      </trkpt>
      <trkpt lat="46.17028" lon="-1.36266">
        <ele>9</ele>
        <time>2023-07-16T14:47:25.099+00:00</time>
      </trkpt>
      <trkpt lat="46.17016" lon="-1.3626">
        <ele>9</ele>
        <time>2023-07-16T14:47:29.111+00:00</time>
      </trkpt>
      <trkpt lat="46.16994" lon="-1.3625">
        <ele>7</ele>
        <time>2023-07-16T14:47:34.086+00:00</time>
      </trkpt>
      <trkpt lat="46.1697" lon="-1.36238">
        <ele>6</ele>
        <time>2023-07-16T14:47:39.075+00:00</time>
      </trkpt>
      <trkpt lat="46.16945" lon="-1.36224">
        <ele>6</ele>
        <time>2023-07-16T14:47:44.081+00:00</time>
      </trkpt>
      <trkpt lat="46.16921" lon="-1.3621">
        <ele>6</ele>
        <time>2023-07-16T14:47:49.083+00:00</time>
      </trkpt>
      <trkpt lat="46.16902" lon="-1.36196">
        <ele>6</ele>
        <time>2023-07-16T14:47:53.083+00:00</time>
      </trkpt>
      <trkpt lat="46.16885" lon="-1.36182">
        <ele>6</ele>
        <time>2023-07-16T14:47:57.120+00:00</time>
      </trkpt>
      <trkpt lat="46.16866" lon="-1.36162">
        <ele>5</ele>
        <time>2023-07-16T14:48:02.101+00:00</time>
      </trkpt>
      <trkpt lat="46.16851" lon="-1.36143">
        <ele>6</ele>
        <time>2023-07-16T14:48:07.112+00:00</time>
      </trkpt>
      <trkpt lat="46.16836" lon="-1.36119">
        <ele>6</ele>
        <time>2023-07-16T14:48:12.082+00:00</time>
      </trkpt>
      <trkpt lat="46.16821" lon="-1.36092">
        <ele>6</ele>
        <time>2023-07-16T14:48:17.086+00:00</time>
      </trkpt>
      <trkpt lat="46.16808" lon="-1.36066">
        <ele>7</ele>
        <time>2023-07-16T14:48:22.078+00:00</time>
      </trkpt>
      <trkpt lat="46.16797" lon="-1.36042">
        <ele>7</ele>
        <time>2023-07-16T14:48:27.089+00:00</time>
      </trkpt>
      <trkpt lat="46.16787" lon="-1.36019">
        <ele>7</ele>
        <time>2023-07-16T14:48:32.084+00:00</time>
      </trkpt>
      <trkpt lat="46.16778" lon="-1.35998">
        <ele>7</ele>
        <time>2023-07-16T14:48:37.064+00:00</time>
      </trkpt>
      <trkpt lat="46.1677" lon="-1.35981">
        <ele>7</ele>
        <time>2023-07-16T14:48:41.115+00:00</time>
      </trkpt>
      <trkpt lat="46.16759" lon="-1.35952">
        <ele>7</ele>
        <time>2023-07-16T14:48:46.120+00:00</time>
      </trkpt>
      <trkpt lat="46.16743" lon="-1.35918">
        <ele>6</ele>
        <time>2023-07-16T14:48:51.079+00:00</time>
      </trkpt>
      <trkpt lat="46.16728" lon="-1.35886">
        <ele>6</ele>
        <time>2023-07-16T14:48:55.100+00:00</time>
      </trkpt>
      <trkpt lat="46.16711" lon="-1.35848">
        <ele>5</ele>
        <time>2023-07-16T14:49:00.099+00:00</time>
      </trkpt>
      <trkpt lat="46.16698" lon="-1.35819">
        <ele>5</ele>
        <time>2023-07-16T14:49:04.088+00:00</time>
      </trkpt>
      <trkpt lat="46.16684" lon="-1.35785">
        <ele>5</ele>
        <time>2023-07-16T14:49:09.052+00:00</time>
      </trkpt>
      <trkpt lat="46.16676" lon="-1.35758">
        <ele>6</ele>
        <time>2023-07-16T14:49:13.077+00:00</time>
      </trkpt>
      <trkpt lat="46.16663" lon="-1.35734">
        <ele>7</ele>
        <time>2023-07-16T14:49:17.082+00:00</time>
      </trkpt>
      <trkpt lat="46.16651" lon="-1.35708">
        <ele>8</ele>
        <time>2023-07-16T14:49:21.099+00:00</time>
      </trkpt>
      <trkpt lat="46.16636" lon="-1.35679">
        <ele>9</ele>
        <time>2023-07-16T14:49:26.102+00:00</time>
      </trkpt>
      <trkpt lat="46.16622" lon="-1.35651">
        <ele>9</ele>
        <time>2023-07-16T14:49:31.087+00:00</time>
      </trkpt>
      <trkpt lat="46.16609" lon="-1.35625">
        <ele>10</ele>
        <time>2023-07-16T14:49:36.107+00:00</time>
      </trkpt>
      <trkpt lat="46.16597" lon="-1.35598">
        <ele>10</ele>
        <time>2023-07-16T14:49:40.077+00:00</time>
      </trkpt>
      <trkpt lat="46.16583" lon="-1.3557">
        <ele>10</ele>
        <time>2023-07-16T14:49:45.091+00:00</time>
      </trkpt>
      <trkpt lat="46.16569" lon="-1.35541">
        <ele>11</ele>
        <time>2023-07-16T14:49:50.092+00:00</time>
      </trkpt>
      <trkpt lat="46.1656" lon="-1.3552">
        <ele>11</ele>
        <time>2023-07-16T14:49:54.070+00:00</time>
      </trkpt>
      <trkpt lat="46.16547" lon="-1.35492">
        <ele>12</ele>
        <time>2023-07-16T14:49:59.078+00:00</time>
      </trkpt>
      <trkpt lat="46.16534" lon="-1.3547">
        <ele>10</ele>
        <time>2023-07-16T14:50:03.086+00:00</time>
      </trkpt>
      <trkpt lat="46.16525" lon="-1.35452">
        <ele>11</ele>
        <time>2023-07-16T14:50:08.096+00:00</time>
      </trkpt>
      <trkpt lat="46.16518" lon="-1.35429">
        <ele>12</ele>
        <time>2023-07-16T14:50:12.577+00:00</time>
      </trkpt>
      <trkpt lat="46.16509" lon="-1.35399">
        <ele>12</ele>
        <time>2023-07-16T14:50:17.080+00:00</time>
      </trkpt>
      <trkpt lat="46.16501" lon="-1.35363">
        <ele>13</ele>
        <time>2023-07-16T14:50:22.110+00:00</time>
      </trkpt>
      <trkpt lat="46.16496" lon="-1.35326">
        <ele>12</ele>
        <time>2023-07-16T14:50:27.092+00:00</time>
      </trkpt>
      <trkpt lat="46.1649" lon="-1.35299">
        <ele>10</ele>
        <time>2023-07-16T14:50:31.111+00:00</time>
      </trkpt>
      <trkpt lat="46.16483" lon="-1.35266">
        <ele>9</ele>
        <time>2023-07-16T14:50:36.095+00:00</time>
      </trkpt>
      <trkpt lat="46.16475" lon="-1.35237">
        <ele>10</ele>
        <time>2023-07-16T14:50:41.102+00:00</time>
      </trkpt>
      <trkpt lat="46.16467" lon="-1.35206">
        <ele>10</ele>
        <time>2023-07-16T14:50:46.087+00:00</time>
      </trkpt>
      <trkpt lat="46.16458" lon="-1.35185">
        <ele>11</ele>
        <time>2023-07-16T14:50:49.843+00:00</time>
      </trkpt>
      <trkpt lat="46.16445" lon="-1.35164">
        <ele>10</ele>
        <time>2023-07-16T14:50:54.625+00:00</time>
      </trkpt>
      <trkpt lat="46.16431" lon="-1.35136">
        <ele>9</ele>
        <time>2023-07-16T14:51:00.084+00:00</time>
      </trkpt>
      <trkpt lat="46.16416" lon="-1.35112">
        <ele>10</ele>
        <time>2023-07-16T14:51:04.105+00:00</time>
      </trkpt>
      <trkpt lat="46.16401" lon="-1.35085">
        <ele>11</ele>
        <time>2023-07-16T14:51:09.096+00:00</time>
      </trkpt>
      <trkpt lat="46.16385" lon="-1.35059">
        <ele>12</ele>
        <time>2023-07-16T14:51:14.088+00:00</time>
      </trkpt>
      <trkpt lat="46.16371" lon="-1.35031">
        <ele>14</ele>
        <time>2023-07-16T14:51:19.072+00:00</time>
      </trkpt>
      <trkpt lat="46.16361" lon="-1.35008">
        <ele>15</ele>
        <time>2023-07-16T14:51:23.104+00:00</time>
      </trkpt>
      <trkpt lat="46.16349" lon="-1.34982">
        <ele>15</ele>
        <time>2023-07-16T14:51:28.102+00:00</time>
      </trkpt>
      <trkpt lat="46.1633" lon="-1.34945">
        <ele>13</ele>
        <time>2023-07-16T14:51:33.090+00:00</time>
      </trkpt>
      <trkpt lat="46.16314" lon="-1.34915">
        <ele>13</ele>
        <time>2023-07-16T14:51:38.086+00:00</time>
      </trkpt>
      <trkpt lat="46.16303" lon="-1.3489">
        <ele>14</ele>
        <time>2023-07-16T14:51:42.100+00:00</time>
      </trkpt>
      <trkpt lat="46.16289" lon="-1.34858">
        <ele>17</ele>
        <time>2023-07-16T14:51:47.068+00:00</time>
      </trkpt>
      <trkpt lat="46.16276" lon="-1.34835">
        <ele>17</ele>
        <time>2023-07-16T14:51:51.080+00:00</time>
      </trkpt>
      <trkpt lat="46.16267" lon="-1.34811">
        <ele>17</ele>
        <time>2023-07-16T14:51:55.090+00:00</time>
      </trkpt>
      <trkpt lat="46.16261" lon="-1.34782">
        <ele>15</ele>
        <time>2023-07-16T14:51:59.096+00:00</time>
      </trkpt>
      <trkpt lat="46.16254" lon="-1.34745">
        <ele>14</ele>
        <time>2023-07-16T14:52:04.078+00:00</time>
      </trkpt>
      <trkpt lat="46.16249" lon="-1.34721">
        <ele>13</ele>
        <time>2023-07-16T14:52:08.091+00:00</time>
      </trkpt>
      <trkpt lat="46.16239" lon="-1.34702">
        <ele>11</ele>
        <time>2023-07-16T14:52:13.058+00:00</time>
      </trkpt>
      <trkpt lat="46.16233" lon="-1.34695">
        <ele>12</ele>
        <time>2023-07-16T14:52:17.095+00:00</time>
      </trkpt>
      <trkpt lat="46.1622" lon="-1.34677">
        <ele>11</ele>
        <time>2023-07-16T14:52:22.091+00:00</time>
      </trkpt>
      <trkpt lat="46.16202" lon="-1.34648">
        <ele>11</ele>
        <time>2023-07-16T14:52:27.091+00:00</time>
      </trkpt>
      <trkpt lat="46.1619" lon="-1.34629">
        <ele>11</ele>
        <time>2023-07-16T14:52:30.688+00:00</time>
      </trkpt>
      <trkpt lat="46.16179" lon="-1.34596">
        <ele>10</ele>
        <time>2023-07-16T14:52:36.065+00:00</time>
      </trkpt>
      <trkpt lat="46.16172" lon="-1.34569">
        <ele>10</ele>
        <time>2023-07-16T14:52:40.117+00:00</time>
      </trkpt>
      <trkpt lat="46.16162" lon="-1.34537">
        <ele>10</ele>
        <time>2023-07-16T14:52:45.089+00:00</time>
      </trkpt>
      <trkpt lat="46.16152" lon="-1.34501">
        <ele>9</ele>
        <time>2023-07-16T14:52:50.112+00:00</time>
      </trkpt>
      <trkpt lat="46.16141" lon="-1.34462">
        <ele>9</ele>
        <time>2023-07-16T14:52:55.045+00:00</time>
      </trkpt>
      <trkpt lat="46.16132" lon="-1.34428">
        <ele>10</ele>
        <time>2023-07-16T14:52:59.091+00:00</time>
      </trkpt>
      <trkpt lat="46.16125" lon="-1.34394">
        <ele>9</ele>
        <time>2023-07-16T14:53:03.097+00:00</time>
      </trkpt>
      <trkpt lat="46.16118" lon="-1.34354">
        <ele>11</ele>
        <time>2023-07-16T14:53:08.083+00:00</time>
      </trkpt>
      <trkpt lat="46.16105" lon="-1.34313">
        <ele>12</ele>
        <time>2023-07-16T14:53:13.105+00:00</time>
      </trkpt>
      <trkpt lat="46.16087" lon="-1.34273">
        <ele>10</ele>
        <time>2023-07-16T14:53:18.067+00:00</time>
      </trkpt>
      <trkpt lat="46.16074" lon="-1.3424">
        <ele>10</ele>
        <time>2023-07-16T14:53:22.065+00:00</time>
      </trkpt>
      <trkpt lat="46.16059" lon="-1.342">
        <ele>10</ele>
        <time>2023-07-16T14:53:27.075+00:00</time>
      </trkpt>
      <trkpt lat="46.16048" lon="-1.34158">
        <ele>11</ele>
        <time>2023-07-16T14:53:32.071+00:00</time>
      </trkpt>
      <trkpt lat="46.1604" lon="-1.34125">
        <ele>10</ele>
        <time>2023-07-16T14:53:36.107+00:00</time>
      </trkpt>
      <trkpt lat="46.16033" lon="-1.34082">
        <ele>10</ele>
        <time>2023-07-16T14:53:41.072+00:00</time>
      </trkpt>
      <trkpt lat="46.16028" lon="-1.34047">
        <ele>9</ele>
        <time>2023-07-16T14:53:45.096+00:00</time>
      </trkpt>
      <trkpt lat="46.16024" lon="-1.34014">
        <ele>9</ele>
        <time>2023-07-16T14:53:49.120+00:00</time>
      </trkpt>
      <trkpt lat="46.16018" lon="-1.33969">
        <ele>9</ele>
        <time>2023-07-16T14:53:54.105+00:00</time>
      </trkpt>
      <trkpt lat="46.16014" lon="-1.33934">
        <ele>9</ele>
        <time>2023-07-16T14:53:58.092+00:00</time>
      </trkpt>
      <trkpt lat="46.16008" lon="-1.3389">
        <ele>9</ele>
        <time>2023-07-16T14:54:03.096+00:00</time>
      </trkpt>
      <trkpt lat="46.16004" lon="-1.33855">
        <ele>9</ele>
        <time>2023-07-16T14:54:07.105+00:00</time>
      </trkpt>
      <trkpt lat="46.15999" lon="-1.33822">
        <ele>8</ele>
        <time>2023-07-16T14:54:11.096+00:00</time>
      </trkpt>
      <trkpt lat="46.15994" lon="-1.33777">
        <ele>7</ele>
        <time>2023-07-16T14:54:16.094+00:00</time>
      </trkpt>
      <trkpt lat="46.15988" lon="-1.33741">
        <ele>7</ele>
        <time>2023-07-16T14:54:20.126+00:00</time>
      </trkpt>
      <trkpt lat="46.15982" lon="-1.33699">
        <ele>6</ele>
        <time>2023-07-16T14:54:25.097+00:00</time>
      </trkpt>
      <trkpt lat="46.15978" lon="-1.33664">
        <ele>6</ele>
        <time>2023-07-16T14:54:29.111+00:00</time>
      </trkpt>
      <trkpt lat="46.15973" lon="-1.33619">
        <ele>6</ele>
        <time>2023-07-16T14:54:34.115+00:00</time>
      </trkpt>
      <trkpt lat="46.15968" lon="-1.33574">
        <ele>6</ele>
        <time>2023-07-16T14:54:39.118+00:00</time>
      </trkpt>
      <trkpt lat="46.15963" lon="-1.33537">
        <ele>4</ele>
        <time>2023-07-16T14:54:44.119+00:00</time>
      </trkpt>
      <trkpt lat="46.15957" lon="-1.33499">
        <ele>4</ele>
        <time>2023-07-16T14:54:49.093+00:00</time>
      </trkpt>
      <trkpt lat="46.15954" lon="-1.33463">
        <ele>4</ele>
        <time>2023-07-16T14:54:53.107+00:00</time>
      </trkpt>
      <trkpt lat="46.15952" lon="-1.33427">
        <ele>4</ele>
        <time>2023-07-16T14:54:57.106+00:00</time>
      </trkpt>
      <trkpt lat="46.15952" lon="-1.33387">
        <ele>3</ele>
        <time>2023-07-16T14:55:02.086+00:00</time>
      </trkpt>
      <trkpt lat="46.15954" lon="-1.33351">
        <ele>4</ele>
        <time>2023-07-16T14:55:07.096+00:00</time>
      </trkpt>
      <trkpt lat="46.15959" lon="-1.3332">
        <ele>6</ele>
        <time>2023-07-16T14:55:11.108+00:00</time>
      </trkpt>
      <trkpt lat="46.15964" lon="-1.33281">
        <ele>6</ele>
        <time>2023-07-16T14:55:16.102+00:00</time>
      </trkpt>
      <trkpt lat="46.15971" lon="-1.33251">
        <ele>6</ele>
        <time>2023-07-16T14:55:21.115+00:00</time>
      </trkpt>
      <trkpt lat="46.15977" lon="-1.33228">
        <ele>5</ele>
        <time>2023-07-16T14:55:26.066+00:00</time>
      </trkpt>
      <trkpt lat="46.15979" lon="-1.33218">
        <ele>5</ele>
        <time>2023-07-16T14:55:30.081+00:00</time>
      </trkpt>
      <trkpt lat="46.15979" lon="-1.33217">
        <ele>5</ele>
        <time>2023-07-16T14:55:35.079+00:00</time>
      </trkpt>
      <trkpt lat="46.15973" lon="-1.33214">
        <ele>5</ele>
        <time>2023-07-16T14:55:39.090+00:00</time>
      </trkpt>
      <trkpt lat="46.1597" lon="-1.33212">
        <ele>5</ele>
        <time>2023-07-16T14:55:43.237+00:00</time>
      </trkpt>
      <trkpt lat="46.15968" lon="-1.33211">
        <ele>5</ele>
        <time>2023-07-16T14:55:47.219+00:00</time>
      </trkpt>
      <trkpt lat="46.15966" lon="-1.33215">
        <ele>5</ele>
        <time>2023-07-16T14:55:51.640+00:00</time>
      </trkpt>
      <trkpt lat="46.15959" lon="-1.33202">
        <ele>4</ele>
        <time>2023-07-16T14:55:56.183+00:00</time>
      </trkpt>
      <trkpt lat="46.15953" lon="-1.33185">
        <ele>4</ele>
        <time>2023-07-16T14:55:59.648+00:00</time>
      </trkpt>
      <trkpt lat="46.15936" lon="-1.33173">
        <ele>3</ele>
        <time>2023-07-16T14:56:04.942+00:00</time>
      </trkpt>
      <trkpt lat="46.15926" lon="-1.33168">
        <ele>4</ele>
        <time>2023-07-16T14:56:09.085+00:00</time>
      </trkpt>
      <trkpt lat="46.15917" lon="-1.33159">
        <ele>4</ele>
        <time>2023-07-16T14:56:13.864+00:00</time>
      </trkpt>
      <trkpt lat="46.15921" lon="-1.33119">
        <ele>2</ele>
        <time>2023-07-16T14:56:32.504+00:00</time>
      </trkpt>
      <trkpt lat="46.15922" lon="-1.33118">
        <ele>2</ele>
        <time>2023-07-16T14:56:37.045+00:00</time>
      </trkpt>
      <trkpt lat="46.15912" lon="-1.33108">
        <ele>2</ele>
        <time>2023-07-16T14:56:41.109+00:00</time>
      </trkpt>
      <trkpt lat="46.15897" lon="-1.33097">
        <ele>4</ele>
        <time>2023-07-16T14:56:44.694+00:00</time>
      </trkpt>
      <trkpt lat="46.1588" lon="-1.33088">
        <ele>4</ele>
        <time>2023-07-16T14:56:50.073+00:00</time>
      </trkpt>
      <trkpt lat="46.15862" lon="-1.33083">
        <ele>4</ele>
        <time>2023-07-16T14:56:54.120+00:00</time>
      </trkpt>
      <trkpt lat="46.15836" lon="-1.33083">
        <ele>5</ele>
        <time>2023-07-16T14:56:59.095+00:00</time>
      </trkpt>
      <trkpt lat="46.15815" lon="-1.33081">
        <ele>5</ele>
        <time>2023-07-16T14:57:04.107+00:00</time>
      </trkpt>
      <trkpt lat="46.15797" lon="-1.33084">
        <ele>5</ele>
        <time>2023-07-16T14:57:08.588+00:00</time>
      </trkpt>
      <trkpt lat="46.15778" lon="-1.33098">
        <ele>4</ele>
        <time>2023-07-16T14:57:13.098+00:00</time>
      </trkpt>
      <trkpt lat="46.15764" lon="-1.3311">
        <ele>5</ele>
        <time>2023-07-16T14:57:17.233+00:00</time>
      </trkpt>
      <trkpt lat="46.15749" lon="-1.33118">
        <ele>5</ele>
        <time>2023-07-16T14:57:21.340+00:00</time>
      </trkpt>
      <trkpt lat="46.15733" lon="-1.33128">
        <ele>6</ele>
        <time>2023-07-16T14:57:26.086+00:00</time>
      </trkpt>
      <trkpt lat="46.15712" lon="-1.33137">
        <ele>6</ele>
        <time>2023-07-16T14:57:31.010+00:00</time>
      </trkpt>
      <trkpt lat="46.15691" lon="-1.33146">
        <ele>6</ele>
        <time>2023-07-16T14:57:36.100+00:00</time>
      </trkpt>
      <trkpt lat="46.15678" lon="-1.33151">
        <ele>6</ele>
        <time>2023-07-16T14:57:40.095+00:00</time>
      </trkpt>
      <trkpt lat="46.15664" lon="-1.33156">
        <ele>6</ele>
        <time>2023-07-16T14:57:44.103+00:00</time>
      </trkpt>
      <trkpt lat="46.15639" lon="-1.33164">
        <ele>6</ele>
        <time>2023-07-16T14:57:49.111+00:00</time>
      </trkpt>
      <trkpt lat="46.15613" lon="-1.33177">
        <ele>5</ele>
        <time>2023-07-16T14:57:54.067+00:00</time>
      </trkpt>
      <trkpt lat="46.15596" lon="-1.33185">
        <ele>5</ele>
        <time>2023-07-16T14:57:58.093+00:00</time>
      </trkpt>
      <trkpt lat="46.15576" lon="-1.33194">
        <ele>5</ele>
        <time>2023-07-16T14:58:03.091+00:00</time>
      </trkpt>
      <trkpt lat="46.15558" lon="-1.33202">
        <ele>5</ele>
        <time>2023-07-16T14:58:07.854+00:00</time>
      </trkpt>
      <trkpt lat="46.15546" lon="-1.33206">
        <ele>5</ele>
        <time>2023-07-16T14:58:12.635+00:00</time>
      </trkpt>
      <trkpt lat="46.15538" lon="-1.33184">
        <ele>5</ele>
        <time>2023-07-16T14:58:17.660+00:00</time>
      </trkpt>
      <trkpt lat="46.15533" lon="-1.33162">
        <ele>5</ele>
        <time>2023-07-16T14:58:21.836+00:00</time>
      </trkpt>
      <trkpt lat="46.15529" lon="-1.33135">
        <ele>5</ele>
        <time>2023-07-16T14:58:26.499+00:00</time>
      </trkpt>
      <trkpt lat="46.15526" lon="-1.33114">
        <ele>5</ele>
        <time>2023-07-16T14:58:30.675+00:00</time>
      </trkpt>
      <trkpt lat="46.15523" lon="-1.33093">
        <ele>5</ele>
        <time>2023-07-16T14:58:34.627+00:00</time>
      </trkpt>
      <trkpt lat="46.15519" lon="-1.33076">
        <ele>5</ele>
        <time>2023-07-16T14:58:38.809+00:00</time>
      </trkpt>
      <trkpt lat="46.15512" lon="-1.33045">
        <ele>5</ele>
        <time>2023-07-16T14:58:44.084+00:00</time>
      </trkpt>
      <trkpt lat="46.15503" lon="-1.33013">
        <ele>5</ele>
        <time>2023-07-16T14:58:48.093+00:00</time>
      </trkpt>
      <trkpt lat="46.15494" lon="-1.32987">
        <ele>5</ele>
        <time>2023-07-16T14:58:52.100+00:00</time>
      </trkpt>
      <trkpt lat="46.15486" lon="-1.32958">
        <ele>5</ele>
        <time>2023-07-16T14:58:57.111+00:00</time>
      </trkpt>
      <trkpt lat="46.15478" lon="-1.32937">
        <ele>4</ele>
        <time>2023-07-16T14:59:01.724+00:00</time>
      </trkpt>
      <trkpt lat="46.15477" lon="-1.32901">
        <ele>3</ele>
        <time>2023-07-16T14:59:07.103+00:00</time>
      </trkpt>
      <trkpt lat="46.15479" lon="-1.3287">
        <ele>3</ele>
        <time>2023-07-16T14:59:12.026+00:00</time>
      </trkpt>
      <trkpt lat="46.15482" lon="-1.32848">
        <ele>3</ele>
        <time>2023-07-16T14:59:16.203+00:00</time>
      </trkpt>
      <trkpt lat="46.15486" lon="-1.32817">
        <ele>3</ele>
        <time>2023-07-16T14:59:21.067+00:00</time>
      </trkpt>
      <trkpt lat="46.15485" lon="-1.32793">
        <ele>3</ele>
        <time>2023-07-16T14:59:25.059+00:00</time>
      </trkpt>
      <trkpt lat="46.15485" lon="-1.32762">
        <ele>4</ele>
        <time>2023-07-16T14:59:30.084+00:00</time>
      </trkpt>
      <trkpt lat="46.15484" lon="-1.32734">
        <ele>3</ele>
        <time>2023-07-16T14:59:34.101+00:00</time>
      </trkpt>
      <trkpt lat="46.15481" lon="-1.32698">
        <ele>4</ele>
        <time>2023-07-16T14:59:39.094+00:00</time>
      </trkpt>
      <trkpt lat="46.15479" lon="-1.3266">
        <ele>4</ele>
        <time>2023-07-16T14:59:44.094+00:00</time>
      </trkpt>
      <trkpt lat="46.15476" lon="-1.32633">
        <ele>5</ele>
        <time>2023-07-16T14:59:49.069+00:00</time>
      </trkpt>
      <trkpt lat="46.15475" lon="-1.32613">
        <ele>5</ele>
        <time>2023-07-16T14:59:53.152+00:00</time>
      </trkpt>
      <trkpt lat="46.15474" lon="-1.32573">
        <ele>5</ele>
        <time>2023-07-16T14:59:58.095+00:00</time>
      </trkpt>
      <trkpt lat="46.15471" lon="-1.3253">
        <ele>5</ele>
        <time>2023-07-16T15:00:03.063+00:00</time>
      </trkpt>
      <trkpt lat="46.15469" lon="-1.32497">
        <ele>5</ele>
        <time>2023-07-16T15:00:07.099+00:00</time>
      </trkpt>
      <trkpt lat="46.15466" lon="-1.32459">
        <ele>6</ele>
        <time>2023-07-16T15:00:12.082+00:00</time>
      </trkpt>
      <trkpt lat="46.15464" lon="-1.32401">
        <ele>6</ele>
        <time>2023-07-16T15:00:44.682+00:00</time>
      </trkpt>
      <trkpt lat="46.15462" lon="-1.32394">
        <ele>6</ele>
        <time>2023-07-16T15:00:50.037+00:00</time>
      </trkpt>
      <trkpt lat="46.15461" lon="-1.3239">
        <ele>6</ele>
        <time>2023-07-16T15:00:53.693+00:00</time>
      </trkpt>
      <trkpt lat="46.15461" lon="-1.32368">
        <ele>6</ele>
        <time>2023-07-16T15:00:58.696+00:00</time>
      </trkpt>
      <trkpt lat="46.15458" lon="-1.32329">
        <ele>7</ele>
        <time>2023-07-16T15:01:03.043+00:00</time>
      </trkpt>
      <trkpt lat="46.15454" lon="-1.32297">
        <ele>7</ele>
        <time>2023-07-16T15:01:07.054+00:00</time>
      </trkpt>
      <trkpt lat="46.15448" lon="-1.32265">
        <ele>7</ele>
        <time>2023-07-16T15:01:12.051+00:00</time>
      </trkpt>
      <trkpt lat="46.1544" lon="-1.32238">
        <ele>8</ele>
        <time>2023-07-16T15:01:17.051+00:00</time>
      </trkpt>
      <trkpt lat="46.15429" lon="-1.32211">
        <ele>8</ele>
        <time>2023-07-16T15:01:21.044+00:00</time>
      </trkpt>
      <trkpt lat="46.15421" lon="-1.3219">
        <ele>8</ele>
        <time>2023-07-16T15:01:24.641+00:00</time>
      </trkpt>
      <trkpt lat="46.15413" lon="-1.32168">
        <ele>8</ele>
        <time>2023-07-16T15:01:29.330+00:00</time>
      </trkpt>
      <trkpt lat="46.15406" lon="-1.32141">
        <ele>9</ele>
        <time>2023-07-16T15:01:33.599+00:00</time>
      </trkpt>
      <trkpt lat="46.15398" lon="-1.32121">
        <ele>9</ele>
        <time>2023-07-16T15:01:37.704+00:00</time>
      </trkpt>
      <trkpt lat="46.15392" lon="-1.32103">
        <ele>9</ele>
        <time>2023-07-16T15:01:41.883+00:00</time>
      </trkpt>
      <trkpt lat="46.15385" lon="-1.32081">
        <ele>9</ele>
        <time>2023-07-16T15:01:46.006+00:00</time>
      </trkpt>
      <trkpt lat="46.15375" lon="-1.32048">
        <ele>8</ele>
        <time>2023-07-16T15:01:51.045+00:00</time>
      </trkpt>
      <trkpt lat="46.15367" lon="-1.32031">
        <ele>9</ele>
        <time>2023-07-16T15:01:54.927+00:00</time>
      </trkpt>
      <trkpt lat="46.1536" lon="-1.32011">
        <ele>9</ele>
        <time>2023-07-16T15:01:59.566+00:00</time>
      </trkpt>
      <trkpt lat="46.15354" lon="-1.31986">
        <ele>10</ele>
        <time>2023-07-16T15:02:03.566+00:00</time>
      </trkpt>
      <trkpt lat="46.15348" lon="-1.31963">
        <ele>10</ele>
        <time>2023-07-16T15:02:08.108+00:00</time>
      </trkpt>
      <trkpt lat="46.15343" lon="-1.31945">
        <ele>10</ele>
        <time>2023-07-16T15:02:12.353+00:00</time>
      </trkpt>
      <trkpt lat="46.15337" lon="-1.31919">
        <ele>9</ele>
        <time>2023-07-16T15:02:16.609+00:00</time>
      </trkpt>
      <trkpt lat="46.15333" lon="-1.31892">
        <ele>9</ele>
        <time>2023-07-16T15:02:20.870+00:00</time>
      </trkpt>
      <trkpt lat="46.15328" lon="-1.31865">
        <ele>9</ele>
        <time>2023-07-16T15:02:25.190+00:00</time>
      </trkpt>
      <trkpt lat="46.15325" lon="-1.31835">
        <ele>10</ele>
        <time>2023-07-16T15:02:30.052+00:00</time>
      </trkpt>
      <trkpt lat="46.15321" lon="-1.3181">
        <ele>10</ele>
        <time>2023-07-16T15:02:34.350+00:00</time>
      </trkpt>
      <trkpt lat="46.15319" lon="-1.3179">
        <ele>11</ele>
        <time>2023-07-16T15:02:39.031+00:00</time>
      </trkpt>
      <trkpt lat="46.15318" lon="-1.31768">
        <ele>11</ele>
        <time>2023-07-16T15:02:43.152+00:00</time>
      </trkpt>
      <trkpt lat="46.15315" lon="-1.31738">
        <ele>10</ele>
        <time>2023-07-16T15:02:47.689+00:00</time>
      </trkpt>
      <trkpt lat="46.15313" lon="-1.31717">
        <ele>9</ele>
        <time>2023-07-16T15:02:52.161+00:00</time>
      </trkpt>
      <trkpt lat="46.1531" lon="-1.31698">
        <ele>9</ele>
        <time>2023-07-16T15:02:56.194+00:00</time>
      </trkpt>
      <trkpt lat="46.15303" lon="-1.31672">
        <ele>8</ele>
        <time>2023-07-16T15:03:00.828+00:00</time>
      </trkpt>
      <trkpt lat="46.15302" lon="-1.31648">
        <ele>8</ele>
        <time>2023-07-16T15:03:05.021+00:00</time>
      </trkpt>
      <trkpt lat="46.153" lon="-1.3163">
        <ele>8</ele>
        <time>2023-07-16T15:03:09.335+00:00</time>
      </trkpt>
      <trkpt lat="46.15299" lon="-1.31606">
        <ele>9</ele>
        <time>2023-07-16T15:03:13.987+00:00</time>
      </trkpt>
      <trkpt lat="46.153" lon="-1.31585">
        <ele>9</ele>
        <time>2023-07-16T15:03:18.064+00:00</time>
      </trkpt>
      <trkpt lat="46.153" lon="-1.31557">
        <ele>9</ele>
        <time>2023-07-16T15:03:22.090+00:00</time>
      </trkpt>
      <trkpt lat="46.15298" lon="-1.31528">
        <ele>10</ele>
        <time>2023-07-16T15:03:26.621+00:00</time>
      </trkpt>
      <trkpt lat="46.15295" lon="-1.31501">
        <ele>10</ele>
        <time>2023-07-16T15:03:30.812+00:00</time>
      </trkpt>
      <trkpt lat="46.15289" lon="-1.31467">
        <ele>10</ele>
        <time>2023-07-16T15:03:36.088+00:00</time>
      </trkpt>
      <trkpt lat="46.15286" lon="-1.31439">
        <ele>10</ele>
        <time>2023-07-16T15:03:40.107+00:00</time>
      </trkpt>
      <trkpt lat="46.15281" lon="-1.31404">
        <ele>10</ele>
        <time>2023-07-16T15:03:45.089+00:00</time>
      </trkpt>
      <trkpt lat="46.15277" lon="-1.31369">
        <ele>10</ele>
        <time>2023-07-16T15:03:50.093+00:00</time>
      </trkpt>
      <trkpt lat="46.15273" lon="-1.31336">
        <ele>10</ele>
        <time>2023-07-16T15:03:55.087+00:00</time>
      </trkpt>
      <trkpt lat="46.15269" lon="-1.31307">
        <ele>11</ele>
        <time>2023-07-16T15:04:00.060+00:00</time>
      </trkpt>
      <trkpt lat="46.15261" lon="-1.31281">
        <ele>11</ele>
        <time>2023-07-16T15:04:04.079+00:00</time>
      </trkpt>
      <trkpt lat="46.15253" lon="-1.31263">
        <ele>11</ele>
        <time>2023-07-16T15:04:08.270+00:00</time>
      </trkpt>
      <trkpt lat="46.15242" lon="-1.31242">
        <ele>11</ele>
        <time>2023-07-16T15:04:12.457+00:00</time>
      </trkpt>
      <trkpt lat="46.15232" lon="-1.31237">
        <ele>11</ele>
        <time>2023-07-16T15:04:17.099+00:00</time>
      </trkpt>
      <trkpt lat="46.15215" lon="-1.31232">
        <ele>11</ele>
        <time>2023-07-16T15:04:21.686+00:00</time>
      </trkpt>
      <trkpt lat="46.15199" lon="-1.31228">
        <ele>11</ele>
        <time>2023-07-16T15:04:25.623+00:00</time>
      </trkpt>
      <trkpt lat="46.15181" lon="-1.31219">
        <ele>11</ele>
        <time>2023-07-16T15:04:30.890+00:00</time>
      </trkpt>
      <trkpt lat="46.15163" lon="-1.3121">
        <ele>11</ele>
        <time>2023-07-16T15:04:35.063+00:00</time>
      </trkpt>
      <trkpt lat="46.15146" lon="-1.31199">
        <ele>11</ele>
        <time>2023-07-16T15:04:39.098+00:00</time>
      </trkpt>
      <trkpt lat="46.15123" lon="-1.31184">
        <ele>10</ele>
        <time>2023-07-16T15:04:44.074+00:00</time>
      </trkpt>
      <trkpt lat="46.15106" lon="-1.31171">
        <ele>11</ele>
        <time>2023-07-16T15:04:48.091+00:00</time>
      </trkpt>
      <trkpt lat="46.15087" lon="-1.31148">
        <ele>11</ele>
        <time>2023-07-16T15:04:53.096+00:00</time>
      </trkpt>
      <trkpt lat="46.15072" lon="-1.31131">
        <ele>11</ele>
        <time>2023-07-16T15:04:58.059+00:00</time>
      </trkpt>
      <trkpt lat="46.15055" lon="-1.31113">
        <ele>11</ele>
        <time>2023-07-16T15:05:02.065+00:00</time>
      </trkpt>
      <trkpt lat="46.1504" lon="-1.31096">
        <ele>10</ele>
        <time>2023-07-16T15:05:06.079+00:00</time>
      </trkpt>
      <trkpt lat="46.15021" lon="-1.3108">
        <ele>10</ele>
        <time>2023-07-16T15:05:11.071+00:00</time>
      </trkpt>
      <trkpt lat="46.15001" lon="-1.31067">
        <ele>10</ele>
        <time>2023-07-16T15:05:16.064+00:00</time>
      </trkpt>
      <trkpt lat="46.14982" lon="-1.31056">
        <ele>10</ele>
        <time>2023-07-16T15:05:20.601+00:00</time>
      </trkpt>
      <trkpt lat="46.14965" lon="-1.31047">
        <ele>10</ele>
        <time>2023-07-16T15:05:25.268+00:00</time>
      </trkpt>
      <trkpt lat="46.14953" lon="-1.31028">
        <ele>9</ele>
        <time>2023-07-16T15:05:29.456+00:00</time>
      </trkpt>
      <trkpt lat="46.14938" lon="-1.31028">
        <ele>9</ele>
        <time>2023-07-16T15:05:33.883+00:00</time>
      </trkpt>
      <trkpt lat="46.1493" lon="-1.31026">
        <ele>8</ele>
        <time>2023-07-16T15:05:38.072+00:00</time>
      </trkpt>
      <trkpt lat="46.14931" lon="-1.31021">
        <ele>9</ele>
        <time>2023-07-16T15:05:42.501+00:00</time>
      </trkpt>
      <trkpt lat="46.14928" lon="-1.31021">
        <ele>8</ele>
        <time>2023-07-16T15:05:47.048+00:00</time>
      </trkpt>
      <trkpt lat="46.1493" lon="-1.31042">
        <ele>8</ele>
        <time>2023-07-16T15:05:51.236+00:00</time>
      </trkpt>
      <trkpt lat="46.14924" lon="-1.3107">
        <ele>8</ele>
        <time>2023-07-16T15:05:55.904+00:00</time>
      </trkpt>
      <trkpt lat="46.14923" lon="-1.31094">
        <ele>8</ele>
        <time>2023-07-16T15:06:00.080+00:00</time>
      </trkpt>
      <trkpt lat="46.14922" lon="-1.31116">
        <ele>8</ele>
        <time>2023-07-16T15:06:04.280+00:00</time>
      </trkpt>
      <trkpt lat="46.14915" lon="-1.31126">
        <ele>9</ele>
        <time>2023-07-16T15:06:08.827+00:00</time>
      </trkpt>
      <trkpt lat="46.14905" lon="-1.31129">
        <ele>9</ele>
        <time>2023-07-16T15:06:12.656+00:00</time>
      </trkpt>
      <trkpt lat="46.14892" lon="-1.31132">
        <ele>9</ele>
        <time>2023-07-16T15:06:17.442+00:00</time>
      </trkpt>
      <trkpt lat="46.1489" lon="-1.3114">
        <ele>9</ele>
        <time>2023-07-16T15:06:21.628+00:00</time>
      </trkpt>
      <trkpt lat="46.14886" lon="-1.31147">
        <ele>9</ele>
        <time>2023-07-16T15:06:49.784+00:00</time>
      </trkpt>
      <trkpt lat="46.14885" lon="-1.31147">
        <ele>9</ele>
        <time>2023-07-16T15:06:53.792+00:00</time>
      </trkpt>
      <trkpt lat="46.14884" lon="-1.31146">
        <ele>9</ele>
        <time>2023-07-16T15:06:58.811+00:00</time>
      </trkpt>
      <trkpt lat="46.14885" lon="-1.31147">
        <ele>9</ele>
        <time>2023-07-16T15:07:02.926+00:00</time>
      </trkpt>
      <trkpt lat="46.14884" lon="-1.31148">
        <ele>9</ele>
        <time>2023-07-16T15:07:06.957+00:00</time>
      </trkpt>
      <trkpt lat="46.14889" lon="-1.31138">
        <ele>9</ele>
        <time>2023-07-16T15:07:28.561+00:00</time>
      </trkpt>
      <trkpt lat="46.1489" lon="-1.31131">
        <ele>9</ele>
        <time>2023-07-16T15:07:33.076+00:00</time>
      </trkpt>
      <trkpt lat="46.14892" lon="-1.31127">
        <ele>9</ele>
        <time>2023-07-16T15:07:37.592+00:00</time>
      </trkpt>
      <trkpt lat="46.14894" lon="-1.31126">
        <ele>9</ele>
        <time>2023-07-16T15:07:42.110+00:00</time>
      </trkpt>
      <trkpt lat="46.14896" lon="-1.31125">
        <ele>9</ele>
        <time>2023-07-16T15:07:46.626+00:00</time>
      </trkpt>
      <trkpt lat="46.14896" lon="-1.31131">
        <ele>9</ele>
        <time>2023-07-16T15:08:26.904+00:00</time>
      </trkpt>
      <trkpt lat="46.14891" lon="-1.31133">
        <ele>9</ele>
        <time>2023-07-16T15:08:30.906+00:00</time>
      </trkpt>
      <trkpt lat="46.1489" lon="-1.31132">
        <ele>9</ele>
        <time>2023-07-16T15:08:36.009+00:00</time>
      </trkpt>
      <trkpt lat="46.14889" lon="-1.31132">
        <ele>9</ele>
        <time>2023-07-16T15:08:39.531+00:00</time>
      </trkpt>
      <trkpt lat="46.14887" lon="-1.31116">
        <ele>8</ele>
        <time>2023-07-16T15:08:48.544+00:00</time>
      </trkpt>
      <trkpt lat="46.14893" lon="-1.31116">
        <ele>8</ele>
        <time>2023-07-16T15:08:53.052+00:00</time>
      </trkpt>
      <trkpt lat="46.14889" lon="-1.31115">
        <ele>8</ele>
        <time>2023-07-16T15:08:57.061+00:00</time>
      </trkpt>
      <trkpt lat="46.14889" lon="-1.31102">
        <ele>8</ele>
        <time>2023-07-16T15:09:01.075+00:00</time>
      </trkpt>
      <trkpt lat="46.14891" lon="-1.31089">
        <ele>8</ele>
        <time>2023-07-16T15:09:05.583+00:00</time>
      </trkpt>
      <trkpt lat="46.14891" lon="-1.31079">
        <ele>8</ele>
        <time>2023-07-16T15:09:09.594+00:00</time>
      </trkpt>
      <trkpt lat="46.14887" lon="-1.31071">
        <ele>8</ele>
        <time>2023-07-16T15:09:14.608+00:00</time>
      </trkpt>
      <trkpt lat="46.14886" lon="-1.3107">
        <ele>8</ele>
        <time>2023-07-16T15:09:19.124+00:00</time>
      </trkpt>
      <trkpt lat="46.14884" lon="-1.31068">
        <ele>7</ele>
        <time>2023-07-16T15:09:23.640+00:00</time>
      </trkpt>
      <trkpt lat="46.14881" lon="-1.31071">
        <ele>8</ele>
        <time>2023-07-16T15:09:28.154+00:00</time>
      </trkpt>
      <trkpt lat="46.14881" lon="-1.31082">
        <ele>8</ele>
        <time>2023-07-16T15:09:32.663+00:00</time>
      </trkpt>
      <trkpt lat="46.14879" lon="-1.31092">
        <ele>8</ele>
        <time>2023-07-16T15:09:36.672+00:00</time>
      </trkpt>
      <trkpt lat="46.14883" lon="-1.31101">
        <ele>8</ele>
        <time>2023-07-16T15:09:40.687+00:00</time>
      </trkpt>
      <trkpt lat="46.14878" lon="-1.31103">
        <ele>8</ele>
        <time>2023-07-16T15:09:45.704+00:00</time>
      </trkpt>
      <trkpt lat="46.14876" lon="-1.31111">
        <ele>8</ele>
        <time>2023-07-16T15:09:50.318+00:00</time>
      </trkpt>
      <trkpt lat="46.14878" lon="-1.31121">
        <ele>8</ele>
        <time>2023-07-16T15:09:54.825+00:00</time>
      </trkpt>
      <trkpt lat="46.14879" lon="-1.31125">
        <ele>9</ele>
        <time>2023-07-16T15:09:59.430+00:00</time>
      </trkpt>
      <trkpt lat="46.14883" lon="-1.31136">
        <ele>9</ele>
        <time>2023-07-16T15:10:26.886+00:00</time>
      </trkpt>
      <trkpt lat="46.14886" lon="-1.31135">
        <ele>9</ele>
        <time>2023-07-16T15:10:32.063+00:00</time>
      </trkpt>
      <trkpt lat="46.14898" lon="-1.3113">
        <ele>9</ele>
        <time>2023-07-16T15:10:36.402+00:00</time>
      </trkpt>
      <trkpt lat="46.14911" lon="-1.31126">
        <ele>9</ele>
        <time>2023-07-16T15:10:41.022+00:00</time>
      </trkpt>
      <trkpt lat="46.14919" lon="-1.31121">
        <ele>8</ele>
        <time>2023-07-16T15:10:45.579+00:00</time>
      </trkpt>
      <trkpt lat="46.1492" lon="-1.311">
        <ele>8</ele>
        <time>2023-07-16T15:10:50.060+00:00</time>
      </trkpt>
      <trkpt lat="46.14917" lon="-1.3108">
        <ele>8</ele>
        <time>2023-07-16T15:10:55.054+00:00</time>
      </trkpt>
      <trkpt lat="46.14918" lon="-1.31063">
        <ele>8</ele>
        <time>2023-07-16T15:10:58.871+00:00</time>
      </trkpt>
      <trkpt lat="46.14922" lon="-1.31046">
        <ele>8</ele>
        <time>2023-07-16T15:11:03.312+00:00</time>
      </trkpt>
      <trkpt lat="46.14928" lon="-1.31028">
        <ele>8</ele>
        <time>2023-07-16T15:11:07.292+00:00</time>
      </trkpt>
      <trkpt lat="46.14936" lon="-1.31014">
        <ele>9</ele>
        <time>2023-07-16T15:11:11.790+00:00</time>
      </trkpt>
      <trkpt lat="46.14933" lon="-1.30998">
        <ele>8</ele>
        <time>2023-07-16T15:11:15.768+00:00</time>
      </trkpt>
      <trkpt lat="46.14929" lon="-1.30972">
        <ele>8</ele>
        <time>2023-07-16T15:11:21.074+00:00</time>
      </trkpt>
      <trkpt lat="46.14924" lon="-1.30947">
        <ele>8</ele>
        <time>2023-07-16T15:11:25.602+00:00</time>
      </trkpt>
      <trkpt lat="46.14921" lon="-1.30925">
        <ele>9</ele>
        <time>2023-07-16T15:11:30.199+00:00</time>
      </trkpt>
      <trkpt lat="46.14915" lon="-1.30902">
        <ele>9</ele>
        <time>2023-07-16T15:11:34.616+00:00</time>
      </trkpt>
      <trkpt lat="46.1491" lon="-1.30878">
        <ele>9</ele>
        <time>2023-07-16T15:11:38.612+00:00</time>
      </trkpt>
      <trkpt lat="46.14905" lon="-1.30848">
        <ele>8</ele>
        <time>2023-07-16T15:11:43.826+00:00</time>
      </trkpt>
      <trkpt lat="46.14903" lon="-1.30825">
        <ele>8</ele>
        <time>2023-07-16T15:11:47.741+00:00</time>
      </trkpt>
      <trkpt lat="46.14898" lon="-1.30788">
        <ele>6</ele>
        <time>2023-07-16T15:11:53.075+00:00</time>
      </trkpt>
      <trkpt lat="46.14896" lon="-1.30758">
        <ele>6</ele>
        <time>2023-07-16T15:11:57.100+00:00</time>
      </trkpt>
      <trkpt lat="46.14895" lon="-1.30729">
        <ele>6</ele>
        <time>2023-07-16T15:12:01.113+00:00</time>
      </trkpt>
      <trkpt lat="46.14894" lon="-1.30694">
        <ele>6</ele>
        <time>2023-07-16T15:12:06.065+00:00</time>
      </trkpt>
      <trkpt lat="46.14894" lon="-1.30667">
        <ele>6</ele>
        <time>2023-07-16T15:12:10.111+00:00</time>
      </trkpt>
      <trkpt lat="46.14894" lon="-1.30632">
        <ele>6</ele>
        <time>2023-07-16T15:12:15.093+00:00</time>
      </trkpt>
      <trkpt lat="46.14893" lon="-1.30598">
        <ele>6</ele>
        <time>2023-07-16T15:12:20.105+00:00</time>
      </trkpt>
      <trkpt lat="46.14894" lon="-1.30571">
        <ele>7</ele>
        <time>2023-07-16T15:12:24.090+00:00</time>
      </trkpt>
      <trkpt lat="46.14893" lon="-1.30536">
        <ele>7</ele>
        <time>2023-07-16T15:12:29.091+00:00</time>
      </trkpt>
      <trkpt lat="46.14891" lon="-1.305">
        <ele>8</ele>
        <time>2023-07-16T15:12:34.096+00:00</time>
      </trkpt>
      <trkpt lat="46.14889" lon="-1.30466">
        <ele>8</ele>
        <time>2023-07-16T15:12:39.086+00:00</time>
      </trkpt>
      <trkpt lat="46.14888" lon="-1.3043">
        <ele>8</ele>
        <time>2023-07-16T15:12:44.068+00:00</time>
      </trkpt>
      <trkpt lat="46.14886" lon="-1.30401">
        <ele>8</ele>
        <time>2023-07-16T15:12:48.057+00:00</time>
      </trkpt>
      <trkpt lat="46.14888" lon="-1.30374">
        <ele>8</ele>
        <time>2023-07-16T15:12:53.109+00:00</time>
      </trkpt>
      <trkpt lat="46.14889" lon="-1.30354">
        <ele>8</ele>
        <time>2023-07-16T15:12:57.519+00:00</time>
      </trkpt>
      <trkpt lat="46.1489" lon="-1.30324">
        <ele>9</ele>
        <time>2023-07-16T15:13:02.086+00:00</time>
      </trkpt>
      <trkpt lat="46.14893" lon="-1.30297">
        <ele>8</ele>
        <time>2023-07-16T15:13:06.117+00:00</time>
      </trkpt>
      <trkpt lat="46.14899" lon="-1.30273">
        <ele>8</ele>
        <time>2023-07-16T15:13:10.238+00:00</time>
      </trkpt>
      <trkpt lat="46.14903" lon="-1.30239">
        <ele>7</ele>
        <time>2023-07-16T15:13:15.077+00:00</time>
      </trkpt>
      <trkpt lat="46.14907" lon="-1.30204">
        <ele>7</ele>
        <time>2023-07-16T15:13:20.095+00:00</time>
      </trkpt>
      <trkpt lat="46.14909" lon="-1.30176">
        <ele>8</ele>
        <time>2023-07-16T15:13:24.096+00:00</time>
      </trkpt>
      <trkpt lat="46.1491" lon="-1.30153">
        <ele>7</ele>
        <time>2023-07-16T15:13:28.103+00:00</time>
      </trkpt>
      <trkpt lat="46.14913" lon="-1.30114">
        <ele>7</ele>
        <time>2023-07-16T15:13:33.113+00:00</time>
      </trkpt>
      <trkpt lat="46.14918" lon="-1.30077">
        <ele>6</ele>
        <time>2023-07-16T15:13:38.092+00:00</time>
      </trkpt>
      <trkpt lat="46.14921" lon="-1.30046">
        <ele>6</ele>
        <time>2023-07-16T15:13:42.120+00:00</time>
      </trkpt>
      <trkpt lat="46.14927" lon="-1.30006">
        <ele>6</ele>
        <time>2023-07-16T15:13:47.078+00:00</time>
      </trkpt>
      <trkpt lat="46.14934" lon="-1.29973">
        <ele>6</ele>
        <time>2023-07-16T15:13:51.107+00:00</time>
      </trkpt>
      <trkpt lat="46.1494" lon="-1.29933">
        <ele>5</ele>
        <time>2023-07-16T15:13:56.090+00:00</time>
      </trkpt>
      <trkpt lat="46.14945" lon="-1.29894">
        <ele>5</ele>
        <time>2023-07-16T15:14:01.100+00:00</time>
      </trkpt>
      <trkpt lat="46.14948" lon="-1.29863">
        <ele>5</ele>
        <time>2023-07-16T15:14:05.117+00:00</time>
      </trkpt>
      <trkpt lat="46.14951" lon="-1.29819">
        <ele>4</ele>
        <time>2023-07-16T15:14:10.088+00:00</time>
      </trkpt>
      <trkpt lat="46.14955" lon="-1.29776">
        <ele>4</ele>
        <time>2023-07-16T15:14:15.093+00:00</time>
      </trkpt>
      <trkpt lat="46.14958" lon="-1.29734">
        <ele>6</ele>
        <time>2023-07-16T15:14:20.063+00:00</time>
      </trkpt>
      <trkpt lat="46.1496" lon="-1.29699">
        <ele>8</ele>
        <time>2023-07-16T15:14:24.105+00:00</time>
      </trkpt>
      <trkpt lat="46.1496" lon="-1.29658">
        <ele>9</ele>
        <time>2023-07-16T15:14:29.099+00:00</time>
      </trkpt>
      <trkpt lat="46.14961" lon="-1.29621">
        <ele>8</ele>
        <time>2023-07-16T15:14:34.083+00:00</time>
      </trkpt>
      <trkpt lat="46.14962" lon="-1.2958">
        <ele>7</ele>
        <time>2023-07-16T15:14:39.069+00:00</time>
      </trkpt>
      <trkpt lat="46.14963" lon="-1.29547">
        <ele>7</ele>
        <time>2023-07-16T15:14:43.110+00:00</time>
      </trkpt>
      <trkpt lat="46.14962" lon="-1.29507">
        <ele>6</ele>
        <time>2023-07-16T15:14:48.087+00:00</time>
      </trkpt>
      <trkpt lat="46.14962" lon="-1.29469">
        <ele>6</ele>
        <time>2023-07-16T15:14:53.071+00:00</time>
      </trkpt>
      <trkpt lat="46.14962" lon="-1.29438">
        <ele>6</ele>
        <time>2023-07-16T15:14:57.081+00:00</time>
      </trkpt>
      <trkpt lat="46.14965" lon="-1.29404">
        <ele>6</ele>
        <time>2023-07-16T15:15:01.117+00:00</time>
      </trkpt>
      <trkpt lat="46.14968" lon="-1.29363">
        <ele>6</ele>
        <time>2023-07-16T15:15:06.090+00:00</time>
      </trkpt>
      <trkpt lat="46.14973" lon="-1.29328">
        <ele>6</ele>
        <time>2023-07-16T15:15:10.102+00:00</time>
      </trkpt>
      <trkpt lat="46.14978" lon="-1.29284">
        <ele>6</ele>
        <time>2023-07-16T15:15:15.087+00:00</time>
      </trkpt>
      <trkpt lat="46.14984" lon="-1.29238">
        <ele>5</ele>
        <time>2023-07-16T15:15:20.073+00:00</time>
      </trkpt>
      <trkpt lat="46.14988" lon="-1.29201">
        <ele>3</ele>
        <time>2023-07-16T15:15:24.066+00:00</time>
      </trkpt>
      <trkpt lat="46.1499" lon="-1.29165">
        <ele>2</ele>
        <time>2023-07-16T15:15:28.092+00:00</time>
      </trkpt>
      <trkpt lat="46.14988" lon="-1.2912">
        <ele>1</ele>
        <time>2023-07-16T15:15:33.062+00:00</time>
      </trkpt>
      <trkpt lat="46.14986" lon="-1.29086">
        <ele>1</ele>
        <time>2023-07-16T15:15:37.075+00:00</time>
      </trkpt>
      <trkpt lat="46.14982" lon="-1.29055">
        <ele>1</ele>
        <time>2023-07-16T15:15:41.096+00:00</time>
      </trkpt>
      <trkpt lat="46.14978" lon="-1.29017">
        <ele>2</ele>
        <time>2023-07-16T15:15:46.066+00:00</time>
      </trkpt>
      <trkpt lat="46.14974" lon="-1.28986">
        <ele>3</ele>
        <time>2023-07-16T15:15:50.078+00:00</time>
      </trkpt>
      <trkpt lat="46.14969" lon="-1.28948">
        <ele>3</ele>
        <time>2023-07-16T15:15:55.071+00:00</time>
      </trkpt>
      <trkpt lat="46.14963" lon="-1.28917">
        <ele>2</ele>
        <time>2023-07-16T15:15:59.084+00:00</time>
      </trkpt>
      <trkpt lat="46.14954" lon="-1.28882">
        <ele>2</ele>
        <time>2023-07-16T15:16:04.122+00:00</time>
      </trkpt>
      <trkpt lat="46.14945" lon="-1.28844">
        <ele>1</ele>
        <time>2023-07-16T15:16:09.095+00:00</time>
      </trkpt>
      <trkpt lat="46.14936" lon="-1.28818">
        <ele>1</ele>
        <time>2023-07-16T15:16:13.106+00:00</time>
      </trkpt>
      <trkpt lat="46.14927" lon="-1.28781">
        <ele>2</ele>
        <time>2023-07-16T15:16:18.078+00:00</time>
      </trkpt>
      <trkpt lat="46.14929" lon="-1.28753">
        <ele>2</ele>
        <time>2023-07-16T15:16:22.086+00:00</time>
      </trkpt>
      <trkpt lat="46.14934" lon="-1.28716">
        <ele>3</ele>
        <time>2023-07-16T15:16:27.073+00:00</time>
      </trkpt>
      <trkpt lat="46.14938" lon="-1.2869">
        <ele>5</ele>
        <time>2023-07-16T15:16:31.076+00:00</time>
      </trkpt>
      <trkpt lat="46.14942" lon="-1.28658">
        <ele>5</ele>
        <time>2023-07-16T15:16:36.089+00:00</time>
      </trkpt>
      <trkpt lat="46.1495" lon="-1.28626">
        <ele>6</ele>
        <time>2023-07-16T15:16:41.104+00:00</time>
      </trkpt>
      <trkpt lat="46.14962" lon="-1.28598">
        <ele>6</ele>
        <time>2023-07-16T15:16:46.095+00:00</time>
      </trkpt>
      <trkpt lat="46.14972" lon="-1.28575">
        <ele>6</ele>
        <time>2023-07-16T15:16:50.090+00:00</time>
      </trkpt>
      <trkpt lat="46.14986" lon="-1.28548">
        <ele>5</ele>
        <time>2023-07-16T15:16:55.081+00:00</time>
      </trkpt>
      <trkpt lat="46.14997" lon="-1.28527">
        <ele>4</ele>
        <time>2023-07-16T15:16:59.082+00:00</time>
      </trkpt>
      <trkpt lat="46.15013" lon="-1.28499">
        <ele>4</ele>
        <time>2023-07-16T15:17:04.061+00:00</time>
      </trkpt>
      <trkpt lat="46.15023" lon="-1.28477">
        <ele>6</ele>
        <time>2023-07-16T15:17:08.103+00:00</time>
      </trkpt>
      <trkpt lat="46.15037" lon="-1.28449">
        <ele>6</ele>
        <time>2023-07-16T15:17:13.087+00:00</time>
      </trkpt>
      <trkpt lat="46.15046" lon="-1.28424">
        <ele>6</ele>
        <time>2023-07-16T15:17:17.082+00:00</time>
      </trkpt>
      <trkpt lat="46.15055" lon="-1.28399">
        <ele>6</ele>
        <time>2023-07-16T15:17:21.107+00:00</time>
      </trkpt>
      <trkpt lat="46.15065" lon="-1.28366">
        <ele>6</ele>
        <time>2023-07-16T15:17:26.108+00:00</time>
      </trkpt>
      <trkpt lat="46.15075" lon="-1.28333">
        <ele>5</ele>
        <time>2023-07-16T15:17:31.075+00:00</time>
      </trkpt>
      <trkpt lat="46.15084" lon="-1.28294">
        <ele>4</ele>
        <time>2023-07-16T15:17:36.088+00:00</time>
      </trkpt>
      <trkpt lat="46.1509" lon="-1.28263">
        <ele>3</ele>
        <time>2023-07-16T15:17:40.080+00:00</time>
      </trkpt>
      <trkpt lat="46.15095" lon="-1.28224">
        <ele>3</ele>
        <time>2023-07-16T15:17:45.067+00:00</time>
      </trkpt>
      <trkpt lat="46.151" lon="-1.28194">
        <ele>3</ele>
        <time>2023-07-16T15:17:49.093+00:00</time>
      </trkpt>
      <trkpt lat="46.15105" lon="-1.28169">
        <ele>3</ele>
        <time>2023-07-16T15:17:54.098+00:00</time>
      </trkpt>
      <trkpt lat="46.15123" lon="-1.28159">
        <ele>3</ele>
        <time>2023-07-16T15:17:59.086+00:00</time>
      </trkpt>
      <trkpt lat="46.15147" lon="-1.28165">
        <ele>3</ele>
        <time>2023-07-16T15:18:04.098+00:00</time>
      </trkpt>
      <trkpt lat="46.15166" lon="-1.28169">
        <ele>3</ele>
        <time>2023-07-16T15:18:08.109+00:00</time>
      </trkpt>
      <trkpt lat="46.1519" lon="-1.28178">
        <ele>2</ele>
        <time>2023-07-16T15:18:13.104+00:00</time>
      </trkpt>
      <trkpt lat="46.15213" lon="-1.28187">
        <ele>3</ele>
        <time>2023-07-16T15:18:18.101+00:00</time>
      </trkpt>
      <trkpt lat="46.15231" lon="-1.28209">
        <ele>3</ele>
        <time>2023-07-16T15:18:23.100+00:00</time>
      </trkpt>
      <trkpt lat="46.15241" lon="-1.28226">
        <ele>3</ele>
        <time>2023-07-16T15:18:28.098+00:00</time>
      </trkpt>
      <trkpt lat="46.15251" lon="-1.28238">
        <ele>3</ele>
        <time>2023-07-16T15:18:31.908+00:00</time>
      </trkpt>
      <trkpt lat="46.15258" lon="-1.28259">
        <ele>3</ele>
        <time>2023-07-16T15:18:36.376+00:00</time>
      </trkpt>
      <trkpt lat="46.15265" lon="-1.2827">
        <ele>3</ele>
        <time>2023-07-16T15:18:40.523+00:00</time>
      </trkpt>
      <trkpt lat="46.15269" lon="-1.28276">
        <ele>3</ele>
        <time>2023-07-16T15:18:48.658+00:00</time>
      </trkpt>
      <trkpt lat="46.15269" lon="-1.28276">
        <ele>3</ele>
        <time>2023-07-16T15:18:53.803+00:00</time>
      </trkpt>
      <trkpt lat="46.15269" lon="-1.28277">
        <ele>3</ele>
        <time>2023-07-16T15:18:58.950+00:00</time>
      </trkpt>
      <trkpt lat="46.15269" lon="-1.28277">
        <ele>3</ele>
        <time>2023-07-16T15:19:02.897+00:00</time>
      </trkpt>
      <trkpt lat="46.15279" lon="-1.28278">
        <ele>3</ele>
        <time>2023-07-16T15:19:07.683+00:00</time>
      </trkpt>
      <trkpt lat="46.1529" lon="-1.2827">
        <ele>3</ele>
        <time>2023-07-16T15:19:11.871+00:00</time>
      </trkpt>
      <trkpt lat="46.15303" lon="-1.2825">
        <ele>4</ele>
        <time>2023-07-16T15:19:15.819+00:00</time>
      </trkpt>
      <trkpt lat="46.15311" lon="-1.28239">
        <ele>4</ele>
        <time>2023-07-16T15:19:19.647+00:00</time>
      </trkpt>
      <trkpt lat="46.1531" lon="-1.28237">
        <ele>4</ele>
        <time>2023-07-16T15:19:24.195+00:00</time>
      </trkpt>
      <trkpt lat="46.15313" lon="-1.28226">
        <ele>5</ele>
        <time>2023-07-16T15:19:29.076+00:00</time>
      </trkpt>
      <trkpt lat="46.15324" lon="-1.28217">
        <ele>5</ele>
        <time>2023-07-16T15:19:33.089+00:00</time>
      </trkpt>
      <trkpt lat="46.15342" lon="-1.28198">
        <ele>5</ele>
        <time>2023-07-16T15:19:38.082+00:00</time>
      </trkpt>
      <trkpt lat="46.15359" lon="-1.28178">
        <ele>4</ele>
        <time>2023-07-16T15:19:43.085+00:00</time>
      </trkpt>
      <trkpt lat="46.15376" lon="-1.28157">
        <ele>6</ele>
        <time>2023-07-16T15:19:48.090+00:00</time>
      </trkpt>
      <trkpt lat="46.15389" lon="-1.28137">
        <ele>6</ele>
        <time>2023-07-16T15:19:52.150+00:00</time>
      </trkpt>
      <trkpt lat="46.15406" lon="-1.28114">
        <ele>7</ele>
        <time>2023-07-16T15:19:57.097+00:00</time>
      </trkpt>
      <trkpt lat="46.15421" lon="-1.2809">
        <ele>7</ele>
        <time>2023-07-16T15:20:02.107+00:00</time>
      </trkpt>
      <trkpt lat="46.15432" lon="-1.28069">
        <ele>8</ele>
        <time>2023-07-16T15:20:06.111+00:00</time>
      </trkpt>
      <trkpt lat="46.15439" lon="-1.28049">
        <ele>8</ele>
        <time>2023-07-16T15:20:10.281+00:00</time>
      </trkpt>
      <trkpt lat="46.15455" lon="-1.28026">
        <ele>8</ele>
        <time>2023-07-16T15:20:15.095+00:00</time>
      </trkpt>
      <trkpt lat="46.15471" lon="-1.28012">
        <ele>8</ele>
        <time>2023-07-16T15:20:19.457+00:00</time>
      </trkpt>
      <trkpt lat="46.15488" lon="-1.27997">
        <ele>8</ele>
        <time>2023-07-16T15:20:24.092+00:00</time>
      </trkpt>
      <trkpt lat="46.15504" lon="-1.27986">
        <ele>8</ele>
        <time>2023-07-16T15:20:28.450+00:00</time>
      </trkpt>
      <trkpt lat="46.15521" lon="-1.27972">
        <ele>8</ele>
        <time>2023-07-16T15:20:32.617+00:00</time>
      </trkpt>
      <trkpt lat="46.15535" lon="-1.27957">
        <ele>8</ele>
        <time>2023-07-16T15:20:36.666+00:00</time>
      </trkpt>
      <trkpt lat="46.15548" lon="-1.27943">
        <ele>8</ele>
        <time>2023-07-16T15:20:41.451+00:00</time>
      </trkpt>
      <trkpt lat="46.15566" lon="-1.27921">
        <ele>8</ele>
        <time>2023-07-16T15:20:46.089+00:00</time>
      </trkpt>
      <trkpt lat="46.15583" lon="-1.27896">
        <ele>7</ele>
        <time>2023-07-16T15:20:51.086+00:00</time>
      </trkpt>
      <trkpt lat="46.15597" lon="-1.27876">
        <ele>7</ele>
        <time>2023-07-16T15:20:55.094+00:00</time>
      </trkpt>
      <trkpt lat="46.15615" lon="-1.27848">
        <ele>7</ele>
        <time>2023-07-16T15:21:00.090+00:00</time>
      </trkpt>
      <trkpt lat="46.1563" lon="-1.27825">
        <ele>7</ele>
        <time>2023-07-16T15:21:04.101+00:00</time>
      </trkpt>
      <trkpt lat="46.15649" lon="-1.27793">
        <ele>7</ele>
        <time>2023-07-16T15:21:09.107+00:00</time>
      </trkpt>
      <trkpt lat="46.15665" lon="-1.27759">
        <ele>6</ele>
        <time>2023-07-16T15:21:14.093+00:00</time>
      </trkpt>
      <trkpt lat="46.15674" lon="-1.27735">
        <ele>6</ele>
        <time>2023-07-16T15:21:18.107+00:00</time>
      </trkpt>
      <trkpt lat="46.15688" lon="-1.27702">
        <ele>5</ele>
        <time>2023-07-16T15:21:23.083+00:00</time>
      </trkpt>
      <trkpt lat="46.15697" lon="-1.27672">
        <ele>4</ele>
        <time>2023-07-16T15:21:27.104+00:00</time>
      </trkpt>
      <trkpt lat="46.15708" lon="-1.27636">
        <ele>4</ele>
        <time>2023-07-16T15:21:32.051+00:00</time>
      </trkpt>
      <trkpt lat="46.15716" lon="-1.27606">
        <ele>4</ele>
        <time>2023-07-16T15:21:36.090+00:00</time>
      </trkpt>
      <trkpt lat="46.15727" lon="-1.27571">
        <ele>3</ele>
        <time>2023-07-16T15:21:41.114+00:00</time>
      </trkpt>
      <trkpt lat="46.15734" lon="-1.27545">
        <ele>3</ele>
        <time>2023-07-16T15:21:45.111+00:00</time>
      </trkpt>
      <trkpt lat="46.15742" lon="-1.27509">
        <ele>4</ele>
        <time>2023-07-16T15:21:50.091+00:00</time>
      </trkpt>
      <trkpt lat="46.15754" lon="-1.27482">
        <ele>3</ele>
        <time>2023-07-16T15:21:54.095+00:00</time>
      </trkpt>
      <trkpt lat="46.1577" lon="-1.2746">
        <ele>4</ele>
        <time>2023-07-16T15:21:58.116+00:00</time>
      </trkpt>
      <trkpt lat="46.15792" lon="-1.2744">
        <ele>3</ele>
        <time>2023-07-16T15:22:03.077+00:00</time>
      </trkpt>
      <trkpt lat="46.15808" lon="-1.27423">
        <ele>3</ele>
        <time>2023-07-16T15:22:07.096+00:00</time>
      </trkpt>
      <trkpt lat="46.15822" lon="-1.27409">
        <ele>3</ele>
        <time>2023-07-16T15:22:11.092+00:00</time>
      </trkpt>
      <trkpt lat="46.15843" lon="-1.27389">
        <ele>3</ele>
        <time>2023-07-16T15:22:16.108+00:00</time>
      </trkpt>
      <trkpt lat="46.15859" lon="-1.27374">
        <ele>5</ele>
        <time>2023-07-16T15:22:20.093+00:00</time>
      </trkpt>
      <trkpt lat="46.15879" lon="-1.27354">
        <ele>5</ele>
        <time>2023-07-16T15:22:25.108+00:00</time>
      </trkpt>
      <trkpt lat="46.15896" lon="-1.27338">
        <ele>5</ele>
        <time>2023-07-16T15:22:30.111+00:00</time>
      </trkpt>
      <trkpt lat="46.15905" lon="-1.27328">
        <ele>4</ele>
        <time>2023-07-16T15:22:34.947+00:00</time>
      </trkpt>
      <trkpt lat="46.15906" lon="-1.27312">
        <ele>4</ele>
        <time>2023-07-16T15:22:40.091+00:00</time>
      </trkpt>
      <trkpt lat="46.15907" lon="-1.27312">
        <ele>4</ele>
        <time>2023-07-16T15:22:44.636+00:00</time>
      </trkpt>
      <trkpt lat="46.15897" lon="-1.27304">
        <ele>4</ele>
        <time>2023-07-16T15:22:49.105+00:00</time>
      </trkpt>
      <trkpt lat="46.15892" lon="-1.27293">
        <ele>4</ele>
        <time>2023-07-16T15:22:53.843+00:00</time>
      </trkpt>
      <trkpt lat="46.15888" lon="-1.27284">
        <ele>3</ele>
        <time>2023-07-16T15:22:59.085+00:00</time>
      </trkpt>
      <trkpt lat="46.15889" lon="-1.27282">
        <ele>3</ele>
        <time>2023-07-16T15:23:03.287+00:00</time>
      </trkpt>
      <trkpt lat="46.1589" lon="-1.27275">
        <ele>3</ele>
        <time>2023-07-16T15:23:07.830+00:00</time>
      </trkpt>
      <trkpt lat="46.15881" lon="-1.27257">
        <ele>2</ele>
        <time>2023-07-16T15:23:12.333+00:00</time>
      </trkpt>
      <trkpt lat="46.15878" lon="-1.27244">
        <ele>2</ele>
        <time>2023-07-16T15:23:16.440+00:00</time>
      </trkpt>
      <trkpt lat="46.15874" lon="-1.27233">
        <ele>3</ele>
        <time>2023-07-16T15:23:20.506+00:00</time>
      </trkpt>
      <trkpt lat="46.1587" lon="-1.27215">
        <ele>3</ele>
        <time>2023-07-16T15:23:25.112+00:00</time>
      </trkpt>
      <trkpt lat="46.15867" lon="-1.27201">
        <ele>4</ele>
        <time>2023-07-16T15:23:30.104+00:00</time>
      </trkpt>
      <trkpt lat="46.15865" lon="-1.27185">
        <ele>4</ele>
        <time>2023-07-16T15:23:34.840+00:00</time>
      </trkpt>
      <trkpt lat="46.15862" lon="-1.27169">
        <ele>4</ele>
        <time>2023-07-16T15:23:39.503+00:00</time>
      </trkpt>
      <trkpt lat="46.15859" lon="-1.27151">
        <ele>5</ele>
        <time>2023-07-16T15:24:06.783+00:00</time>
      </trkpt>
      <trkpt lat="46.15858" lon="-1.27148">
        <ele>5</ele>
        <time>2023-07-16T15:24:11.854+00:00</time>
      </trkpt>
      <trkpt lat="46.15858" lon="-1.27147">
        <ele>5</ele>
        <time>2023-07-16T15:24:16.649+00:00</time>
      </trkpt>
      <trkpt lat="46.15857" lon="-1.27142">
        <ele>5</ele>
        <time>2023-07-16T15:24:20.842+00:00</time>
      </trkpt>
      <trkpt lat="46.1585" lon="-1.27121">
        <ele>6</ele>
        <time>2023-07-16T15:24:26.093+00:00</time>
      </trkpt>
      <trkpt lat="46.15851" lon="-1.27101">
        <ele>6</ele>
        <time>2023-07-16T15:24:30.766+00:00</time>
      </trkpt>
      <trkpt lat="46.15872" lon="-1.27091">
        <ele>5</ele>
        <time>2023-07-16T15:24:35.963+00:00</time>
      </trkpt>
      <trkpt lat="46.15881" lon="-1.27078">
        <ele>4</ele>
        <time>2023-07-16T15:24:41.072+00:00</time>
      </trkpt>
      <trkpt lat="46.1588" lon="-1.27051">
        <ele>4</ele>
        <time>2023-07-16T15:24:45.094+00:00</time>
      </trkpt>
      <trkpt lat="46.15878" lon="-1.2702">
        <ele>4</ele>
        <time>2023-07-16T15:24:49.102+00:00</time>
      </trkpt>
      <trkpt lat="46.15876" lon="-1.26983">
        <ele>6</ele>
        <time>2023-07-16T15:24:54.080+00:00</time>
      </trkpt>
      <trkpt lat="46.15875" lon="-1.26952">
        <ele>6</ele>
        <time>2023-07-16T15:24:58.089+00:00</time>
      </trkpt>
      <trkpt lat="46.15877" lon="-1.26917">
        <ele>6</ele>
        <time>2023-07-16T15:25:03.064+00:00</time>
      </trkpt>
      <trkpt lat="46.15874" lon="-1.269">
        <ele>6</ele>
        <time>2023-07-16T15:25:07.090+00:00</time>
      </trkpt>
      <trkpt lat="46.15876" lon="-1.2688">
        <ele>7</ele>
        <time>2023-07-16T15:25:11.866+00:00</time>
      </trkpt>
      <trkpt lat="46.15877" lon="-1.26861">
        <ele>7</ele>
        <time>2023-07-16T15:25:16.045+00:00</time>
      </trkpt>
      <trkpt lat="46.15879" lon="-1.26842">
        <ele>7</ele>
        <time>2023-07-16T15:25:20.760+00:00</time>
      </trkpt>
      <trkpt lat="46.15881" lon="-1.2682">
        <ele>7</ele>
        <time>2023-07-16T15:25:24.669+00:00</time>
      </trkpt>
      <trkpt lat="46.15884" lon="-1.268">
        <ele>6</ele>
        <time>2023-07-16T15:25:28.620+00:00</time>
      </trkpt>
      <trkpt lat="46.1589" lon="-1.26774">
        <ele>6</ele>
        <time>2023-07-16T15:25:33.989+00:00</time>
      </trkpt>
      <trkpt lat="46.15892" lon="-1.26759">
        <ele>7</ele>
        <time>2023-07-16T15:25:37.820+00:00</time>
      </trkpt>
      <trkpt lat="46.15894" lon="-1.26744">
        <ele>7</ele>
        <time>2023-07-16T15:25:42.251+00:00</time>
      </trkpt>
      <trkpt lat="46.15898" lon="-1.26724">
        <ele>7</ele>
        <time>2023-07-16T15:25:46.285+00:00</time>
      </trkpt>
      <trkpt lat="46.15903" lon="-1.26704">
        <ele>7</ele>
        <time>2023-07-16T15:25:50.876+00:00</time>
      </trkpt>
      <trkpt lat="46.15907" lon="-1.26682">
        <ele>6</ele>
        <time>2023-07-16T15:25:55.668+00:00</time>
      </trkpt>
      <trkpt lat="46.1591" lon="-1.26664">
        <ele>6</ele>
        <time>2023-07-16T15:25:59.860+00:00</time>
      </trkpt>
      <trkpt lat="46.15916" lon="-1.26649">
        <ele>6</ele>
        <time>2023-07-16T15:26:04.410+00:00</time>
      </trkpt>
      <trkpt lat="46.15919" lon="-1.26641">
        <ele>6</ele>
        <time>2023-07-16T15:26:08.599+00:00</time>
      </trkpt>
      <trkpt lat="46.15919" lon="-1.26637">
        <ele>6</ele>
        <time>2023-07-16T15:26:12.790+00:00</time>
      </trkpt>
      <trkpt lat="46.15919" lon="-1.26638">
        <ele>6</ele>
        <time>2023-07-16T15:26:18.056+00:00</time>
      </trkpt>
      <trkpt lat="46.15922" lon="-1.26629">
        <ele>6</ele>
        <time>2023-07-16T15:26:22.724+00:00</time>
      </trkpt>
      <trkpt lat="46.15926" lon="-1.26613">
        <ele>6</ele>
        <time>2023-07-16T15:26:28.095+00:00</time>
      </trkpt>
      <trkpt lat="46.15935" lon="-1.26605">
        <ele>7</ele>
        <time>2023-07-16T15:26:33.099+00:00</time>
      </trkpt>
      <trkpt lat="46.15937" lon="-1.2659">
        <ele>7</ele>
        <time>2023-07-16T15:26:37.450+00:00</time>
      </trkpt>
      <trkpt lat="46.15935" lon="-1.26577">
        <ele>7</ele>
        <time>2023-07-16T15:26:41.643+00:00</time>
      </trkpt>
      <trkpt lat="46.1593" lon="-1.26569">
        <ele>5</ele>
        <time>2023-07-16T15:26:45.591+00:00</time>
      </trkpt>
      <trkpt lat="46.1593" lon="-1.26565">
        <ele>5</ele>
        <time>2023-07-16T15:26:49.643+00:00</time>
      </trkpt>
      <trkpt lat="46.15934" lon="-1.26555">
        <ele>6</ele>
        <time>2023-07-16T15:26:54.432+00:00</time>
      </trkpt>
      <trkpt lat="46.15936" lon="-1.26553">
        <ele>6</ele>
        <time>2023-07-16T15:26:58.862+00:00</time>
      </trkpt>
      <trkpt lat="46.15939" lon="-1.26553">
        <ele>6</ele>
        <time>2023-07-16T15:27:03.049+00:00</time>
      </trkpt>
      <trkpt lat="46.15942" lon="-1.2655">
        <ele>6</ele>
        <time>2023-07-16T15:27:06.638+00:00</time>
      </trkpt>
      <trkpt lat="46.15948" lon="-1.26546">
        <ele>6</ele>
        <time>2023-07-16T15:27:11.285+00:00</time>
      </trkpt>
      <trkpt lat="46.15954" lon="-1.26535">
        <ele>6</ele>
        <time>2023-07-16T15:27:15.975+00:00</time>
      </trkpt>
      <trkpt lat="46.15957" lon="-1.26531">
        <ele>6</ele>
        <time>2023-07-16T15:27:20.045+00:00</time>
      </trkpt>
      <trkpt lat="46.15958" lon="-1.26531">
        <ele>6</ele>
        <time>2023-07-16T15:27:24.235+00:00</time>
      </trkpt>
      <trkpt lat="46.15962" lon="-1.26519">
        <ele>6</ele>
        <time>2023-07-16T15:27:29.023+00:00</time>
      </trkpt>
      <trkpt lat="46.1597" lon="-1.26488">
        <ele>5</ele>
        <time>2023-07-16T15:27:33.096+00:00</time>
      </trkpt>
      <trkpt lat="46.15977" lon="-1.26455">
        <ele>5</ele>
        <time>2023-07-16T15:27:38.101+00:00</time>
      </trkpt>
      <trkpt lat="46.15984" lon="-1.26431">
        <ele>5</ele>
        <time>2023-07-16T15:27:42.090+00:00</time>
      </trkpt>
      <trkpt lat="46.15991" lon="-1.264">
        <ele>4</ele>
        <time>2023-07-16T15:27:46.973+00:00</time>
      </trkpt>
      <trkpt lat="46.16002" lon="-1.26365">
        <ele>4</ele>
        <time>2023-07-16T15:27:52.101+00:00</time>
      </trkpt>
      <trkpt lat="46.16015" lon="-1.26335">
        <ele>4</ele>
        <time>2023-07-16T15:27:57.093+00:00</time>
      </trkpt>
      <trkpt lat="46.16032" lon="-1.26307">
        <ele>4</ele>
        <time>2023-07-16T15:28:02.056+00:00</time>
      </trkpt>
      <trkpt lat="46.16045" lon="-1.26285">
        <ele>3</ele>
        <time>2023-07-16T15:28:06.097+00:00</time>
      </trkpt>
      <trkpt lat="46.1606" lon="-1.26255">
        <ele>3</ele>
        <time>2023-07-16T15:28:11.090+00:00</time>
      </trkpt>
      <trkpt lat="46.1607" lon="-1.2623">
        <ele>3</ele>
        <time>2023-07-16T15:28:15.119+00:00</time>
      </trkpt>
      <trkpt lat="46.16083" lon="-1.26198">
        <ele>4</ele>
        <time>2023-07-16T15:28:20.105+00:00</time>
      </trkpt>
      <trkpt lat="46.16096" lon="-1.26166">
        <ele>4</ele>
        <time>2023-07-16T15:28:25.096+00:00</time>
      </trkpt>
      <trkpt lat="46.16108" lon="-1.26131">
        <ele>5</ele>
        <time>2023-07-16T15:28:30.089+00:00</time>
      </trkpt>
      <trkpt lat="46.16119" lon="-1.26104">
        <ele>6</ele>
        <time>2023-07-16T15:28:34.091+00:00</time>
      </trkpt>
      <trkpt lat="46.16122" lon="-1.26099">
        <ele>6</ele>
        <time>2023-07-16T15:28:39.066+00:00</time>
      </trkpt>
      <trkpt lat="46.16122" lon="-1.26099">
        <ele>6</ele>
        <time>2023-07-16T15:28:43.077+00:00</time>
      </trkpt>
      <trkpt lat="46.16123" lon="-1.26093">
        <ele>6</ele>
        <time>2023-07-16T15:28:47.091+00:00</time>
      </trkpt>
      <trkpt lat="46.16124" lon="-1.26081">
        <ele>6</ele>
        <time>2023-07-16T15:28:51.112+00:00</time>
      </trkpt>
      <trkpt lat="46.1613" lon="-1.2605">
        <ele>6</ele>
        <time>2023-07-16T15:28:55.643+00:00</time>
      </trkpt>
      <trkpt lat="46.16134" lon="-1.26029">
        <ele>6</ele>
        <time>2023-07-16T15:28:59.833+00:00</time>
      </trkpt>
      <trkpt lat="46.16139" lon="-1.26002">
        <ele>6</ele>
        <time>2023-07-16T15:29:05.103+00:00</time>
      </trkpt>
      <trkpt lat="46.16145" lon="-1.2598">
        <ele>6</ele>
        <time>2023-07-16T15:29:09.293+00:00</time>
      </trkpt>
      <trkpt lat="46.16148" lon="-1.25955">
        <ele>6</ele>
        <time>2023-07-16T15:29:13.843+00:00</time>
      </trkpt>
      <trkpt lat="46.1615" lon="-1.25931">
        <ele>6</ele>
        <time>2023-07-16T15:29:18.631+00:00</time>
      </trkpt>
      <trkpt lat="46.16147" lon="-1.25908">
        <ele>4</ele>
        <time>2023-07-16T15:29:22.821+00:00</time>
      </trkpt>
      <trkpt lat="46.1614" lon="-1.25886">
        <ele>3</ele>
        <time>2023-07-16T15:29:27.258+00:00</time>
      </trkpt>
      <trkpt lat="46.16128" lon="-1.25865">
        <ele>3</ele>
        <time>2023-07-16T15:29:31.446+00:00</time>
      </trkpt>
      <trkpt lat="46.16121" lon="-1.2584">
        <ele>3</ele>
        <time>2023-07-16T15:29:35.627+00:00</time>
      </trkpt>
      <trkpt lat="46.16119" lon="-1.25811">
        <ele>3</ele>
        <time>2023-07-16T15:29:40.417+00:00</time>
      </trkpt>
      <trkpt lat="46.16121" lon="-1.25794">
        <ele>3</ele>
        <time>2023-07-16T15:29:44.607+00:00</time>
      </trkpt>
      <trkpt lat="46.16124" lon="-1.25785">
        <ele>2</ele>
        <time>2023-07-16T15:29:49.250+00:00</time>
      </trkpt>
      <trkpt lat="46.16127" lon="-1.25767">
        <ele>3</ele>
        <time>2023-07-16T15:29:53.826+00:00</time>
      </trkpt>
      <trkpt lat="46.1613" lon="-1.2576">
        <ele>2</ele>
        <time>2023-07-16T15:30:05.802+00:00</time>
      </trkpt>
      <trkpt lat="46.1613" lon="-1.2576">
        <ele>2</ele>
        <time>2023-07-16T15:30:10.833+00:00</time>
      </trkpt>
      <trkpt lat="46.16131" lon="-1.25759">
        <ele>2</ele>
        <time>2023-07-16T15:30:15.843+00:00</time>
      </trkpt>
      <trkpt lat="46.1613" lon="-1.25758">
        <ele>2</ele>
        <time>2023-07-16T15:30:20.352+00:00</time>
      </trkpt>
      <trkpt lat="46.1614" lon="-1.25744">
        <ele>2</ele>
        <time>2023-07-16T15:30:24.859+00:00</time>
      </trkpt>
      <trkpt lat="46.16155" lon="-1.25722">
        <ele>3</ele>
        <time>2023-07-16T15:30:29.965+00:00</time>
      </trkpt>
      <trkpt lat="46.16164" lon="-1.2571">
        <ele>3</ele>
        <time>2023-07-16T15:30:33.971+00:00</time>
      </trkpt>
      <trkpt lat="46.16171" lon="-1.25698">
        <ele>4</ele>
        <time>2023-07-16T15:30:37.975+00:00</time>
      </trkpt>
      <trkpt lat="46.16182" lon="-1.2568">
        <ele>6</ele>
        <time>2023-07-16T15:30:42.582+00:00</time>
      </trkpt>
      <trkpt lat="46.16189" lon="-1.25661">
        <ele>6</ele>
        <time>2023-07-16T15:30:46.588+00:00</time>
      </trkpt>
      <trkpt lat="46.162" lon="-1.25642">
        <ele>6</ele>
        <time>2023-07-16T15:30:50.690+00:00</time>
      </trkpt>
      <trkpt lat="46.16213" lon="-1.25629">
        <ele>4</ele>
        <time>2023-07-16T15:30:55.193+00:00</time>
      </trkpt>
      <trkpt lat="46.16227" lon="-1.25617">
        <ele>4</ele>
        <time>2023-07-16T15:30:59.196+00:00</time>
      </trkpt>
      <trkpt lat="46.16242" lon="-1.25603">
        <ele>4</ele>
        <time>2023-07-16T15:31:03.701+00:00</time>
      </trkpt>
      <trkpt lat="46.16253" lon="-1.25597">
        <ele>5</ele>
        <time>2023-07-16T15:31:08.305+00:00</time>
      </trkpt>
      <trkpt lat="46.1626" lon="-1.25598">
        <ele>4</ele>
        <time>2023-07-16T15:31:12.812+00:00</time>
      </trkpt>
      <trkpt lat="46.16261" lon="-1.25597">
        <ele>5</ele>
        <time>2023-07-16T15:31:16.856+00:00</time>
      </trkpt>
      <trkpt lat="46.16262" lon="-1.25597">
        <ele>5</ele>
        <time>2023-07-16T15:31:21.659+00:00</time>
      </trkpt>
      <trkpt lat="46.16264" lon="-1.25598">
        <ele>4</ele>
        <time>2023-07-16T15:31:25.671+00:00</time>
      </trkpt>
      <trkpt lat="46.16263" lon="-1.256">
        <ele>4</ele>
        <time>2023-07-16T15:31:30.688+00:00</time>
      </trkpt>
      <trkpt lat="46.16268" lon="-1.25608">
        <ele>4</ele>
        <time>2023-07-16T15:31:34.700+00:00</time>
      </trkpt>
      <trkpt lat="46.16284" lon="-1.25633">
        <ele>3</ele>
        <time>2023-07-16T15:31:39.715+00:00</time>
      </trkpt>
      <trkpt lat="46.16296" lon="-1.25657">
        <ele>2</ele>
        <time>2023-07-16T15:31:44.727+00:00</time>
      </trkpt>
      <trkpt lat="46.16306" lon="-1.2567">
        <ele>2</ele>
        <time>2023-07-16T15:31:48.738+00:00</time>
      </trkpt>
      <trkpt lat="46.16311" lon="-1.25677">
        <ele>2</ele>
        <time>2023-07-16T15:31:53.250+00:00</time>
      </trkpt>
      <trkpt lat="46.16313" lon="-1.25674">
        <ele>2</ele>
        <time>2023-07-16T15:32:06.789+00:00</time>
      </trkpt>
      <trkpt lat="46.16315" lon="-1.25675">
        <ele>2</ele>
        <time>2023-07-16T15:32:11.302+00:00</time>
      </trkpt>
      <trkpt lat="46.16316" lon="-1.25674">
        <ele>2</ele>
        <time>2023-07-16T15:32:15.310+00:00</time>
      </trkpt>
      <trkpt lat="46.16316" lon="-1.25673">
        <ele>2</ele>
        <time>2023-07-16T15:32:19.824+00:00</time>
      </trkpt>
      <trkpt lat="46.1632" lon="-1.25681">
        <ele>1</ele>
        <time>2023-07-16T15:32:24.838+00:00</time>
      </trkpt>
      <trkpt lat="46.16328" lon="-1.25714">
        <ele>3</ele>
        <time>2023-07-16T15:32:28.950+00:00</time>
      </trkpt>
      <trkpt lat="46.16324" lon="-1.25745">
        <ele>3</ele>
        <time>2023-07-16T15:32:33.966+00:00</time>
      </trkpt>
      <trkpt lat="46.16325" lon="-1.25746">
        <ele>3</ele>
        <time>2023-07-16T15:32:38.995+00:00</time>
      </trkpt>
      <trkpt lat="46.16323" lon="-1.25746">
        <ele>3</ele>
        <time>2023-07-16T15:32:43.510+00:00</time>
      </trkpt>
      <trkpt lat="46.16317" lon="-1.25758">
        <ele>4</ele>
        <time>2023-07-16T15:32:47.516+00:00</time>
      </trkpt>
      <trkpt lat="46.16312" lon="-1.25775">
        <ele>5</ele>
        <time>2023-07-16T15:32:51.522+00:00</time>
      </trkpt>
      <trkpt lat="46.16308" lon="-1.25791">
        <ele>5</ele>
        <time>2023-07-16T15:32:56.128+00:00</time>
      </trkpt>
      <trkpt lat="46.16301" lon="-1.25802">
        <ele>6</ele>
        <time>2023-07-16T15:33:00.734+00:00</time>
      </trkpt>
      <trkpt lat="46.16294" lon="-1.2581">
        <ele>6</ele>
        <time>2023-07-16T15:33:05.741+00:00</time>
      </trkpt>
      <trkpt lat="46.16296" lon="-1.25801">
        <ele>6</ele>
        <time>2023-07-16T15:33:09.745+00:00</time>
      </trkpt>
      <trkpt lat="46.16303" lon="-1.25785">
        <ele>5</ele>
        <time>2023-07-16T15:33:13.750+00:00</time>
      </trkpt>
      <trkpt lat="46.16308" lon="-1.25766">
        <ele>5</ele>
        <time>2023-07-16T15:33:17.754+00:00</time>
      </trkpt>
      <trkpt lat="46.16317" lon="-1.25742">
        <ele>4</ele>
        <time>2023-07-16T15:33:21.759+00:00</time>
      </trkpt>
      <trkpt lat="46.16324" lon="-1.25717">
        <ele>3</ele>
        <time>2023-07-16T15:33:26.865+00:00</time>
      </trkpt>
      <trkpt lat="46.16336" lon="-1.25696">
        <ele>1</ele>
        <time>2023-07-16T15:33:31.869+00:00</time>
      </trkpt>
      <trkpt lat="46.16352" lon="-1.25675">
        <ele>3</ele>
        <time>2023-07-16T15:33:36.875+00:00</time>
      </trkpt>
      <trkpt lat="46.16366" lon="-1.25657">
        <ele>3</ele>
        <time>2023-07-16T15:33:41.066+00:00</time>
      </trkpt>
      <trkpt lat="46.16384" lon="-1.25633">
        <ele>5</ele>
        <time>2023-07-16T15:33:46.058+00:00</time>
      </trkpt>
      <trkpt lat="46.16398" lon="-1.2561">
        <ele>7</ele>
        <time>2023-07-16T15:33:50.064+00:00</time>
      </trkpt>
      <trkpt lat="46.16415" lon="-1.25583">
        <ele>7</ele>
        <time>2023-07-16T15:33:55.046+00:00</time>
      </trkpt>
      <trkpt lat="46.16431" lon="-1.25558">
        <ele>6</ele>
        <time>2023-07-16T15:34:00.041+00:00</time>
      </trkpt>
      <trkpt lat="46.16451" lon="-1.25529">
        <ele>6</ele>
        <time>2023-07-16T15:34:05.061+00:00</time>
      </trkpt>
      <trkpt lat="46.1647" lon="-1.25498">
        <ele>6</ele>
        <time>2023-07-16T15:34:10.069+00:00</time>
      </trkpt>
      <trkpt lat="46.1649" lon="-1.25467">
        <ele>4</ele>
        <time>2023-07-16T15:34:15.055+00:00</time>
      </trkpt>
      <trkpt lat="46.1651" lon="-1.25435">
        <ele>5</ele>
        <time>2023-07-16T15:34:20.055+00:00</time>
      </trkpt>
      <trkpt lat="46.16529" lon="-1.25403">
        <ele>4</ele>
        <time>2023-07-16T15:34:25.046+00:00</time>
      </trkpt>
      <trkpt lat="46.16543" lon="-1.25379">
        <ele>2</ele>
        <time>2023-07-16T15:34:29.077+00:00</time>
      </trkpt>
      <trkpt lat="46.16561" lon="-1.25349">
        <ele>2</ele>
        <time>2023-07-16T15:34:34.049+00:00</time>
      </trkpt>
      <trkpt lat="46.16576" lon="-1.25325">
        <ele>2</ele>
        <time>2023-07-16T15:34:38.065+00:00</time>
      </trkpt>
      <trkpt lat="46.16594" lon="-1.25293">
        <ele>5</ele>
        <time>2023-07-16T15:34:43.058+00:00</time>
      </trkpt>
      <trkpt lat="46.16608" lon="-1.25267">
        <time>2023-07-16T15:34:47.053+00:00</time>
      </trkpt>
      <trkpt lat="46.16627" lon="-1.25236">
        <time>2023-07-16T15:34:52.053+00:00</time>
      </trkpt>
      <trkpt lat="46.16645" lon="-1.25205">
        <time>2023-07-16T15:34:57.058+00:00</time>
      </trkpt>
      <trkpt lat="46.16659" lon="-1.25179">
        <time>2023-07-16T15:35:01.080+00:00</time>
      </trkpt>
      <trkpt lat="46.16678" lon="-1.25146">
        <time>2023-07-16T15:35:06.071+00:00</time>
      </trkpt>
      <trkpt lat="46.16694" lon="-1.25114">
        <time>2023-07-16T15:35:11.063+00:00</time>
      </trkpt>
      <trkpt lat="46.16708" lon="-1.25087">
        <time>2023-07-16T15:35:15.063+00:00</time>
      </trkpt>
      <trkpt lat="46.16722" lon="-1.2506">
        <time>2023-07-16T15:35:19.083+00:00</time>
      </trkpt>
      <trkpt lat="46.16736" lon="-1.25034">
        <time>2023-07-16T15:35:23.107+00:00</time>
      </trkpt>
      <trkpt lat="46.16751" lon="-1.25001">
        <time>2023-07-16T15:35:28.077+00:00</time>
      </trkpt>
      <trkpt lat="46.16764" lon="-1.24974">
        <time>2023-07-16T15:35:32.077+00:00</time>
      </trkpt>
      <trkpt lat="46.16778" lon="-1.24943">
        <time>2023-07-16T15:35:37.083+00:00</time>
      </trkpt>
      <trkpt lat="46.1679" lon="-1.2492">
        <time>2023-07-16T15:35:41.087+00:00</time>
      </trkpt>
      <trkpt lat="46.16804" lon="-1.24894">
        <time>2023-07-16T15:35:46.091+00:00</time>
      </trkpt>
      <trkpt lat="46.16819" lon="-1.24865">
        <time>2023-07-16T15:35:51.092+00:00</time>
      </trkpt>
      <trkpt lat="46.16831" lon="-1.24842">
        <time>2023-07-16T15:35:55.084+00:00</time>
      </trkpt>
      <trkpt lat="46.16846" lon="-1.24812">
        <time>2023-07-16T15:36:00.078+00:00</time>
      </trkpt>
      <trkpt lat="46.16862" lon="-1.24777">
        <time>2023-07-16T15:36:05.063+00:00</time>
      </trkpt>
      <trkpt lat="46.16876" lon="-1.24748">
        <time>2023-07-16T15:36:09.098+00:00</time>
      </trkpt>
      <trkpt lat="46.16889" lon="-1.24719">
        <time>2023-07-16T15:36:13.115+00:00</time>
      </trkpt>
      <trkpt lat="46.16905" lon="-1.24682">
        <time>2023-07-16T15:36:18.094+00:00</time>
      </trkpt>
      <trkpt lat="46.16921" lon="-1.24646">
        <time>2023-07-16T15:36:23.099+00:00</time>
      </trkpt>
      <trkpt lat="46.16937" lon="-1.24609">
        <time>2023-07-16T15:36:28.082+00:00</time>
      </trkpt>
      <trkpt lat="46.1695" lon="-1.24579">
        <time>2023-07-16T15:36:32.089+00:00</time>
      </trkpt>
      <trkpt lat="46.16965" lon="-1.24542">
        <time>2023-07-16T15:36:37.076+00:00</time>
      </trkpt>
      <trkpt lat="46.16981" lon="-1.24505">
        <time>2023-07-16T15:36:42.108+00:00</time>
      </trkpt>
      <trkpt lat="46.16997" lon="-1.24467">
        <time>2023-07-16T15:36:47.108+00:00</time>
      </trkpt>
      <trkpt lat="46.17012" lon="-1.24429">
        <time>2023-07-16T15:36:52.081+00:00</time>
      </trkpt>
      <trkpt lat="46.17027" lon="-1.24392">
        <time>2023-07-16T15:36:57.099+00:00</time>
      </trkpt>
      <trkpt lat="46.17041" lon="-1.24361">
        <time>2023-07-16T15:37:02.096+00:00</time>
      </trkpt>
      <trkpt lat="46.17053" lon="-1.2433">
        <time>2023-07-16T15:37:07.087+00:00</time>
      </trkpt>
      <trkpt lat="46.17062" lon="-1.24305">
        <time>2023-07-16T15:37:11.093+00:00</time>
      </trkpt>
      <trkpt lat="46.17074" lon="-1.24272">
        <time>2023-07-16T15:37:16.090+00:00</time>
      </trkpt>
      <trkpt lat="46.17085" lon="-1.2424">
        <time>2023-07-16T15:37:21.103+00:00</time>
      </trkpt>
      <trkpt lat="46.17097" lon="-1.24206">
        <time>2023-07-16T15:37:26.087+00:00</time>
      </trkpt>
      <trkpt lat="46.17108" lon="-1.24179">
        <time>2023-07-16T15:37:31.102+00:00</time>
      </trkpt>
      <trkpt lat="46.1712" lon="-1.24148">
        <time>2023-07-16T15:37:36.065+00:00</time>
      </trkpt>
      <trkpt lat="46.17131" lon="-1.2412">
        <time>2023-07-16T15:37:40.100+00:00</time>
      </trkpt>
      <trkpt lat="46.17144" lon="-1.24084">
        <time>2023-07-16T15:37:45.097+00:00</time>
      </trkpt>
      <trkpt lat="46.17155" lon="-1.24053">
        <time>2023-07-16T15:37:49.112+00:00</time>
      </trkpt>
      <trkpt lat="46.17166" lon="-1.24022">
        <time>2023-07-16T15:37:53.103+00:00</time>
      </trkpt>
      <trkpt lat="46.17179" lon="-1.23985">
        <time>2023-07-16T15:37:58.081+00:00</time>
      </trkpt>
      <trkpt lat="46.17188" lon="-1.23955">
        <time>2023-07-16T15:38:02.094+00:00</time>
      </trkpt>
      <trkpt lat="46.17202" lon="-1.23915">
        <time>2023-07-16T15:38:07.076+00:00</time>
      </trkpt>
      <trkpt lat="46.17215" lon="-1.23872">
        <time>2023-07-16T15:38:12.094+00:00</time>
      </trkpt>
      <trkpt lat="46.17229" lon="-1.23827">
        <time>2023-07-16T15:38:17.085+00:00</time>
      </trkpt>
      <trkpt lat="46.17241" lon="-1.23789">
        <time>2023-07-16T15:38:21.089+00:00</time>
      </trkpt>
      <trkpt lat="46.17253" lon="-1.23751">
        <time>2023-07-16T15:38:25.083+00:00</time>
      </trkpt>
      <trkpt lat="46.17269" lon="-1.23699">
        <time>2023-07-16T15:38:30.104+00:00</time>
      </trkpt>
      <trkpt lat="46.17284" lon="-1.23647">
        <time>2023-07-16T15:38:35.086+00:00</time>
      </trkpt>
      <trkpt lat="46.17298" lon="-1.23597">
        <time>2023-07-16T15:38:40.088+00:00</time>
      </trkpt>
      <trkpt lat="46.17312" lon="-1.23548">
        <time>2023-07-16T15:38:45.087+00:00</time>
      </trkpt>
      <trkpt lat="46.17323" lon="-1.23508">
        <time>2023-07-16T15:38:49.101+00:00</time>
      </trkpt>
      <trkpt lat="46.17337" lon="-1.23457">
        <time>2023-07-16T15:38:54.086+00:00</time>
      </trkpt>
      <trkpt lat="46.1735" lon="-1.23406">
        <time>2023-07-16T15:38:59.092+00:00</time>
      </trkpt>
      <trkpt lat="46.17364" lon="-1.23352">
        <time>2023-07-16T15:39:04.100+00:00</time>
      </trkpt>
      <trkpt lat="46.17377" lon="-1.23297">
        <time>2023-07-16T15:39:09.105+00:00</time>
      </trkpt>
      <trkpt lat="46.17386" lon="-1.23259">
        <time>2023-07-16T15:39:13.094+00:00</time>
      </trkpt>
      <trkpt lat="46.17398" lon="-1.2321">
        <time>2023-07-16T15:39:18.067+00:00</time>
      </trkpt>
      <trkpt lat="46.17406" lon="-1.23169">
        <time>2023-07-16T15:39:22.072+00:00</time>
      </trkpt>
      <trkpt lat="46.17417" lon="-1.23117">
        <time>2023-07-16T15:39:27.070+00:00</time>
      </trkpt>
      <trkpt lat="46.17428" lon="-1.23065">
        <time>2023-07-16T15:39:32.079+00:00</time>
      </trkpt>
      <trkpt lat="46.1744" lon="-1.23012">
        <time>2023-07-16T15:39:37.095+00:00</time>
      </trkpt>
      <trkpt lat="46.17451" lon="-1.22959">
        <time>2023-07-16T15:39:42.053+00:00</time>
      </trkpt>
      <trkpt lat="46.17458" lon="-1.22915">
        <time>2023-07-16T15:39:46.079+00:00</time>
      </trkpt>
      <trkpt lat="46.1747" lon="-1.22859">
        <time>2023-07-16T15:39:51.051+00:00</time>
      </trkpt>
      <trkpt lat="46.17478" lon="-1.22813">
        <time>2023-07-16T15:39:55.082+00:00</time>
      </trkpt>
      <trkpt lat="46.17488" lon="-1.22754">
        <time>2023-07-16T15:40:00.056+00:00</time>
      </trkpt>
      <trkpt lat="46.17498" lon="-1.22696">
        <time>2023-07-16T15:40:05.058+00:00</time>
      </trkpt>
      <trkpt lat="46.17506" lon="-1.22648">
        <time>2023-07-16T15:40:09.068+00:00</time>
      </trkpt>
      <trkpt lat="46.17516" lon="-1.22591">
        <time>2023-07-16T15:40:14.063+00:00</time>
      </trkpt>
      <trkpt lat="46.17525" lon="-1.22539">
        <time>2023-07-16T15:40:19.072+00:00</time>
      </trkpt>
      <trkpt lat="46.17533" lon="-1.22486">
        <time>2023-07-16T15:40:24.068+00:00</time>
      </trkpt>
      <trkpt lat="46.17541" lon="-1.22433">
        <time>2023-07-16T15:40:29.074+00:00</time>
      </trkpt>
      <trkpt lat="46.17547" lon="-1.22392">
        <time>2023-07-16T15:40:33.076+00:00</time>
      </trkpt>
      <trkpt lat="46.17554" lon="-1.22341">
        <time>2023-07-16T15:40:38.079+00:00</time>
      </trkpt>
      <trkpt lat="46.1756" lon="-1.22293">
        <ele>2</ele>
        <time>2023-07-16T15:40:43.070+00:00</time>
      </trkpt>
      <trkpt lat="46.17564" lon="-1.22256">
        <ele>6</ele>
        <time>2023-07-16T15:40:47.081+00:00</time>
      </trkpt>
      <trkpt lat="46.17581" lon="-1.22222">
        <ele>4</ele>
        <time>2023-07-16T15:41:10.076+00:00</time>
      </trkpt>
      <trkpt lat="46.17582" lon="-1.22234">
        <ele>4</ele>
        <time>2023-07-16T15:41:13.677+00:00</time>
      </trkpt>
      <trkpt lat="46.17582" lon="-1.22236">
        <ele>4</ele>
        <time>2023-07-16T15:41:18.945+00:00</time>
      </trkpt>
      <trkpt lat="46.17583" lon="-1.22236">
        <ele>4</ele>
        <time>2023-07-16T15:41:24.093+00:00</time>
      </trkpt>
      <trkpt lat="46.17583" lon="-1.22236">
        <ele>6.5</ele>
        <time>2023-07-16T15:41:28.974+00:00</time>
      </trkpt>
      <trkpt lat="46.17549" lon="-1.22211">
        <ele>9</ele>
        <time>2023-07-16T15:42:03.149+00:00</time>
      </trkpt>
      <trkpt lat="46.17555" lon="-1.2219">
        <ele>9</ele>
        <time>2023-07-16T15:42:07.656+00:00</time>
      </trkpt>
      <trkpt lat="46.17556" lon="-1.22156">
        <ele>8</ele>
        <time>2023-07-16T15:42:13.045+00:00</time>
      </trkpt>
      <trkpt lat="46.17552" lon="-1.22129">
        <ele>4</ele>
        <time>2023-07-16T15:42:17.054+00:00</time>
      </trkpt>
      <trkpt lat="46.17548" lon="-1.22093">
        <ele>1</ele>
        <time>2023-07-16T15:42:22.047+00:00</time>
      </trkpt>
      <trkpt lat="46.17542" lon="-1.22059">
        <ele>1</ele>
        <time>2023-07-16T15:42:27.049+00:00</time>
      </trkpt>
      <trkpt lat="46.17532" lon="-1.22026">
        <ele>1</ele>
        <time>2023-07-16T15:42:32.046+00:00</time>
      </trkpt>
      <trkpt lat="46.17522" lon="-1.2199">
        <ele>2</ele>
        <time>2023-07-16T15:42:37.062+00:00</time>
      </trkpt>
      <trkpt lat="46.17505" lon="-1.21961">
        <ele>2</ele>
        <time>2023-07-16T15:42:42.063+00:00</time>
      </trkpt>
      <trkpt lat="46.17486" lon="-1.21958">
        <ele>4</ele>
        <time>2023-07-16T15:42:47.058+00:00</time>
      </trkpt>
      <trkpt lat="46.17479" lon="-1.21957">
        <ele>4</ele>
        <time>2023-07-16T15:42:51.052+00:00</time>
      </trkpt>
      <trkpt lat="46.17476" lon="-1.21953">
        <ele>4</ele>
        <time>2023-07-16T15:42:56.050+00:00</time>
      </trkpt>
      <trkpt lat="46.1747" lon="-1.21952">
        <ele>4</ele>
        <time>2023-07-16T15:43:00.089+00:00</time>
      </trkpt>
      <trkpt lat="46.17456" lon="-1.21952">
        <ele>5</ele>
        <time>2023-07-16T15:43:04.094+00:00</time>
      </trkpt>
      <trkpt lat="46.17441" lon="-1.21954">
        <ele>5</ele>
        <time>2023-07-16T15:43:08.599+00:00</time>
      </trkpt>
      <trkpt lat="46.17426" lon="-1.21956">
        <ele>5</ele>
        <time>2023-07-16T15:43:13.105+00:00</time>
      </trkpt>
      <trkpt lat="46.17419" lon="-1.21957">
        <ele>5</ele>
        <time>2023-07-16T15:43:17.612+00:00</time>
      </trkpt>
      <trkpt lat="46.17415" lon="-1.21961">
        <ele>3</ele>
        <time>2023-07-16T15:45:25.056+00:00</time>
      </trkpt>
      <trkpt lat="46.17414" lon="-1.2196">
        <ele>3</ele>
        <time>2023-07-16T15:45:29.076+00:00</time>
      </trkpt>
      <trkpt lat="46.17414" lon="-1.21958">
        <ele>5</ele>
        <time>2023-07-16T15:45:34.019+00:00</time>
      </trkpt>
      <trkpt lat="46.17414" lon="-1.21953">
        <ele>5</ele>
        <time>2023-07-16T15:45:38.041+00:00</time>
      </trkpt>
      <trkpt lat="46.17415" lon="-1.21941">
        <ele>5</ele>
        <time>2023-07-16T15:45:42.218+00:00</time>
      </trkpt>
      <trkpt lat="46.17419" lon="-1.21932">
        <ele>5</ele>
        <time>2023-07-16T15:45:46.740+00:00</time>
      </trkpt>
      <trkpt lat="46.17422" lon="-1.21925">
        <ele>5</ele>
        <time>2023-07-16T15:45:50.621+00:00</time>
      </trkpt>
      <trkpt lat="46.17422" lon="-1.21918">
        <ele>5</ele>
        <time>2023-07-16T15:45:54.814+00:00</time>
      </trkpt>
      <trkpt lat="46.17424" lon="-1.21911">
        <ele>5</ele>
        <time>2023-07-16T15:45:59.008+00:00</time>
      </trkpt>
      <trkpt lat="46.17428" lon="-1.21907">
        <ele>5</ele>
        <time>2023-07-16T15:46:03.442+00:00</time>
      </trkpt>
      <trkpt lat="46.17433" lon="-1.21905">
        <ele>6</ele>
        <time>2023-07-16T15:46:07.855+00:00</time>
      </trkpt>
      <trkpt lat="46.17435" lon="-1.21897">
        <ele>7</ele>
        <time>2023-07-16T15:46:12.030+00:00</time>
      </trkpt>
      <trkpt lat="46.17436" lon="-1.21896">
        <ele>7</ele>
        <time>2023-07-16T15:46:14.293+00:00</time>
      </trkpt>
    </trkseg>
  </trk>
</gpx>